GFSSE_sfc_wetblb_000.txt.gz
Wetbulb
73.02 75.31 75.40 75.95 76.51 76.72 76.71 77.31 78.17 78.43 78.58 78.84 78.61 78.74 78.25 78.35 78.18 78.17 77.98 78.05 77.57 77.31 77.22 77.34 76.96 76.52 76.44 76.40 76.28 76.24 75.71 75.84 75.33 75.84 75.62 75.67 75.09 74.97 74.44 74.05 74.67 73.71 74.74
74.98 75.37 75.64 76.87 76.41 76.54 76.88 77.27 77.89 78.47 78.36 78.24 78.61 77.95 78.02 77.87 77.94 78.01 77.91 77.92 77.52 77.23 77.48 77.31 76.93 76.63 76.44 75.97 75.64 75.74 75.25 75.24 75.12 75.73 75.39 74.95 74.78 75.22 74.62 73.48 74.00 75.09 74.38
74.85 76.02 75.93 76.22 76.34 76.69 76.55 77.17 77.86 78.31 78.17 78.50 78.01 77.33 77.05 77.56 77.90 78.15 78.21 77.81 77.65 77.54 77.35 77.07 76.83 76.63 76.33 76.19 75.94 75.47 75.19 75.02 74.20 74.66 74.64 74.92 74.41 74.14 74.54 74.15 74.17 74.13 74.37
75.06 75.82 75.72 76.36 76.91 76.35 76.49 77.19 77.36 77.55 77.20 77.67 77.19 76.96 77.07 77.43 77.63 78.04 77.71 77.48 77.48 77.35 76.80 76.86 76.66 76.47 76.28 76.24 75.96 75.49 75.25 74.78 74.48 73.62 76.00 74.02 74.26 75.45 75.28 75.19 75.12 74.44 74.82
75.52 75.41 76.47 76.49 76.67 76.63 76.44 77.11 77.90 77.65 77.50 77.81 77.09 76.96 76.83 77.03 77.80 77.69 77.25 77.08 77.02 76.91 76.80 76.56 76.19 76.25 76.27 76.24 76.31 75.95 75.19 74.61 74.11 75.02 76.10 75.57 75.63 75.77 74.68 74.84 75.16 74.52 74.14
75.67 76.26 75.43 75.97 76.63 76.64 77.12 77.27 77.40 77.70 77.67 77.66 77.23 77.05 77.31 77.55 77.31 77.00 77.03 77.08 76.86 76.56 76.58 76.28 76.11 76.17 76.08 76.44 76.71 76.25 75.86 75.05 74.77 76.26 76.88 75.36 75.68 75.54 74.80 74.33 74.17 74.53 74.45
75.92 76.98 76.57 77.14 77.29 77.03 77.25 77.65 78.27 77.56 77.58 77.63 77.75 77.35 77.61 77.11 76.92 76.89 77.17 76.84 76.45 76.00 75.97 75.75 76.00 76.31 76.39 76.62 76.58 75.95 76.11 75.28 76.22 75.90 76.53 76.94 76.39 74.96 74.42 74.64 73.35 73.70 74.53
76.24 76.23 77.59 77.30 77.81 77.73 77.88 78.03 78.38 77.94 77.94 78.01 77.70 77.64 77.31 76.97 76.72 76.81 76.47 76.16 75.88 75.68 75.63 75.78 76.30 76.30 76.33 76.49 76.51 75.69 75.84 76.01 76.24 76.15 76.25 75.96 75.66 75.88 75.18 75.18 74.35 74.29 74.44
76.61 76.01 77.38 77.63 78.42 78.17 78.39 78.22 78.37 78.03 77.73 77.47 77.55 77.77 77.28 77.03 76.64 76.89 76.30 75.92 75.96 76.13 76.72 76.89 76.36 75.67 76.11 75.82 75.77 75.94 75.44 75.17 77.21 76.63 76.59 75.70 75.39 76.00 76.18 75.42 75.08 74.92 74.58
76.79 77.36 77.57 78.32 78.28 78.44 78.34 78.32 78.19 77.69 76.97 77.20 77.42 77.25 77.31 77.03 76.55 76.21 76.86 76.28 76.08 76.22 76.33 76.64 75.92 75.74 75.86 75.68 75.57 75.60 75.05 76.30 75.86 76.86 76.38 76.26 75.47 76.13 76.06 75.97 74.73 73.97 74.63
75.86 76.83 77.55 77.73 78.28 78.69 77.88 77.67 77.65 77.20 77.20 77.17 77.47 77.36 77.18 77.69 78.08 76.46 76.44 76.19 76.36 75.91 75.75 75.94 75.88 75.84 75.09 75.14 74.86 74.92 75.59 75.90 75.81 75.95 76.90 75.34 74.49 75.21 76.04 76.21 75.52 74.90 74.82
74.79 75.93 76.61 77.51 77.48 77.86 77.10 78.37 78.35 77.25 76.73 76.65 76.54 77.18 76.58 78.25 78.75 76.50 77.18 75.72 75.83 75.72 75.56 75.76 75.07 75.06 76.41 75.68 75.46 75.70 74.84 75.30 75.95 76.57 76.71 75.15 74.48 74.98 75.57 75.91 75.19 76.05 74.55
75.31 75.98 76.51 77.01 78.02 77.73 77.85 77.27 77.38 76.81 76.76 76.94 77.96 77.88 77.21 77.37 78.19 78.83 78.36 77.66 77.47 75.42 77.44 77.77 77.24 76.51 75.89 75.41 75.00 74.48 74.49 74.68 74.56 75.95 77.40 74.26 74.22 75.05 75.11 75.68 75.46 75.71 74.61
74.63 75.31 76.36 77.20 77.45 77.74 80.00 77.07 77.12 76.54 76.65 76.28 76.65 77.95 77.33 76.51 77.04 78.20 78.06 78.71 77.99 78.03 77.14 77.52 76.44 76.33 75.80 75.33 75.06 74.68 73.94 73.83 73.68 74.11 75.91 74.77 74.19 75.04 75.70 75.54 75.16 75.61 74.67
74.03 75.15 75.97 77.15 77.66 78.00 78.12 76.83 76.79 76.52 76.17 76.28 76.21 77.42 76.89 76.02 78.36 77.55 78.03 77.49 76.62 78.00 77.84 76.41 76.25 75.89 75.33 74.79 74.65 73.66 72.64 72.76 73.32 73.15 73.84 74.97 73.44 74.34 75.44 75.74 75.31 75.49 75.25
74.29 74.95 76.28 76.75 77.76 77.97 77.77 77.91 76.98 76.89 76.77 76.51 76.17 76.28 77.58 76.70 78.84 76.27 76.44 76.19 76.43 77.77 77.37 76.58 76.03 75.24 74.76 74.03 72.76 72.74 72.40 72.08 72.65 73.39 73.04 74.49 73.94 73.52 74.49 75.31 75.99 75.57 75.41
74.75 75.37 76.19 77.12 77.74 78.20 78.34 77.93 77.74 77.12 76.77 76.28 76.31 77.71 77.68 78.19 77.55 76.82 76.44 75.43 76.00 78.06 76.81 76.15 76.06 75.80 73.82 73.42 72.37 71.95 72.46 72.60 72.20 72.64 73.05 72.84 74.63 75.04 74.64 74.66 76.57 76.63 75.62
75.19 75.49 76.45 76.47 77.24 77.96 78.10 77.80 77.25 76.87 76.88 76.84 76.55 77.33 78.24 77.97 78.07 77.30 76.44 75.59 76.22 75.93 75.83 75.39 74.79 73.31 72.70 72.16 71.19 71.65 72.01 71.87 72.07 72.25 72.98 73.20 72.88 72.28 75.86 75.26 74.89 76.63 76.46
75.74 76.26 76.38 76.69 76.51 77.14 78.02 77.77 77.71 78.02 78.74 79.26 79.17 77.17 77.83 77.88 77.51 77.14 75.86 75.98 76.90 75.30 76.14 74.58 73.70 73.18 71.23 70.73 70.41 70.52 71.98 71.66 72.28 71.75 73.14 74.32 74.06 73.80 72.50 75.53 74.08 74.15 75.36
76.15 76.89 77.26 76.80 77.33 77.98 79.62 79.29 77.89 77.69 77.13 77.00 77.01 78.21 78.34 78.63 77.37 77.39 76.50 76.16 75.88 75.83 74.25 74.53 73.41 72.62 71.82 70.54 69.40 69.49 72.04 72.90 72.72 72.07 71.61 71.28 71.43 73.31 74.01 75.67 75.55 75.41 74.43
76.29 76.84 77.40 77.15 77.84 78.15 77.18 75.17 75.43 74.82 75.98 77.07 76.91 78.53 78.38 77.96 77.86 77.48 75.89 76.08 76.05 75.02 74.53 73.66 71.94 71.39 69.16 72.41 68.48 69.51 70.10 71.67 71.24 72.18 70.68 67.89 68.51 69.66 71.65 73.79 74.48 74.82 75.33
75.80 76.88 77.59 77.80 78.21 78.05 76.97 77.73 77.27 77.60 76.13 76.63 77.40 77.95 78.25 77.93 78.03 77.11 76.92 76.07 76.34 74.02 74.04 72.26 71.65 69.42 70.16 71.54 67.99 67.41 65.05 67.63 69.98 70.29 69.41 66.27 66.42 67.22 68.61 70.68 72.09 73.29 73.69
75.27 76.59 77.59 78.33 78.63 78.65 79.08 77.72 77.68 77.53 77.86 76.27 76.69 77.04 77.96 78.38 78.38 78.07 77.40 76.51 75.56 72.81 69.90 72.20 71.31 69.88 67.37 71.57 70.87 67.38 63.89 63.59 65.79 68.71 69.01 67.07 66.54 65.64 67.19 68.42 69.46 69.90 69.90
75.05 76.76 78.03 78.73 79.14 79.14 79.57 78.54 78.96 75.58 74.18 74.67 75.79 75.71 77.27 78.60 78.11 77.61 77.36 76.13 73.55 71.69 72.51 71.59 71.97 70.37 70.28 68.14 69.90 70.39 70.17 68.76 63.76 63.89 66.78 66.48 68.17 66.29 66.10 66.31 67.66 68.02 68.79
75.31 75.98 77.34 78.77 79.71 79.98 79.63 79.78 77.83 77.13 75.55 75.24 75.35 76.90 77.40 77.83 78.04 76.40 77.28 74.53 73.12 71.49 72.47 72.57 71.61 70.91 70.73 68.39 67.96 69.06 69.70 68.41 68.86 63.96 60.86 63.95 66.68 67.13 67.27 67.48 66.48 67.18 67.90
74.99 75.59 76.47 78.44 79.78 79.74 79.50 79.26 78.76 77.69 76.88 74.74 75.74 74.44 73.75 74.40 75.73 76.63 76.74 74.57 73.10 71.67 72.22 71.65 71.35 71.02 70.36 69.91 69.18 69.09 66.53 65.35 65.31 64.05 61.95 63.07 63.15 65.51 67.37 66.51 66.60 65.82 66.57

GFSSE_sfc_wetblb_003.txt.gz
Wetbulb
73.36 74.40 75.52 76.33 77.15 77.68 77.94 78.18 78.45 78.75 78.91 79.13 78.97 79.07 78.92 78.80 78.69 78.58 78.83 78.29 77.71 77.87 77.20 76.95 76.57 76.40 76.07 76.31 76.21 75.84 75.70 75.31 75.64 75.07 75.50 75.31 75.44 75.08 74.24 73.78 73.49 73.55 75.02
74.38 74.75 76.28 76.64 76.65 77.75 77.75 78.06 78.07 78.35 78.93 78.85 78.81 78.79 78.95 78.75 78.42 79.14 78.62 77.50 77.55 77.45 77.31 77.17 76.90 76.54 76.26 75.96 75.93 75.54 75.62 75.34 75.10 74.80 74.94 75.07 75.51 74.95 73.94 73.45 74.63 74.17 74.68
73.77 74.81 75.46 76.64 77.00 77.51 78.37 78.48 78.16 78.20 77.89 78.40 78.25 78.61 78.20 78.29 79.11 78.61 77.75 77.68 77.51 77.46 77.15 76.93 76.71 76.52 76.26 76.04 75.63 75.35 75.24 74.82 74.00 73.84 74.73 74.13 73.73 74.58 74.22 74.69 74.82 74.97 74.78
74.28 74.94 75.68 77.46 76.75 76.89 77.55 77.60 77.76 77.44 77.45 77.65 77.84 77.78 77.78 77.92 78.11 77.76 77.37 77.29 77.24 77.12 76.85 76.55 76.52 76.38 76.40 76.26 75.65 75.41 74.71 74.30 74.00 74.99 75.13 74.17 74.30 75.23 75.26 75.35 74.34 75.11 74.69
74.16 75.32 76.33 77.00 76.86 77.18 77.48 77.98 78.12 77.93 77.39 77.31 77.28 77.10 77.02 77.58 77.74 77.13 76.99 77.05 76.96 76.85 76.49 76.41 76.43 76.35 76.38 76.62 76.41 75.54 74.46 73.88 74.07 74.84 75.30 75.08 73.58 75.64 75.35 75.30 74.27 75.15 74.22
75.68 75.84 76.38 77.02 77.11 77.34 78.01 78.61 78.18 77.84 77.92 77.64 77.04 76.91 77.30 77.52 77.13 76.79 76.94 76.91 76.69 76.80 76.41 76.35 76.30 76.24 76.05 76.32 76.08 75.78 75.40 74.85 75.10 75.32 76.12 74.23 75.41 76.03 75.26 74.91 75.21 75.29 74.81
75.81 75.98 76.49 77.93 77.80 77.65 77.82 77.96 78.09 77.80 77.65 77.58 77.35 77.16 77.27 77.16 76.93 77.16 77.16 76.62 76.23 76.21 75.99 75.99 76.21 76.32 76.18 76.01 76.30 75.88 75.85 75.35 75.84 76.36 75.99 75.46 75.07 75.85 74.60 75.62 74.41 75.04 74.78
74.94 75.62 76.64 77.48 77.59 77.78 78.01 78.04 77.72 77.67 77.64 77.82 77.51 77.32 77.16 76.85 76.76 76.93 76.42 76.08 75.91 75.79 75.89 76.14 75.76 75.63 75.91 75.82 75.84 75.67 75.75 75.89 75.67 76.31 76.11 76.08 76.20 75.68 75.59 76.23 74.19 73.96 75.11
76.48 75.79 77.48 77.47 78.11 78.23 78.45 77.81 78.03 77.75 77.72 77.48 77.57 77.44 77.10 76.63 76.39 76.57 75.96 75.20 75.57 76.20 76.35 76.32 75.85 75.44 75.74 75.62 75.66 75.83 76.08 76.10 77.09 76.32 75.23 76.52 76.56 76.59 76.16 75.66 75.48 75.07 74.82
76.38 75.97 76.38 77.36 77.79 78.08 78.11 78.18 77.99 77.74 77.27 77.10 77.44 77.24 76.74 76.78 76.79 75.96 75.88 75.94 75.75 75.47 75.84 75.82 75.52 75.29 75.15 75.48 75.03 74.73 75.68 75.99 76.47 75.88 76.17 75.57 76.04 76.47 76.27 75.42 75.13 75.09 74.97
74.95 76.71 76.81 77.04 77.87 78.77 78.65 78.60 78.30 77.30 76.42 76.91 77.23 77.02 77.08 76.17 76.49 77.49 77.59 75.97 75.95 75.92 75.51 75.66 75.52 75.73 75.63 75.68 75.46 74.74 76.05 74.85 74.95 75.39 75.79 75.78 75.03 75.44 76.25 76.34 74.98 74.47 75.17
74.55 75.24 76.33 76.71 77.16 77.62 76.38 78.30 77.67 76.38 76.16 76.30 76.31 76.56 76.74 77.66 78.08 76.60 77.10 76.82 76.12 76.24 75.98 76.27 76.16 76.21 76.62 75.56 75.53 76.71 74.46 74.70 74.88 74.38 75.38 75.66 74.77 74.75 75.22 76.11 75.82 75.16 75.10
74.58 75.32 76.10 76.97 77.80 77.82 76.58 76.90 76.80 76.61 76.66 76.43 77.49 77.72 77.06 76.87 77.00 76.02 76.45 77.10 77.79 76.53 76.50 75.98 75.88 75.42 75.51 75.08 74.70 74.51 74.16 73.93 73.56 73.82 75.43 75.25 73.95 74.86 74.93 75.08 75.68 75.79 75.52
74.65 75.02 76.28 77.70 77.93 77.75 77.83 76.79 76.69 76.00 75.98 75.87 76.74 78.14 77.44 76.57 78.05 76.87 76.04 77.18 77.41 75.65 76.42 76.77 75.83 75.68 75.70 75.78 74.93 74.30 73.21 72.51 72.07 72.39 75.54 75.43 74.38 74.09 75.66 75.32 75.63 75.61 75.23
74.19 75.18 76.03 77.17 77.69 78.25 78.50 76.41 76.40 76.04 75.60 75.96 76.26 77.49 77.06 75.95 77.99 78.17 76.97 76.33 76.90 77.83 76.12 75.96 75.84 75.32 75.18 75.08 74.22 73.15 72.52 71.66 71.27 71.01 72.35 75.61 74.57 74.19 74.95 76.10 75.47 75.39 75.54
74.52 74.96 75.92 76.83 77.70 77.73 78.11 78.62 77.24 76.68 77.25 76.00 75.98 76.34 77.78 77.15 76.91 76.93 78.55 76.45 75.82 76.70 76.87 75.34 75.95 75.13 75.02 74.49 72.89 72.97 72.34 72.09 72.20 72.08 71.75 74.33 75.66 74.58 74.32 75.57 75.96 75.65 75.54
74.72 75.59 75.73 76.35 77.63 77.85 78.26 78.12 76.91 76.60 76.09 76.05 75.73 77.40 77.33 77.79 77.68 77.83 77.56 76.42 76.02 76.74 77.10 76.14 75.47 74.99 74.06 71.85 71.77 71.60 71.87 72.03 71.46 72.13 71.88 71.47 74.66 75.62 74.70 75.04 76.42 76.13 75.96
74.96 75.26 76.05 76.22 76.64 77.63 78.03 78.15 77.48 76.72 77.24 76.46 76.46 76.54 77.92 78.16 78.37 78.27 76.18 75.60 76.79 76.21 77.09 75.41 73.36 72.18 71.22 70.60 70.42 70.88 71.06 71.51 71.71 71.82 72.14 71.76 71.29 71.80 75.90 76.15 75.23 76.67 75.33
75.29 75.62 75.96 76.88 76.61 77.44 79.45 78.51 77.77 79.17 77.48 78.06 77.91 78.37 78.65 78.53 78.78 77.73 76.29 76.59 77.65 76.10 75.54 74.56 73.88 73.30 70.00 69.96 69.89 70.11 71.67 71.12 71.05 70.96 71.05 71.90 72.88 72.73 71.99 75.87 75.74 75.28 75.46
75.16 76.05 76.55 76.63 78.05 78.56 80.73 80.28 78.78 76.74 77.00 77.50 77.24 77.42 78.63 77.98 78.40 77.92 76.62 76.80 76.52 76.71 74.42 73.26 73.57 71.52 70.59 70.20 68.89 68.28 70.66 71.64 71.24 70.09 69.92 69.63 71.17 72.13 73.32 74.05 75.13 75.00 75.54
75.00 75.77 77.01 77.40 79.76 77.81 76.39 76.63 76.17 74.82 76.28 76.35 76.52 78.98 79.03 78.36 78.45 77.85 76.65 77.12 75.94 75.63 74.95 73.34 71.65 71.19 69.44 70.91 67.76 68.76 69.85 70.68 70.44 70.41 68.50 67.97 68.07 68.93 71.17 72.58 73.25 74.60 75.07
74.68 76.01 77.95 78.40 79.88 78.97 77.12 77.81 77.73 76.49 75.61 75.95 76.31 78.77 78.43 78.14 78.59 77.48 78.32 76.32 76.36 74.91 74.71 72.97 71.65 68.97 69.28 70.58 67.52 66.63 65.57 68.04 68.98 69.51 68.72 66.88 66.71 67.34 68.85 70.83 72.16 72.92 73.58
74.76 76.42 78.34 79.96 80.50 80.07 80.25 78.34 79.11 79.11 77.27 76.84 76.20 76.55 77.77 78.34 78.50 78.32 77.47 77.23 77.08 74.56 69.01 72.65 71.18 69.83 67.07 70.74 71.00 67.37 63.90 63.99 66.55 69.29 69.28 67.41 67.14 66.12 67.20 68.66 69.38 69.43 70.13
74.98 76.42 78.99 80.45 80.80 80.77 80.89 78.67 79.15 75.59 73.32 73.59 75.01 75.45 77.11 78.55 78.11 78.11 77.76 76.74 76.49 72.12 73.66 71.69 71.03 70.56 70.35 68.27 69.24 69.10 69.38 68.50 64.28 63.51 68.26 67.35 67.01 66.32 66.38 66.15 66.85 68.12 68.14
75.08 75.69 77.70 80.82 81.28 81.40 80.56 79.93 77.06 76.88 74.85 75.30 74.39 79.26 78.43 79.34 77.40 76.42 76.29 76.75 74.85 71.25 72.80 72.22 71.16 71.31 71.03 68.69 67.99 67.54 69.41 66.97 67.46 63.85 61.21 64.20 66.03 66.46 66.86 66.03 65.91 65.71 66.99
74.91 75.53 77.35 80.38 81.18 81.82 80.96 79.88 79.74 79.00 77.53 74.88 75.66 75.12 74.99 74.67 75.96 76.30 75.57 76.55 74.72 71.82 72.02 71.71 71.63 71.42 70.95 70.48 69.21 69.40 66.90 64.92 64.92 63.95 62.08 63.49 63.11 65.40 66.37 67.11 66.57 66.84 65.94

GFSSE_sfc_wetblb_006.txt.gz
Wetbulb
72.00 73.37 75.64 76.13 76.24 76.90 78.18 78.71 78.64 78.96 79.08 78.92 79.13 79.13 79.10 78.99 79.07 78.68 78.46 78.53 78.46 78.12 77.94 77.30 76.62 76.24 76.30 76.35 76.01 75.93 75.72 75.67 75.22 75.30 74.99 75.21 75.29 74.75 74.36 73.23 73.61 73.28 74.65
73.49 74.59 76.98 77.26 77.06 78.02 78.43 78.42 78.85 78.90 78.95 78.84 79.15 79.09 79.03 79.11 79.19 78.71 78.54 78.50 78.45 78.25 77.96 77.23 76.60 76.41 76.13 75.97 75.74 75.74 75.49 74.47 75.06 74.98 74.24 75.23 74.89 74.61 74.20 74.50 75.84 74.23 74.70
73.05 73.94 75.30 77.44 77.85 77.94 78.30 78.38 78.84 78.71 78.72 78.95 78.87 79.14 79.17 79.19 78.87 78.73 78.63 78.45 78.26 78.03 77.08 76.91 76.66 76.66 76.27 75.67 75.47 75.33 74.92 74.20 73.78 73.61 73.58 74.14 73.06 74.59 75.17 74.70 75.07 75.26 74.76
73.48 73.90 74.53 77.40 78.22 78.20 78.30 78.31 78.45 78.26 78.33 78.57 78.66 78.78 79.11 79.09 78.63 78.32 77.68 77.43 77.32 77.40 76.92 76.58 76.69 76.47 76.75 76.02 75.22 74.87 74.50 74.20 74.50 74.36 75.00 73.14 72.34 74.95 75.51 74.64 75.08 74.93 74.58
73.49 74.78 75.15 77.89 77.90 78.37 78.32 78.42 78.28 78.16 78.08 78.34 78.46 78.38 78.82 78.68 78.45 78.07 77.33 77.00 76.86 76.77 76.75 76.64 76.64 76.28 76.31 76.55 75.69 75.25 74.11 73.77 74.75 75.44 74.26 73.72 72.88 74.73 75.37 74.79 75.10 74.71 75.52
74.99 75.02 76.55 77.81 77.59 78.18 78.40 78.65 78.25 78.29 78.30 78.36 78.23 78.43 78.59 78.21 77.61 77.23 77.00 76.47 76.36 76.45 76.50 76.70 76.64 76.61 76.25 76.55 75.99 75.82 75.05 74.89 75.47 74.10 75.44 75.33 73.15 75.53 75.70 75.62 75.66 74.87 74.83
73.96 75.04 75.49 78.14 78.22 78.20 78.32 78.54 77.84 77.78 78.01 78.34 78.23 78.21 78.00 77.64 77.17 77.14 76.61 76.21 76.21 76.47 76.30 76.53 76.19 76.14 75.97 76.14 75.85 75.79 75.90 75.61 75.41 75.06 74.89 74.30 74.34 76.24 75.61 75.18 75.25 75.00 75.20
73.65 74.90 75.45 77.81 78.16 78.24 78.60 78.82 78.52 78.18 77.92 78.16 77.93 77.58 77.45 77.11 77.14 76.89 76.18 76.05 75.91 76.37 76.66 76.83 75.83 75.81 75.72 75.28 75.36 75.98 76.04 76.22 75.62 75.27 75.47 74.18 75.70 76.30 76.27 74.26 74.82 75.36 75.15
75.10 75.16 75.52 75.96 77.36 78.17 78.58 78.66 78.57 77.86 77.86 77.62 77.36 77.42 77.14 76.75 76.86 76.97 76.26 75.53 75.97 76.26 76.33 76.33 75.30 75.09 75.25 75.14 75.57 76.02 76.24 76.72 75.83 74.03 74.77 74.90 76.74 76.45 76.17 75.07 74.39 75.01 75.21
74.48 75.39 76.52 76.63 76.38 76.95 76.78 78.80 77.76 77.65 77.33 77.47 77.42 77.17 77.09 76.71 77.02 77.44 77.24 77.17 75.96 75.25 75.60 75.89 75.14 75.03 74.75 75.22 75.75 75.53 75.86 76.58 75.14 73.19 73.41 74.44 76.16 76.59 76.01 75.35 75.79 75.24 74.92
74.35 74.88 75.70 75.78 76.94 77.99 77.31 77.14 78.02 77.62 77.09 77.34 76.92 77.34 77.42 75.28 75.58 76.67 78.06 77.67 76.38 76.60 75.94 75.94 75.78 75.61 75.53 76.13 76.54 77.00 77.09 74.33 74.19 74.54 74.38 75.69 76.61 76.28 76.26 75.42 74.79 75.29 75.26
72.44 74.66 74.39 75.11 76.73 76.93 75.97 77.76 77.92 76.29 75.21 76.02 76.06 76.75 76.08 74.00 76.82 77.32 77.95 76.86 77.50 77.34 75.75 76.47 76.56 75.92 77.03 75.86 75.18 76.42 73.94 73.85 74.00 74.99 74.23 76.11 76.32 75.68 74.94 72.63 75.39 75.03 75.28
73.70 74.25 74.95 76.21 77.55 77.15 76.59 76.90 76.31 75.99 76.05 76.30 78.99 77.26 78.12 76.66 74.99 73.42 74.45 72.93 75.98 75.64 74.55 75.53 76.10 75.24 76.30 74.75 74.14 73.46 73.03 72.93 71.91 74.44 74.33 75.87 75.29 75.44 75.56 74.47 75.28 74.77 74.98
74.11 75.34 76.45 77.00 77.88 77.55 77.37 76.75 77.32 76.25 75.91 76.17 76.75 79.42 79.89 78.33 77.28 73.31 73.63 73.19 74.82 73.97 74.20 75.53 74.91 74.87 74.41 75.70 72.41 72.58 72.72 71.24 70.26 71.01 74.97 75.76 75.18 74.82 75.56 75.40 74.40 73.90 75.29
72.76 75.36 75.80 77.13 78.39 78.71 78.72 76.65 76.46 76.63 76.25 75.10 77.46 78.20 77.41 78.09 76.13 73.63 78.05 78.23 78.18 77.05 75.76 76.54 75.13 74.78 75.97 75.43 73.51 73.25 71.88 71.78 71.57 70.51 73.09 76.55 75.44 74.37 75.12 75.56 75.35 71.94 74.19
73.75 74.30 75.98 77.15 78.45 77.36 78.65 81.16 79.41 79.47 75.30 78.28 74.86 77.83 79.37 79.44 78.98 74.12 77.69 75.75 76.16 75.78 77.91 76.13 76.57 75.91 74.32 73.70 74.33 72.22 72.10 72.34 72.14 72.31 71.23 75.01 76.20 75.73 74.91 75.08 76.05 75.30 75.31
74.38 75.37 76.20 76.85 77.32 77.66 79.30 79.64 80.02 77.15 76.25 76.24 76.41 76.51 78.81 79.44 79.38 79.88 78.10 77.98 76.77 76.54 78.12 76.18 76.47 73.58 71.44 72.14 72.24 72.31 72.00 71.80 72.12 71.32 71.44 71.22 74.66 76.44 75.98 75.86 75.74 76.43 75.93
74.62 75.58 76.50 75.05 76.81 77.04 77.59 78.16 77.78 76.70 77.48 77.67 78.98 74.84 78.46 79.71 80.23 80.21 77.29 74.48 72.48 76.83 76.66 74.25 73.93 74.04 70.84 70.99 70.50 71.82 71.58 71.70 71.42 71.57 71.44 70.41 71.93 73.08 75.84 76.31 76.21 75.84 75.85
75.52 76.40 76.21 77.18 76.65 77.45 77.76 78.12 77.95 77.44 77.40 77.12 79.10 77.99 76.83 75.11 78.96 78.03 77.17 74.99 76.55 75.98 76.47 73.53 70.75 73.12 70.20 70.87 69.49 70.37 70.85 71.17 70.73 70.11 70.45 70.84 71.85 72.68 73.53 75.71 76.10 76.16 75.51
75.30 76.61 76.77 76.59 79.00 77.73 78.22 78.53 77.90 77.56 76.03 77.12 76.99 77.73 76.24 77.67 78.88 78.50 77.31 76.87 78.39 77.91 74.52 75.04 73.38 73.07 71.34 70.18 69.65 68.17 70.57 71.01 71.07 69.33 69.49 69.76 70.16 71.39 71.73 73.41 73.84 74.00 75.08
75.12 76.08 76.19 76.53 78.23 78.85 77.48 75.69 75.83 75.11 76.93 76.61 77.06 76.83 77.59 79.44 79.01 78.89 77.28 77.30 75.28 77.23 72.04 73.08 73.04 71.07 70.64 71.36 69.22 67.92 69.56 70.17 70.27 69.93 68.08 67.00 67.92 68.85 70.60 71.41 72.44 73.66 73.42
74.11 75.08 76.76 76.84 78.50 78.06 77.81 77.38 77.09 76.14 75.71 75.98 76.90 77.69 78.51 78.01 79.16 76.60 77.52 76.30 75.19 74.65 74.67 73.48 72.49 70.10 70.00 71.64 67.78 67.90 64.64 67.86 67.51 69.09 67.70 65.55 66.46 67.20 68.18 70.14 71.22 71.48 72.68
73.79 75.26 76.06 77.39 77.88 77.89 78.23 77.97 78.31 78.11 76.28 75.69 76.91 76.81 78.15 78.82 78.59 75.59 77.12 77.75 77.02 75.75 72.95 73.61 72.43 71.09 68.24 72.12 70.71 67.90 64.70 64.10 66.51 69.22 68.66 66.19 66.97 65.55 66.85 68.77 68.43 68.76 68.19
73.89 75.73 77.07 77.87 78.18 78.80 77.86 77.42 76.29 74.56 74.47 76.05 76.89 76.20 77.58 78.74 78.49 78.46 78.46 78.17 77.18 74.46 74.52 73.13 72.45 70.98 71.52 68.21 70.74 69.88 69.32 67.73 64.03 63.23 68.37 65.97 66.25 64.99 65.44 65.23 66.11 67.53 66.69
74.76 75.58 76.72 78.21 78.41 78.56 78.42 77.95 76.77 76.28 75.25 75.64 75.13 79.15 77.64 78.71 77.78 76.89 77.61 77.46 76.06 74.40 74.64 72.66 71.89 71.20 71.99 69.93 68.68 69.21 69.81 68.44 67.18 63.76 61.71 63.24 65.72 65.85 66.30 65.41 64.89 64.84 66.76
74.70 76.00 76.14 78.20 78.40 78.95 78.86 77.92 77.88 75.56 75.75 74.33 76.25 76.11 75.92 76.17 77.20 78.17 76.87 76.51 75.95 74.00 73.80 72.86 72.99 73.04 71.70 71.43 70.05 70.03 68.15 66.83 64.03 65.56 62.64 62.80 63.35 65.71 65.08 66.07 66.28 66.61 65.90

GFSSE_sfc_wetblb_009.txt.gz
Wetbulb
71.42 73.04 75.31 75.63 76.39 77.30 77.23 79.13 79.11 79.04 79.14 79.35 79.27 79.24 79.16 78.54 78.70 78.75 78.74 78.42 78.07 77.88 77.07 76.66 76.39 76.28 76.16 76.03 75.86 75.60 76.00 75.47 75.93 75.47 75.41 75.09 74.48 74.40 74.27 74.38 74.95 72.98 74.51
71.65 73.45 76.12 76.49 76.98 78.10 78.54 79.06 79.02 78.85 79.30 79.37 79.14 79.18 79.02 78.60 78.31 78.66 78.65 78.10 77.97 78.03 76.94 76.75 76.39 76.26 76.09 75.87 75.51 75.51 75.14 75.46 75.59 74.70 74.93 74.91 74.57 74.46 74.48 74.68 75.34 73.33 74.44
72.46 74.14 75.06 77.18 77.69 78.12 78.30 78.94 78.72 79.13 79.13 79.24 79.23 79.25 79.14 78.42 78.46 78.69 77.93 78.02 77.90 77.81 76.98 76.70 76.73 76.40 75.82 75.43 74.93 74.30 74.85 74.76 74.24 74.77 74.80 72.55 72.56 75.15 74.91 75.29 75.50 75.49 74.90
72.84 73.29 74.95 77.33 77.94 78.38 78.44 78.80 78.58 78.46 78.17 78.99 78.99 79.20 78.93 78.47 78.58 78.18 77.41 77.32 77.46 77.44 76.76 76.46 76.35 76.73 76.15 75.57 74.88 74.52 74.55 74.05 74.24 74.27 73.38 72.70 72.53 74.96 75.14 75.62 75.26 75.05 74.06
72.10 73.13 75.08 78.17 78.05 78.51 78.66 78.56 78.52 78.58 78.42 78.78 78.90 79.00 78.83 78.33 78.02 77.44 77.25 77.03 76.97 76.89 76.65 76.40 76.41 76.35 76.34 75.81 75.32 75.15 75.21 74.91 74.66 74.39 72.65 70.89 70.55 74.33 75.20 75.34 74.90 75.11 75.13
72.54 74.10 77.28 78.43 78.41 78.30 78.55 78.75 78.33 78.22 78.43 78.55 78.46 79.13 78.54 78.39 77.37 77.29 76.90 76.79 76.66 76.68 76.71 76.54 76.74 76.13 75.85 75.92 75.59 75.55 75.91 75.74 75.19 73.45 72.94 73.19 71.74 75.20 75.12 74.98 75.42 75.56 74.82
72.67 74.50 76.03 78.15 78.42 78.56 78.78 78.59 78.54 78.08 77.94 78.34 78.63 78.79 78.67 78.37 77.89 77.29 76.60 76.46 76.35 76.68 77.13 76.82 75.82 75.82 75.43 75.57 75.70 75.77 76.12 75.07 73.60 73.12 73.66 72.24 73.21 76.50 75.66 75.74 75.21 74.63 75.16
72.72 73.93 75.51 77.98 78.35 78.63 78.25 77.86 78.33 78.35 78.09 78.50 78.63 78.58 78.59 78.53 78.48 77.92 77.10 77.27 76.54 76.31 76.40 76.43 75.66 75.54 75.29 75.18 75.40 75.86 75.86 74.89 69.80 68.16 69.61 72.89 75.30 76.65 75.15 74.81 74.96 75.11 74.87
73.46 73.46 74.84 75.42 76.71 78.33 78.87 78.31 78.18 78.67 78.49 78.46 78.58 78.49 78.34 78.27 78.03 77.40 77.30 76.74 76.37 76.03 76.01 75.79 75.10 75.18 75.49 75.54 75.98 76.16 75.60 72.89 68.57 69.33 69.25 72.31 75.82 76.39 74.90 74.08 75.29 75.08 74.95
73.39 73.69 73.81 74.87 75.24 75.65 76.49 78.46 77.88 78.02 77.97 77.79 78.12 78.05 78.18 77.66 77.10 77.13 77.86 77.29 75.61 75.41 75.51 75.76 75.35 75.82 76.06 76.30 76.35 76.55 76.67 73.44 68.89 68.47 68.22 71.40 75.70 76.35 75.63 75.40 74.42 74.70 74.23
72.87 73.24 73.60 74.24 74.55 74.64 74.88 76.48 78.06 77.91 77.83 77.91 77.80 78.23 77.08 74.01 73.66 75.31 75.67 76.89 75.84 75.86 75.45 75.76 76.13 76.75 76.80 76.88 77.36 76.68 77.62 72.20 70.71 69.87 71.17 75.01 75.79 76.07 75.55 75.08 75.33 74.90 74.81
71.85 72.89 73.74 74.02 74.28 74.17 75.77 75.01 74.82 74.77 73.91 74.23 74.51 74.11 74.31 73.81 73.05 75.85 75.13 72.99 76.18 76.96 76.38 76.57 77.23 76.98 76.96 73.89 74.08 76.01 74.39 69.81 72.97 72.19 73.29 75.00 75.95 76.12 73.48 75.81 74.70 74.90 74.88
72.09 73.03 73.35 74.07 74.49 74.03 73.82 74.70 74.88 73.41 72.52 73.21 73.12 73.26 72.84 74.41 71.72 72.53 71.21 67.22 71.05 75.30 73.47 73.88 74.69 74.07 73.41 70.90 70.45 70.51 69.41 68.46 71.68 72.99 73.72 75.26 75.47 75.95 74.90 73.69 74.41 74.75 75.23
71.27 72.38 73.22 74.41 73.77 74.84 74.81 74.48 74.16 72.87 72.87 72.56 74.18 73.33 73.71 73.01 72.03 72.32 69.81 71.65 72.16 72.25 73.67 72.46 72.58 73.52 71.73 72.71 70.58 69.43 68.20 67.56 67.14 71.58 73.20 75.60 76.04 75.97 75.66 74.75 70.50 73.89 75.27
71.00 72.60 73.13 73.80 74.42 74.59 74.18 73.56 73.52 73.46 73.78 72.92 74.69 73.64 72.93 73.33 70.98 71.74 71.68 71.72 72.54 72.41 72.23 71.26 73.17 72.91 71.55 72.73 71.30 69.99 67.70 67.39 67.11 68.25 72.24 75.69 75.17 75.27 76.04 75.76 74.80 71.99 75.03
72.57 73.26 74.03 74.41 75.01 74.26 74.68 74.33 73.89 74.44 73.00 73.74 74.96 74.52 73.72 73.99 72.84 72.20 72.20 71.85 73.30 73.48 74.35 73.43 71.92 71.70 71.05 70.54 70.98 68.63 67.91 69.53 68.22 68.46 69.59 72.97 75.63 74.82 75.18 76.21 75.41 73.29 73.30
72.27 73.51 73.91 74.58 75.08 74.10 74.78 74.30 74.33 74.06 72.78 72.52 72.51 75.37 75.22 73.69 72.89 73.58 72.94 71.64 73.03 72.92 73.35 71.68 72.32 69.49 68.53 69.25 67.03 67.04 68.40 67.54 67.83 67.02 67.41 68.46 73.41 76.02 74.74 75.92 76.30 75.11 74.39
71.39 72.97 74.07 75.67 74.51 74.29 74.43 74.61 74.50 72.94 73.41 72.99 74.11 74.25 75.01 74.96 74.66 73.78 72.59 72.13 71.31 73.49 72.56 71.28 70.67 69.82 68.81 66.87 64.58 67.49 66.78 67.52 67.27 68.43 69.75 66.29 70.77 72.39 75.15 75.36 76.02 75.99 75.76
71.87 73.09 73.78 74.05 73.61 73.54 73.73 74.31 73.91 72.50 73.71 73.12 73.63 73.54 74.88 75.35 75.10 72.88 72.86 71.96 71.97 72.15 71.13 69.67 68.48 69.91 65.19 64.24 64.84 65.78 66.33 65.56 66.93 67.44 66.55 68.66 67.84 70.32 72.41 74.61 75.01 74.91 74.48
72.53 73.00 72.65 73.14 73.87 73.37 73.95 74.17 74.30 73.31 73.98 75.03 74.35 72.07 73.48 73.19 73.90 73.51 72.77 72.12 72.96 71.58 69.51 69.46 69.17 67.07 65.09 65.26 67.19 64.25 65.16 65.09 66.14 64.46 65.08 66.44 65.93 71.69 71.99 72.48 71.36 72.42 75.03
73.06 72.79 72.45 71.76 74.09 74.11 73.46 73.41 72.82 72.39 72.71 72.87 72.81 74.45 73.34 74.53 74.52 73.35 73.15 72.59 72.66 72.39 69.84 70.60 67.30 64.32 65.10 66.48 62.53 64.18 65.72 66.00 66.77 64.63 62.22 61.65 64.22 66.49 68.06 69.83 70.04 71.01 73.12
71.58 72.28 72.34 71.80 74.31 74.24 74.70 74.19 72.65 72.23 72.89 72.82 72.96 73.31 73.94 75.01 74.33 73.58 73.08 72.36 71.84 72.05 69.25 67.14 65.71 63.73 64.98 65.16 61.33 61.70 60.90 64.65 65.26 64.88 61.30 61.76 61.87 64.04 64.85 67.79 67.28 69.90 70.69
70.98 72.31 72.65 72.45 74.01 74.70 74.80 74.27 74.10 73.42 72.88 72.31 72.48 73.69 75.33 75.09 75.18 73.43 73.61 72.52 71.21 69.76 68.76 66.86 65.82 64.28 61.96 65.92 64.41 62.32 59.96 58.79 63.32 65.02 62.47 61.42 60.86 60.74 62.24 64.75 65.11 64.40 68.44
71.17 72.54 73.22 73.53 74.23 74.40 74.68 73.72 71.89 70.82 69.37 71.55 72.37 73.27 74.41 75.51 75.03 73.09 73.33 73.41 71.82 69.26 68.16 66.32 66.99 64.78 64.90 62.59 66.04 65.13 63.24 61.95 59.41 58.63 63.09 62.25 61.05 61.13 59.97 60.76 63.50 63.48 63.23
71.28 72.20 73.92 73.89 73.96 74.89 74.35 73.95 73.09 70.96 71.40 72.31 72.19 71.26 73.74 74.31 74.28 74.68 73.84 73.33 70.57 66.94 67.92 67.77 65.78 64.26 66.34 63.95 63.71 64.39 64.11 62.72 60.10 58.80 57.77 59.11 62.86 61.61 60.67 60.04 60.21 61.34 62.17
71.69 72.76 73.53 74.16 74.32 75.17 74.01 74.38 73.48 72.59 71.70 70.82 69.94 72.61 73.51 73.74 73.38 74.11 73.91 72.35 70.32 69.02 67.21 66.64 66.43 65.73 65.76 65.39 64.08 63.91 62.46 61.39 59.45 59.98 56.97 57.54 58.83 61.40 62.99 61.61 60.76 60.78 62.17

GFSSE_sfc_wetblb_012.txt.gz
Wetbulb
70.31 72.44 75.08 75.83 76.04 77.78 78.69 78.34 78.56 79.03 78.91 79.01 78.90 78.40 77.96 77.77 77.94 77.99 77.85 77.06 76.85 76.75 76.43 76.24 76.33 75.99 75.68 75.42 75.90 75.55 75.25 75.69 75.22 75.22 74.63 74.16 74.41 74.66 74.91 75.19 74.83 72.75 73.83
71.42 73.00 75.49 75.57 76.09 78.33 78.78 78.35 78.75 78.88 78.75 78.64 78.59 78.17 77.39 77.39 77.60 77.74 77.64 77.07 76.89 76.65 76.44 76.33 76.00 75.86 75.67 75.77 75.65 75.25 75.12 74.64 74.58 75.29 74.72 74.36 74.23 74.19 74.13 75.10 74.12 72.74 74.14
71.59 73.25 74.54 76.90 78.07 78.39 78.93 78.54 78.73 78.23 78.34 78.82 78.61 77.97 77.55 77.47 77.49 77.52 77.14 77.06 76.87 76.58 76.59 76.52 76.17 75.59 75.45 75.26 75.26 74.68 74.50 74.05 74.24 74.96 74.44 72.03 72.53 74.64 75.84 75.18 74.54 74.33 74.54
72.64 73.05 74.21 76.82 78.03 78.24 78.49 78.61 78.83 78.40 78.17 79.04 78.60 77.92 77.46 77.50 77.59 77.12 77.04 76.98 76.71 76.55 76.31 76.12 76.31 76.31 75.64 75.23 74.87 74.24 74.08 74.22 74.08 73.86 72.76 72.11 72.04 75.06 75.36 75.23 74.79 74.19 74.40
72.69 73.44 74.69 77.30 77.96 78.22 78.21 78.37 78.47 78.48 78.15 78.74 78.05 77.38 77.22 77.14 77.12 76.99 76.88 76.78 76.66 76.47 76.39 76.12 75.90 75.57 75.78 75.17 75.19 74.03 74.46 74.02 75.02 74.28 71.29 70.31 70.99 74.37 75.31 74.98 74.68 74.59 74.89
72.41 73.92 76.55 78.11 77.63 78.07 78.16 78.28 77.92 77.84 77.66 78.15 78.19 77.36 77.06 77.21 76.89 76.59 76.56 76.60 76.37 76.40 76.07 75.99 75.74 75.13 75.32 75.69 75.41 75.35 75.30 75.44 72.63 68.49 72.23 72.69 71.57 75.28 75.06 75.01 74.79 74.87 74.98
72.53 74.16 75.83 77.90 78.44 78.31 78.38 77.93 77.95 77.48 77.30 78.13 78.24 77.32 76.97 77.25 76.73 76.54 76.24 76.30 76.27 76.07 75.91 75.27 74.99 75.15 74.96 75.28 75.04 75.94 75.09 75.52 70.45 70.55 71.14 72.41 72.90 76.31 75.71 75.23 74.66 74.61 74.07
73.12 74.42 75.29 77.58 77.96 78.54 77.75 77.48 77.58 77.16 77.11 77.92 78.24 77.64 77.40 77.26 77.08 76.46 76.27 76.10 76.10 76.10 75.91 75.19 74.99 75.59 75.67 75.42 75.19 76.14 74.85 74.44 70.58 70.50 71.47 72.76 75.62 75.98 75.41 75.37 74.82 75.06 74.69
73.83 74.14 74.52 74.84 75.58 77.61 78.32 77.48 77.57 77.24 77.16 77.32 77.58 77.65 77.99 77.41 76.98 76.21 76.13 75.82 75.59 75.51 75.91 75.60 75.07 75.40 75.67 75.61 75.29 76.13 74.95 73.07 68.81 68.44 71.65 72.39 76.21 75.30 74.93 75.04 75.39 75.02 74.60
72.95 74.07 73.93 74.39 74.49 75.56 75.64 77.49 77.85 77.70 77.49 77.33 77.37 77.19 77.13 76.93 76.57 76.15 77.39 76.70 75.15 75.11 75.63 75.41 74.99 75.59 75.97 75.26 76.43 75.24 75.94 74.06 69.23 68.09 71.37 72.03 76.11 76.00 74.63 75.17 75.23 75.10 75.01
72.35 73.29 73.98 74.13 74.21 74.74 75.13 76.02 77.64 77.72 77.72 77.42 77.11 77.41 77.50 73.76 73.15 75.16 75.87 75.50 75.87 75.84 74.95 75.21 75.46 76.20 76.93 76.40 77.32 76.53 76.13 71.72 70.64 68.35 68.43 72.09 75.87 76.17 75.49 74.90 74.99 74.96 74.35
70.57 71.88 73.54 73.85 74.26 74.23 75.85 74.16 74.77 74.79 74.83 74.73 74.79 74.50 74.13 72.83 72.55 75.47 75.18 72.23 73.55 76.10 75.74 76.40 76.65 76.38 76.20 73.37 72.59 72.65 70.10 71.05 71.16 69.40 71.24 74.57 76.30 75.17 75.02 75.97 75.61 74.76 75.15
71.12 72.23 72.83 73.50 73.96 73.75 73.87 73.97 73.67 73.10 72.77 73.14 73.26 72.64 72.88 73.28 71.00 71.48 70.35 68.06 69.40 73.34 72.31 73.05 73.04 73.46 73.57 70.29 70.37 69.97 67.41 71.07 72.10 72.64 73.12 74.68 76.30 75.98 73.80 75.80 74.76 74.94 75.19
71.33 72.18 72.63 73.31 73.37 72.99 73.00 74.19 73.72 72.89 71.63 71.63 72.16 72.22 71.94 71.94 69.38 70.57 67.25 70.99 70.84 71.95 70.13 72.34 71.95 72.72 72.07 72.18 69.06 68.25 66.50 67.27 71.01 71.30 72.23 75.07 75.77 76.45 75.17 75.31 74.82 75.17 75.16
71.09 71.82 72.41 73.30 73.27 73.23 73.10 73.24 73.22 72.32 71.99 71.74 71.88 72.78 72.57 71.11 69.99 69.70 70.58 71.19 70.69 71.92 71.10 71.26 72.56 72.01 71.77 71.51 70.45 68.89 66.48 67.38 67.42 70.45 70.81 75.52 75.28 76.53 75.89 74.91 72.79 73.97 75.32
71.28 71.39 72.80 73.04 72.94 73.75 73.19 72.40 72.37 72.44 72.17 71.74 73.27 73.07 72.50 71.74 70.41 70.51 70.03 70.99 71.34 71.64 72.59 71.94 71.12 70.85 68.70 68.33 68.35 69.90 67.50 68.14 66.60 67.48 70.67 72.20 75.27 76.07 76.60 75.74 74.89 73.03 74.38
70.79 72.01 71.98 72.72 73.64 73.39 72.88 72.95 72.83 74.05 73.61 72.22 73.24 73.16 74.13 73.01 71.25 71.27 71.24 70.64 71.84 71.71 72.02 70.55 69.64 68.71 67.48 68.33 65.38 65.84 66.69 66.49 67.35 66.17 67.16 70.22 72.13 75.39 75.95 75.51 75.62 73.94 73.39
71.31 71.44 72.18 73.86 74.00 73.07 73.36 73.82 73.37 72.75 71.42 71.49 72.56 73.35 73.89 72.73 72.64 72.23 71.78 71.85 71.38 71.19 71.06 70.37 69.73 68.62 69.16 64.84 63.07 64.36 65.02 66.05 66.84 67.87 67.57 68.31 70.53 71.74 74.76 76.03 76.56 75.50 74.43
72.24 72.35 72.31 73.14 73.19 72.67 73.24 73.59 73.21 71.83 72.03 71.78 72.36 72.85 73.27 73.76 74.22 72.47 71.73 71.45 70.45 71.82 70.06 68.99 68.16 68.24 65.32 62.43 64.17 63.98 64.38 64.24 65.04 66.74 65.87 67.82 67.71 70.15 71.23 74.11 74.43 74.67 74.52
72.40 72.81 73.06 73.27 72.66 73.12 73.30 72.45 72.56 71.46 71.53 72.80 72.32 72.44 74.09 73.98 74.16 71.82 72.16 71.09 70.71 70.52 69.21 68.23 67.47 65.89 63.55 63.95 66.45 63.32 63.78 64.03 63.67 63.29 63.61 65.92 69.43 71.31 71.63 71.85 70.64 71.87 74.81
71.51 72.36 72.52 72.39 72.21 72.78 71.94 71.51 70.94 71.05 71.40 71.84 72.35 71.71 72.01 72.63 73.25 71.94 71.56 72.04 71.50 70.26 68.76 68.18 66.43 63.05 62.92 65.05 60.80 62.53 63.85 64.24 62.91 61.88 60.46 63.15 65.53 67.70 68.64 69.05 70.02 71.15 73.21
70.98 71.90 72.25 72.35 71.97 72.11 72.12 72.43 71.65 71.72 71.64 72.02 72.14 72.27 72.52 72.66 72.99 72.56 71.78 71.40 71.34 70.66 68.77 66.43 64.50 62.16 63.48 63.24 59.88 60.45 59.20 63.78 64.72 60.67 59.63 62.22 62.11 64.92 66.79 67.75 69.14 69.60 69.88
70.46 71.02 71.30 72.22 72.54 72.50 72.79 72.80 71.81 71.67 71.19 71.10 71.33 71.66 72.59 73.51 73.54 73.05 72.23 71.69 70.83 70.20 67.84 65.80 64.48 63.29 60.93 63.79 62.78 61.24 58.97 57.67 61.49 63.57 59.26 59.95 59.96 60.90 62.59 64.09 64.90 66.95 69.30
70.49 71.58 71.55 71.91 73.27 73.18 73.44 72.64 71.79 70.93 70.20 71.26 70.79 71.68 73.15 74.46 73.67 72.95 72.43 71.39 69.89 68.70 67.05 65.88 65.60 63.48 62.50 61.15 64.22 64.03 61.89 61.41 58.43 58.72 61.79 59.61 59.10 59.55 58.73 60.20 62.80 63.00 68.04
70.61 71.11 71.44 71.01 73.45 73.69 73.51 73.01 72.26 70.99 71.33 70.02 70.80 71.13 71.55 73.45 73.82 72.94 72.34 71.86 69.21 67.84 66.87 65.73 64.70 63.09 64.82 61.47 62.48 62.54 62.08 61.34 58.26 58.27 56.49 58.44 60.63 59.09 59.06 58.68 61.51 61.63 63.48
70.53 71.34 71.58 70.99 71.42 73.37 73.61 73.01 72.43 71.54 70.47 69.73 69.42 69.73 71.55 73.38 73.03 72.98 72.83 72.65 68.97 66.64 66.82 65.69 64.42 62.96 65.11 64.98 63.06 62.53 61.36 59.23 58.55 58.27 55.71 56.38 57.04 59.62 60.63 60.15 59.12 59.21 61.04

GFSSE_sfc_wetblb_015.txt.gz
Wetbulb
70.22 72.05 74.58 75.12 75.73 75.97 77.56 78.54 78.29 78.66 78.33 78.20 78.14 77.77 77.32 76.91 76.77 76.75 76.64 76.60 76.51 76.24 76.22 76.20 76.08 75.80 75.59 75.65 75.43 75.35 75.18 75.18 74.79 74.29 73.82 74.34 74.81 74.77 74.65 75.01 74.23 71.90 74.63
70.97 72.34 74.77 75.51 76.79 77.47 78.00 77.95 78.11 77.83 77.86 77.83 77.80 77.42 76.81 76.89 77.01 76.91 76.77 76.61 76.32 76.33 76.06 76.03 76.09 75.72 75.60 75.59 75.16 75.20 75.02 74.97 74.68 74.54 73.99 74.09 74.27 74.55 75.02 73.94 73.55 72.08 73.55
71.21 72.64 73.62 76.02 76.99 77.80 77.82 77.82 77.72 77.36 77.42 77.51 77.24 77.20 76.91 77.01 76.99 76.86 76.70 76.69 76.42 76.37 76.32 76.03 75.71 75.11 75.35 75.27 75.19 74.69 74.48 74.22 74.42 74.56 73.92 71.30 72.11 74.84 74.48 74.14 73.74 74.13 74.42
71.70 72.52 73.56 76.27 77.12 77.60 77.59 77.84 77.83 77.62 77.61 77.24 77.13 77.14 77.04 77.16 76.90 76.74 76.72 76.34 76.20 76.07 75.77 75.97 76.31 75.87 75.41 75.19 74.96 74.53 74.26 74.89 74.58 74.04 71.72 71.65 72.82 74.98 74.96 74.76 74.43 74.03 74.28
71.67 72.48 74.05 76.77 77.68 77.34 77.41 77.78 78.24 78.44 77.47 77.25 77.12 76.99 77.02 76.76 76.63 76.62 76.37 76.15 76.10 75.99 75.91 75.93 75.77 75.74 75.27 75.41 74.76 74.82 75.28 74.00 73.19 72.84 71.13 70.38 70.80 74.41 74.97 74.63 73.63 74.73 74.55
72.06 73.20 75.65 76.96 77.16 77.14 77.34 77.47 77.34 77.46 77.21 77.06 76.76 76.68 76.85 76.72 76.52 76.29 76.18 76.22 75.89 75.80 75.72 75.83 75.47 75.52 75.25 75.09 75.34 75.58 75.04 74.03 71.96 70.11 71.23 73.01 71.23 74.85 75.00 74.60 74.85 74.93 74.83
71.87 73.62 75.09 77.70 77.84 77.30 77.08 77.02 76.78 76.92 77.36 77.28 76.84 76.66 76.88 76.46 76.25 76.14 76.12 75.95 75.65 75.65 75.70 75.18 75.36 75.45 75.41 75.59 75.51 75.42 74.16 71.87 69.21 69.73 71.59 71.68 71.50 75.51 75.42 75.13 74.70 74.93 74.54
72.19 73.80 74.72 77.00 77.50 77.65 76.94 76.88 76.73 76.58 77.08 77.25 76.92 76.75 76.86 76.65 76.05 75.78 75.79 75.70 75.57 75.76 75.65 75.20 75.34 75.61 75.26 75.61 75.70 75.31 74.17 71.42 69.34 69.58 71.81 72.71 74.10 75.69 75.66 74.88 74.66 74.22 73.33
72.93 73.72 74.13 74.51 75.52 77.29 77.65 76.90 76.77 76.61 76.86 77.08 76.90 76.71 76.63 76.78 76.22 75.67 75.20 75.26 75.26 75.23 75.37 75.20 75.09 75.39 75.61 76.39 75.33 75.15 74.55 73.78 69.45 70.37 71.75 72.03 75.96 75.64 75.27 74.62 74.85 74.95 73.56
73.16 73.37 73.32 72.92 73.26 74.28 74.90 76.88 76.89 76.83 76.88 77.15 76.95 76.89 76.67 76.63 76.72 76.01 76.55 75.29 74.98 74.67 74.90 75.01 74.93 75.17 75.00 75.75 76.00 75.68 74.88 72.86 68.74 68.38 71.26 72.15 75.75 74.77 74.67 75.11 75.00 74.68 73.95
72.40 72.94 73.44 73.10 72.92 74.16 74.59 75.06 77.09 77.11 77.06 77.06 76.68 76.85 77.02 73.80 73.37 74.89 75.76 75.23 76.06 75.65 74.78 75.07 75.34 75.75 75.09 75.23 76.89 76.70 76.24 70.18 68.64 68.02 69.66 73.28 74.87 75.30 74.54 74.92 75.08 74.79 74.58
70.55 72.35 73.49 73.33 73.69 74.22 75.66 74.09 74.24 74.57 74.43 74.17 74.42 73.81 74.42 72.88 72.04 74.40 74.83 74.20 73.71 75.43 75.34 75.73 75.39 75.73 74.75 71.90 70.68 71.61 70.56 70.65 68.68 67.43 67.99 73.24 74.68 75.57 75.14 74.76 74.87 74.42 74.42
70.81 71.95 73.19 73.49 73.92 74.20 74.01 73.10 73.40 73.17 73.33 73.48 73.63 73.43 73.18 72.60 72.22 72.32 70.67 69.58 68.18 73.13 71.71 72.47 72.17 72.78 72.65 69.98 69.04 68.45 69.95 70.34 69.41 70.04 72.14 74.68 75.26 75.42 74.50 75.97 75.52 74.75 74.93
70.03 71.16 72.60 73.44 73.48 73.49 72.52 73.25 73.15 72.82 71.72 71.86 72.35 72.06 71.43 71.28 69.57 69.34 66.50 69.72 69.64 71.14 70.16 70.42 71.26 72.14 71.08 71.93 68.63 66.12 67.42 70.62 70.76 71.38 71.49 75.52 76.11 75.39 74.62 74.62 74.73 74.95 75.05
69.69 70.96 71.97 72.83 72.84 73.17 71.61 73.21 72.27 72.22 71.66 71.27 71.12 71.68 71.51 70.75 69.99 69.19 68.33 70.52 69.95 70.78 70.36 71.13 71.89 72.19 71.64 70.17 69.07 67.35 65.30 68.90 69.79 69.94 69.76 75.05 74.95 75.69 75.47 74.20 74.82 75.14 75.12
70.59 71.03 71.87 72.06 72.49 72.48 71.72 71.80 72.39 72.00 71.13 70.45 70.62 71.79 72.00 71.28 70.00 69.19 68.31 69.99 70.28 70.69 71.32 71.62 70.59 70.74 68.27 68.00 69.21 68.78 66.16 67.37 67.69 69.26 69.69 70.20 74.99 75.31 75.83 74.56 74.34 73.44 75.04
70.94 71.65 71.26 72.02 72.42 72.05 71.94 72.00 71.61 71.43 71.64 70.59 71.40 72.93 72.54 71.70 70.18 69.76 69.33 69.95 70.85 71.30 71.29 70.50 70.22 67.69 66.99 66.85 64.08 64.67 65.97 65.72 67.08 66.41 68.00 69.62 71.22 74.80 74.94 75.22 74.87 73.48 73.23
71.12 70.74 71.63 73.03 72.26 72.07 72.24 71.78 71.89 72.01 72.24 71.65 71.28 71.99 72.89 72.38 71.04 70.46 70.80 70.22 70.62 70.54 70.94 69.44 68.93 67.96 67.50 64.65 62.53 63.63 64.42 64.97 65.53 66.92 66.19 67.34 69.43 70.62 73.06 74.20 74.77 74.36 73.99
70.67 70.90 71.18 72.34 72.01 72.17 72.47 72.45 72.05 72.05 71.32 71.13 71.17 71.88 72.46 72.61 72.35 71.49 71.26 71.04 70.24 70.61 69.12 68.64 67.55 67.04 62.49 62.07 63.47 63.60 63.30 63.40 64.11 65.50 65.50 66.95 67.78 70.08 70.24 72.76 74.63 74.83 74.29
70.58 70.89 71.03 71.99 72.47 72.34 72.32 72.53 72.10 71.07 70.45 71.07 71.26 71.62 72.40 72.78 73.29 71.84 71.04 70.67 70.03 70.09 68.63 67.53 66.43 65.34 62.44 62.85 65.62 62.14 63.05 63.11 62.67 62.58 63.58 68.13 68.83 71.18 71.07 71.04 69.81 71.19 73.94
70.42 70.71 70.75 70.99 71.69 72.29 71.39 71.04 70.40 70.51 69.81 70.67 71.55 71.74 72.57 72.98 73.54 71.55 71.13 70.39 69.92 69.66 68.35 67.43 65.93 62.91 61.44 63.54 59.64 61.69 63.20 63.08 61.23 60.10 62.10 64.76 67.38 68.21 68.36 69.07 69.82 70.72 71.63
69.86 70.86 71.08 71.22 71.44 71.84 72.05 72.10 71.31 70.34 70.60 70.63 71.47 71.34 71.76 72.57 72.62 71.43 70.83 70.76 70.40 69.78 68.06 67.17 63.90 61.77 62.14 62.92 59.22 59.30 58.44 61.85 62.36 59.04 60.28 63.14 64.03 65.97 66.69 68.16 68.46 69.05 68.49
69.40 70.63 71.24 71.52 71.79 71.69 71.87 71.82 70.41 70.70 70.32 70.25 70.29 70.64 71.80 71.85 71.95 71.98 71.34 70.92 70.41 69.85 68.05 65.79 63.97 61.76 60.69 62.98 61.85 60.21 57.79 56.99 59.49 62.63 58.48 59.32 60.19 61.59 63.07 64.80 67.70 68.65 67.71
69.14 70.97 71.49 71.87 71.73 71.45 71.76 71.25 70.93 69.95 69.07 69.82 70.26 70.85 71.65 72.38 72.45 72.34 72.03 71.27 70.36 69.56 67.46 65.73 64.76 61.93 61.32 60.61 63.47 62.70 60.90 60.74 57.68 55.69 59.61 58.86 58.21 58.67 59.74 61.53 62.39 64.00 67.89
69.48 70.59 71.57 71.77 71.64 71.56 71.52 71.42 70.75 69.76 70.32 69.45 69.73 70.31 71.02 72.15 72.68 72.70 71.71 70.95 69.35 68.16 67.51 65.78 63.97 63.23 62.40 60.78 61.91 61.16 60.43 59.94 57.96 57.98 54.68 56.64 58.96 58.62 57.99 57.96 61.66 61.17 65.69
69.66 70.48 70.92 70.75 71.19 71.75 71.57 71.56 70.86 70.30 69.38 68.74 68.63 69.95 69.90 71.00 72.32 72.38 72.17 71.22 69.34 67.46 66.63 65.39 64.55 62.80 64.17 62.91 62.71 62.15 60.85 58.32 57.57 56.74 55.52 55.70 55.74 57.60 59.13 58.74 58.01 59.93 60.55

GFSSE_sfc_wetblb_021.txt.gz
Wetbulb
71.12 73.36 75.34 75.81 75.90 76.29 76.13 76.95 76.95 77.50 77.79 78.17 77.73 77.38 77.21 76.91 76.70 76.58 76.57 76.43 76.58 76.41 76.17 75.92 76.13 75.39 74.98 75.39 75.17 75.08 74.61 74.29 74.25 74.20 74.80 75.11 74.66 74.60 74.35 75.10 75.03 75.06 75.60
73.26 73.65 75.11 75.74 76.43 76.88 77.21 77.23 77.19 77.64 77.77 77.82 77.80 77.29 76.82 76.90 76.83 76.79 76.50 76.40 76.26 76.16 76.30 75.89 75.42 75.45 75.31 75.16 75.24 75.36 74.99 74.53 74.07 73.99 74.73 74.93 74.91 74.96 74.31 73.99 74.04 75.16 75.52
71.72 73.98 74.73 76.02 77.19 77.39 77.70 77.40 77.67 77.31 77.26 77.38 77.36 77.03 76.80 76.96 76.87 76.77 76.72 76.59 76.32 76.05 75.86 75.83 75.53 75.31 74.87 75.06 75.14 74.76 74.81 74.87 74.24 74.01 74.15 74.28 74.66 74.18 73.82 73.68 74.21 74.80 74.93
72.99 74.00 74.25 76.38 77.90 77.93 78.07 78.17 77.96 77.04 77.14 77.10 77.16 77.23 76.94 77.02 76.96 76.74 76.38 76.07 76.07 75.99 75.65 75.69 75.14 74.71 74.62 74.60 74.35 74.26 73.90 74.80 74.70 74.04 74.25 74.34 74.30 74.50 74.17 74.87 74.91 74.91 74.80
73.03 73.78 74.45 76.33 78.01 77.79 77.81 78.01 77.88 77.58 77.23 77.19 77.15 77.12 76.94 76.80 76.59 76.38 76.38 76.29 76.48 76.15 76.01 75.92 75.15 74.73 74.37 74.00 74.04 73.90 74.88 74.79 75.06 73.58 73.96 75.18 74.96 74.94 75.09 74.76 74.85 74.84 74.04
73.04 73.95 75.76 77.22 77.35 77.62 77.88 77.83 77.31 77.15 77.08 76.92 77.15 76.83 76.84 76.51 76.47 76.26 75.90 76.24 76.26 76.21 75.81 75.45 75.53 75.09 74.47 73.97 73.64 73.92 75.15 75.23 74.90 74.05 74.08 74.87 74.86 75.21 73.98 74.86 74.76 74.80 74.78
72.96 74.34 75.83 77.43 78.00 77.93 78.11 77.97 77.23 77.10 76.90 76.95 76.79 76.64 76.51 76.41 76.27 76.22 76.47 75.97 76.33 76.14 75.65 75.42 75.12 75.07 75.51 74.93 75.12 75.04 74.73 73.80 74.82 74.59 74.18 74.59 74.87 75.32 74.52 74.96 75.26 75.00 74.89
73.18 74.50 75.79 77.12 77.94 77.99 77.76 77.40 77.07 76.96 76.79 76.79 76.63 76.62 76.30 76.13 76.03 75.95 76.01 76.28 76.45 76.04 75.51 75.45 75.04 74.67 75.51 75.38 75.34 74.96 72.78 72.72 73.58 74.25 73.95 75.18 75.05 74.57 75.25 74.93 74.90 75.31 74.90
74.19 74.68 75.60 75.41 76.90 77.28 77.76 77.32 77.07 77.02 76.92 76.66 76.51 76.67 76.42 75.89 75.59 75.40 75.70 75.62 75.73 75.87 75.50 74.98 74.90 74.98 74.98 75.16 75.39 75.25 73.69 72.23 74.43 75.05 73.42 75.07 74.37 74.67 74.97 74.69 73.81 74.25 74.74
73.93 74.28 75.49 75.05 75.51 76.19 76.79 76.76 76.59 76.85 76.94 76.72 76.65 76.29 76.24 76.13 75.43 75.20 74.87 75.14 75.26 75.36 75.11 74.72 74.33 74.41 74.27 74.47 74.76 74.67 74.78 74.40 73.68 74.52 74.88 74.91 74.83 75.03 74.58 74.47 74.06 73.62 73.82
72.82 74.11 75.16 74.75 75.34 76.51 76.43 76.39 76.59 76.47 76.51 76.62 76.40 76.19 76.51 78.18 77.67 76.63 76.14 75.48 75.48 75.26 74.71 74.80 74.69 75.07 74.79 75.40 75.32 74.72 75.34 75.51 73.15 74.51 74.58 73.05 74.70 74.59 74.65 74.25 74.95 73.95 73.43
71.10 72.74 74.12 74.85 74.86 75.73 75.24 76.65 76.75 76.39 76.11 76.31 76.34 76.60 77.46 77.18 77.55 76.37 76.25 74.78 73.79 75.47 75.20 74.84 75.06 74.70 75.04 74.89 73.63 73.14 72.56 75.58 74.34 74.13 74.56 72.84 73.45 73.40 74.43 74.86 74.30 74.70 73.54
71.44 72.37 73.53 74.59 75.67 75.39 75.19 75.56 75.94 75.77 76.09 76.44 77.54 77.09 76.75 77.47 77.09 77.51 77.50 77.23 75.79 74.02 76.28 76.31 76.34 74.13 75.55 75.31 73.79 72.54 73.38 75.15 74.27 73.96 73.43 72.62 73.45 73.16 73.14 74.16 74.64 73.79 74.49
71.18 72.09 73.35 74.43 75.10 75.45 75.32 75.09 75.20 75.33 75.80 75.67 76.07 77.49 76.51 75.92 76.75 76.98 76.27 74.52 74.97 75.54 76.41 76.36 75.79 74.78 73.92 75.04 72.21 72.64 73.65 71.99 73.29 74.18 74.53 72.96 73.79 73.63 73.36 73.82 74.59 74.38 74.25
70.99 72.12 73.07 74.32 75.08 75.35 75.62 74.98 74.90 75.72 75.39 75.70 76.23 76.54 76.12 75.35 76.01 76.59 75.75 75.67 76.11 76.59 76.33 74.69 75.75 75.81 73.96 72.31 74.34 72.28 73.30 73.85 74.46 74.35 74.85 73.07 73.60 73.35 72.91 73.47 73.97 74.89 74.55
71.89 72.44 73.50 73.93 74.98 75.36 75.26 75.72 74.92 75.61 75.80 75.62 75.30 75.38 76.38 75.28 75.45 75.80 75.94 74.80 76.20 76.72 76.41 74.97 75.20 73.90 71.60 73.49 73.61 73.93 72.51 71.98 73.53 73.99 73.89 74.27 73.17 73.29 72.97 73.73 73.51 74.41 74.93
72.52 73.32 73.58 74.18 74.95 74.99 75.26 75.49 75.06 74.80 75.21 74.67 74.71 75.81 75.90 76.15 76.28 76.62 76.17 74.81 75.58 77.03 76.80 77.32 74.13 75.11 70.64 71.41 68.92 72.68 72.64 71.93 71.50 73.27 74.22 74.53 74.10 73.32 73.24 73.68 73.93 74.29 73.93
73.20 72.96 73.85 74.09 74.65 75.12 75.27 75.36 74.70 74.96 75.05 74.65 74.71 74.99 75.56 76.31 76.89 76.66 75.78 75.17 76.39 76.78 77.78 77.23 76.56 75.67 73.00 71.02 71.03 70.21 72.68 72.32 71.88 72.44 73.61 73.75 74.67 74.16 73.39 74.03 73.63 73.69 73.12
73.32 73.20 73.24 74.20 74.32 74.67 75.27 75.14 74.84 75.17 74.61 74.84 75.03 74.72 75.37 76.19 76.70 76.58 76.16 76.01 76.87 76.07 77.14 77.10 75.55 74.34 72.05 71.07 70.82 71.38 71.48 71.42 71.38 71.27 72.27 73.41 74.11 74.74 74.96 73.23 74.43 73.60 72.99
73.57 74.01 73.99 73.93 74.41 74.96 74.84 74.89 74.37 74.30 74.09 74.48 74.71 75.19 76.57 76.56 76.76 76.88 76.27 76.37 76.62 75.56 75.41 75.17 75.10 73.22 71.76 71.60 69.42 69.79 70.40 70.64 71.10 72.28 72.48 72.86 74.09 74.34 75.03 75.28 74.41 74.06 74.03
73.21 73.57 73.88 73.66 74.98 74.21 73.51 72.52 72.61 72.28 73.20 74.38 75.27 76.23 76.88 77.12 77.51 77.37 76.21 76.40 76.22 75.12 75.53 75.27 73.69 71.76 70.10 72.00 69.64 69.57 70.16 69.84 69.45 71.20 72.51 71.67 71.42 72.02 73.15 73.96 74.99 75.55 74.14
72.59 73.44 74.25 74.44 75.27 74.85 74.04 74.24 74.00 74.15 74.21 75.53 75.82 76.42 76.87 77.09 77.47 77.16 76.99 76.45 76.28 74.86 75.31 74.70 73.42 70.89 70.28 71.25 68.94 68.79 65.71 67.52 68.73 68.83 71.26 71.15 70.97 70.23 70.13 72.31 74.02 74.31 73.81
72.14 73.24 74.54 75.43 75.78 75.47 75.81 74.69 74.54 75.28 75.53 74.87 75.09 75.71 76.42 77.04 77.39 77.49 77.37 76.92 76.52 75.78 74.61 74.89 73.48 72.45 69.37 70.17 69.99 68.46 64.49 63.26 67.42 68.63 68.60 70.48 70.98 70.22 70.04 71.28 71.65 72.82 72.63
72.79 73.64 75.05 75.43 76.03 75.66 76.73 75.28 75.19 72.99 72.31 73.78 74.91 75.82 76.07 77.18 77.29 77.48 77.59 77.14 76.88 76.00 75.79 75.18 74.06 72.83 71.05 68.21 69.69 70.14 70.67 69.70 65.19 64.33 67.08 68.22 69.48 68.79 70.56 70.52 70.21 70.81 72.15
72.71 72.82 73.73 75.39 75.89 76.27 76.72 76.54 74.76 74.63 73.93 74.69 74.91 76.26 77.47 77.31 77.20 77.06 77.37 77.19 76.90 75.98 76.21 75.61 73.94 72.76 70.97 69.49 68.98 68.82 69.34 69.39 69.66 66.66 64.84 64.58 66.99 67.77 68.36 69.00 69.75 69.93 70.66
72.51 72.59 73.39 74.69 75.18 75.89 76.24 76.17 76.11 75.74 75.33 73.93 74.31 73.98 74.63 75.34 75.83 76.69 76.95 77.29 77.20 76.57 76.24 75.70 74.76 73.65 71.74 70.46 70.40 70.06 68.01 66.82 66.25 66.70 65.90 66.04 65.07 66.77 67.87 68.24 68.29 68.59 69.65

GFSSE_sfc_wetblb_024.txt.gz
Wetbulb
69.49 72.10 74.49 75.78 75.49 76.08 75.64 76.41 77.11 77.65 77.92 77.44 77.14 77.15 77.14 76.74 76.74 76.52 76.50 76.47 76.12 76.18 76.42 76.16 75.73 75.13 75.68 75.15 75.15 74.98 74.51 74.40 74.35 74.73 75.27 74.59 74.45 74.85 75.03 74.43 75.26 75.57 76.18
73.03 73.96 75.68 75.85 76.33 76.03 76.24 76.34 77.23 77.55 77.44 77.24 77.44 77.17 76.72 76.99 76.85 76.57 76.32 76.57 75.97 75.99 76.09 75.84 75.57 75.59 75.51 75.34 75.48 75.31 74.87 74.46 74.10 74.35 75.20 75.01 75.18 74.63 74.11 74.42 76.56 76.04 75.92
73.37 73.30 76.11 77.16 77.16 76.55 76.70 77.20 77.46 77.39 77.20 77.31 76.91 76.89 76.89 77.09 76.76 76.64 76.66 76.57 76.55 76.25 76.12 75.84 75.59 75.35 75.15 75.04 74.76 74.81 74.92 74.46 74.54 74.35 74.28 74.17 73.67 73.77 73.39 74.83 75.70 75.58 75.59
74.59 74.91 75.94 76.15 77.28 77.01 77.30 77.59 77.56 77.20 77.29 77.09 77.08 76.98 77.09 76.75 76.66 76.47 76.09 76.06 76.53 76.08 75.92 75.87 75.49 75.15 74.68 74.49 74.18 74.46 74.46 74.99 74.27 73.88 74.29 74.04 73.95 73.93 74.62 74.12 75.24 74.82 75.21
73.82 74.66 76.50 77.22 78.12 77.68 77.53 77.71 77.80 77.33 77.16 77.16 77.14 76.93 76.98 76.71 76.45 76.28 76.36 76.40 76.42 76.41 76.09 75.74 75.46 74.95 74.33 73.97 73.84 74.46 74.42 74.90 74.10 74.53 75.01 75.22 74.41 74.96 74.60 74.73 75.04 75.31 74.07
74.86 75.33 76.51 77.56 77.55 77.98 77.75 77.56 77.28 77.22 77.25 77.20 76.95 76.93 76.83 76.53 76.59 75.92 76.49 75.43 76.01 76.18 75.90 75.71 75.21 75.29 74.42 74.31 74.35 74.85 75.00 75.22 74.87 73.71 74.90 74.52 75.57 74.97 74.78 74.35 75.12 74.76 74.31
74.51 75.73 76.86 78.13 78.18 78.20 77.72 77.49 77.30 77.14 77.09 77.17 76.70 76.69 76.59 76.62 76.59 76.17 76.45 76.51 76.54 75.88 75.57 75.29 75.26 75.60 75.20 75.35 75.29 74.79 75.10 74.24 75.42 74.09 74.26 74.79 75.84 74.81 74.72 74.80 75.07 74.72 74.82
74.49 75.25 76.36 77.94 78.13 78.28 77.85 77.25 77.14 76.98 76.89 76.89 76.68 76.47 76.56 76.37 76.26 76.48 76.68 76.57 76.37 75.70 75.40 75.26 75.09 75.59 75.38 75.65 75.52 73.14 74.52 73.08 75.22 74.48 74.49 75.16 74.87 74.92 74.99 75.18 75.03 74.77 74.68
74.55 74.70 75.61 76.68 77.38 77.31 78.26 77.10 77.07 76.98 76.78 76.90 76.83 76.53 76.34 76.12 75.85 75.90 76.18 76.07 76.12 75.41 75.21 75.13 75.19 75.25 75.21 75.51 75.49 73.74 73.66 71.57 76.36 75.91 73.31 75.01 74.61 74.73 75.55 75.04 74.70 75.06 74.86
74.01 74.53 74.97 75.87 76.04 77.38 77.46 77.18 77.24 76.98 76.87 76.74 76.55 76.39 76.12 75.88 75.40 75.59 75.21 76.24 75.29 75.17 74.78 74.78 74.60 74.47 74.44 74.64 74.93 75.28 74.46 73.91 75.69 76.17 74.30 75.27 74.73 74.56 74.65 74.88 73.44 75.04 74.28
73.79 74.43 74.44 74.71 75.70 76.79 76.94 77.03 76.90 76.88 76.86 76.75 76.77 76.23 76.79 78.31 78.10 77.51 76.46 75.85 75.23 75.02 74.59 74.77 74.50 74.69 75.08 75.98 75.07 75.39 76.09 74.96 75.22 74.95 74.10 74.65 74.91 74.69 74.57 74.88 74.28 74.02 72.91
72.98 73.93 74.17 74.32 74.93 75.74 75.14 76.73 76.76 75.92 75.89 76.16 75.94 76.90 77.63 77.80 78.87 77.18 76.55 75.15 74.37 75.07 75.07 74.93 74.66 75.22 76.21 73.84 73.53 75.40 72.32 74.31 74.85 75.42 73.71 74.13 73.43 73.63 74.43 74.53 74.53 74.09 73.18
73.49 73.60 74.30 74.57 75.45 75.37 75.22 75.68 75.53 75.59 76.01 76.72 77.33 76.99 78.17 78.92 78.98 78.60 77.61 77.29 76.09 75.43 75.72 75.18 74.89 75.83 75.30 74.51 72.78 71.89 72.51 73.12 73.16 73.38 73.98 73.75 73.35 73.52 73.02 74.54 74.31 74.35 73.75
72.97 73.64 74.53 75.24 75.37 75.44 75.39 75.12 75.33 74.81 75.21 75.44 76.16 77.49 77.75 76.87 77.77 78.32 77.40 77.74 76.59 76.61 77.10 76.68 75.25 75.68 76.68 75.22 73.08 72.71 72.47 72.15 72.86 72.95 73.95 73.62 73.93 73.66 73.44 73.88 75.06 73.81 74.14
72.39 73.57 74.34 75.39 75.80 75.75 76.03 74.94 74.50 74.79 74.78 75.50 76.32 76.89 76.91 77.40 78.50 78.74 78.09 78.00 77.87 77.66 76.98 76.73 76.28 75.08 75.65 75.85 75.70 72.87 71.18 71.74 72.07 72.93 73.66 73.91 73.52 72.79 72.89 73.94 74.55 74.91 74.55
72.94 73.49 74.61 75.03 76.03 76.19 76.06 76.52 75.52 75.80 75.67 75.90 75.69 75.39 77.34 77.36 78.50 78.30 77.94 77.78 78.22 78.17 77.04 77.17 76.38 76.63 73.93 74.98 73.83 73.24 72.07 71.84 72.04 73.20 72.77 73.89 73.66 73.00 72.72 74.26 73.88 75.22 74.81
73.41 74.09 74.24 75.26 76.01 76.30 76.55 76.84 76.35 75.76 75.84 75.36 74.91 76.09 76.94 77.56 78.31 78.97 78.16 77.08 77.66 78.77 76.86 77.46 76.63 76.37 74.12 72.68 72.51 72.71 72.85 71.72 71.16 72.12 74.16 73.53 73.83 73.77 72.97 73.69 73.98 74.33 74.22
74.35 74.71 75.37 75.27 75.75 76.32 76.52 76.79 76.14 75.65 75.45 74.76 74.49 75.13 76.76 77.71 78.83 78.59 78.50 76.46 78.27 78.34 77.39 76.63 76.09 74.17 75.48 74.32 72.33 72.55 72.01 71.25 72.11 71.99 71.79 73.48 74.40 73.61 73.53 73.39 73.60 74.01 74.00
75.20 75.63 75.69 76.25 75.88 76.41 77.15 76.89 76.79 76.59 75.53 74.99 74.82 74.73 77.26 77.77 78.36 78.31 78.40 76.81 78.10 77.37 77.46 76.26 76.55 75.07 73.46 73.00 72.15 72.18 72.44 71.17 71.33 71.65 72.44 73.38 72.84 73.93 73.82 73.41 73.03 72.96 73.36
75.30 76.06 76.35 76.19 76.83 77.07 76.92 77.13 76.28 75.08 75.22 75.29 75.20 75.23 77.02 77.53 78.22 78.56 77.82 77.40 76.80 77.91 77.13 76.59 76.50 75.37 73.34 70.43 69.61 70.36 71.21 71.41 71.50 71.79 71.69 71.56 72.89 73.32 73.85 74.90 74.62 73.02 72.95
74.97 75.52 75.74 75.71 76.83 76.61 75.55 74.74 74.21 73.21 74.30 74.42 74.96 76.76 77.88 78.42 79.21 79.29 78.01 77.30 76.68 76.57 77.08 75.95 75.44 74.12 72.27 72.17 69.82 69.58 70.37 71.21 70.81 71.54 71.60 70.17 70.32 71.93 73.06 73.45 73.82 74.52 73.96
74.35 75.39 75.92 76.09 76.82 77.01 76.13 76.19 75.15 74.53 74.30 74.90 75.57 77.16 78.29 78.71 79.64 79.19 80.07 77.94 77.20 77.55 76.79 76.14 75.95 73.66 73.19 71.02 70.01 70.06 66.20 67.80 69.37 71.02 71.83 70.74 69.89 69.51 70.15 72.08 73.36 74.12 74.72
73.73 74.86 75.61 76.50 76.82 77.13 77.70 76.07 75.46 75.44 75.00 74.37 75.23 76.27 77.68 78.83 79.21 79.59 79.13 78.75 78.68 77.26 78.24 76.92 76.09 74.71 71.89 71.08 71.72 69.42 65.87 65.62 67.51 69.50 70.29 70.73 71.22 69.93 70.46 71.12 71.12 72.33 72.95
73.68 75.25 76.16 76.88 77.15 77.39 77.82 76.86 77.15 73.99 73.29 74.51 76.00 76.06 76.94 78.93 78.64 78.96 79.36 79.02 79.20 77.28 77.79 78.02 76.41 75.60 74.82 70.24 70.39 70.70 71.92 71.14 66.62 65.08 69.02 69.63 69.94 69.68 70.75 70.54 70.33 71.01 71.53
74.00 74.60 75.95 77.12 78.39 78.66 78.11 78.49 76.03 76.03 75.37 75.76 75.72 78.39 79.36 79.24 78.94 78.49 79.07 78.96 78.74 78.60 78.13 77.97 76.89 76.45 74.80 72.32 68.85 70.02 70.55 69.85 70.41 67.08 65.14 67.07 69.03 69.44 69.88 70.10 70.93 70.61 71.36
74.07 74.97 75.45 77.44 78.98 78.86 78.25 77.57 78.78 78.50 77.35 75.70 76.59 75.33 75.85 76.68 77.34 78.55 78.74 78.45 78.57 78.60 78.37 78.15 77.94 76.82 76.00 74.19 70.69 71.09 69.24 68.02 67.66 67.44 66.15 67.90 67.19 68.54 69.74 69.92 70.20 69.92 70.62

GFSSE_sfc_wetblb_027.txt.gz
Wetbulb
69.65 72.33 74.03 75.52 75.78 75.97 76.68 76.67 77.60 77.60 77.32 77.29 76.81 77.41 76.85 76.80 76.76 76.73 76.33 76.35 76.35 76.66 76.54 76.11 75.53 75.97 75.62 75.56 75.50 74.81 74.48 74.53 74.89 75.49 74.62 74.42 74.83 75.00 74.72 75.00 75.36 75.18 76.22
70.70 72.23 74.44 75.67 75.81 75.86 76.45 77.28 77.77 77.56 77.29 77.04 77.49 76.94 77.07 77.14 76.66 76.79 76.42 76.24 75.91 76.33 76.22 76.06 75.89 75.73 75.64 75.81 75.64 75.42 74.76 74.32 74.62 75.12 75.25 75.54 75.02 74.11 74.74 75.67 76.67 76.14 76.16
70.04 72.77 76.03 76.53 76.17 76.34 76.82 77.53 77.65 77.25 77.15 77.33 77.02 76.54 77.12 76.97 76.40 76.50 76.51 76.58 76.53 76.53 76.25 75.83 75.84 75.39 75.56 75.14 74.89 75.03 74.56 74.80 74.34 74.73 74.90 73.72 73.49 73.46 74.96 75.33 76.26 76.04 75.80
70.36 74.69 75.49 77.00 77.03 76.84 77.29 77.54 77.40 77.23 77.30 77.07 77.08 77.28 76.86 77.00 76.75 76.50 76.45 76.64 76.30 76.25 76.06 75.48 75.36 75.06 74.83 74.58 74.64 74.56 75.31 74.17 73.53 73.77 74.31 73.55 72.45 74.34 74.04 75.13 75.36 75.68 75.64
73.94 74.52 76.19 77.01 77.16 77.32 77.49 77.45 77.32 77.09 77.24 77.22 77.04 76.93 76.68 76.72 76.47 76.67 76.00 76.48 76.69 76.20 75.89 75.42 75.24 74.75 74.44 74.33 74.24 74.65 74.43 74.37 74.02 74.70 71.87 74.76 74.07 74.49 74.94 75.09 75.04 74.45 74.95
73.94 74.76 76.48 77.07 77.49 77.65 77.50 77.22 77.20 77.17 77.16 77.23 77.21 77.23 76.83 76.66 76.39 76.67 75.92 76.14 76.17 76.03 75.78 75.33 75.58 75.26 75.11 74.64 74.66 74.87 74.43 75.20 74.47 74.34 74.81 75.31 74.14 74.83 74.23 74.67 75.20 74.23 74.00
73.50 75.33 76.70 78.19 78.24 77.82 77.30 77.25 77.20 77.17 77.28 76.90 76.93 76.72 76.86 76.58 76.39 76.48 76.87 76.59 75.97 75.86 75.75 75.69 76.03 75.95 76.03 75.67 74.78 74.81 74.64 74.78 74.63 74.12 74.68 74.68 73.89 75.33 75.08 75.18 74.89 75.23 74.58
73.39 74.49 76.47 77.67 78.30 78.18 77.42 77.29 77.23 77.21 77.14 76.79 76.86 76.67 76.67 76.56 76.67 76.67 76.73 76.50 76.02 75.80 75.77 75.63 75.66 75.64 75.45 75.72 73.82 74.26 73.82 74.14 74.19 73.39 74.04 75.18 75.45 75.45 75.33 75.18 75.39 75.18 74.87
74.43 74.40 75.30 76.10 77.39 77.94 77.74 77.23 77.21 76.85 76.82 76.69 76.58 76.47 76.53 76.42 76.31 76.25 76.17 76.16 76.09 75.66 75.66 75.41 75.36 75.48 75.39 75.37 74.73 73.93 74.15 72.59 75.50 73.34 74.23 74.51 75.67 75.22 75.21 75.47 75.43 75.23 74.89
73.80 73.91 74.20 75.37 75.86 77.37 76.86 77.02 76.94 76.80 76.72 76.75 76.81 76.39 76.31 76.28 76.58 76.05 76.45 76.05 75.62 75.16 75.10 74.66 74.58 74.97 75.39 75.66 75.73 75.03 74.42 74.36 75.18 74.34 75.09 74.61 75.63 75.19 75.11 73.68 75.38 74.77 75.12
73.08 73.41 74.00 74.35 75.67 77.21 75.98 76.93 77.01 76.75 76.70 76.72 76.61 76.42 76.63 75.71 76.53 76.12 76.72 75.92 75.06 75.15 74.86 74.39 74.64 74.46 75.24 75.93 76.73 76.11 76.00 75.12 73.12 74.25 74.00 75.91 75.60 74.75 75.00 74.58 74.28 73.71 74.62
71.72 72.57 73.59 74.06 74.74 75.61 74.60 76.41 76.45 75.96 75.60 76.22 76.23 76.25 75.63 77.66 78.39 76.49 77.26 76.14 75.59 75.15 75.33 74.53 75.10 74.38 76.37 72.97 73.97 76.45 75.06 73.25 72.99 72.70 73.29 75.35 74.81 74.98 74.61 74.81 74.54 73.85 73.04
73.22 72.84 73.42 74.31 75.41 74.78 76.53 74.82 74.76 74.81 75.19 75.97 76.87 77.28 78.30 77.32 76.90 72.97 75.06 74.28 75.22 76.18 74.50 74.91 74.38 74.04 74.15 74.20 72.21 72.34 72.22 73.12 71.93 73.44 74.50 75.08 73.76 73.76 74.87 74.85 74.87 74.14 73.53
73.08 73.26 73.26 74.44 75.34 75.01 75.06 74.52 74.32 74.10 74.61 74.74 75.83 77.34 78.12 76.78 76.84 77.25 75.99 76.77 76.76 75.39 75.03 74.99 75.40 75.93 72.99 74.77 73.91 71.56 71.41 71.65 71.81 74.09 74.34 75.16 74.50 74.06 73.71 74.97 74.57 74.39 74.39
72.58 73.13 73.58 74.63 76.75 77.41 76.74 74.84 74.47 74.45 74.10 74.71 75.91 76.56 76.75 76.58 77.32 76.97 77.18 76.80 77.30 76.17 74.26 75.22 76.15 75.42 75.24 74.06 73.32 72.12 71.44 71.05 72.04 72.93 73.40 75.38 74.52 73.72 74.33 74.37 75.22 74.44 74.45
73.29 73.39 74.24 74.95 76.22 76.42 76.72 77.89 75.34 74.69 74.97 74.88 75.02 75.80 77.37 77.42 77.56 76.83 76.69 75.83 75.89 76.17 75.37 75.93 76.07 75.39 74.26 74.08 72.94 71.85 71.72 71.81 71.21 72.79 72.93 73.89 75.35 74.32 73.64 74.64 74.91 75.55 75.01
73.40 74.13 74.33 75.06 75.96 75.90 76.39 76.61 75.66 75.08 75.07 74.88 74.88 76.38 76.98 77.92 78.46 78.65 76.88 76.52 75.91 78.17 77.57 76.80 76.46 72.28 73.65 72.13 71.46 72.34 72.63 71.40 71.36 71.58 72.73 72.54 73.79 74.81 74.37 75.03 74.47 75.35 75.14
73.88 74.28 74.97 74.75 75.30 75.61 76.51 76.81 75.86 75.54 75.11 75.16 74.70 75.20 76.68 77.89 78.65 78.76 77.82 77.17 75.87 77.53 76.48 75.17 76.86 72.92 73.38 71.91 70.78 71.10 70.81 71.13 71.37 71.13 71.49 73.31 72.44 72.81 74.34 74.69 74.33 74.76 74.30
74.42 74.74 74.92 75.53 75.49 76.27 78.26 77.01 76.77 78.27 75.66 75.14 74.65 74.33 77.71 78.09 78.68 78.49 76.85 77.73 78.01 76.12 76.24 75.46 74.65 74.44 71.61 70.74 70.54 70.72 71.49 70.26 73.29 71.16 70.97 72.54 72.47 72.28 72.45 74.59 74.76 74.18 74.23
74.65 75.59 76.29 75.79 78.31 79.21 77.52 78.57 76.26 75.70 75.42 75.19 74.54 74.37 78.71 77.88 78.55 78.61 77.51 77.52 77.46 74.11 76.29 76.17 75.96 73.85 72.15 69.56 68.95 70.08 70.48 70.32 71.85 71.24 71.08 71.46 71.84 72.61 73.31 74.07 73.48 73.46 73.87
74.81 75.75 76.92 77.44 79.39 77.79 76.27 75.14 75.03 73.92 74.78 74.19 75.03 76.72 77.51 77.77 78.71 79.33 77.40 77.61 77.27 77.58 76.61 75.76 74.95 74.02 70.60 72.09 69.52 69.38 69.83 70.57 71.02 70.80 70.58 69.75 69.91 71.40 71.94 73.30 73.92 73.61 72.96
74.22 76.15 78.04 78.47 79.61 78.69 77.17 77.47 76.47 76.25 74.39 74.49 75.03 77.93 77.60 78.14 79.10 79.45 78.92 77.64 77.91 76.27 76.69 76.29 75.86 73.56 70.78 70.81 70.14 69.03 66.35 67.69 68.83 69.67 69.95 69.50 69.77 69.63 69.68 71.78 73.25 74.31 73.32
73.93 76.12 77.69 78.78 79.39 79.14 79.47 78.23 78.04 77.20 76.62 74.25 74.96 74.84 76.94 78.20 78.72 79.80 78.47 78.07 78.36 78.40 77.74 77.02 75.97 75.28 71.25 69.95 73.05 69.63 66.03 65.79 66.87 69.81 70.03 70.15 70.69 69.28 70.25 70.92 71.31 72.04 72.60
74.20 75.59 78.20 79.00 79.24 79.32 80.06 77.39 77.36 73.87 72.54 73.44 74.67 75.32 76.72 78.90 78.46 79.09 79.19 78.13 80.03 77.27 77.93 77.65 76.10 76.56 75.24 70.69 69.53 70.73 72.63 71.72 67.70 66.81 69.88 69.56 70.42 69.80 70.38 70.27 70.33 70.82 71.10
73.87 74.49 76.61 79.29 79.58 79.43 79.47 79.27 76.55 75.93 73.96 74.60 74.82 78.42 78.52 80.11 79.13 78.34 79.93 79.83 79.38 77.46 79.78 77.83 77.71 77.25 75.17 73.58 69.61 69.38 71.18 68.85 70.36 68.63 65.15 68.58 69.57 69.59 70.30 69.99 70.45 70.60 71.54
73.45 74.13 76.12 78.84 79.38 80.04 79.75 79.05 79.73 77.25 76.44 74.74 75.74 75.30 75.34 75.89 77.82 79.82 79.16 80.44 79.87 79.71 78.87 78.15 78.64 77.84 76.67 75.82 72.31 71.94 70.00 68.54 68.11 67.96 66.75 68.56 67.71 70.05 69.44 69.99 70.24 69.82 70.82

GFSSE_sfc_wetblb_030.txt.gz
Wetbulb
71.14 73.12 75.79 76.03 76.95 77.79 77.81 78.19 78.10 78.20 78.00 77.87 78.07 77.69 77.83 78.07 77.66 77.44 77.31 77.26 77.61 76.97 76.68 76.08 76.49 75.91 76.10 75.90 75.38 74.86 74.61 75.11 75.67 74.83 74.48 75.21 75.49 75.71 75.61 74.78 76.50 74.99 77.00
71.61 73.42 75.09 76.04 76.66 77.46 77.87 78.33 78.25 77.98 78.02 78.18 77.80 77.66 77.79 77.69 77.65 77.45 77.49 76.63 77.46 76.95 76.22 76.24 76.27 76.02 76.05 75.85 75.65 75.16 74.72 74.48 75.33 75.20 75.69 75.34 74.70 75.66 75.59 76.38 76.19 75.89 76.59
71.17 72.74 74.97 76.70 76.84 77.13 77.97 78.51 78.03 78.10 78.14 77.74 77.28 77.76 77.15 77.07 76.74 77.26 77.47 77.41 77.22 76.82 76.24 76.19 76.00 75.95 75.58 75.20 75.14 75.00 74.73 74.66 74.47 74.28 74.45 73.09 72.23 75.53 75.34 76.09 76.47 76.17 75.64
71.49 72.51 74.20 76.96 77.49 77.50 77.52 78.27 77.97 77.48 77.21 77.41 76.82 77.48 77.46 77.60 77.71 77.39 77.07 76.68 76.57 76.39 76.17 75.81 75.64 75.47 75.19 75.11 74.95 74.64 74.42 74.00 74.39 74.01 73.54 73.87 70.97 74.72 75.61 75.56 75.80 75.80 76.09
71.82 73.11 75.32 77.48 77.84 77.77 78.14 78.18 78.11 77.85 77.73 77.35 77.05 77.20 76.90 76.82 77.43 76.80 76.83 76.82 76.52 76.25 76.11 75.89 75.35 75.18 74.81 74.79 74.98 74.06 74.39 73.84 73.96 74.28 73.77 73.54 72.22 74.67 75.42 75.12 75.26 75.34 75.92
72.90 74.25 76.57 77.19 77.41 77.70 78.18 78.03 77.74 77.70 77.39 77.39 77.17 77.43 77.04 76.91 76.83 76.45 76.56 76.56 76.47 76.17 76.03 76.14 76.03 75.63 75.21 75.13 75.11 74.14 74.12 74.59 74.80 72.81 74.00 74.12 73.25 74.97 75.41 75.30 74.92 74.58 74.87
73.38 74.83 74.85 78.13 77.94 78.26 78.09 77.95 77.83 77.33 77.20 77.37 77.75 77.13 76.85 76.80 76.80 77.14 77.00 76.53 76.56 76.34 76.28 76.50 76.34 76.17 75.81 75.50 75.00 74.01 74.39 75.06 74.79 73.57 73.16 72.95 74.36 76.29 75.51 75.39 75.45 75.02 74.62
73.40 74.09 75.39 77.69 78.02 78.15 77.87 77.86 77.79 77.25 76.82 77.04 77.13 77.11 76.99 77.13 77.22 77.25 76.92 76.47 76.50 76.36 76.16 76.05 75.91 75.50 75.78 74.73 75.03 74.67 74.15 74.72 74.80 74.06 73.20 73.54 75.81 76.21 75.57 75.58 75.40 75.32 75.43
73.52 73.98 75.47 76.29 77.14 77.76 78.05 77.98 77.34 77.03 76.76 76.77 76.66 76.61 76.64 76.47 76.50 76.73 77.25 76.98 76.35 76.12 75.84 75.53 75.31 75.16 74.77 75.31 74.53 75.22 74.20 73.65 74.66 74.07 73.67 74.38 76.35 75.59 76.03 75.68 75.50 74.92 74.87
72.41 73.73 74.76 75.49 75.11 75.99 75.96 77.34 76.93 76.85 76.55 76.44 76.36 76.39 76.31 76.14 76.04 75.73 77.39 77.59 76.23 75.90 75.29 74.81 74.61 74.45 75.13 75.78 75.17 74.86 74.66 74.74 72.62 74.40 73.18 74.07 76.29 76.11 74.83 75.73 75.35 75.34 75.09
71.87 72.55 73.41 73.61 75.83 76.64 76.13 76.21 76.72 76.58 76.47 76.61 76.08 75.86 75.52 77.70 75.35 76.14 77.37 77.11 76.01 75.20 74.53 74.39 74.55 74.79 75.58 76.39 77.38 76.41 75.83 73.67 71.72 72.57 72.91 75.69 76.30 75.63 74.91 74.68 74.55 74.99 75.26
70.11 71.45 72.89 73.72 74.81 75.17 73.82 76.26 76.78 75.66 75.38 75.86 74.88 67.56 69.03 75.33 76.20 76.39 76.53 77.81 76.36 74.78 75.23 75.57 76.47 76.36 74.02 73.22 73.67 77.18 74.88 74.19 73.17 72.09 73.60 76.13 76.17 75.39 75.28 74.97 74.57 73.34 75.05
71.10 71.66 72.95 74.00 75.42 74.35 74.63 75.23 75.41 75.15 75.31 74.88 73.69 67.32 70.48 75.16 75.14 74.66 75.67 75.05 75.83 73.51 74.16 74.30 74.51 75.29 74.11 73.99 73.42 72.83 73.24 73.41 72.64 72.20 73.94 75.69 76.20 75.93 74.91 75.01 74.78 73.90 73.18
71.37 72.06 72.70 74.38 75.52 74.80 74.75 73.60 74.68 74.35 73.79 75.48 76.54 76.64 75.96 74.00 73.54 76.20 74.65 76.89 73.80 74.64 74.14 75.01 74.73 75.72 75.73 75.35 72.41 73.68 69.82 70.80 71.95 72.06 74.11 75.62 75.64 75.21 75.30 75.20 75.22 74.73 73.87
71.96 72.10 73.07 74.42 75.57 77.67 76.00 74.13 73.98 75.01 75.03 75.40 76.58 77.67 73.83 72.70 76.89 77.64 77.93 73.51 73.22 72.81 72.41 73.36 75.54 75.37 75.34 71.89 73.63 73.04 70.45 71.27 72.36 71.96 72.54 76.12 75.74 75.70 74.94 75.21 74.97 74.82 74.77
72.84 71.98 73.96 74.70 75.92 78.61 78.29 80.23 76.80 78.35 75.50 76.12 75.35 76.32 78.26 76.91 77.72 79.33 78.05 74.15 75.91 73.78 72.54 73.39 71.96 72.03 72.61 72.41 74.42 72.53 70.67 71.05 71.64 73.03 72.19 74.03 75.75 75.64 76.00 75.41 75.58 74.84 74.64
72.47 73.76 73.82 74.56 75.40 77.25 78.08 79.52 79.03 78.19 74.73 75.41 75.55 77.88 78.10 79.33 79.67 76.32 77.37 76.07 77.32 78.21 77.86 76.78 74.57 72.85 70.56 72.11 71.94 72.82 70.69 72.33 71.22 70.99 71.43 71.53 73.87 75.71 75.54 76.19 76.10 76.26 74.97
73.08 73.60 74.27 74.06 74.79 75.64 76.45 77.88 77.56 75.97 76.29 76.41 77.03 76.62 77.97 79.75 80.73 80.01 75.82 74.37 73.39 76.85 75.96 75.52 75.44 72.06 72.11 71.09 71.36 70.27 70.85 70.43 70.93 71.33 71.68 72.51 71.97 72.00 75.09 76.18 75.75 75.98 74.73
73.90 74.81 74.97 75.29 74.80 75.07 77.06 76.94 76.50 77.07 77.69 77.43 78.21 76.50 77.79 79.31 79.73 79.79 78.72 76.72 77.50 73.52 76.14 75.72 75.61 75.34 71.29 70.89 70.70 70.70 71.52 69.85 68.71 70.02 71.00 72.17 72.33 71.56 71.73 75.73 75.48 75.36 74.49
74.58 75.40 75.59 75.11 75.64 75.81 76.37 77.28 76.03 76.09 76.74 77.23 77.93 77.42 77.62 78.51 79.54 80.23 78.57 78.96 77.05 73.69 76.88 76.78 76.47 74.70 73.13 70.71 69.12 70.63 70.17 70.45 71.40 70.90 70.51 71.45 72.99 72.25 71.70 72.19 73.52 73.16 74.94
74.62 74.83 74.96 75.75 77.70 76.19 75.63 74.83 74.88 73.59 75.41 75.97 77.65 79.16 78.65 78.85 79.69 80.56 79.11 74.11 78.02 75.54 77.21 76.86 76.07 74.96 71.92 72.06 70.19 70.16 70.35 70.15 70.55 70.68 68.63 69.19 70.40 70.75 71.39 72.39 72.62 71.64 72.90
73.79 75.05 75.09 75.79 77.53 76.89 76.24 76.06 75.66 75.81 75.82 75.66 76.70 78.75 78.17 78.29 78.77 79.24 78.92 77.47 77.45 76.88 77.34 77.46 77.03 74.07 71.88 71.37 70.94 67.49 65.58 67.79 68.66 69.35 70.17 68.59 69.68 69.14 69.60 72.77 72.54 72.64 72.58
73.54 74.99 75.78 76.36 77.88 77.05 77.51 77.48 77.59 78.32 78.18 74.75 75.19 76.68 77.18 78.52 78.57 78.84 78.42 78.78 77.89 77.52 76.24 77.22 76.97 75.85 72.55 71.34 73.78 71.22 65.05 63.69 67.49 69.23 69.09 69.25 69.42 69.23 68.97 70.42 71.87 72.78 72.98
73.73 75.71 76.91 77.31 77.85 77.44 78.27 76.75 76.38 73.95 72.42 74.28 74.85 75.73 76.10 77.55 78.76 79.04 78.95 78.84 79.27 77.97 76.39 76.62 77.89 76.96 75.38 70.67 70.56 71.39 72.65 71.45 66.59 64.25 69.15 69.16 69.97 68.80 69.92 69.77 69.76 69.79 70.94
74.01 75.54 76.83 77.31 77.66 78.06 77.19 78.20 75.92 74.63 74.78 74.48 75.18 77.00 76.74 77.44 78.12 78.56 78.54 79.08 79.18 78.39 77.38 76.75 78.21 77.22 77.25 73.88 70.65 70.26 71.21 70.87 70.90 67.75 65.63 67.44 69.26 69.87 70.04 69.51 69.36 69.47 70.94
74.26 75.24 76.48 76.95 76.99 77.87 77.71 76.69 77.61 75.32 75.02 73.76 74.14 74.36 75.86 77.07 77.33 78.74 79.41 78.57 79.12 77.87 78.21 77.82 78.13 78.63 77.21 76.76 74.53 73.71 70.21 68.73 68.36 68.18 66.42 66.80 66.78 68.80 69.85 69.58 68.87 69.90 70.69

GFSSE_sfc_wetblb_033.txt.gz
Wetbulb
69.96 72.49 76.79 76.89 77.29 77.66 77.55 77.75 78.10 77.51 77.90 77.93 78.21 78.56 77.78 77.00 76.97 77.42 77.79 77.23 76.75 77.03 76.45 76.12 76.18 76.39 76.23 75.65 75.10 74.67 75.23 75.61 75.05 74.75 75.75 76.09 76.16 76.23 76.54 76.43 76.63 75.08 76.44
71.56 73.01 76.90 77.03 77.12 77.38 78.41 78.26 77.80 77.51 77.87 78.02 78.20 78.20 77.68 77.01 76.82 76.98 77.39 76.93 76.80 76.83 76.45 76.15 76.18 76.16 75.74 75.79 75.46 75.37 74.77 75.54 75.62 75.76 74.80 75.68 76.19 75.83 76.86 76.23 76.32 75.51 76.77
71.16 72.87 75.15 77.05 77.72 77.26 78.49 78.13 77.67 77.68 77.27 78.07 78.12 77.84 77.33 76.74 77.30 77.76 77.13 76.81 76.69 76.54 76.27 76.35 76.30 75.94 75.52 75.38 75.38 75.19 75.23 74.98 75.16 75.57 75.00 71.49 73.90 75.57 76.07 76.45 76.64 76.30 76.10
71.32 72.54 74.40 77.12 77.61 77.23 77.98 78.25 78.19 77.15 77.03 77.82 78.00 78.17 77.59 77.23 77.66 77.08 76.64 76.54 76.54 76.35 76.19 76.05 75.80 75.64 75.44 75.25 75.00 75.49 74.72 74.80 74.25 73.89 72.66 71.41 73.50 75.75 75.95 75.99 75.88 76.14 75.89
70.40 72.43 74.38 77.69 77.69 77.43 77.83 77.93 78.00 78.04 77.30 77.50 77.88 77.26 77.24 77.84 77.44 76.81 77.09 76.57 76.32 76.30 76.36 75.92 75.61 75.47 75.16 74.92 74.83 74.80 74.47 74.64 73.97 73.68 71.80 70.21 71.56 75.02 75.24 75.72 75.31 75.68 75.84
70.03 73.55 76.67 77.60 77.37 77.55 78.08 77.63 77.59 77.27 77.72 77.53 78.06 77.24 77.06 76.79 76.63 76.66 76.61 76.50 76.25 76.14 76.30 76.14 75.83 75.61 75.22 75.11 74.94 75.11 74.42 74.39 74.59 73.25 72.54 73.71 72.09 75.76 75.43 75.64 75.39 75.61 75.77
71.06 74.29 75.26 78.19 77.67 78.09 77.76 77.49 77.84 77.67 77.52 77.91 78.24 76.92 76.90 77.23 77.24 76.83 76.61 76.67 76.47 76.58 76.53 76.25 76.19 75.94 75.31 75.17 74.89 74.92 74.82 74.67 72.32 72.27 72.94 73.07 74.11 76.27 75.49 75.12 75.15 75.02 75.67
72.48 73.54 75.37 77.61 77.87 78.37 77.39 77.28 77.63 76.96 77.12 78.21 78.08 77.44 77.14 77.31 78.07 77.54 76.56 76.61 76.28 76.05 76.05 76.25 75.72 75.86 75.06 74.34 74.70 74.67 75.19 76.53 73.39 72.65 72.89 73.02 75.87 76.31 75.89 75.48 75.39 75.21 75.42
72.14 73.56 74.83 75.71 76.38 77.48 78.17 77.18 77.15 76.96 77.16 77.24 77.17 76.92 77.03 76.88 76.83 77.02 77.61 77.25 76.27 76.18 76.13 75.99 75.83 76.00 75.69 74.89 73.84 74.50 75.22 76.07 72.18 72.68 73.35 73.86 76.10 76.11 76.02 75.80 75.16 75.35 75.50
73.09 73.99 74.25 74.63 74.38 74.45 75.03 77.30 76.97 76.89 76.83 76.87 76.68 76.52 76.19 75.83 76.02 76.53 77.23 77.62 76.26 76.06 75.80 75.41 76.44 76.97 76.69 76.43 74.78 74.31 74.94 75.59 72.55 71.82 73.18 74.16 76.27 75.77 75.96 75.74 75.32 74.98 75.19
71.86 72.56 73.22 73.29 73.19 73.21 74.08 75.31 76.56 76.76 76.85 76.90 76.35 76.02 74.23 73.36 73.71 74.43 76.12 77.50 76.03 76.06 76.20 76.97 76.83 78.00 76.47 74.53 75.79 75.39 74.84 71.61 70.84 72.03 72.72 75.81 76.36 74.80 75.77 75.00 75.47 75.46 75.34
69.32 71.02 71.95 72.29 72.92 73.08 74.57 73.29 73.42 74.24 73.76 73.84 71.67 67.67 68.86 70.49 72.31 74.53 75.67 77.64 76.80 76.83 76.91 77.76 77.03 76.69 76.76 71.68 71.53 75.85 72.99 72.01 71.23 71.30 72.66 76.29 76.60 75.58 75.06 74.46 74.18 75.45 75.37
69.14 70.33 70.72 71.92 73.13 71.74 72.75 72.79 73.09 72.71 72.64 72.86 67.38 70.02 71.14 73.30 73.41 73.24 72.98 73.49 73.56 72.40 71.30 72.47 72.63 72.86 71.93 71.58 70.30 71.84 74.01 72.43 70.80 71.36 74.17 76.23 76.60 75.69 75.60 75.10 73.68 73.67 74.81
68.43 69.35 70.58 71.79 72.46 70.99 71.95 72.33 72.52 72.06 72.17 72.82 69.91 70.70 70.88 71.66 72.69 73.68 72.87 73.49 72.17 71.74 72.23 72.69 72.79 72.47 71.67 71.65 69.62 69.68 73.11 71.79 71.12 71.15 73.94 75.96 76.74 76.03 75.52 75.36 74.82 73.63 73.31
67.91 68.97 70.25 71.66 72.08 72.04 71.21 71.03 70.67 70.94 71.53 73.37 71.04 70.78 72.11 69.31 71.39 72.46 74.23 72.29 72.19 71.89 68.02 68.19 71.97 69.98 71.46 70.73 69.55 68.72 71.00 71.05 70.89 71.04 72.09 75.92 76.19 76.34 75.87 75.26 75.32 74.77 74.36
68.61 69.30 70.71 71.43 72.26 71.80 71.66 69.60 69.78 73.10 70.92 73.85 73.64 73.06 72.26 73.16 72.14 73.41 73.03 71.44 71.07 71.16 69.58 70.54 70.48 67.78 68.91 69.96 69.78 69.38 67.63 70.46 70.20 70.45 72.15 73.73 76.06 76.14 75.92 76.00 75.26 75.03 74.68
69.59 69.99 70.49 70.77 72.38 72.36 71.93 73.02 72.77 72.15 71.14 70.69 73.97 73.65 73.72 73.33 73.24 72.65 71.76 73.01 73.17 72.28 71.12 72.35 70.67 69.28 68.58 69.81 69.39 68.91 66.72 69.00 70.19 69.62 71.52 72.43 73.79 75.47 76.48 76.25 76.53 75.82 75.38
70.34 70.55 71.05 72.21 72.38 72.38 72.13 72.53 72.69 71.00 72.36 71.53 73.33 73.11 73.63 74.01 74.56 72.73 73.29 72.51 71.54 74.11 74.23 71.99 71.33 71.02 69.43 70.02 66.63 68.55 67.85 66.53 69.33 69.87 70.20 70.36 71.40 71.66 75.33 76.24 76.06 76.22 75.18
70.25 70.66 71.09 71.33 71.31 72.43 71.96 72.98 72.02 72.21 71.92 73.04 74.21 72.80 72.76 74.11 74.62 74.38 72.72 73.20 73.28 72.31 71.80 71.95 71.23 72.19 68.77 67.07 67.83 66.62 66.18 67.13 66.87 70.22 69.22 69.83 69.53 71.19 72.18 75.83 75.42 75.57 74.94
70.83 70.87 71.05 71.45 70.98 72.01 72.54 72.71 71.35 71.09 72.51 72.19 72.42 72.44 73.36 74.20 75.05 74.61 73.51 72.76 72.37 71.34 71.52 72.32 69.93 67.90 65.47 65.20 68.05 66.47 65.13 67.30 67.20 67.22 70.63 70.57 69.95 70.49 71.36 71.95 72.43 73.34 74.30
71.43 70.88 71.19 71.40 71.47 71.61 72.29 71.58 71.12 70.13 71.28 70.67 71.73 73.49 73.95 74.78 75.12 74.91 74.31 72.35 73.61 71.26 72.18 71.29 69.64 69.10 64.88 66.62 63.78 63.83 63.73 64.33 66.73 67.02 69.01 69.22 69.70 69.41 69.74 70.68 70.50 70.96 71.87
70.88 71.27 70.91 72.02 72.01 71.53 72.63 71.53 71.51 71.65 71.61 71.47 71.29 74.09 74.74 75.07 75.66 75.26 73.69 72.68 73.47 72.77 72.09 71.35 71.04 69.14 66.59 64.99 65.78 64.71 60.67 62.38 64.54 65.23 64.01 65.76 67.25 68.38 70.07 70.45 69.69 70.17 70.80
70.59 70.75 71.78 71.70 72.75 72.14 73.18 72.87 72.24 72.46 71.56 70.55 70.64 72.34 74.50 74.61 75.88 74.63 74.41 73.73 73.70 73.42 72.42 72.00 71.92 70.09 66.29 65.65 67.52 65.74 59.43 58.47 61.73 65.48 64.32 63.23 65.25 64.83 68.27 70.16 70.45 70.03 69.86
70.99 71.69 71.96 72.52 74.28 73.51 73.62 73.13 71.93 70.99 70.29 70.02 69.77 71.04 73.20 74.39 74.99 75.43 74.59 74.02 73.84 72.62 71.56 72.29 73.15 70.70 69.28 63.30 64.44 67.28 67.16 66.71 60.35 59.62 63.82 63.87 65.42 64.86 65.11 67.92 69.05 70.10 66.34
71.77 72.00 72.03 72.71 74.43 73.92 74.26 73.69 72.96 71.37 70.95 70.40 70.07 70.74 71.83 72.87 74.90 76.26 75.43 74.81 73.95 74.21 72.55 71.43 72.26 71.81 71.89 68.23 63.47 63.78 64.75 65.32 65.45 62.85 59.30 63.16 64.54 64.57 65.52 65.57 65.83 67.04 66.06
71.77 72.77 73.18 72.85 74.16 73.96 74.12 74.20 73.11 71.95 70.11 69.85 69.76 69.67 72.07 73.19 73.90 74.61 75.45 75.11 74.89 73.85 73.10 72.68 73.28 72.95 71.01 71.67 68.70 66.84 63.31 62.47 62.97 62.37 62.37 62.52 61.67 63.90 64.76 64.10 65.86 65.48 65.82

GFSSE_sfc_wetblb_036.txt.gz
Wetbulb
69.74 72.57 76.38 77.14 77.38 77.11 77.14 76.94 77.64 77.28 77.49 78.08 77.74 77.38 77.23 77.06 77.22 77.72 77.50 76.66 76.38 76.52 75.95 76.28 76.32 76.08 75.54 74.91 74.71 75.63 75.18 74.77 75.80 76.06 76.30 76.36 76.26 76.45 76.57 76.88 76.47 74.59 76.44
71.04 73.27 76.71 77.56 77.62 77.22 77.68 77.28 77.51 77.41 77.59 77.35 77.56 77.23 77.01 76.93 76.87 77.22 77.31 76.60 76.44 76.39 76.20 76.36 76.17 75.89 75.64 75.45 75.07 75.42 75.61 75.82 75.92 75.16 76.15 76.36 76.39 76.16 76.18 76.50 76.03 75.18 76.32
71.67 73.91 75.54 77.41 77.60 77.64 77.62 77.51 77.40 77.25 77.22 77.34 77.23 77.17 77.18 77.18 77.18 77.11 76.92 76.82 76.34 76.45 76.45 76.11 75.76 75.54 75.76 75.10 75.37 75.23 75.30 75.49 76.00 74.83 75.81 72.89 73.22 75.86 76.12 76.54 76.16 76.10 76.00
72.40 73.09 74.94 77.25 77.91 77.76 77.72 77.63 77.46 76.70 77.02 77.56 77.32 77.19 77.15 76.98 76.79 76.69 76.91 76.39 76.39 76.37 76.10 75.93 75.72 75.69 75.63 75.24 75.27 75.02 75.01 74.61 74.69 74.53 71.58 71.95 72.96 76.11 76.21 75.93 75.83 75.89 75.90
72.04 73.37 74.88 77.79 77.94 77.93 77.80 77.43 77.51 76.96 77.04 77.04 77.18 77.08 76.84 76.96 76.98 76.92 76.59 76.32 76.21 76.10 75.77 75.50 75.19 75.14 75.27 74.91 74.83 74.56 74.72 74.91 74.92 73.55 70.24 70.74 71.72 74.76 75.75 76.00 75.87 75.74 75.68
72.02 73.21 76.57 77.51 77.43 77.66 77.34 77.48 77.28 77.07 77.18 77.04 77.16 77.05 76.72 76.81 76.95 76.63 76.54 76.41 76.30 76.38 76.05 75.75 75.28 74.89 74.97 74.97 74.86 74.78 74.92 75.36 74.43 71.78 72.12 73.68 72.10 75.88 75.96 75.80 75.68 75.66 75.28
71.90 74.18 75.44 77.91 78.18 77.77 77.18 77.28 77.15 77.24 77.32 77.23 77.27 77.24 77.27 76.98 76.77 76.65 76.74 76.49 76.63 76.49 76.35 76.10 75.86 75.47 75.16 74.82 74.26 75.04 75.02 75.52 72.10 72.30 72.13 72.43 73.56 75.85 75.34 74.76 75.72 75.49 75.37
72.91 74.13 75.49 77.69 78.02 77.96 77.23 77.35 77.12 77.51 77.11 77.39 77.28 76.88 77.09 77.51 76.87 76.65 76.60 76.58 76.22 76.08 75.91 75.52 75.63 75.57 74.47 74.87 74.52 75.07 75.28 75.47 73.15 72.58 72.51 73.22 75.60 76.33 75.36 74.99 75.12 75.27 75.47
73.46 74.16 74.86 75.06 76.15 77.23 77.64 77.41 76.87 77.03 77.19 77.19 77.16 77.06 77.01 76.89 76.96 76.72 76.83 76.61 76.19 75.96 75.91 75.58 75.52 75.49 75.35 74.78 74.31 74.72 75.55 75.21 71.83 72.20 73.46 73.25 76.14 75.84 75.81 75.65 75.49 75.39 75.35
72.81 74.07 74.09 74.09 73.94 74.40 75.01 77.16 77.07 77.20 77.04 76.90 76.86 76.53 76.48 76.41 76.44 76.50 76.85 77.58 75.84 75.39 75.39 75.26 75.22 75.99 75.70 75.46 75.16 74.80 75.56 75.41 71.87 72.32 72.95 73.79 76.32 76.20 75.94 75.12 75.31 75.43 75.01
72.96 73.46 73.95 73.22 73.07 73.53 73.96 75.12 76.38 77.02 77.06 76.84 76.38 76.36 75.27 72.72 72.93 74.51 75.29 76.80 75.67 74.73 74.92 75.59 76.97 76.80 75.74 75.27 75.91 75.03 75.01 71.20 70.95 71.96 72.71 75.73 75.97 75.66 75.33 75.35 75.24 74.95 74.89
70.62 72.43 72.91 72.51 72.53 72.77 74.91 73.14 72.71 73.86 73.63 73.56 72.97 70.96 70.68 70.49 71.01 73.81 75.27 76.58 75.87 75.25 76.02 77.10 76.50 75.69 75.08 70.82 70.97 75.21 72.42 70.96 71.30 71.28 72.96 76.16 75.83 75.47 74.74 75.28 75.48 75.43 74.84
70.54 71.90 71.68 71.77 72.29 72.26 72.47 72.23 72.19 72.49 72.75 72.56 69.89 67.61 69.13 71.61 72.09 72.94 72.36 73.55 71.90 72.25 70.96 71.53 71.48 72.17 72.02 70.94 70.72 71.53 72.77 72.59 71.72 71.11 74.21 76.11 76.13 75.22 74.68 73.69 75.00 75.28 75.16
69.81 70.57 70.89 71.70 71.90 69.94 71.98 71.85 71.92 71.93 71.81 71.74 66.73 69.66 70.40 70.78 71.59 71.89 71.49 71.40 71.25 71.19 71.39 71.37 71.71 72.12 71.56 69.65 69.17 69.05 72.24 70.83 70.35 71.47 74.09 76.21 75.91 75.61 75.16 74.37 73.17 74.26 74.46
68.72 69.60 70.25 71.74 71.28 70.32 70.19 70.40 71.14 70.71 71.40 72.14 69.05 69.55 71.24 69.96 70.93 71.69 72.45 71.98 71.82 71.32 69.96 67.08 71.21 70.37 69.84 68.81 68.40 71.73 70.11 69.53 69.47 71.37 72.19 76.19 76.68 76.25 75.33 75.15 74.34 73.38 73.16
68.44 68.93 70.06 71.07 71.05 70.99 69.83 68.77 69.18 69.88 70.38 71.55 70.66 70.22 71.47 69.56 71.41 72.27 71.94 71.17 71.82 71.17 69.34 68.43 70.16 67.23 66.38 68.10 68.76 70.80 68.83 68.96 69.63 70.75 71.51 73.22 76.00 76.29 76.07 75.17 75.23 74.73 74.46
67.90 69.09 69.41 70.58 71.09 70.83 69.89 68.03 68.49 69.66 71.12 71.87 72.17 72.20 71.68 72.00 71.90 71.84 71.44 70.40 70.61 70.53 69.86 70.14 70.14 68.19 69.06 68.45 67.89 67.38 68.18 68.55 69.02 69.98 71.47 71.47 73.72 76.26 76.29 76.07 75.48 75.16 74.60
68.09 68.27 69.38 71.59 71.43 70.70 70.46 70.67 71.11 70.11 69.40 71.17 72.27 72.67 72.54 72.07 73.24 72.49 71.15 71.45 71.94 71.46 71.49 70.52 70.03 69.35 69.25 69.22 66.31 67.31 66.44 68.28 68.40 69.32 69.95 70.91 71.21 71.43 75.60 76.32 76.00 75.86 74.98
68.88 68.30 69.09 70.17 71.43 70.27 71.01 70.79 70.93 70.59 70.28 70.77 71.43 71.78 72.67 73.24 74.03 72.77 72.22 71.65 70.95 70.99 70.47 70.41 69.67 70.14 67.65 68.25 68.13 65.31 66.08 65.81 68.23 69.22 68.27 69.08 69.60 70.56 72.36 74.95 75.35 74.56 74.62
68.98 69.20 69.46 69.64 71.05 70.68 71.00 70.16 69.98 69.71 70.17 71.48 72.97 71.55 72.02 72.77 73.98 73.11 71.86 72.35 71.75 69.81 70.88 70.66 68.32 66.02 62.69 63.69 66.61 65.12 63.81 65.98 67.54 66.89 68.37 69.36 69.05 70.10 71.05 71.73 71.83 72.29 74.71
69.24 69.19 69.23 69.18 70.42 70.73 70.11 69.07 68.00 67.68 68.49 70.05 71.01 71.78 71.87 72.81 73.68 73.28 72.97 71.97 71.25 69.99 70.80 69.54 68.46 66.93 62.60 64.81 62.95 61.67 61.73 64.14 65.47 65.76 68.30 67.83 68.32 69.03 69.97 70.77 70.44 71.21 71.73
68.94 69.31 69.29 69.50 69.50 71.01 70.73 70.67 69.07 68.42 68.95 69.98 69.93 71.85 72.17 73.13 73.92 73.61 72.74 71.65 71.96 70.78 70.07 69.56 69.50 67.29 63.87 64.05 63.81 60.97 58.41 60.51 63.07 64.50 65.92 67.90 67.25 68.07 68.82 69.97 69.55 69.36 70.50
68.77 69.19 69.55 69.79 69.62 70.71 71.05 70.10 70.20 70.74 69.70 69.51 68.83 71.47 72.34 73.63 74.45 74.04 72.76 72.58 72.38 71.91 70.89 70.63 70.16 67.66 62.83 64.88 65.90 62.46 58.27 56.52 59.34 63.08 62.17 64.19 65.89 66.17 67.86 68.74 68.94 69.47 69.42
69.35 69.66 70.36 70.44 70.23 70.32 71.24 70.04 70.24 69.83 69.47 69.64 68.95 70.14 72.66 73.80 74.27 74.05 73.42 73.08 72.32 71.91 71.41 71.16 71.71 69.42 65.87 61.79 63.72 66.84 65.01 63.70 57.72 57.48 61.92 62.15 63.90 64.61 66.39 68.50 69.03 68.98 68.89
70.09 69.97 70.31 71.16 70.69 70.73 71.89 70.92 70.21 69.60 70.20 69.66 68.67 68.86 71.61 72.78 74.20 74.15 73.34 72.80 72.24 72.11 70.58 71.06 71.59 70.51 68.76 65.96 61.13 63.17 63.23 63.73 63.70 60.29 57.87 60.20 63.05 62.70 64.82 67.94 68.66 68.46 66.43
70.27 70.31 70.68 71.30 70.69 71.05 72.10 71.60 70.73 69.88 69.29 68.76 68.27 68.52 70.02 72.25 72.74 73.71 74.16 73.01 72.53 72.96 72.02 70.47 70.64 71.45 70.06 68.34 65.23 63.39 62.41 61.91 61.39 61.45 60.17 60.47 59.99 61.84 63.37 64.11 64.76 67.22 65.30

GFSSE_sfc_wetblb_042.txt.gz
Wetbulb
69.30 71.43 76.03 76.26 76.49 76.99 76.61 77.00 77.12 76.96 76.92 76.91 76.59 76.58 76.70 76.85 76.95 77.04 76.63 76.07 76.06 75.81 75.71 75.37 74.68 74.34 74.68 74.82 74.64 74.94 75.16 75.58 76.13 75.92 76.85 76.65 76.53 76.75 76.49 76.36 76.04 74.70 76.08
70.35 72.34 76.36 76.75 76.71 76.74 76.61 77.11 77.00 77.05 77.05 77.04 76.70 77.18 77.04 77.04 76.95 76.65 76.24 76.08 76.17 76.16 76.14 75.93 75.55 74.57 74.54 74.81 74.59 74.59 75.56 75.49 76.04 76.23 76.56 76.46 76.20 76.36 76.47 76.38 76.08 75.18 75.96
71.22 72.91 74.97 77.00 76.96 76.36 76.99 77.05 76.98 76.78 77.03 76.92 77.10 76.99 76.71 76.38 76.50 76.14 76.42 76.25 76.14 76.21 75.96 75.83 75.59 75.28 74.87 75.28 75.39 75.25 74.84 75.53 75.73 76.09 76.43 74.70 74.88 76.12 76.38 76.56 76.03 75.97 75.87
72.28 72.81 74.34 76.80 76.92 76.69 76.98 76.98 76.96 77.18 77.11 76.92 76.86 76.92 76.76 76.45 76.51 76.34 76.34 76.45 76.32 75.69 75.20 75.69 75.15 75.37 75.20 75.07 74.94 75.43 75.44 75.02 75.46 74.67 73.12 74.03 74.59 76.37 76.28 76.09 75.82 75.79 75.62
72.75 73.05 74.71 77.14 77.15 76.57 76.96 77.02 77.28 76.35 76.70 77.02 76.73 76.52 76.32 76.25 76.56 76.51 76.39 76.18 76.10 75.91 75.55 75.72 75.23 75.09 74.55 74.64 74.48 74.20 74.95 74.83 74.81 72.80 72.82 73.64 75.06 75.71 75.91 75.76 75.55 75.71 75.73
73.16 73.90 76.41 76.95 76.75 76.99 76.86 76.99 76.68 76.59 76.94 76.69 76.61 76.52 76.44 76.48 76.35 76.46 76.25 76.14 75.97 75.75 75.86 75.61 75.15 74.87 74.54 74.43 74.57 74.81 75.07 75.47 73.49 72.48 73.74 74.50 74.61 76.27 75.99 75.72 75.59 75.63 75.31
72.25 73.84 74.89 77.43 77.23 77.19 76.80 76.95 76.73 76.86 76.85 76.89 76.63 76.14 76.66 76.47 76.55 76.50 76.53 76.36 76.11 75.92 75.86 75.72 75.20 74.79 74.73 74.73 74.84 75.54 75.58 74.77 72.62 73.15 73.59 73.84 75.01 76.23 75.79 75.72 75.53 75.42 75.44
72.80 73.85 74.59 76.78 76.63 77.25 77.04 77.05 76.85 76.84 76.88 76.78 77.02 76.78 76.75 76.87 76.68 76.66 76.47 76.23 75.92 75.90 75.67 75.47 75.30 74.97 74.98 74.58 75.25 75.56 75.35 74.49 73.35 73.57 73.84 74.04 75.56 75.40 75.89 75.60 75.39 75.36 75.32
73.47 73.61 74.12 74.04 75.71 76.89 76.87 76.84 77.08 76.73 76.96 76.81 76.75 77.10 76.89 76.65 76.77 76.64 76.39 76.01 75.62 75.53 75.28 75.23 75.06 74.89 75.16 74.85 75.51 75.76 75.22 74.74 73.32 73.57 73.49 74.23 75.44 74.99 75.33 75.26 75.15 75.10 74.95
73.09 73.35 73.44 73.03 73.17 73.97 74.86 77.32 77.04 77.20 77.28 77.17 77.07 76.75 76.79 76.60 76.34 76.41 76.71 76.21 75.67 75.39 75.31 74.95 74.90 75.04 75.11 75.18 75.65 75.86 75.44 75.15 73.49 73.81 74.09 74.55 74.68 75.32 74.83 75.13 74.86 75.23 74.90
72.56 72.54 72.62 72.30 72.82 73.34 73.44 75.39 76.66 77.08 76.78 76.53 76.27 76.45 74.94 73.29 73.34 74.68 75.39 76.09 75.38 75.12 75.39 75.65 75.43 75.26 75.12 75.23 76.05 75.83 74.94 73.19 73.28 73.15 74.01 74.88 75.18 74.94 74.93 75.17 74.85 74.90 74.61
70.38 72.43 71.99 72.25 72.48 72.96 74.48 73.79 74.08 74.74 73.93 73.99 73.45 72.41 72.25 72.65 72.68 74.16 74.95 75.29 75.24 75.34 75.84 75.67 75.41 75.42 73.58 71.90 73.85 75.29 72.55 72.83 73.21 73.15 74.47 75.18 75.66 74.75 74.54 74.86 74.67 74.33 74.30
70.00 71.61 71.84 71.92 72.37 72.61 73.22 72.43 72.49 73.07 73.01 73.03 71.71 71.01 71.42 71.60 72.19 73.58 72.89 73.52 71.81 72.59 71.85 72.33 72.92 72.89 72.17 71.98 71.79 72.35 71.86 72.38 72.92 73.36 74.48 75.33 75.60 74.20 75.10 74.73 74.48 74.31 74.32
69.57 70.77 71.81 71.76 71.61 71.96 72.18 72.07 71.83 72.18 72.40 71.90 71.02 69.14 70.16 70.73 71.78 72.39 72.54 72.49 72.18 71.84 71.57 71.48 72.17 71.74 71.32 70.34 71.32 72.37 71.98 72.17 71.88 73.02 74.48 75.51 74.69 73.84 74.44 75.06 75.05 74.78 74.09
69.27 70.78 71.67 71.53 71.11 71.34 71.06 71.31 71.48 71.45 72.14 71.97 69.98 69.60 70.61 71.09 71.66 72.32 72.28 71.37 72.22 72.16 70.58 69.24 71.96 69.55 70.11 70.00 69.92 72.32 72.19 71.45 71.30 73.00 74.04 74.65 74.67 74.38 73.29 73.24 74.51 74.19 74.13
69.35 70.56 71.21 71.08 71.03 70.68 70.03 70.27 70.65 71.03 71.62 71.90 70.46 68.26 70.89 70.95 71.10 71.61 72.19 72.42 71.91 71.83 71.40 70.47 71.18 68.42 68.69 69.91 71.54 71.92 71.23 70.92 71.76 72.80 73.44 74.94 74.87 74.50 74.65 73.93 73.10 72.99 73.37
68.87 70.21 70.10 70.47 70.70 69.68 69.57 69.34 69.90 70.65 71.02 71.16 71.77 70.88 70.44 71.05 71.14 72.02 71.89 71.96 71.70 72.38 70.83 72.25 71.79 70.88 69.50 69.70 70.43 70.71 70.44 70.64 71.29 72.25 72.70 73.59 74.66 74.39 73.83 74.58 74.48 73.85 73.38
69.16 68.98 69.64 71.17 70.49 69.35 68.87 68.68 68.90 69.91 70.41 70.47 71.44 71.86 71.61 72.27 72.16 72.00 71.71 71.69 72.34 72.23 72.46 72.35 71.29 70.64 69.57 68.40 68.62 68.99 69.72 69.88 70.35 71.22 72.48 72.92 73.56 73.77 74.46 74.19 74.21 74.88 74.50
68.69 68.60 68.54 69.58 69.80 69.22 68.84 68.49 67.91 69.11 69.55 69.96 71.06 71.78 71.92 72.50 72.83 72.33 71.81 71.65 72.82 72.75 72.86 72.47 71.29 71.38 69.86 69.67 68.51 67.14 69.01 69.38 69.49 70.36 71.49 72.01 72.15 72.50 73.99 74.02 74.64 74.45 74.35
68.40 68.35 68.29 68.95 69.23 69.03 68.35 68.88 69.12 69.26 69.16 69.95 70.97 71.75 72.26 72.74 73.68 72.66 71.64 71.86 72.43 72.04 72.09 71.97 69.96 66.68 66.38 67.55 66.36 64.87 66.20 67.77 69.45 69.13 69.82 70.61 70.56 71.67 72.91 73.87 73.49 73.58 74.33
67.86 67.05 67.63 68.11 68.26 68.65 68.04 67.77 68.28 68.28 69.32 70.83 70.99 72.12 72.36 73.19 74.26 73.02 72.38 71.72 71.88 71.02 72.07 71.30 69.50 66.84 66.13 65.97 65.16 64.72 64.81 65.79 68.11 68.79 69.36 69.62 70.11 70.98 72.00 72.85 72.55 72.59 72.64
66.69 66.48 67.53 67.86 68.21 69.54 69.46 68.91 69.09 68.27 69.01 70.58 71.40 72.04 72.34 73.22 74.15 73.41 72.16 72.28 71.26 71.45 72.20 71.31 70.59 68.45 65.50 66.64 63.71 62.72 62.02 64.79 65.38 65.97 68.58 69.27 69.42 70.35 71.07 71.81 71.88 71.98 72.08
66.92 66.35 66.90 67.55 67.95 69.78 69.73 69.13 68.88 68.97 69.10 69.17 69.96 70.90 71.42 72.88 73.60 74.16 73.49 72.95 72.80 71.93 71.41 71.44 70.97 68.01 65.20 67.24 66.96 64.22 61.23 61.09 61.68 64.81 66.06 68.04 69.43 69.09 69.72 70.40 71.19 71.12 71.42
67.74 67.79 67.29 67.56 67.71 69.47 69.75 69.26 68.82 67.78 67.30 67.77 68.82 70.79 71.14 72.40 73.20 74.14 73.97 73.12 72.74 72.78 72.15 72.19 71.78 70.21 66.81 66.74 66.50 67.47 65.95 64.58 62.21 62.48 64.34 65.65 66.05 68.32 69.04 69.43 70.30 70.79 71.02
68.63 67.96 67.92 67.41 67.62 68.84 69.80 69.56 69.05 68.72 67.70 67.96 68.76 69.94 70.95 71.81 72.76 74.10 74.05 73.25 72.79 73.07 72.63 72.76 72.23 71.52 68.34 66.26 65.85 66.78 66.35 65.90 63.97 62.29 61.74 63.69 65.80 66.98 67.99 68.45 69.88 70.79 71.02
68.68 68.26 68.37 67.60 67.28 68.27 69.63 69.54 69.23 68.68 67.45 68.02 67.79 68.31 69.86 71.26 72.10 73.31 74.13 73.50 73.40 73.08 72.76 72.67 72.85 71.94 71.13 68.79 66.07 66.64 66.58 66.33 65.10 64.24 62.60 63.16 63.12 66.05 66.94 66.99 68.31 70.16 71.02

GFSSE_sfc_wetblb_045.txt.gz
Wetbulb
70.49 73.94 76.32 76.44 76.41 76.76 76.70 76.56 76.60 76.59 76.67 76.75 76.78 76.47 76.31 76.47 76.63 77.21 76.27 75.83 75.65 75.35 75.64 74.89 74.58 74.92 75.11 75.05 75.34 75.70 76.00 76.00 76.49 76.53 77.04 76.81 77.00 76.71 76.80 76.21 76.63 75.39 76.46
72.47 74.86 76.58 77.41 77.12 76.78 77.45 77.17 76.96 77.12 76.65 76.67 76.66 76.75 77.01 77.14 76.73 76.53 76.33 76.22 75.95 76.37 76.17 75.44 74.75 74.83 75.06 74.69 75.15 75.54 75.46 75.74 76.38 76.80 76.81 76.85 76.85 76.50 76.49 76.24 76.47 75.94 75.94
72.54 74.85 75.77 76.76 77.00 77.00 77.12 76.96 77.17 77.32 77.04 77.09 77.09 76.79 77.02 76.64 76.55 76.47 76.39 76.34 76.38 76.03 75.93 75.74 75.49 74.92 75.30 75.67 74.92 74.97 76.13 76.01 76.42 76.51 76.09 76.30 76.11 76.63 76.30 76.37 76.28 76.03 75.94
72.87 75.22 75.42 76.56 77.34 77.11 77.10 77.60 77.09 77.11 76.55 76.67 76.70 76.90 76.59 76.63 76.42 76.54 76.36 76.06 75.90 75.57 75.99 75.39 75.61 75.69 75.51 75.61 75.59 75.30 75.26 75.91 75.71 75.74 75.61 75.70 75.85 76.27 76.31 76.18 76.08 75.93 75.83
73.69 75.56 76.05 76.63 77.10 76.79 76.78 77.17 77.16 76.98 76.92 76.82 76.80 76.59 76.45 76.20 76.19 76.14 76.25 76.01 75.82 75.30 75.92 75.47 75.25 74.61 74.78 74.39 74.75 75.29 75.05 75.12 74.86 75.11 75.81 76.19 76.14 76.24 75.88 75.93 75.78 75.71 75.95
74.35 75.04 76.27 76.58 77.02 77.19 77.15 77.21 76.54 76.88 77.00 76.92 76.79 76.77 76.41 76.61 76.65 76.43 76.35 76.10 76.10 75.90 75.58 75.17 75.17 74.83 74.83 74.64 74.83 75.03 75.24 74.75 74.28 75.26 75.47 75.73 76.00 75.70 76.11 75.86 75.67 75.86 75.44
73.56 75.36 75.57 77.49 77.57 76.83 77.17 76.65 77.12 76.95 76.67 76.48 76.51 76.86 76.96 76.85 76.74 76.66 76.44 76.33 76.11 75.88 75.61 75.31 74.97 74.92 74.70 74.64 75.56 75.98 75.92 74.30 74.38 75.04 75.33 75.68 75.83 75.26 75.86 75.85 75.71 75.41 75.70
73.31 74.91 75.99 76.76 77.00 77.37 77.01 76.96 76.90 76.78 76.76 76.90 77.05 77.00 76.86 76.95 76.82 76.83 76.47 76.08 76.03 75.86 75.63 75.41 74.95 75.05 74.72 75.08 75.73 75.65 74.88 74.14 74.12 75.03 75.37 75.67 75.51 75.99 75.81 75.69 75.52 75.44 75.05
74.15 74.66 76.02 75.39 76.94 76.84 76.93 77.07 76.98 76.75 76.99 77.13 77.29 77.06 77.02 76.95 76.79 76.47 76.22 75.97 75.64 75.58 75.50 75.05 74.80 75.19 75.16 75.28 76.05 75.82 75.24 75.19 74.91 74.95 74.27 74.03 75.43 75.52 75.61 75.59 75.30 75.34 75.05
73.84 74.92 75.54 75.45 76.52 76.77 76.78 77.09 76.91 76.92 77.04 77.38 77.24 77.00 76.86 77.02 76.80 76.32 76.68 76.72 75.54 75.25 74.64 74.77 75.11 74.72 75.50 75.93 75.79 75.80 75.24 74.96 74.31 74.78 74.96 75.16 75.75 75.05 75.57 75.11 75.11 75.02 74.71
73.07 74.49 74.70 75.65 75.92 77.05 77.22 76.89 77.05 77.02 77.22 77.00 76.97 77.07 76.66 76.66 76.73 75.93 75.86 75.80 75.42 75.26 75.19 75.27 74.77 74.92 75.28 75.94 76.06 75.86 74.71 74.52 74.12 74.37 74.97 74.96 75.92 75.35 75.49 75.23 75.02 74.87 74.60
71.53 73.40 74.21 74.70 75.00 75.94 76.13 77.08 77.28 76.61 76.15 76.32 76.85 77.00 76.77 76.62 76.11 75.36 75.36 75.72 75.64 75.65 75.36 75.85 76.13 75.17 73.99 75.54 75.97 75.52 74.67 74.85 74.29 74.11 75.22 75.23 75.55 74.88 75.44 75.03 74.95 74.65 74.79
71.57 73.30 74.63 74.50 75.85 75.48 75.77 76.08 76.12 76.01 76.09 76.51 76.86 75.78 76.21 75.95 76.11 76.06 75.86 76.20 75.64 74.32 75.66 75.70 76.24 76.00 75.10 75.46 75.51 75.15 74.94 75.01 74.32 74.44 74.79 74.57 74.86 74.85 74.95 74.83 74.56 74.52 74.31
70.43 72.26 74.50 74.52 75.44 75.47 75.85 75.47 75.90 75.36 75.65 75.37 75.05 75.57 75.56 74.97 75.69 76.19 75.57 75.83 75.49 76.02 75.55 75.75 75.89 74.75 74.65 75.06 74.99 74.63 74.88 74.96 73.96 74.52 74.27 74.31 74.27 74.02 74.92 74.83 74.44 74.29 74.02
71.01 72.32 74.01 74.72 75.06 75.46 75.74 75.33 75.20 75.21 75.00 75.01 74.63 73.93 74.94 75.16 75.86 76.07 75.66 75.37 75.92 76.57 75.53 75.64 75.19 74.19 74.18 73.40 74.41 74.88 74.69 74.37 73.49 74.37 75.73 73.88 74.09 73.36 72.99 74.56 74.86 74.40 73.78
71.12 71.70 73.92 74.40 74.90 75.37 74.80 75.56 74.93 75.00 74.96 74.81 74.75 73.62 74.72 76.09 76.66 77.00 77.05 75.64 76.21 76.99 76.55 76.04 74.19 73.40 73.69 74.57 74.52 74.91 74.80 74.60 73.93 74.16 74.94 75.62 73.98 73.58 73.87 72.69 72.98 73.27 73.66
70.83 72.24 73.06 74.13 74.50 74.86 74.70 74.72 74.39 74.14 74.39 74.67 75.68 74.39 74.53 76.05 76.20 76.57 76.73 77.36 76.10 76.00 75.44 76.98 75.64 74.83 73.34 74.05 74.60 74.55 74.66 74.33 73.72 73.69 74.91 75.61 75.38 74.07 73.41 73.30 73.59 73.08 72.73
71.50 71.74 73.36 73.49 73.64 73.88 74.09 74.06 73.50 73.49 73.75 74.78 75.67 76.17 75.72 75.55 75.97 77.47 76.83 76.38 76.24 75.83 76.24 76.21 75.42 73.61 71.53 72.85 73.37 73.72 74.09 74.28 73.70 73.63 74.58 74.76 75.35 75.17 74.80 73.59 73.72 74.17 73.97
72.19 72.09 72.47 73.54 73.32 73.34 73.86 73.76 73.36 73.72 73.67 74.65 75.36 75.58 76.33 76.36 76.19 77.36 76.95 76.54 76.75 76.51 76.29 75.94 75.64 75.76 72.91 72.21 71.95 72.96 73.78 73.87 73.62 73.00 74.25 74.53 75.01 75.36 75.71 74.36 73.81 73.77 73.90
72.51 72.52 72.57 72.96 73.62 73.63 73.33 73.71 72.91 72.36 73.01 74.16 74.58 74.91 75.97 76.29 76.67 76.94 76.78 76.79 76.71 77.30 75.53 75.27 73.14 71.83 74.17 73.37 69.77 68.73 72.85 73.87 74.46 73.66 74.13 74.29 74.56 74.69 75.60 75.96 75.83 74.85 73.36
72.32 72.10 72.14 72.15 73.29 72.79 72.03 71.43 71.38 70.61 72.03 73.36 74.62 75.92 76.19 76.44 77.00 77.40 76.68 76.40 76.47 75.87 76.04 75.53 73.04 71.92 70.59 71.68 70.25 69.86 70.50 72.18 72.87 73.41 74.45 74.47 73.91 74.59 75.05 75.66 75.36 75.13 74.47
71.62 71.88 72.19 72.21 73.29 73.17 72.52 73.20 72.44 72.81 73.42 74.80 76.05 76.17 76.52 76.58 77.58 77.61 77.07 76.41 76.38 75.55 76.25 75.46 74.36 71.03 71.22 71.50 69.67 69.57 66.52 68.42 71.27 72.54 73.18 73.18 73.93 74.93 74.88 74.60 75.19 75.05 75.20
70.90 71.38 71.89 72.56 73.23 73.63 74.10 73.26 73.19 73.69 74.17 73.32 74.43 75.46 76.20 76.50 77.31 78.07 77.21 76.55 76.30 77.51 77.78 76.51 74.78 72.34 69.65 71.99 70.95 69.69 65.68 65.22 68.78 70.77 71.13 72.44 73.54 73.45 74.31 74.47 74.38 74.71 74.70
70.76 71.71 72.59 73.08 73.17 73.51 74.29 73.62 74.04 71.60 71.12 72.75 73.90 75.24 76.04 76.67 76.72 77.50 78.09 77.29 77.81 76.33 77.12 76.03 75.76 74.08 72.54 70.30 71.46 72.03 70.97 70.16 66.93 66.02 69.61 71.07 72.19 72.47 73.28 73.50 73.42 73.68 74.40
71.15 71.24 71.71 73.13 73.85 74.57 74.74 74.88 73.25 73.30 72.84 73.62 73.72 75.11 76.59 76.56 76.64 76.81 77.58 77.40 77.77 77.25 77.45 76.71 76.21 75.42 72.73 71.47 71.40 72.13 72.59 71.29 70.29 68.21 66.74 68.80 70.00 71.10 72.06 73.16 72.88 73.22 74.44
71.31 71.31 71.57 72.61 73.27 74.31 74.11 74.41 74.85 74.76 74.05 72.51 73.40 72.86 73.69 75.10 75.64 76.66 77.03 77.51 77.56 77.08 76.93 76.72 77.48 76.61 75.38 73.72 71.66 72.24 71.62 70.94 70.30 69.05 67.77 69.48 68.82 71.20 71.66 72.34 72.54 72.61 73.53

GFSSE_sfc_wetblb_048.txt.gz
Wetbulb
70.73 74.19 75.08 76.22 76.22 76.67 76.55 76.84 77.03 76.91 77.12 77.41 77.16 76.63 76.31 76.12 76.83 76.99 76.09 75.82 75.64 75.70 75.23 75.17 75.20 75.50 75.28 75.83 76.21 76.56 76.31 76.38 76.64 76.95 77.03 76.92 76.97 76.63 76.49 76.33 77.43 75.58 76.36
72.07 74.32 75.60 77.20 76.59 76.59 76.61 76.73 76.67 76.83 76.96 77.00 76.85 76.47 76.97 77.04 76.93 76.37 76.29 76.42 76.44 76.24 75.73 74.95 75.34 75.34 74.98 75.45 75.47 75.45 75.48 76.13 76.60 76.87 77.19 77.01 77.03 76.60 76.56 76.23 77.18 76.15 75.89
73.34 75.32 76.21 77.25 77.22 77.46 77.42 77.11 77.28 76.77 76.82 76.77 76.91 77.24 76.80 76.59 76.62 76.19 76.36 76.38 76.35 76.36 76.20 75.70 75.28 75.59 75.67 74.95 75.47 75.86 75.96 75.95 76.31 75.66 76.06 75.53 76.71 76.33 76.48 76.33 75.94 76.03 76.19
73.72 74.58 75.76 76.95 77.42 77.04 77.19 77.24 77.40 77.30 77.18 76.99 76.76 76.58 76.97 76.51 76.22 76.58 76.45 76.22 76.13 75.86 75.81 75.78 75.97 75.92 76.05 75.81 75.25 75.82 76.09 76.25 75.90 74.75 75.30 75.12 75.92 76.38 76.25 76.31 76.13 76.03 75.89
73.70 74.53 76.77 77.12 77.12 77.24 77.20 77.23 77.15 76.70 76.70 76.73 76.79 76.65 76.77 76.60 76.54 76.43 76.24 75.84 75.75 75.81 75.70 75.59 75.01 74.92 74.76 74.87 75.31 75.43 75.60 75.49 74.73 75.89 76.60 75.82 76.32 76.28 76.26 76.17 76.04 76.15 76.58
73.86 74.67 76.51 77.00 77.12 76.92 77.00 77.13 76.70 76.96 77.01 76.81 76.80 76.87 76.59 76.60 76.51 76.67 76.45 76.53 76.08 75.98 75.59 75.62 75.03 75.14 75.06 75.15 75.30 75.42 75.04 74.10 75.42 74.78 76.02 75.95 76.19 75.99 76.08 75.99 76.06 75.87 75.69
73.52 75.04 76.75 77.21 77.82 76.91 77.10 77.03 77.01 77.01 76.96 77.05 76.89 76.79 76.42 76.72 76.92 76.70 76.48 76.37 76.36 75.84 75.64 75.34 75.17 74.95 75.26 75.81 75.72 75.79 74.39 73.29 75.55 75.39 76.02 76.07 76.39 75.92 76.13 75.80 75.79 75.53 75.41
73.42 74.52 76.17 76.60 77.36 76.98 76.76 77.08 77.21 77.05 76.80 77.05 77.15 77.27 77.06 77.13 77.11 76.81 76.42 76.31 76.20 76.03 75.76 75.31 75.20 75.17 75.53 76.01 75.95 75.17 74.26 74.27 75.28 75.35 75.98 75.81 75.62 76.21 75.77 75.60 75.56 75.52 75.68
73.85 74.51 75.39 76.75 77.26 76.95 77.35 77.04 77.16 77.12 77.04 76.83 77.02 77.34 77.48 77.25 76.90 76.59 76.28 76.09 76.03 75.83 75.22 75.06 75.03 75.34 75.70 76.26 75.99 75.24 75.23 74.41 74.92 74.83 73.92 74.34 75.29 75.62 75.81 75.13 75.50 75.09 75.21
73.57 74.62 74.73 76.10 76.43 77.20 77.11 77.11 77.20 77.33 76.92 76.99 77.46 77.21 77.25 77.26 76.81 76.34 76.77 76.70 75.76 75.22 75.18 75.22 74.89 75.45 76.20 75.93 76.07 75.41 75.31 74.84 73.99 74.57 75.44 75.02 75.58 75.53 75.53 75.03 75.21 75.23 74.24
72.55 74.49 74.03 75.21 76.37 77.49 77.22 77.39 77.17 77.19 77.14 77.35 77.56 77.27 77.15 75.92 75.76 76.70 76.84 75.99 75.88 75.52 75.05 74.92 75.00 75.34 76.09 76.22 76.08 75.49 75.94 73.98 73.80 74.81 74.47 75.05 75.29 75.14 75.41 75.14 75.25 74.88 74.50
71.52 73.38 74.00 76.05 75.90 77.00 76.26 77.43 77.85 77.44 77.07 76.96 77.20 77.34 76.47 76.37 76.33 75.43 76.41 75.73 75.53 75.46 76.03 75.84 75.52 75.30 75.71 75.08 75.61 75.63 74.81 74.55 73.97 74.85 74.68 74.67 75.29 75.08 75.41 75.13 74.99 74.74 74.76
71.98 72.60 73.30 75.09 75.81 76.45 78.23 76.86 76.60 76.02 76.40 76.92 77.51 77.03 76.88 76.10 75.20 75.80 75.98 75.99 76.14 75.81 76.09 76.69 76.97 76.53 75.58 75.91 75.06 74.89 75.06 74.50 74.26 74.17 75.12 74.91 74.94 75.19 75.12 74.98 74.75 74.86 74.57
71.59 72.75 73.40 74.72 75.59 76.18 76.40 75.64 75.55 75.20 75.59 75.39 76.06 77.37 76.65 75.72 75.55 75.75 76.34 75.65 76.50 76.96 76.25 77.87 75.06 75.68 76.21 76.85 75.82 75.08 74.82 73.70 74.44 74.53 75.00 74.95 74.12 75.29 75.14 74.83 74.72 74.52 74.32
71.19 72.90 73.36 74.68 75.95 76.17 76.74 75.65 75.48 75.54 75.60 75.67 76.05 76.56 76.47 76.32 76.27 76.42 76.34 77.53 77.37 76.83 76.32 76.50 75.45 75.57 75.66 75.39 75.57 75.22 74.76 73.97 73.45 74.54 74.87 74.67 74.31 73.16 74.30 75.08 74.93 74.51 73.74
71.73 72.69 73.90 74.21 75.63 76.30 76.30 76.88 76.47 76.16 76.21 75.79 75.40 75.54 76.81 77.40 78.08 75.69 75.60 77.02 78.06 78.08 76.85 76.38 75.21 74.09 73.32 74.22 75.30 75.15 74.71 74.58 74.50 74.87 74.62 75.35 74.08 73.75 73.16 72.75 73.51 73.64 73.69
71.91 73.23 73.66 74.24 75.02 75.74 76.24 76.45 76.00 75.64 75.48 75.68 75.98 76.90 77.32 78.21 78.40 76.85 75.96 75.87 77.09 77.35 76.99 76.13 75.15 74.63 72.96 73.02 74.68 74.94 74.42 74.94 74.37 74.31 75.28 75.26 74.84 74.27 73.87 73.87 73.05 72.64 72.64
72.00 72.65 74.14 73.63 73.90 74.94 75.51 75.57 74.93 75.24 75.79 76.08 76.77 77.04 77.16 77.92 77.98 78.18 76.03 75.98 77.54 76.24 75.85 74.34 73.24 73.25 73.68 71.65 72.96 73.22 73.59 74.10 74.24 74.42 74.49 75.35 74.53 75.50 74.59 73.82 73.72 73.93 73.70
72.25 72.92 73.72 74.14 73.60 74.12 75.22 75.05 75.19 76.15 75.86 76.39 76.68 76.92 78.20 77.86 78.33 78.70 77.30 77.92 77.50 77.23 77.00 74.40 74.14 73.17 72.58 70.97 71.15 72.30 73.05 73.11 73.98 73.25 74.17 75.04 74.09 74.86 75.22 74.59 73.91 73.77 73.65
72.50 73.27 73.92 74.07 74.49 74.97 74.51 74.82 74.23 74.94 75.67 76.51 76.62 76.99 78.05 77.94 78.18 78.27 77.49 77.16 77.07 75.22 75.60 75.67 75.02 74.82 73.92 72.68 70.19 71.42 72.42 73.00 74.65 74.32 73.39 73.62 73.34 74.71 75.03 76.11 75.60 73.82 73.82
72.58 73.29 73.50 73.83 74.85 74.37 73.10 71.99 72.78 73.06 74.47 75.27 75.99 77.40 78.43 78.26 78.55 79.11 77.82 76.22 76.46 75.14 75.36 76.08 74.12 74.34 72.34 73.43 70.46 69.22 70.39 72.71 73.38 74.85 75.22 74.78 73.26 74.05 74.41 74.63 74.66 75.49 74.47
72.32 73.20 73.59 73.87 74.91 74.87 73.28 73.67 73.72 74.22 74.39 75.15 76.62 78.10 78.58 78.39 78.77 78.37 77.85 76.97 77.41 76.26 75.30 75.18 75.68 72.28 72.01 72.78 70.10 69.68 66.30 69.17 71.54 73.43 74.76 74.02 74.20 74.81 74.39 74.50 74.56 75.04 74.35
72.28 72.99 73.75 74.50 74.84 75.31 75.72 73.61 74.37 75.00 75.31 75.12 76.15 76.38 77.67 78.43 78.75 78.97 77.72 77.67 76.35 76.89 74.73 75.85 75.85 74.38 70.56 72.43 73.45 70.88 66.89 66.39 69.32 71.47 72.47 72.74 73.89 73.14 74.91 74.70 74.71 74.27 75.02
72.26 73.72 74.28 74.92 74.99 75.09 75.91 74.94 76.17 73.20 72.48 73.19 75.09 76.00 77.12 78.62 78.33 78.78 78.98 77.84 77.33 78.90 76.81 76.20 76.08 74.62 74.61 70.98 71.76 72.55 72.99 72.19 67.06 66.98 70.66 71.86 72.92 72.65 73.26 73.66 74.07 73.75 74.72
72.46 73.18 74.13 75.00 75.89 76.54 76.19 76.49 74.03 74.36 72.56 73.59 74.71 77.08 78.26 78.82 78.62 78.12 78.87 77.85 77.35 76.29 77.57 77.87 77.41 76.50 73.50 73.13 71.96 71.38 72.63 72.33 72.77 68.57 67.30 69.28 71.41 72.11 72.84 73.40 73.62 73.76 74.19
72.83 73.17 73.85 75.45 75.91 75.98 75.32 74.86 76.28 75.69 74.88 73.46 75.07 74.29 74.76 75.76 77.20 78.42 78.53 78.85 77.84 77.06 77.78 77.15 77.36 77.71 76.42 74.66 73.17 73.61 71.68 71.00 70.98 71.26 69.66 70.71 69.94 72.59 73.66 73.44 73.30 73.28 73.71

GFSSE_sfc_wetblb_051.txt.gz
Wetbulb
72.80 74.63 75.09 76.21 76.75 77.05 77.18 77.09 77.11 77.42 77.75 77.36 76.91 76.52 75.93 76.03 77.26 76.44 75.90 75.80 75.77 75.58 75.41 75.44 75.69 75.50 75.91 76.46 76.62 76.45 76.59 76.77 77.00 77.16 76.98 76.99 76.74 76.42 76.19 76.05 77.78 75.14 76.25
72.88 74.57 75.77 76.68 76.94 76.85 76.97 77.07 77.03 77.31 77.08 76.87 76.55 76.23 76.77 77.21 76.42 76.40 76.39 76.02 76.44 76.08 75.28 75.72 75.55 75.17 75.55 75.58 75.58 75.75 76.24 76.58 76.45 77.33 76.70 76.87 76.78 76.70 76.76 76.93 77.39 75.63 76.40
73.96 75.58 76.34 77.12 77.21 76.74 76.76 76.65 76.73 76.95 76.89 77.02 77.07 76.97 76.90 76.65 76.27 76.46 76.46 76.40 76.55 76.24 75.86 75.55 75.94 75.72 75.05 76.04 75.88 76.03 75.80 76.50 76.28 75.57 76.09 75.59 76.09 76.62 76.36 76.06 76.33 76.13 76.14
74.72 75.36 76.10 77.27 77.60 77.49 77.17 77.56 77.02 76.81 77.19 77.02 77.12 76.69 76.53 76.29 76.55 76.48 76.46 76.34 75.99 76.03 76.14 76.35 76.22 75.94 75.66 75.42 75.91 75.96 76.33 75.85 75.64 75.35 75.44 75.38 75.74 76.42 76.51 76.28 76.11 76.08 76.01
73.81 74.88 77.16 77.45 77.60 77.33 77.33 77.28 77.23 77.17 77.05 76.86 76.88 76.87 76.60 76.33 76.59 76.03 76.05 75.91 75.84 75.89 75.72 75.50 75.42 75.25 75.25 75.66 75.81 75.57 75.37 74.90 75.14 76.12 75.75 76.33 74.74 75.96 76.15 75.41 75.31 75.92 76.26
73.30 75.46 76.92 77.39 77.39 77.37 77.48 77.13 77.05 76.92 76.78 76.69 76.91 76.62 76.62 76.16 76.50 76.60 76.32 75.96 76.03 75.69 75.80 75.36 75.33 75.44 75.33 75.25 75.38 74.67 74.09 74.33 76.24 75.22 75.81 75.06 76.30 75.80 75.78 75.84 76.18 75.93 75.61
73.98 75.30 76.34 77.81 77.24 77.11 77.25 77.11 77.04 76.82 76.82 77.00 77.00 76.91 76.51 76.63 76.75 76.53 76.30 76.55 75.66 75.72 75.72 75.28 75.33 75.36 75.63 75.53 75.77 74.39 73.31 73.97 75.26 76.05 75.40 75.69 75.44 76.27 76.13 76.09 75.62 75.37 75.64
73.30 74.32 76.19 77.08 77.10 77.04 77.20 77.32 77.07 77.11 77.14 77.02 76.80 76.58 76.91 76.86 76.96 76.67 76.58 76.28 76.17 75.80 75.61 75.33 75.41 75.66 76.02 75.99 75.37 73.78 73.50 75.15 74.77 74.94 75.41 75.25 75.66 75.98 75.86 75.84 76.01 75.81 75.83
73.09 74.37 75.69 76.57 76.84 77.01 77.08 77.38 76.99 76.93 76.70 76.91 76.85 77.32 76.89 76.89 76.69 76.47 76.39 76.22 75.59 75.08 75.00 75.43 75.46 75.80 76.15 75.90 75.05 74.55 74.83 75.43 74.91 74.75 73.59 74.67 75.63 75.94 75.71 75.38 74.88 75.36 74.92
72.80 73.13 74.60 75.40 76.31 76.35 76.93 77.07 77.21 76.87 76.69 77.02 77.37 77.23 77.17 76.78 76.50 76.33 76.74 76.38 75.32 75.44 75.50 75.34 75.32 76.11 76.29 76.03 75.18 74.94 75.44 75.60 73.44 73.31 73.60 75.25 75.48 75.55 75.67 75.35 75.22 74.83 75.65
71.98 72.89 74.08 74.46 75.49 77.63 77.34 77.17 77.33 77.18 77.16 77.52 77.11 77.28 77.59 75.17 76.12 76.70 76.89 76.00 75.25 74.87 75.09 75.06 75.46 75.92 76.10 76.28 75.79 75.52 75.83 74.18 73.22 73.35 74.45 75.71 75.83 75.55 75.55 75.48 75.29 74.65 74.83
71.35 71.63 73.01 74.27 75.55 75.70 75.37 77.11 77.31 76.79 76.21 76.63 76.18 77.70 75.62 76.57 76.29 75.54 76.17 75.41 75.51 75.68 76.04 75.70 75.34 75.44 75.69 74.51 75.76 76.01 74.78 73.71 73.68 73.19 74.23 75.79 75.64 75.61 75.49 75.26 75.16 74.84 74.37
71.93 71.21 73.19 75.31 75.62 75.46 76.22 76.31 75.80 75.66 75.96 77.13 76.93 76.89 76.68 74.81 74.90 74.88 75.20 75.47 75.69 74.87 75.54 76.63 76.43 74.40 72.81 73.39 74.47 73.85 74.05 73.48 74.05 73.92 75.17 76.32 75.40 75.30 75.09 74.82 74.95 74.93 74.78
71.79 71.33 73.59 74.25 74.23 76.27 75.61 74.41 75.54 75.06 74.92 74.69 75.85 76.98 76.61 76.80 76.29 75.92 75.57 75.04 75.08 74.25 74.62 71.52 73.94 74.95 75.17 75.96 74.19 75.50 73.45 73.21 73.72 73.80 75.00 74.67 75.75 75.39 75.53 74.73 74.78 74.58 74.42
70.96 71.15 73.17 74.01 76.32 75.43 77.33 76.34 74.87 74.62 74.22 75.33 75.88 76.62 76.25 75.39 75.33 75.42 76.18 74.21 74.27 75.76 74.62 74.80 74.23 75.74 73.86 74.02 74.74 73.84 72.98 73.25 74.11 73.75 74.25 75.06 74.08 74.88 75.58 75.22 75.29 74.15 73.78
71.39 71.58 72.90 74.16 75.98 76.87 76.83 77.20 76.46 76.81 76.42 74.92 75.20 75.80 76.88 75.48 78.30 76.08 75.90 75.73 76.50 72.14 74.31 74.97 75.19 74.45 74.68 73.03 73.66 72.73 73.80 73.43 74.18 73.86 74.98 74.91 75.41 74.39 73.45 73.84 73.59 73.89 73.64
71.70 72.40 73.01 74.31 75.55 76.27 76.89 76.44 76.74 75.62 74.86 74.99 75.94 77.29 77.62 77.60 77.70 78.02 76.50 76.10 75.86 76.75 76.31 75.29 74.50 74.99 72.76 73.98 71.44 74.43 72.93 74.65 73.67 74.06 73.81 73.41 74.67 75.04 75.15 74.11 73.23 72.74 72.74
72.03 72.68 73.70 73.67 74.75 75.62 76.19 76.19 75.66 75.35 75.24 74.98 76.11 77.07 77.85 77.44 77.44 77.97 75.97 75.02 76.78 76.88 75.78 73.80 71.51 73.58 73.56 72.51 72.25 71.47 73.50 73.43 73.63 74.01 74.07 74.59 75.18 74.78 74.47 75.01 74.74 74.19 73.77
72.21 72.98 73.62 74.07 74.35 75.23 76.58 76.24 76.10 77.05 76.42 76.13 75.95 77.06 78.40 78.26 77.92 75.88 75.48 76.47 77.38 76.71 74.02 75.14 72.65 72.18 73.47 71.79 70.27 72.08 73.63 72.49 73.97 72.48 73.40 73.92 73.33 74.25 74.97 75.58 74.87 74.43 74.21
72.28 72.93 74.05 73.78 76.25 76.90 75.83 76.35 75.38 75.28 76.07 75.44 75.29 75.96 78.37 77.69 78.06 78.64 76.64 76.64 76.95 74.70 74.68 73.75 75.48 72.71 72.32 70.29 69.57 70.84 72.17 72.55 72.58 72.70 72.20 72.48 72.70 73.32 74.11 75.69 74.52 74.31 75.04
72.20 72.50 73.65 74.72 77.74 75.40 73.87 73.46 73.83 73.43 74.80 75.70 77.76 77.98 78.39 77.97 77.98 78.49 75.92 76.83 77.01 75.90 77.02 75.55 73.82 73.87 71.54 72.90 70.20 68.86 69.89 71.26 72.03 71.84 73.15 72.38 72.30 72.56 73.22 73.33 74.57 75.22 73.74
71.51 72.47 74.84 75.76 77.89 76.15 74.46 75.65 75.58 76.03 74.77 75.07 75.83 78.16 78.51 78.13 78.38 77.24 77.74 77.28 74.71 75.86 76.51 75.66 76.20 73.28 70.93 74.09 72.81 68.48 66.66 71.06 70.95 72.06 72.52 72.18 72.53 72.96 72.99 73.76 73.02 73.51 74.50
71.50 72.50 74.65 76.55 77.76 76.99 76.87 75.45 75.69 76.54 75.95 74.14 76.63 76.33 77.74 78.35 78.47 78.63 77.66 78.30 77.28 77.64 74.22 76.22 75.64 76.87 71.31 71.54 74.33 72.12 67.69 64.82 69.60 70.80 72.07 71.99 73.12 72.48 73.41 73.40 73.74 73.53 73.87
71.85 73.12 75.68 76.26 77.68 77.14 78.05 74.56 76.41 73.55 72.15 72.95 75.21 75.73 77.07 78.33 78.32 78.27 78.30 77.95 77.64 76.59 77.73 76.63 76.49 76.94 75.49 71.61 70.84 71.84 74.81 72.37 69.56 67.88 70.21 71.37 72.49 72.08 73.09 73.01 73.35 73.66 74.43
72.41 72.89 73.90 76.82 77.61 77.77 77.72 77.07 74.67 75.16 73.41 73.71 73.62 79.11 80.01 80.00 78.53 78.17 78.21 78.36 78.29 76.55 77.85 77.38 77.35 77.17 73.75 75.22 72.49 70.66 72.72 71.24 73.74 69.83 67.93 69.23 71.52 71.80 72.53 73.56 73.07 73.25 74.71
72.76 73.21 74.47 76.65 77.50 78.15 77.75 76.80 77.57 75.53 76.05 72.51 74.32 74.99 74.95 76.02 76.98 78.69 78.39 78.65 78.60 78.14 78.06 77.50 77.81 77.65 77.69 75.96 74.51 73.94 71.58 69.92 69.80 69.85 69.26 70.60 69.50 71.56 72.65 72.83 73.31 73.18 73.54

GFSSE_sfc_wetblb_054.txt.gz
Wetbulb
72.90 73.38 74.57 75.63 76.75 77.13 77.06 77.46 77.77 78.32 78.05 77.70 77.18 76.65 76.23 77.07 76.48 76.44 76.34 76.38 76.27 75.61 75.86 75.97 75.59 76.25 76.69 76.90 76.60 76.62 77.02 77.80 77.77 77.49 77.28 76.95 76.69 77.17 77.03 77.34 76.90 74.38 76.62
73.38 73.19 75.46 76.64 77.20 77.16 77.19 77.85 77.66 77.66 77.80 77.13 76.77 76.56 77.04 76.59 76.67 76.74 76.22 76.30 76.44 75.61 76.14 75.42 75.56 75.89 75.73 75.84 76.22 76.71 77.00 77.19 78.03 77.19 77.00 77.10 76.83 76.16 76.61 76.76 77.35 75.55 76.36
73.00 74.00 75.39 76.76 77.63 76.89 76.89 77.43 77.32 77.49 77.04 76.83 77.33 77.23 76.98 76.69 76.82 76.71 76.77 76.33 76.44 76.11 76.12 76.25 75.45 75.59 76.37 76.14 76.25 76.23 76.72 76.84 76.79 76.04 76.79 74.73 75.28 76.70 77.22 76.65 76.57 76.21 75.86
73.43 74.52 74.89 77.04 77.17 77.24 76.91 76.96 76.89 76.81 76.92 77.33 77.10 77.06 76.90 76.79 76.65 76.55 76.54 76.22 76.47 76.66 76.30 76.50 76.20 75.81 75.53 76.20 76.36 76.37 76.23 75.93 75.56 75.50 74.29 74.39 74.30 76.45 76.62 76.32 75.96 76.10 75.26
74.23 74.94 75.59 77.53 77.91 77.58 77.61 77.46 77.80 77.31 77.17 77.07 77.19 76.96 76.47 76.79 76.60 76.23 76.34 76.10 76.09 75.98 75.90 75.73 75.48 75.45 75.84 75.96 75.87 75.76 75.71 75.51 76.14 75.48 74.50 74.36 73.49 75.45 75.33 75.71 75.66 75.72 75.70
74.33 75.34 77.21 78.11 77.72 77.68 77.41 77.57 77.34 77.20 76.99 77.08 77.29 77.12 76.77 76.54 76.77 76.65 76.22 76.31 76.09 76.15 75.84 75.90 75.76 75.62 75.37 75.45 74.76 74.90 75.04 75.86 75.50 74.70 73.65 74.87 74.28 76.04 76.10 76.12 76.08 76.00 75.82
73.90 74.47 76.32 78.32 77.97 77.84 77.44 77.36 77.32 77.29 77.00 76.84 77.00 76.79 76.54 76.81 76.73 76.56 76.73 75.87 76.04 75.98 75.56 75.76 75.76 75.84 75.56 75.59 74.59 74.07 74.84 76.68 73.93 74.48 74.18 74.25 74.36 76.44 75.70 76.06 75.65 75.76 75.68
73.06 73.85 75.55 77.48 77.89 77.98 77.26 77.20 77.45 77.25 77.06 77.14 76.90 76.93 77.41 77.43 77.74 77.36 76.62 76.34 76.29 75.98 75.53 75.73 76.12 76.06 75.89 75.53 73.82 73.46 74.34 76.61 75.42 74.00 74.35 74.07 75.62 75.95 76.18 76.03 75.98 75.73 75.47
72.72 73.99 74.79 75.61 76.87 77.59 77.18 77.17 77.17 76.98 76.98 77.40 77.78 77.20 78.05 77.63 77.39 77.06 76.84 76.34 75.69 75.35 75.81 75.89 76.09 76.35 75.66 74.68 74.51 75.06 75.37 75.98 73.29 73.48 73.34 74.00 76.06 76.10 75.83 74.81 75.31 74.80 74.81
73.08 73.43 74.39 75.30 75.03 75.98 75.92 77.11 76.88 76.99 77.78 77.32 77.41 77.58 77.96 77.31 76.59 76.34 77.21 76.90 76.11 75.72 75.72 75.81 76.20 76.30 76.10 75.28 75.01 75.64 75.48 76.78 72.56 73.15 73.65 74.44 75.71 75.90 75.61 75.48 75.61 75.69 75.38
71.62 72.35 73.39 73.90 75.13 76.89 76.62 76.90 77.08 77.28 77.11 77.49 77.45 77.94 76.77 75.31 75.91 75.83 76.95 76.31 75.47 75.88 76.23 76.03 76.09 75.54 75.31 75.25 75.51 75.98 75.24 73.41 72.81 73.35 73.77 76.08 76.19 75.81 75.64 75.49 74.52 75.10 75.33
69.45 71.24 72.36 73.80 74.66 75.84 74.81 76.86 77.05 76.41 76.02 76.03 75.79 75.64 77.27 74.80 76.61 74.92 76.05 76.81 75.30 75.58 76.70 77.08 76.43 73.89 72.21 73.18 74.41 75.89 75.01 72.52 72.09 72.83 74.39 76.32 76.37 75.87 75.56 75.39 74.99 74.18 74.26
70.47 70.79 72.23 74.98 75.18 74.91 75.34 76.20 75.87 76.14 76.05 76.07 73.79 73.35 77.14 76.47 74.26 75.10 74.73 75.32 72.86 75.16 74.83 75.08 73.79 70.43 69.83 71.45 73.57 73.19 73.48 72.36 72.43 73.01 75.51 76.62 76.46 75.32 75.09 75.34 74.99 74.82 74.67
69.83 72.10 73.76 74.31 74.79 75.00 75.54 76.05 71.74 75.97 74.88 75.18 74.29 75.44 77.30 76.50 75.21 74.08 73.15 73.59 72.73 74.27 75.23 72.92 73.42 71.17 73.74 73.14 72.47 72.80 71.44 72.42 72.28 72.71 75.56 76.57 76.46 75.64 74.96 75.00 74.89 74.91 74.31
69.61 71.53 73.54 75.31 73.32 73.12 77.12 77.79 71.64 73.57 74.46 75.72 75.61 73.12 73.24 75.87 76.24 77.81 72.38 72.30 75.59 72.86 73.79 72.36 75.44 73.75 73.73 73.23 73.74 72.37 72.25 73.18 73.75 72.93 73.10 76.38 76.56 76.38 75.41 75.33 74.49 74.00 74.02
70.47 71.51 73.13 74.66 75.92 75.66 75.11 76.22 73.90 75.89 73.70 75.31 75.21 75.26 73.35 77.20 77.26 78.18 77.34 72.98 74.36 72.82 74.49 70.88 75.31 74.87 71.43 73.35 72.45 72.22 71.69 73.92 74.23 73.48 73.74 74.13 75.57 75.97 76.28 75.39 74.36 73.98 74.43
71.06 72.26 72.67 74.85 74.69 75.89 76.52 78.88 77.36 72.66 75.17 75.92 76.08 77.93 78.03 78.68 79.90 77.20 78.02 72.25 71.73 75.59 77.85 77.12 75.77 70.63 74.04 72.64 71.84 72.38 74.54 73.99 73.88 73.79 73.10 73.57 74.58 75.61 75.59 75.20 74.31 73.79 73.24
71.55 72.86 72.92 72.56 74.91 76.29 76.29 78.24 75.01 76.05 75.95 76.94 77.15 77.88 78.13 79.15 79.94 77.39 76.56 76.45 76.06 76.39 72.10 70.05 70.97 73.38 70.83 72.67 73.00 71.10 71.33 73.23 73.56 73.66 73.93 73.62 73.79 73.95 75.65 75.96 75.42 74.66 73.84
72.83 73.21 72.76 74.62 74.65 75.21 75.41 77.05 73.19 73.71 74.07 73.73 78.67 77.10 79.26 78.42 76.48 74.84 73.97 77.89 72.46 71.58 73.36 75.04 74.15 73.25 74.04 71.07 69.48 71.16 72.97 71.40 70.67 72.06 73.35 73.90 74.64 73.33 73.60 75.92 76.10 75.79 74.67
73.06 74.21 73.65 74.62 76.22 76.28 76.77 78.58 77.87 74.94 77.12 76.26 76.25 77.76 79.49 78.66 76.22 75.14 75.21 77.73 78.15 71.72 71.86 74.76 71.91 71.22 73.35 70.52 68.99 71.79 71.50 72.13 72.28 72.68 71.97 72.20 73.00 74.54 73.61 73.51 74.21 73.47 75.41
71.95 73.13 74.57 74.99 76.52 75.20 74.53 74.33 73.39 73.87 72.10 73.04 75.50 76.00 79.43 79.14 77.51 73.35 74.96 77.09 76.01 75.26 72.72 77.51 74.41 73.73 72.36 70.47 70.70 69.57 70.49 71.69 71.37 72.43 72.34 71.06 71.67 73.47 73.93 74.81 74.01 74.54 73.42
71.38 72.53 74.49 75.16 75.91 75.12 75.12 75.69 76.40 73.10 75.26 74.59 72.52 78.88 79.02 78.04 79.21 78.01 76.67 77.35 73.12 75.78 77.83 76.96 75.07 74.79 72.01 74.13 71.23 71.44 66.18 69.40 69.95 69.73 72.49 71.76 71.18 72.46 72.51 72.90 74.10 74.47 73.85
71.24 72.12 73.67 75.20 75.56 75.23 76.65 75.45 78.07 78.97 76.17 74.57 76.73 76.97 78.47 77.59 79.10 78.15 78.58 77.99 79.40 77.57 76.50 77.34 77.21 73.97 72.59 71.51 72.12 72.07 65.36 64.61 67.43 71.08 71.23 71.92 71.67 71.55 72.65 72.33 73.03 72.81 72.34
71.65 72.63 74.02 75.31 76.24 75.23 76.94 74.62 76.44 74.10 73.46 73.54 74.18 75.29 77.41 79.25 78.06 79.32 79.36 78.64 78.13 75.85 75.32 77.73 77.48 75.04 71.63 72.74 71.79 73.67 73.06 71.73 66.23 66.40 70.85 71.54 71.51 71.33 71.96 73.12 72.21 73.02 73.52
72.25 72.40 73.30 74.65 76.16 75.27 75.39 75.91 74.35 74.71 74.66 77.34 75.65 75.99 77.53 79.81 79.83 79.03 79.13 79.75 78.95 77.70 78.10 78.13 78.17 77.49 76.94 74.47 71.53 71.80 72.12 72.04 73.36 69.26 65.87 69.18 71.03 72.15 72.75 72.49 72.69 72.69 73.45
72.56 72.45 73.44 73.81 74.90 75.97 75.09 75.54 75.37 74.06 76.00 74.71 75.16 74.95 75.97 77.13 78.05 79.05 78.40 79.81 80.17 78.54 77.68 77.86 78.92 78.60 77.86 76.63 74.01 74.69 68.48 70.86 71.17 70.28 69.20 70.18 69.79 70.86 72.31 72.79 72.30 72.17 73.73

GFSSE_sfc_wetblb_057.txt.gz
Wetbulb
69.97 72.02 74.87 75.69 76.62 77.25 77.38 77.61 77.86 77.50 77.14 76.90 76.73 77.08 76.98 76.55 76.51 77.32 77.19 76.13 75.78 76.87 76.08 75.65 76.42 76.60 76.91 76.83 76.85 77.54 77.69 78.04 78.37 77.74 77.12 76.70 76.52 77.32 77.42 77.01 75.93 74.19 76.28
71.49 72.42 75.64 76.74 76.91 77.23 77.35 77.60 77.50 78.15 76.99 76.94 76.79 77.12 76.52 76.96 76.70 76.35 76.80 76.27 75.89 76.91 75.38 75.74 76.31 75.63 76.10 76.52 76.91 77.18 77.57 78.19 78.17 77.25 77.37 76.66 76.46 76.70 77.51 76.33 75.96 75.31 76.13
70.93 73.04 75.09 77.25 76.99 77.33 77.57 77.40 77.51 77.15 76.93 77.11 77.24 77.51 76.93 77.12 76.84 76.89 76.55 76.50 76.01 76.58 76.39 75.30 76.20 76.60 76.28 76.21 76.69 77.01 77.15 76.81 77.30 76.92 76.99 74.15 74.40 76.69 76.57 76.49 76.21 76.09 76.00
72.16 73.35 74.48 76.92 77.25 77.24 77.36 77.64 77.85 77.28 77.45 77.19 77.17 77.29 76.89 76.69 76.85 76.63 76.56 76.65 76.60 76.47 76.51 76.26 75.83 75.87 76.35 76.51 76.72 76.51 76.28 76.56 76.16 76.52 73.92 72.72 74.31 76.56 76.35 76.39 75.70 75.46 75.74
72.60 73.33 74.45 77.61 77.80 77.14 77.07 77.07 77.98 77.56 77.25 77.09 77.00 76.74 77.01 76.66 76.48 76.53 76.50 76.35 76.04 75.99 76.07 75.77 75.82 75.85 76.09 76.03 76.12 76.08 76.10 76.37 76.66 75.24 72.79 71.97 72.35 74.88 76.35 75.93 75.86 75.58 75.05
72.82 74.35 77.05 77.73 77.52 77.63 77.55 77.78 77.39 77.20 77.15 77.11 77.36 77.02 76.71 76.91 76.66 76.59 76.21 76.27 76.21 76.10 76.16 76.05 75.85 75.55 75.49 75.35 75.82 75.78 76.04 75.83 75.62 73.55 73.42 74.44 73.21 76.39 76.07 75.90 76.10 75.48 75.66
73.48 75.31 76.19 78.44 77.98 77.40 77.51 77.33 77.40 77.33 77.24 77.27 77.21 76.83 76.80 76.85 76.69 76.87 75.94 76.41 76.02 75.88 76.08 75.80 75.80 75.46 75.60 75.27 75.19 75.24 77.26 76.77 73.22 73.13 73.10 73.00 73.94 76.69 76.17 76.19 76.02 75.76 75.86
73.34 74.85 75.51 77.89 77.70 78.13 77.54 77.37 77.27 77.33 77.07 77.35 76.68 77.38 77.30 76.99 77.11 76.35 76.41 76.24 76.19 75.71 76.02 76.07 75.96 75.63 75.43 74.99 74.00 74.58 76.73 76.83 74.29 73.13 72.84 73.06 75.69 76.78 76.04 76.04 75.78 75.80 74.09
73.61 73.92 74.47 75.26 76.52 77.43 77.61 77.57 77.30 77.17 77.20 77.01 77.23 77.29 77.78 77.03 76.57 76.46 76.44 76.08 75.93 76.05 75.99 75.91 76.01 75.48 74.69 74.25 74.30 74.83 75.41 76.58 72.46 72.65 73.38 73.38 75.99 76.02 75.88 75.40 74.48 74.48 75.00
72.95 73.04 73.46 73.85 74.60 74.22 74.80 77.25 77.04 77.23 77.30 77.35 77.21 77.06 77.09 76.88 76.63 76.55 76.61 77.06 75.88 76.10 76.22 75.97 75.79 75.69 75.44 75.35 74.94 74.94 75.83 75.74 72.58 72.89 73.21 74.08 76.13 75.81 75.82 75.80 75.83 75.52 75.23
71.80 72.18 73.04 72.88 72.96 73.61 74.08 75.50 76.75 77.61 77.28 77.30 76.95 77.09 76.51 72.84 72.94 74.52 76.11 76.97 76.13 76.02 76.19 76.19 75.93 75.62 75.36 75.32 75.53 75.54 74.38 71.95 72.35 72.81 73.26 75.55 76.14 75.46 75.06 74.56 75.01 75.29 75.10
69.03 70.79 72.15 72.01 73.39 73.66 75.07 74.10 74.04 74.79 74.24 73.96 74.08 73.97 73.67 72.47 72.62 73.90 75.44 77.22 76.23 75.63 76.16 76.30 73.39 72.13 71.59 70.70 72.47 74.15 73.32 71.69 72.33 72.81 73.70 76.25 76.50 75.39 75.56 74.65 74.40 74.41 74.65
69.19 70.58 71.24 72.37 73.30 71.92 73.39 73.96 74.13 73.51 73.35 72.92 72.81 72.80 73.67 73.33 71.51 71.60 72.16 72.68 71.78 74.97 72.14 74.32 70.03 68.68 69.56 70.50 72.27 72.88 72.07 70.49 71.84 72.58 75.08 76.58 76.35 75.41 75.49 75.07 75.00 75.17 74.47
67.96 69.94 71.60 72.16 72.22 72.35 73.38 73.35 73.03 72.96 73.04 71.28 70.07 70.99 72.21 71.95 71.28 71.25 72.49 70.42 70.32 71.78 70.41 72.03 69.29 68.68 70.43 71.38 71.93 72.36 71.42 71.35 72.50 73.09 74.97 76.37 76.09 75.20 75.18 75.42 74.71 74.68 74.27
69.89 70.86 71.85 71.46 71.86 71.62 72.85 71.91 70.35 71.06 72.59 72.04 72.27 71.23 71.49 72.12 72.46 72.70 72.19 71.58 71.91 72.45 72.28 71.21 70.12 69.28 70.78 72.04 72.33 70.79 70.84 71.18 70.93 72.33 73.15 76.41 76.47 76.02 75.20 74.61 74.59 74.05 74.07
70.43 70.93 71.00 69.46 68.41 69.93 72.85 71.29 70.30 70.93 72.51 72.73 71.46 70.96 71.28 72.50 73.56 72.11 71.01 72.54 72.07 70.87 70.81 70.53 71.75 70.71 70.93 71.65 70.28 70.20 71.02 71.47 71.49 71.48 72.51 74.10 76.72 76.58 76.01 75.32 74.25 74.22 74.98
70.77 71.20 70.86 70.21 70.03 71.18 72.56 71.70 71.65 72.20 73.50 71.99 71.80 72.21 72.96 72.04 73.39 73.55 71.15 71.22 70.01 71.97 72.69 72.12 70.96 70.89 70.37 70.09 69.13 70.06 70.70 71.48 71.73 72.47 72.51 71.84 73.71 76.71 76.74 75.09 74.96 74.81 73.73
70.91 70.69 71.86 73.12 71.26 72.22 73.16 72.22 71.53 71.66 71.62 72.69 73.53 74.33 74.60 74.14 73.30 72.72 72.15 72.05 70.47 72.61 70.12 68.54 67.16 70.06 68.82 68.24 68.64 69.02 69.12 70.61 71.31 71.35 71.84 72.24 72.34 72.20 75.16 75.79 75.39 75.20 73.92
69.22 70.54 70.48 70.82 71.77 71.86 72.79 70.07 69.73 71.45 71.28 72.70 73.40 74.73 74.17 74.04 73.19 71.51 71.47 73.21 71.05 71.82 70.57 69.90 69.05 69.02 69.10 67.63 67.41 68.01 68.61 69.89 71.04 72.29 71.01 71.58 71.48 72.31 72.70 75.64 75.42 75.36 74.63
69.32 69.29 70.36 71.71 71.72 70.67 72.44 71.53 71.18 72.74 71.31 72.89 73.98 74.29 74.30 73.66 72.12 69.43 70.82 72.71 71.03 69.99 68.80 70.10 69.68 68.91 69.91 67.50 68.62 68.61 70.17 68.05 68.19 68.40 70.69 72.70 72.32 71.63 71.33 72.50 73.65 73.85 75.63
69.19 68.62 69.70 71.39 71.27 73.05 71.92 70.90 70.54 69.28 70.19 71.48 73.06 75.56 74.77 75.13 74.13 72.49 71.70 72.61 71.10 69.55 67.49 71.51 68.56 68.00 68.12 68.72 63.78 65.42 64.66 67.69 68.53 68.25 68.81 68.93 71.26 71.95 70.98 71.03 71.78 71.08 72.61
68.99 68.90 70.26 71.89 71.42 72.15 71.16 71.35 71.21 70.76 69.73 70.85 73.32 74.65 74.49 74.19 73.66 71.93 71.54 72.90 71.60 71.35 71.92 71.03 70.92 68.70 69.25 67.25 65.11 67.05 63.03 63.73 68.09 66.74 67.49 68.19 68.21 71.50 71.81 72.49 71.60 71.34 70.01
69.09 69.79 70.64 72.13 71.63 72.12 71.02 71.03 72.37 71.18 71.52 69.78 70.80 72.83 74.33 75.09 74.76 75.20 74.08 73.95 72.16 72.10 70.95 70.88 71.16 70.49 66.45 66.92 67.94 66.25 61.36 61.75 63.39 66.55 65.17 67.00 66.22 67.72 68.78 69.89 72.13 71.79 70.88
68.82 70.57 71.13 72.35 71.78 71.54 71.84 69.66 70.24 69.34 68.83 69.76 71.07 72.83 73.98 74.16 74.71 75.09 73.50 73.43 73.24 73.56 72.48 71.91 73.03 70.95 67.62 67.38 65.59 69.10 67.34 66.70 63.00 60.91 66.34 66.78 66.63 68.47 67.98 68.03 69.28 69.50 68.90
69.59 69.68 71.54 72.29 71.68 71.52 71.96 70.24 70.03 69.19 71.36 70.54 72.46 73.25 73.26 74.62 74.70 74.89 74.54 74.28 73.05 71.99 71.63 72.18 72.49 71.52 71.54 69.52 65.85 66.43 65.11 66.48 68.47 65.58 61.78 63.85 66.05 66.90 67.65 67.62 68.57 69.02 69.27
69.66 69.90 71.15 72.29 71.03 71.23 71.25 71.91 69.25 69.25 69.81 70.68 70.48 70.91 74.10 73.88 74.88 75.60 74.97 74.35 73.66 73.18 73.06 72.45 73.31 71.90 71.46 71.98 70.04 70.16 65.74 65.89 66.97 66.22 64.27 64.26 63.67 65.33 67.87 67.92 67.69 69.68 70.06

GFSSE_sfc_wetblb_060.txt.gz
Wetbulb
69.41 71.85 75.74 76.46 76.99 77.16 77.52 77.48 76.94 76.78 76.33 76.79 77.33 76.50 76.78 76.83 76.62 76.46 75.89 76.08 76.19 75.79 75.79 76.47 76.74 76.91 76.92 77.50 77.57 77.60 77.47 77.59 77.71 76.91 76.29 76.11 76.22 76.67 76.69 75.75 75.76 74.29 75.48
70.66 72.38 76.56 77.00 77.21 77.36 77.66 77.75 77.31 76.73 76.14 77.27 76.95 76.69 77.04 76.79 76.79 76.90 75.87 76.30 75.60 75.44 75.94 75.94 75.72 76.32 76.75 77.05 77.41 77.31 77.39 78.14 77.88 77.02 76.83 76.69 76.51 76.26 76.06 76.05 76.05 74.70 75.63
70.46 73.57 75.94 77.62 77.37 77.47 77.62 77.20 77.03 76.70 76.94 77.30 76.91 76.95 77.29 76.80 76.50 76.70 76.34 76.18 76.46 75.67 75.72 76.47 76.07 76.21 76.31 76.80 76.84 76.87 77.02 77.35 77.42 76.51 76.66 73.87 74.28 76.43 76.17 76.11 76.06 75.64 75.45
71.80 73.52 74.75 77.42 77.82 77.56 77.19 77.48 77.04 76.95 77.55 77.20 76.86 76.78 76.55 76.64 76.49 76.68 76.40 76.61 76.24 76.22 76.06 75.84 76.41 76.11 76.35 76.66 76.48 76.27 76.18 76.73 77.15 75.70 72.43 72.96 74.15 76.29 76.02 75.12 75.36 75.46 75.54
72.48 73.67 74.43 77.22 77.77 77.51 77.48 77.27 77.02 77.07 77.32 77.07 77.11 76.97 76.64 76.70 76.50 76.35 76.35 76.11 75.97 75.91 75.86 75.86 75.80 75.99 76.16 76.22 76.18 75.97 76.49 77.17 76.52 73.93 71.94 71.32 72.21 75.14 75.54 75.58 75.27 75.71 75.42
72.48 73.55 76.71 77.18 76.83 76.64 76.66 77.19 77.47 77.19 77.15 76.95 76.93 76.50 76.75 76.59 76.65 76.00 76.50 76.08 75.97 76.14 76.00 75.78 75.61 75.64 76.08 76.35 76.13 75.92 76.47 76.45 75.47 72.95 72.95 74.49 73.10 75.87 75.54 75.82 74.81 75.27 75.19
72.77 74.67 75.56 78.13 78.03 77.55 77.61 77.51 77.29 77.19 77.21 77.21 76.99 76.61 77.14 76.48 76.46 75.97 76.11 75.89 75.89 76.06 75.78 75.72 75.34 75.56 75.66 75.74 75.77 76.06 76.60 76.17 73.00 72.52 72.69 72.81 73.87 76.48 75.91 75.81 75.47 75.38 74.33
74.04 75.02 75.70 77.78 77.69 77.73 77.37 77.49 77.41 77.16 77.13 76.87 76.90 77.08 76.83 76.69 76.06 76.33 76.28 75.92 75.84 75.92 75.89 75.59 75.39 75.33 75.24 75.20 75.50 76.83 76.35 75.64 73.47 72.47 72.68 73.00 75.63 76.05 75.87 75.66 75.20 74.28 73.96
74.67 74.56 74.97 75.28 76.53 77.66 77.55 77.44 77.39 77.21 77.12 76.84 76.90 77.16 76.99 76.60 76.61 76.39 76.20 75.78 75.84 75.87 75.92 75.92 75.53 75.05 74.84 75.08 75.45 76.75 76.41 75.36 71.91 72.15 73.07 73.27 76.43 76.32 75.98 74.79 73.84 75.14 74.85
73.67 73.84 73.68 73.90 74.11 74.36 75.52 77.37 77.49 77.40 77.18 77.02 76.86 76.68 76.64 76.28 76.31 76.09 76.71 76.58 75.86 75.86 75.70 75.89 75.95 75.66 75.21 76.20 76.31 75.72 76.44 75.10 72.03 72.31 72.54 73.85 75.48 75.05 75.07 75.33 75.24 74.27 73.95
72.16 72.79 73.30 73.63 72.90 73.19 73.89 75.48 77.07 77.47 77.22 76.91 76.20 76.37 75.91 72.57 73.02 73.65 75.49 76.37 75.84 75.81 76.03 75.58 75.63 76.25 75.20 75.81 74.31 73.85 74.76 71.58 71.82 72.20 72.63 75.34 75.66 75.33 75.96 75.40 75.10 74.73 74.69
70.09 71.67 71.80 72.40 72.42 72.99 75.00 73.57 73.71 75.01 74.19 73.74 73.87 73.57 72.27 71.73 72.06 73.45 74.81 76.39 75.70 75.89 76.11 75.40 73.24 74.93 72.87 71.16 72.45 74.05 72.71 71.32 71.76 72.36 72.98 76.20 76.26 75.39 74.16 74.86 74.96 74.18 74.48
70.44 71.29 71.35 71.95 72.56 72.31 73.33 72.98 73.22 73.13 73.18 73.14 72.80 72.08 71.85 72.44 72.20 71.90 72.12 72.29 72.12 73.93 72.79 72.41 69.16 68.79 69.90 70.41 71.65 71.37 70.70 71.66 71.73 72.39 74.63 76.35 76.12 75.33 75.33 73.97 73.85 74.55 74.11
69.56 70.51 70.87 72.21 71.98 70.59 73.05 73.04 72.65 72.89 72.46 71.35 71.60 71.48 71.69 70.65 69.66 71.52 70.72 69.01 70.32 70.09 68.85 70.92 68.33 68.25 70.34 71.61 70.82 70.38 70.08 70.81 71.11 72.42 74.33 76.37 76.01 75.29 74.96 74.83 74.59 74.31 73.98
68.57 69.78 70.38 71.85 71.18 71.43 72.04 72.33 71.77 71.80 72.55 70.65 69.87 71.41 71.41 72.19 70.25 71.59 71.60 69.99 70.43 70.91 70.02 70.11 68.69 68.26 69.89 70.64 70.68 69.56 70.88 71.47 71.87 72.82 72.70 75.51 75.91 75.45 75.17 74.57 74.74 73.98 73.63
68.53 69.66 70.77 71.32 71.46 71.70 71.98 70.49 69.68 70.86 71.91 71.50 70.81 69.71 71.32 72.87 71.50 70.63 71.43 71.19 70.37 70.24 71.06 69.76 70.89 69.51 68.96 71.27 69.16 69.47 69.51 70.02 71.61 72.24 72.60 73.88 76.37 76.08 75.15 74.17 73.95 73.99 74.43
69.39 70.34 70.51 68.24 70.34 70.58 71.52 70.87 69.04 69.63 71.55 71.21 69.98 68.37 71.81 72.41 72.21 70.19 70.31 70.47 70.39 70.83 70.21 68.73 70.71 69.79 69.30 69.90 68.38 70.35 70.13 69.80 70.76 71.18 72.05 72.33 74.63 76.07 75.72 75.19 74.21 74.38 74.47
69.91 69.43 69.22 70.43 69.22 70.90 69.98 70.63 71.06 70.71 71.42 70.90 70.77 71.60 72.25 73.08 72.86 71.87 69.96 70.33 68.91 70.42 68.40 66.83 68.20 68.97 68.40 68.34 67.62 69.16 69.85 70.31 70.46 70.71 71.14 71.17 71.72 73.39 75.57 75.70 75.39 75.24 73.77
69.77 69.25 68.68 68.05 70.04 71.17 70.68 69.96 70.05 70.76 71.59 71.86 71.82 72.76 72.86 72.72 72.61 71.27 71.19 71.66 70.45 70.05 69.70 68.14 68.34 67.63 67.13 66.77 66.56 66.71 68.52 69.21 70.17 71.20 70.63 70.99 70.78 70.90 71.27 74.79 75.49 75.29 74.15
69.71 69.77 69.81 69.70 70.31 71.27 71.03 67.93 69.80 70.13 70.58 72.31 72.38 73.27 72.98 72.17 71.34 70.60 71.07 70.75 70.73 69.02 67.31 68.99 68.13 67.06 69.32 66.40 68.46 67.77 66.90 67.37 68.74 69.49 69.65 71.12 70.45 71.32 71.11 71.31 72.81 73.29 75.29
69.50 69.02 69.31 69.17 69.95 70.63 69.90 68.98 69.49 68.70 69.83 69.76 72.60 73.67 73.01 72.85 70.65 69.66 71.17 71.23 68.96 67.51 66.44 69.94 68.12 66.13 67.98 67.43 63.63 63.72 65.00 67.98 66.63 67.08 69.06 69.73 70.50 71.05 70.47 70.66 71.47 72.04 72.15
67.99 68.34 69.20 69.84 69.60 70.26 70.11 69.67 69.85 69.42 68.71 70.01 72.43 73.39 73.44 73.10 72.17 70.98 71.02 71.60 70.26 69.68 68.08 69.81 69.01 68.38 66.74 65.71 64.03 64.29 58.88 62.00 65.08 66.29 66.76 68.67 68.13 70.90 70.98 70.36 70.23 70.60 69.87
66.96 68.37 69.48 69.81 70.35 70.66 69.89 70.28 70.72 70.09 69.46 69.13 70.79 72.07 73.02 73.03 72.70 72.26 72.42 72.12 70.49 70.80 69.81 69.66 69.49 68.89 63.76 65.39 65.71 64.53 58.47 58.41 62.12 65.37 64.48 65.39 65.77 68.82 70.46 70.65 70.92 70.67 70.20
67.01 69.31 70.33 70.02 70.43 70.57 69.53 69.13 69.57 68.43 67.75 67.88 69.56 71.45 72.78 73.62 73.07 73.90 73.11 72.67 70.71 71.17 70.17 69.96 72.25 68.42 66.38 65.13 64.24 68.01 65.20 64.19 60.19 59.68 64.35 65.72 64.65 67.37 67.59 67.73 70.68 70.95 70.34
67.99 68.64 70.77 70.17 70.16 70.58 69.67 68.77 69.45 68.06 68.57 68.89 69.44 70.79 71.60 72.56 73.12 73.77 72.33 72.47 71.89 72.15 70.72 70.56 71.34 70.78 69.48 68.04 64.18 65.15 63.66 64.74 65.38 62.62 60.62 63.04 64.72 65.20 66.18 66.88 67.42 68.31 68.04
68.69 68.93 70.93 70.04 69.80 70.46 69.88 68.03 68.35 68.60 68.38 69.05 69.04 70.18 71.08 72.42 73.01 72.96 72.93 72.75 72.06 71.46 70.75 71.09 71.23 69.60 69.89 70.35 68.24 67.79 65.18 64.77 64.95 65.55 61.90 62.06 61.98 63.83 66.28 66.38 66.11 67.49 67.86

GFSSE_sfc_wetblb_063.txt.gz
Wetbulb
68.75 71.26 75.84 76.77 77.02 77.15 76.66 76.49 76.12 75.95 77.19 76.56 76.11 76.53 76.56 76.26 75.86 75.62 75.76 75.91 75.56 75.91 76.56 76.81 76.59 76.92 77.41 77.12 76.97 76.76 76.78 76.79 76.44 76.42 76.68 76.54 75.99 75.91 76.01 75.98 75.32 73.06 75.18
69.88 72.39 76.74 77.13 77.03 77.06 77.06 76.61 76.08 76.04 77.27 76.35 76.77 76.97 76.74 76.84 76.22 75.72 76.36 75.32 75.38 75.61 75.63 75.90 76.36 76.51 76.91 77.27 77.13 77.11 77.01 76.82 77.18 76.77 76.96 76.44 76.39 75.59 75.75 75.69 75.59 74.08 74.66
70.54 73.10 75.52 77.39 77.14 77.32 77.45 76.69 76.20 76.57 76.88 76.43 76.81 76.90 76.80 76.58 76.67 75.59 76.17 76.01 75.14 76.23 75.92 75.64 76.13 76.42 76.70 77.08 76.89 76.96 77.03 76.87 76.79 76.44 76.48 73.39 73.63 76.31 75.71 76.01 75.68 73.95 73.10
71.58 73.58 75.00 77.17 77.59 77.42 77.20 76.70 76.39 76.93 76.85 76.52 76.76 76.52 76.56 76.29 76.15 76.26 76.04 76.25 75.72 75.28 75.90 75.67 75.78 75.91 76.56 76.53 76.49 76.49 76.71 76.26 75.96 75.70 72.47 72.98 74.32 76.03 74.87 75.21 75.65 74.79 74.39
72.72 73.60 74.87 77.40 77.49 77.11 77.13 76.80 76.83 77.25 76.80 76.69 76.82 76.33 76.42 76.19 76.26 76.17 76.04 75.86 75.67 75.34 75.45 75.86 75.65 76.13 75.97 76.06 75.97 75.94 76.35 76.48 75.82 73.53 71.46 71.63 72.23 73.85 76.08 75.66 75.03 75.15 74.94
72.71 73.27 76.28 77.16 77.42 77.30 77.35 76.77 76.64 77.10 76.83 76.62 76.79 76.47 76.45 76.06 76.08 75.86 75.73 75.50 75.89 75.51 75.15 75.17 75.61 76.11 76.22 75.92 76.01 75.97 76.76 76.24 74.96 72.62 73.09 74.37 72.91 75.13 74.95 74.62 75.21 74.54 73.24
72.08 73.99 74.87 77.50 76.72 76.50 76.62 76.98 76.75 77.02 76.67 76.55 76.34 76.33 76.26 76.22 75.67 75.88 75.69 75.92 75.70 75.64 75.20 74.98 75.40 75.48 75.39 75.17 75.67 76.06 76.32 75.95 72.32 72.10 72.53 72.65 73.28 75.78 75.52 75.28 75.20 73.43 73.02
73.13 74.09 75.02 77.23 76.85 77.10 77.18 76.98 77.22 76.85 76.86 76.62 76.25 76.29 76.26 75.99 76.00 76.05 75.92 75.84 75.73 75.37 75.15 75.20 75.22 75.22 75.35 75.92 76.32 76.36 76.11 75.51 73.25 72.20 72.38 72.81 75.36 76.07 75.80 75.69 74.34 73.80 73.55
74.24 74.17 74.25 74.94 76.19 77.28 76.93 77.28 77.06 77.06 76.57 76.70 76.61 76.38 76.15 75.78 76.17 76.03 75.92 75.79 75.79 75.59 75.18 75.44 75.25 74.90 75.20 76.03 76.00 76.32 75.51 75.09 71.61 71.75 73.23 73.42 75.28 75.52 75.51 73.57 74.88 75.01 74.46
73.66 73.84 73.27 73.54 74.13 74.15 74.76 77.37 77.07 76.99 76.82 76.58 76.61 76.62 76.11 75.95 75.81 75.54 76.35 76.47 75.93 75.76 75.45 74.97 74.82 75.12 76.05 76.24 75.77 76.27 75.44 74.93 71.39 71.92 72.62 73.19 75.54 74.50 74.75 74.75 73.96 73.41 73.76
72.69 72.29 72.40 72.87 72.94 73.62 73.90 75.36 76.70 76.97 76.78 76.40 75.73 76.28 75.57 72.23 72.61 73.33 74.82 75.81 76.12 76.09 75.65 75.07 75.26 75.43 75.83 75.20 75.97 76.33 74.61 71.39 71.59 71.92 72.44 74.92 75.87 75.61 75.57 75.13 74.63 74.38 73.83
70.70 71.49 72.03 72.07 72.31 72.99 74.83 73.65 73.65 74.45 73.75 73.31 73.35 72.18 71.72 71.20 71.63 73.20 74.54 75.79 75.76 76.15 76.07 74.98 75.14 75.06 73.24 71.18 72.36 74.12 71.56 71.39 71.49 71.85 72.61 75.43 75.56 74.22 74.35 75.14 74.74 73.61 74.18
70.61 72.22 71.21 71.37 72.06 72.36 72.67 72.52 72.75 72.66 72.67 72.80 72.42 71.95 71.33 71.95 71.40 71.71 71.92 71.88 71.22 73.94 72.64 69.93 68.86 68.41 69.95 70.22 71.02 70.86 70.65 71.21 71.42 72.02 74.24 75.84 75.95 74.64 73.83 73.75 73.60 74.17 73.30
69.86 70.80 70.72 71.49 71.65 71.24 72.36 72.14 72.23 71.91 71.98 71.30 71.31 71.03 70.79 70.40 70.05 70.13 70.34 69.81 70.11 68.94 68.67 69.44 67.48 68.95 70.42 70.61 70.03 69.30 70.21 70.73 70.86 71.95 73.71 75.92 75.92 75.34 74.60 74.17 74.56 73.52 73.11
68.87 69.69 69.81 71.40 70.59 70.71 71.53 71.55 71.69 71.53 71.78 71.22 70.52 70.81 71.36 69.60 69.01 69.73 69.27 68.76 69.08 70.03 68.83 68.92 67.28 68.31 69.14 70.11 69.23 69.11 69.77 70.66 71.23 72.05 72.35 74.97 75.69 75.12 74.40 74.02 74.08 73.66 73.28
68.75 69.10 69.54 70.61 70.46 70.79 70.94 70.75 70.87 71.29 71.82 70.49 69.74 70.43 71.11 70.90 70.08 70.61 69.92 69.39 69.94 69.78 70.01 69.05 69.13 68.12 68.02 69.66 69.20 69.04 69.59 70.68 71.28 72.12 72.19 72.78 75.25 75.29 74.63 74.05 74.09 73.58 73.59
68.44 69.41 69.83 70.23 70.56 70.38 70.99 70.93 69.90 70.01 71.73 70.58 69.99 69.50 70.42 72.30 70.93 69.54 69.62 69.76 69.86 69.30 69.64 69.74 69.63 68.98 68.52 69.23 67.60 68.39 68.70 69.88 70.87 71.77 72.11 72.38 73.26 75.11 75.02 74.12 73.69 73.67 74.66
68.36 68.65 70.14 71.68 70.10 70.29 70.60 70.71 68.99 69.22 70.26 70.57 70.03 68.70 71.00 72.43 71.98 69.86 69.59 69.18 68.61 70.33 69.16 67.47 68.08 68.54 67.71 67.17 66.37 68.24 68.52 69.07 69.55 70.49 71.19 71.46 72.22 73.45 74.42 75.82 74.97 74.26 73.82
68.70 69.21 68.78 69.46 69.15 69.98 69.64 70.10 70.00 69.35 70.10 70.29 70.16 70.85 70.91 72.68 72.61 70.81 69.80 69.98 69.24 68.84 66.84 66.39 66.89 67.40 66.40 66.11 66.18 67.22 68.70 68.92 69.21 70.26 69.96 69.97 70.20 71.32 70.95 73.97 75.85 75.42 74.25
69.22 69.21 69.07 68.82 69.38 69.94 69.29 68.70 68.70 69.44 70.23 70.53 70.57 72.00 72.44 71.55 71.42 70.44 70.66 69.97 69.86 67.44 67.30 67.23 66.64 66.26 66.67 65.57 67.43 66.89 66.31 67.32 68.75 68.83 69.26 70.41 69.80 69.93 70.13 70.04 70.90 72.49 74.67
69.31 68.20 67.53 67.68 69.00 70.03 67.50 66.65 68.27 67.90 68.78 70.15 71.45 72.82 72.03 71.33 70.19 69.73 70.52 70.57 69.19 67.50 66.25 68.17 65.78 66.33 66.88 65.30 62.92 63.16 63.46 66.03 66.04 67.74 68.90 68.79 69.68 70.11 70.37 70.18 70.07 71.33 71.70
68.04 68.15 67.48 67.95 69.35 70.10 68.76 68.44 69.17 68.57 68.92 69.79 71.60 72.45 72.24 71.59 70.09 70.06 70.24 70.36 67.81 66.69 67.31 69.19 67.42 67.16 65.80 64.38 62.22 62.16 59.38 60.26 63.90 65.25 66.08 68.06 68.34 70.08 70.33 70.26 70.00 70.27 70.44
67.70 67.80 67.70 68.02 69.45 69.50 69.02 69.23 68.99 69.21 68.36 68.44 70.43 71.34 72.38 72.50 71.92 70.73 70.61 70.54 69.67 68.80 69.13 68.82 68.50 66.38 62.45 64.04 64.68 62.15 57.12 57.08 60.77 63.66 63.73 65.34 66.20 67.19 69.32 69.97 69.92 69.57 69.36
67.71 68.36 68.50 68.49 69.24 69.36 68.82 69.00 68.53 67.36 66.40 67.33 69.13 70.61 72.25 72.83 72.13 71.53 71.60 71.74 69.88 70.20 69.04 69.10 70.31 68.25 64.41 63.21 63.18 66.17 63.47 62.83 59.21 58.71 62.50 64.25 64.32 64.76 66.81 68.28 69.52 70.22 69.99
67.64 67.92 68.74 68.77 69.16 69.47 68.80 69.36 68.53 67.34 67.91 67.60 68.64 69.90 70.81 71.80 71.95 72.99 72.10 72.05 70.12 70.79 69.94 69.61 70.52 69.17 67.14 66.75 62.40 63.84 62.90 63.75 63.74 61.03 59.55 61.70 63.45 64.37 65.68 66.57 67.26 67.80 69.30
67.40 68.18 68.93 68.63 68.90 69.07 68.63 67.57 68.19 68.06 67.78 67.58 67.31 68.51 69.77 71.36 71.33 72.26 71.70 71.39 71.36 70.50 70.08 69.41 70.24 69.23 68.96 68.64 66.57 65.30 63.26 63.94 64.07 63.28 61.43 61.00 60.97 63.13 64.45 65.56 65.58 66.06 66.93

GFSSE_sfc_wetblb_066.txt.gz
Wetbulb
68.12 71.10 75.98 76.39 76.50 76.12 76.00 75.81 76.06 77.11 76.10 75.89 76.20 76.20 76.09 75.71 75.55 75.69 75.60 75.72 76.10 76.84 77.01 76.45 77.21 77.27 77.31 76.83 77.03 76.37 76.57 76.75 76.70 76.77 76.46 76.15 76.27 75.95 75.75 75.10 75.18 73.30 74.84
69.60 71.84 76.12 76.82 77.11 76.14 76.07 75.80 76.10 77.04 76.12 76.36 76.71 76.47 75.89 75.69 75.56 76.28 75.65 75.11 75.36 75.90 76.39 76.86 76.43 76.67 76.94 76.99 76.87 76.79 76.88 76.85 76.86 76.64 76.51 75.87 75.76 75.60 75.68 75.86 74.84 74.28 75.17
70.42 72.86 75.01 77.35 77.28 76.51 76.28 75.82 76.14 76.72 76.13 76.63 76.55 76.67 76.50 76.38 75.74 75.95 75.34 75.08 76.04 75.62 75.57 76.11 76.31 76.56 76.59 76.91 76.80 77.07 76.82 76.79 76.43 76.46 76.10 74.67 74.64 75.64 75.55 75.11 73.67 73.57 74.33
71.66 73.61 74.77 77.05 77.34 77.11 76.50 76.23 76.68 76.43 76.26 76.86 76.62 76.47 76.47 76.15 76.24 76.10 76.34 75.32 75.53 75.36 75.54 75.65 75.91 76.25 76.38 76.71 76.92 76.89 76.24 76.53 76.42 75.67 74.01 74.65 73.91 75.21 75.70 75.26 75.01 73.44 73.01
72.82 73.87 74.67 77.12 77.23 76.93 76.83 76.45 76.75 76.59 76.30 76.58 76.38 76.25 76.16 76.39 76.16 76.39 75.96 75.80 75.54 75.67 75.47 75.71 75.70 75.91 76.20 76.20 76.17 76.59 76.31 76.24 75.87 73.98 73.53 73.48 73.46 75.21 75.71 75.23 75.39 74.17 73.96
72.69 73.63 76.45 77.19 77.25 77.17 76.80 76.64 76.79 76.84 76.68 76.47 76.24 76.42 75.88 75.72 75.71 75.62 75.46 75.62 75.60 75.43 75.59 75.89 76.06 76.07 75.90 75.58 75.88 75.50 76.38 75.62 75.06 74.18 74.72 74.90 74.12 74.38 75.56 75.52 74.12 73.47 74.78
71.81 73.41 75.29 77.56 77.20 77.36 76.78 76.63 76.39 76.60 76.48 75.95 76.15 76.34 76.07 75.32 75.56 75.68 75.57 75.47 75.34 75.30 75.32 75.53 75.37 75.35 75.21 75.87 76.20 76.50 76.16 75.65 73.48 73.72 73.88 74.05 74.90 75.99 75.60 75.39 73.56 73.09 73.72
72.77 73.69 74.68 76.77 76.47 76.23 76.79 76.76 76.53 76.60 76.45 76.24 76.14 75.80 75.93 75.47 75.20 75.11 75.67 75.93 75.41 75.21 75.59 75.14 75.18 75.56 75.94 76.11 76.45 76.41 75.87 75.52 73.72 73.40 73.83 74.50 75.47 75.93 75.60 74.29 74.22 73.73 73.77
73.74 73.82 74.39 74.05 75.56 77.29 76.91 76.63 76.16 76.32 76.47 76.15 76.00 76.30 75.59 75.52 75.25 75.17 75.87 75.82 75.46 75.32 75.79 75.40 75.27 75.87 76.07 76.38 76.40 76.08 75.57 75.06 72.93 73.78 73.98 74.27 75.26 75.72 73.69 75.02 75.21 74.63 74.11
73.44 73.67 73.30 74.02 74.34 74.30 75.00 76.67 76.56 76.39 76.66 76.63 76.45 75.73 75.81 75.64 75.54 75.76 75.81 76.28 75.43 75.49 75.57 75.43 75.21 75.84 76.13 76.18 76.43 75.78 75.55 74.76 73.00 73.80 74.30 74.80 75.57 74.13 74.48 73.98 73.59 74.23 73.43
73.11 72.08 72.56 73.22 73.55 73.83 74.29 75.66 76.57 76.57 76.14 76.05 75.71 75.87 74.47 72.90 73.53 74.03 75.50 75.90 75.66 75.05 74.49 74.77 75.32 75.36 75.52 76.41 76.38 75.76 74.57 72.71 73.13 73.45 73.53 75.00 75.61 75.28 75.47 75.17 74.83 73.95 74.53
69.98 72.27 72.08 72.54 72.92 73.57 74.93 74.19 73.80 74.80 73.78 73.94 73.56 72.80 72.47 72.28 72.83 73.79 75.08 75.96 75.94 75.24 74.52 74.88 75.02 75.20 73.30 73.30 75.00 74.84 72.95 72.76 73.08 73.46 74.11 75.57 75.48 74.90 74.65 74.63 74.10 74.11 73.50
70.02 71.86 71.63 71.78 72.70 72.86 73.02 73.07 73.15 73.27 73.24 73.27 72.98 72.36 72.61 72.59 72.35 72.38 72.62 72.63 73.32 74.35 72.00 70.62 69.78 70.98 71.64 72.30 72.83 72.44 72.02 72.46 73.06 73.70 74.89 75.41 75.25 73.87 74.45 73.88 73.99 73.78 73.61
69.62 71.23 71.49 71.77 71.91 72.03 72.74 72.63 72.66 72.50 72.62 72.03 72.27 72.45 71.92 71.42 71.53 71.64 71.52 71.55 71.78 70.47 71.42 69.90 69.39 70.91 71.53 71.66 71.87 71.55 71.84 72.40 72.56 73.63 74.88 75.32 75.63 74.94 73.37 73.59 74.11 73.17 72.77
69.83 70.53 71.06 71.28 71.21 71.57 71.91 72.17 72.01 72.04 72.26 71.73 71.63 71.72 72.11 71.35 71.19 71.29 71.00 70.48 70.95 71.14 71.20 69.79 69.57 70.56 70.85 71.57 71.00 71.06 71.50 72.07 72.69 73.53 74.30 74.49 74.78 74.25 73.75 73.54 73.60 73.18 72.91
69.59 69.21 70.05 70.80 70.73 71.21 71.39 71.51 71.73 71.92 72.44 71.88 71.30 71.74 72.09 71.87 71.43 71.31 71.28 70.88 71.46 71.20 70.99 70.75 70.36 70.65 70.11 71.03 70.64 71.10 71.35 72.17 72.83 73.27 73.98 74.17 74.31 74.07 74.23 73.38 73.60 73.05 73.22
68.69 69.16 69.18 70.26 70.52 70.58 71.12 71.41 71.31 71.62 72.52 71.95 71.49 71.44 71.34 72.29 71.04 71.17 71.39 71.41 71.59 70.84 71.79 71.62 71.26 71.09 70.47 70.69 70.17 70.38 71.07 71.80 72.38 73.03 73.48 73.98 74.29 74.49 74.72 74.02 73.35 73.47 73.98
68.15 68.38 69.52 71.72 70.48 70.23 70.71 71.01 70.62 70.64 71.48 71.80 71.53 71.00 70.75 71.78 72.15 71.03 70.83 71.50 71.00 72.10 71.11 69.88 70.19 70.55 69.70 69.32 69.15 70.05 70.39 70.80 71.70 72.49 73.01 73.33 73.85 74.47 74.73 75.31 75.45 74.32 73.89
68.22 68.64 69.32 70.59 69.89 70.06 70.55 71.15 70.55 70.23 70.44 71.45 71.50 71.42 71.23 72.48 72.92 71.17 71.03 71.99 71.19 71.07 69.69 69.22 69.26 70.31 69.09 68.66 68.94 69.46 70.66 70.69 70.75 71.13 71.62 72.26 72.51 73.63 73.48 74.00 75.12 75.55 74.29
68.36 69.08 69.64 70.18 69.59 69.94 69.98 70.47 70.27 70.10 70.64 71.29 71.40 71.90 72.46 73.05 72.35 71.84 72.21 71.65 71.38 70.23 69.93 69.93 70.04 69.16 69.41 69.07 68.39 68.77 69.90 70.46 71.08 71.18 71.18 71.51 71.74 71.61 71.80 71.99 72.19 72.59 73.92
68.50 68.50 68.63 68.83 69.03 69.48 68.14 68.09 68.68 68.88 70.00 70.82 71.54 72.85 73.27 72.96 72.06 71.66 71.56 71.30 71.38 69.43 69.56 70.37 68.90 69.86 69.32 68.22 67.81 67.35 67.10 67.60 68.83 69.80 71.44 71.43 71.56 72.16 72.06 72.45 72.29 72.26 72.76
67.88 68.33 67.68 68.51 68.92 69.87 68.94 68.68 69.66 69.45 70.25 71.25 72.25 73.32 73.32 72.87 71.22 71.20 71.73 71.31 70.57 68.84 70.88 71.05 70.56 69.92 68.28 67.38 66.28 65.66 62.33 64.65 66.61 68.26 68.78 70.00 70.65 71.50 71.94 72.45 72.57 72.54 72.81
67.61 67.78 67.25 67.83 69.26 70.25 69.17 69.46 69.19 69.29 69.61 70.26 71.73 72.36 73.11 72.95 72.17 72.00 72.20 71.64 70.72 69.74 70.94 71.54 70.95 69.78 66.83 66.96 67.77 66.20 62.79 61.94 63.54 67.11 67.99 67.72 68.68 69.69 70.52 71.80 72.57 72.64 72.71
67.58 68.07 68.17 67.78 69.15 70.07 69.20 69.35 68.92 68.09 67.36 68.97 70.58 72.10 73.08 73.92 72.90 72.60 72.33 72.46 72.16 71.59 71.56 71.85 72.01 70.47 68.22 67.18 66.89 68.07 66.91 66.20 64.27 63.96 66.63 67.70 68.39 67.88 68.81 69.79 70.87 72.31 72.79
68.11 67.96 68.07 67.87 69.08 69.87 69.73 69.58 68.82 68.09 68.49 69.10 70.34 71.55 72.45 73.38 73.37 72.90 73.20 73.45 71.97 72.27 72.26 72.26 72.77 71.48 70.06 69.33 67.20 67.90 66.87 67.18 66.63 65.24 64.38 66.14 68.13 68.65 68.90 69.88 70.57 70.92 71.64
68.40 68.05 68.19 67.59 68.22 69.42 69.53 68.98 69.14 68.43 68.37 68.21 68.75 70.00 70.86 72.57 73.09 73.15 73.66 72.55 72.27 72.69 72.61 72.20 72.83 72.37 72.04 71.48 69.48 68.25 67.59 68.08 67.54 66.70 65.54 65.63 65.18 68.17 68.58 69.28 69.45 70.17 70.69

GFSSE_sfc_wetblb_069.txt.gz
Wetbulb
71.22 74.22 76.07 76.41 76.31 76.38 76.10 76.73 76.77 76.23 76.20 76.45 76.27 75.97 75.84 75.73 76.00 75.99 75.96 76.14 76.77 76.76 76.79 77.40 77.50 77.40 77.16 76.88 77.22 76.97 76.56 76.37 76.71 76.40 76.50 76.03 75.82 75.63 75.66 75.13 76.19 75.05 75.30
72.66 75.06 76.62 76.98 76.48 76.25 76.08 76.89 76.93 76.40 76.58 76.76 76.72 76.21 75.76 75.55 76.08 75.84 75.14 75.59 76.13 76.32 76.44 77.01 76.82 76.62 77.06 76.87 76.73 76.79 76.50 76.21 76.56 76.47 76.14 76.00 76.17 75.68 75.24 75.84 75.93 75.41 75.00
72.76 75.20 75.85 77.58 76.71 76.46 76.16 76.64 76.53 76.33 76.84 76.76 76.94 76.99 76.18 75.94 75.91 75.35 75.43 75.88 75.57 75.65 76.45 76.60 76.40 76.47 76.84 76.49 76.53 76.56 76.54 76.56 76.61 76.33 76.00 75.27 75.49 75.67 73.86 73.95 75.07 74.34 73.28
73.26 75.34 75.91 77.58 77.32 76.52 76.13 76.60 76.47 76.18 77.03 77.02 76.98 76.61 76.31 75.79 76.04 75.80 75.65 76.14 75.73 75.82 76.09 76.09 76.34 76.48 76.83 76.65 76.76 76.78 76.70 76.51 76.47 75.99 75.29 74.18 74.55 75.59 75.62 74.65 73.26 73.29 73.88
74.15 75.43 76.03 77.17 77.46 76.60 76.44 76.81 76.86 76.39 76.87 76.71 76.50 76.24 76.32 76.30 76.06 75.95 75.67 75.77 76.03 75.57 76.12 76.29 76.32 76.65 76.40 76.37 76.61 76.63 76.60 76.24 76.19 75.18 73.89 75.56 74.86 75.32 75.70 75.04 74.08 74.93 75.04
74.29 75.33 76.92 77.17 77.07 77.09 76.69 77.15 76.71 76.71 76.95 76.46 76.20 76.19 76.14 76.07 76.04 75.75 75.69 75.80 75.69 75.73 76.26 76.32 76.38 76.40 75.67 75.66 75.83 76.48 76.03 75.81 75.33 75.08 75.25 75.27 74.23 75.48 75.50 73.64 75.04 75.36 74.83
74.08 75.53 76.22 77.67 77.38 76.93 77.02 76.82 76.82 76.95 76.48 76.42 76.67 76.36 76.04 76.13 75.86 75.57 75.35 75.13 75.39 75.88 76.20 75.93 75.63 75.58 76.08 76.11 76.67 76.09 75.65 75.53 75.67 75.29 75.29 75.30 75.67 75.68 74.77 73.76 73.42 73.85 73.82
73.95 75.33 76.30 76.95 77.26 76.78 76.87 76.54 76.58 76.53 76.36 76.57 76.30 76.40 76.05 75.65 75.46 75.25 75.22 75.64 75.55 76.02 75.63 75.73 75.90 75.97 76.33 76.70 76.64 76.14 75.99 75.63 74.90 75.19 75.06 75.65 75.37 76.06 74.22 74.46 74.13 74.11 74.77
74.39 75.23 76.53 76.30 76.27 76.71 76.85 76.80 76.25 76.40 76.21 76.14 76.53 76.20 76.20 75.79 75.75 76.03 75.97 75.55 75.66 76.02 75.88 75.82 76.10 76.04 76.92 76.44 76.47 75.94 75.56 74.92 74.74 74.86 74.64 75.27 75.77 74.50 75.49 75.48 74.80 74.09 74.02
74.30 75.05 74.64 74.97 76.93 76.81 76.71 76.61 76.61 76.43 76.69 76.21 76.01 76.12 76.20 76.04 76.18 76.07 76.36 76.44 75.83 75.83 75.88 75.63 76.18 76.28 76.03 76.53 76.03 75.89 75.35 74.49 75.05 75.34 75.31 75.35 75.29 74.96 74.14 73.99 74.40 73.80 74.46
73.32 74.79 75.46 75.97 76.28 77.00 76.77 76.83 76.54 76.85 76.31 76.42 75.94 76.32 75.85 75.70 75.69 76.00 76.55 76.16 75.50 75.11 75.30 75.61 75.58 75.60 76.32 76.69 76.20 75.54 73.59 74.70 74.34 74.36 74.01 74.77 74.97 75.16 75.34 75.03 74.03 74.61 73.96
71.67 73.64 74.95 75.73 75.61 76.09 76.10 77.16 76.71 76.01 76.14 76.39 76.54 76.54 75.65 75.79 76.24 76.23 76.38 76.14 75.33 74.91 75.36 75.33 75.74 74.89 74.95 76.43 76.18 74.80 74.07 74.58 74.53 74.52 74.92 75.17 75.43 74.68 74.66 74.93 74.09 73.96 73.89
71.56 72.85 74.52 75.55 76.23 75.83 76.66 75.91 75.61 75.52 75.86 76.17 76.28 76.13 76.21 75.36 75.95 76.13 76.20 75.72 76.10 74.44 74.14 74.73 74.45 74.48 74.83 75.74 75.40 75.04 74.14 74.34 74.43 74.67 74.70 75.00 74.46 74.40 74.60 73.67 74.44 73.79 74.61
70.24 72.08 74.53 75.19 75.91 75.99 76.12 75.14 75.68 75.02 75.56 74.79 75.53 76.27 75.65 74.24 74.73 75.18 74.74 75.39 75.04 74.46 74.04 73.56 73.98 74.88 74.95 75.00 75.03 74.88 74.55 74.19 74.47 74.75 74.77 74.62 74.87 74.29 73.44 74.00 74.09 73.58 73.28
69.68 71.79 74.13 75.07 75.87 76.03 76.36 76.05 75.41 74.98 75.05 75.29 75.49 75.69 76.02 75.02 74.55 74.98 74.66 74.86 74.95 74.56 73.86 73.39 74.45 74.29 74.77 74.74 74.85 74.88 74.36 73.67 74.27 74.67 75.11 74.56 74.51 74.25 73.80 73.58 73.81 73.42 73.21
71.22 72.13 73.70 74.31 75.43 75.61 75.71 76.15 75.30 75.04 75.06 75.20 75.65 75.80 75.90 76.02 75.45 75.32 74.40 75.09 75.44 76.10 74.95 74.65 74.41 74.42 74.51 74.61 74.33 74.51 74.01 74.03 74.70 75.11 75.23 75.34 74.01 74.02 74.47 73.53 73.69 73.34 73.64
71.57 72.54 73.27 73.77 74.73 75.03 75.63 75.79 74.75 74.51 74.88 75.22 76.14 76.47 76.08 76.58 76.44 74.31 75.60 75.12 75.39 76.10 75.86 76.34 75.67 75.31 74.53 74.29 73.90 74.24 74.75 74.64 74.53 75.11 75.66 76.16 76.05 74.29 74.60 74.42 73.65 73.33 73.59
71.32 72.14 73.57 72.90 73.73 74.66 74.99 75.44 74.40 74.74 75.30 76.05 76.52 75.86 75.41 75.93 76.61 76.40 75.69 76.20 75.48 76.23 75.33 74.90 75.08 73.98 73.82 73.64 74.02 74.88 75.02 75.04 74.68 75.05 75.68 75.70 75.97 75.36 75.41 74.56 75.60 74.97 74.14
71.46 72.18 72.68 73.40 73.23 74.09 74.89 74.89 74.86 75.28 75.29 76.20 76.73 76.46 75.46 75.69 76.36 75.77 75.41 75.69 75.69 74.94 74.29 74.42 74.28 74.80 73.61 73.33 73.90 74.75 75.47 75.54 75.39 74.89 75.12 75.34 75.58 75.33 75.77 73.92 74.43 74.96 74.87
71.44 71.91 72.38 73.09 73.94 74.30 74.29 74.69 74.29 74.50 74.86 75.41 75.86 76.65 75.52 76.21 76.43 75.88 75.57 75.77 75.81 74.44 73.88 74.36 74.68 74.16 74.36 73.95 72.28 73.34 75.17 75.54 75.78 75.31 75.43 75.49 75.98 75.02 74.91 75.25 75.68 75.39 73.09
70.94 71.51 72.20 72.84 74.05 73.53 72.97 72.46 73.18 72.98 73.87 74.49 75.32 76.16 76.22 76.41 76.54 76.41 76.90 75.33 75.42 74.46 74.86 74.59 73.91 73.86 73.23 74.17 72.70 72.59 73.02 73.40 73.29 73.51 74.72 75.05 74.89 75.08 75.42 75.72 75.84 75.74 75.69
70.47 71.42 72.31 73.05 74.01 74.14 73.23 73.83 74.19 74.19 74.64 75.81 75.69 76.19 76.49 76.54 76.49 76.15 76.17 75.19 75.38 73.67 75.16 74.75 74.68 73.41 73.73 73.16 71.24 71.24 67.41 69.76 72.32 73.68 74.27 73.77 73.85 74.68 74.64 75.13 75.62 76.06 76.22
70.70 71.26 72.08 73.07 73.91 74.61 74.35 73.98 74.27 74.43 74.80 74.31 74.86 75.14 76.02 76.77 74.99 75.62 76.36 75.91 75.24 74.77 74.51 75.39 74.53 74.03 71.48 72.36 72.66 70.71 67.38 66.08 69.53 72.98 73.12 73.85 74.13 74.31 74.41 74.77 74.98 75.58 76.27
70.72 71.95 72.66 73.08 73.84 74.51 74.64 73.85 73.86 72.81 72.08 73.59 74.51 75.13 75.98 76.83 76.02 75.55 76.04 76.15 75.83 74.64 75.58 75.60 75.92 74.89 73.44 71.13 72.72 73.36 72.92 71.91 68.12 67.93 72.00 73.33 74.35 73.88 74.65 74.59 74.87 75.41 75.80
70.90 71.40 72.16 72.89 73.50 74.60 74.78 74.94 73.41 73.79 73.73 74.41 74.86 75.88 76.62 77.33 76.85 76.27 76.18 76.41 76.07 75.83 76.29 76.35 76.18 72.95 74.31 73.07 72.38 72.76 72.77 72.42 73.10 70.77 68.16 70.51 73.59 74.55 74.72 75.03 74.73 75.16 75.55
71.19 71.51 71.78 72.12 73.35 74.04 74.21 74.20 74.13 74.06 74.13 73.40 74.08 74.42 74.80 75.89 78.02 76.93 76.55 76.87 76.83 76.41 76.36 76.13 76.96 76.51 76.44 75.95 75.01 74.33 72.36 71.28 71.79 71.20 70.73 71.88 71.24 73.16 74.40 74.76 75.15 75.25 75.51

GFSSE_sfc_wetblb_072.txt.gz
Wetbulb
73.42 75.07 76.41 76.01 76.37 76.42 76.71 76.58 76.49 76.52 76.55 76.30 76.08 76.04 75.96 76.24 76.21 76.35 76.42 76.97 76.94 77.19 77.67 77.23 77.55 77.45 77.34 77.45 77.11 76.66 76.71 77.25 77.10 76.53 76.46 76.02 76.10 75.93 76.27 75.76 77.01 75.71 75.63
74.66 75.33 77.05 77.25 76.60 76.40 77.58 76.68 76.57 76.82 76.82 76.48 76.42 75.98 76.07 76.47 76.20 75.52 75.72 76.59 76.58 76.66 77.02 77.13 76.98 77.20 77.12 77.06 76.81 76.55 76.56 77.03 77.49 76.54 76.65 76.29 75.81 76.12 76.22 76.26 76.42 74.32 74.40
74.13 75.81 76.55 77.40 76.69 76.41 77.33 76.79 76.90 77.42 77.23 77.57 77.26 76.21 76.48 76.04 75.56 75.80 75.91 75.70 76.28 76.58 77.00 76.80 76.77 77.13 77.12 76.91 76.73 76.75 76.77 76.41 76.20 76.31 77.59 75.44 73.24 74.30 75.17 74.88 73.66 73.74 74.18
74.50 75.67 76.31 77.21 77.25 76.33 77.18 76.67 76.86 77.17 77.18 77.41 76.81 76.64 76.46 76.31 76.17 76.11 76.40 75.92 76.40 76.33 76.31 76.72 76.92 77.05 76.92 76.96 77.17 77.00 76.88 76.44 75.85 75.76 74.34 75.07 75.15 75.38 73.58 73.80 74.37 74.48 74.36
74.99 76.03 77.44 77.51 77.30 76.56 77.21 76.75 76.81 77.25 77.19 76.71 76.69 76.67 76.64 76.29 75.99 75.92 76.18 76.19 75.71 76.56 76.50 76.73 76.67 76.48 76.33 77.00 77.06 76.58 76.48 76.27 76.70 76.39 75.43 74.67 75.22 75.89 74.38 75.07 75.48 74.67 74.95
74.96 75.92 77.18 77.83 77.05 76.83 76.99 77.22 76.73 77.13 76.91 76.16 76.32 76.56 76.25 76.30 76.06 76.15 76.09 76.23 76.03 76.46 76.76 76.77 76.69 75.95 76.18 76.66 76.71 76.31 76.13 75.50 77.58 74.80 73.54 75.57 76.22 74.27 73.93 75.81 75.61 74.35 75.30
74.73 76.06 77.32 77.75 77.24 76.91 77.13 77.33 77.47 76.87 76.56 76.20 76.49 76.44 76.08 76.06 75.95 75.70 75.65 75.96 76.25 76.11 76.26 76.18 75.87 76.05 76.23 76.61 76.18 76.08 75.92 75.44 74.92 75.76 75.36 75.45 75.82 74.86 73.88 74.21 73.99 75.30 75.12
74.41 75.83 76.84 77.36 77.34 77.10 76.79 77.14 76.99 76.72 76.62 76.79 76.40 76.24 76.01 75.93 75.59 76.01 76.07 75.87 76.31 76.18 76.26 76.37 76.37 76.31 76.72 76.65 76.38 76.32 75.81 75.77 75.44 75.55 75.35 75.63 75.50 75.08 74.68 74.40 74.82 75.43 75.29
75.04 75.88 76.14 77.54 77.65 76.92 77.06 76.64 77.06 76.76 76.56 76.57 75.96 76.36 76.08 76.17 76.04 76.12 75.84 76.35 76.18 76.17 76.20 76.34 76.34 76.66 76.89 76.73 76.41 76.08 75.48 74.39 75.02 75.39 75.15 74.19 75.33 75.50 75.41 75.22 74.00 74.80 74.82
74.78 76.29 75.97 75.23 75.78 77.06 77.19 76.70 76.90 76.63 76.60 76.28 76.39 76.15 76.16 76.40 76.15 76.07 77.01 76.75 76.32 75.98 76.56 76.48 76.48 76.71 76.62 76.23 76.09 75.52 75.03 75.21 75.07 75.02 73.87 74.07 75.71 74.35 74.32 74.47 74.40 75.22 73.83
74.52 75.38 73.86 75.51 77.09 77.68 77.42 77.39 76.79 76.40 76.61 76.37 76.17 75.47 76.05 75.73 75.89 75.94 76.63 76.10 76.07 76.21 76.37 76.04 76.15 76.56 76.84 76.38 75.49 74.53 75.44 74.31 73.72 73.67 74.79 74.72 74.80 75.24 75.31 74.43 74.47 74.01 73.78
73.11 74.03 74.12 76.17 75.82 76.86 76.59 77.53 76.45 75.80 75.71 75.97 76.16 76.52 75.86 76.57 77.32 75.73 76.40 75.76 75.70 76.07 75.96 76.18 75.04 75.14 76.83 76.52 75.63 75.15 74.18 74.27 73.98 73.87 74.80 75.41 74.97 75.02 75.00 74.57 74.51 74.28 74.12
73.57 73.26 74.76 75.59 76.62 76.62 77.03 75.28 74.86 75.14 75.67 76.41 76.65 76.38 76.37 75.82 75.48 75.03 75.73 76.08 75.68 75.69 75.91 76.31 76.16 76.18 76.39 75.67 74.41 73.40 73.77 73.61 73.76 73.58 75.10 74.43 74.56 74.61 74.12 74.72 74.12 73.95 74.15
72.95 72.85 74.60 76.06 76.29 76.43 76.23 74.48 75.15 75.17 75.62 75.25 76.19 76.65 76.13 74.89 74.99 75.18 74.89 75.64 75.92 75.38 75.29 75.89 76.08 76.69 76.97 76.31 75.15 74.26 73.38 73.49 73.57 73.67 74.49 75.04 75.22 74.39 74.36 75.16 73.85 73.42 73.80
71.96 73.03 74.29 75.76 76.06 76.38 75.84 74.85 75.10 75.18 75.10 75.56 75.78 76.57 76.08 75.30 75.57 75.53 75.67 75.60 75.75 75.89 75.41 75.91 75.90 76.47 76.34 75.82 75.65 75.18 74.33 74.65 74.35 74.22 74.00 74.63 74.88 74.18 74.09 73.87 73.68 73.48 73.07
71.92 73.28 74.41 74.98 76.47 76.73 75.87 76.31 75.63 75.37 75.71 75.64 75.87 76.67 77.50 76.30 76.35 75.88 75.73 75.62 75.71 75.99 76.06 75.97 76.10 75.82 75.02 75.23 75.27 75.37 74.58 74.97 75.49 76.18 75.50 75.07 74.42 74.00 74.38 73.49 73.51 73.23 73.86
71.97 73.43 74.03 74.77 75.91 76.06 75.91 76.13 75.38 75.37 75.34 75.61 76.04 77.50 77.56 77.46 77.50 77.18 76.38 76.32 75.75 76.79 76.96 76.80 76.65 76.38 74.42 74.89 75.21 75.26 75.02 75.29 75.22 75.42 76.10 75.94 75.38 74.38 75.03 74.51 73.79 73.44 73.28
72.10 73.15 74.23 74.13 75.11 75.53 75.44 75.98 75.61 76.12 76.10 76.65 76.59 76.53 77.15 77.66 77.22 76.75 75.61 75.54 76.65 76.85 76.22 75.95 76.07 74.21 74.01 74.01 74.39 74.46 74.61 74.60 75.15 75.59 75.63 76.25 75.82 76.01 74.81 75.10 75.10 74.93 74.36
72.86 73.42 73.96 74.53 74.94 75.44 76.19 75.38 75.92 76.79 76.37 76.89 77.00 77.08 77.37 77.52 76.73 76.38 76.23 76.01 77.43 76.04 75.79 75.04 75.27 75.44 73.46 73.46 73.18 74.07 74.99 74.75 75.44 74.82 75.95 76.73 75.40 76.26 75.33 74.74 74.48 74.90 74.84
73.26 73.49 74.13 74.25 75.25 75.97 75.82 76.10 75.63 75.66 76.26 77.05 77.20 77.43 77.09 77.89 77.57 77.24 75.85 76.65 76.68 75.12 74.80 75.03 75.39 75.51 74.62 73.97 72.32 72.75 75.14 74.77 76.07 76.16 75.47 75.40 75.73 76.82 76.61 76.83 76.75 75.44 74.57
73.29 72.69 73.58 73.99 75.54 75.01 74.59 74.00 74.25 74.16 75.23 75.80 77.09 77.43 77.28 77.55 78.00 78.31 76.76 76.39 76.74 75.11 75.95 76.63 75.08 74.61 72.40 74.75 72.02 71.34 72.30 74.04 73.71 74.87 75.92 75.76 74.89 76.21 76.48 77.42 76.39 75.88 75.59
72.43 72.10 73.24 73.96 75.60 75.44 74.16 74.75 75.05 75.37 75.71 76.45 76.82 77.56 77.04 77.44 77.74 76.87 77.34 76.49 76.45 74.59 76.30 76.14 76.34 72.79 72.97 74.79 70.86 71.30 68.79 70.21 72.08 73.51 75.10 74.93 74.81 76.07 76.18 76.09 76.85 77.43 77.05
72.07 72.03 73.15 74.58 75.62 75.48 75.57 75.31 76.22 76.58 77.54 77.66 76.52 76.26 77.07 77.85 77.56 78.04 78.01 76.53 77.36 76.10 73.88 76.11 75.57 75.15 70.80 74.28 74.67 70.74 68.20 66.67 70.51 72.28 73.21 73.05 74.64 75.13 75.76 75.69 76.22 76.87 77.84
72.22 73.25 73.88 75.06 75.75 76.03 76.54 75.77 76.16 73.81 72.74 74.18 75.73 76.08 77.05 78.07 77.44 77.35 77.99 77.87 77.76 75.89 76.70 76.18 76.22 76.13 75.35 70.63 72.99 74.34 75.34 73.47 69.12 67.78 70.92 72.34 73.52 73.15 74.21 74.94 74.36 75.13 77.58
72.95 73.13 73.99 75.55 76.03 76.54 76.83 76.56 75.50 75.40 74.37 75.36 75.32 78.30 77.97 78.50 77.54 77.39 77.93 78.08 77.61 76.56 77.24 77.22 77.27 77.07 74.30 73.02 72.58 73.68 74.69 74.77 75.09 70.84 67.25 69.30 71.67 73.09 74.03 75.20 75.66 76.45 77.55
73.25 73.58 74.07 74.90 75.99 76.54 76.95 77.13 76.37 75.85 75.68 73.98 75.27 78.48 74.83 76.90 76.73 77.78 77.57 78.22 78.06 77.66 77.23 76.73 77.80 77.20 77.00 75.89 74.26 74.67 73.11 72.08 71.68 71.83 69.86 71.01 70.85 72.74 74.34 75.37 76.36 77.31 77.57

GFSSE_sfc_wetblb_075.txt.gz
Wetbulb
73.27 75.36 76.51 75.99 76.38 76.71 76.73 76.53 76.64 76.47 76.30 76.11 75.82 75.85 76.36 76.34 76.25 76.61 77.09 77.10 77.51 77.82 77.41 77.50 77.17 77.50 77.35 76.87 76.95 77.02 76.95 76.78 77.21 76.68 76.30 76.48 75.96 75.74 75.54 75.71 76.64 75.01 75.60
74.51 75.54 77.09 77.04 76.62 77.12 76.51 76.47 76.61 76.61 76.58 76.36 75.88 75.97 76.50 76.05 75.45 76.16 76.90 76.83 77.15 77.29 77.41 77.28 77.61 77.07 77.12 76.87 76.99 76.83 76.83 76.72 77.59 76.91 76.21 76.42 76.18 75.92 75.30 75.04 75.12 74.92 75.53
74.68 75.48 76.24 77.34 76.65 77.60 76.53 76.64 76.80 77.07 76.78 76.28 76.18 76.65 76.22 75.84 76.46 76.00 75.90 76.86 77.05 77.22 76.97 77.25 77.38 77.19 77.19 76.91 76.93 76.77 76.28 76.05 76.47 76.90 76.33 71.46 73.55 74.95 73.66 73.82 74.41 75.04 75.43
74.03 74.71 75.17 77.12 76.90 77.06 76.58 76.92 76.84 76.51 76.56 76.39 76.50 76.50 76.56 76.53 76.55 76.53 76.09 76.67 76.64 76.92 77.12 77.11 77.25 77.06 77.18 76.70 76.83 76.80 76.19 75.21 75.21 76.29 75.31 74.29 72.37 73.76 74.97 75.34 74.95 75.14 75.36
73.74 75.10 76.31 77.48 76.79 76.99 76.68 76.95 76.53 76.95 76.48 76.78 76.82 76.70 76.38 76.16 76.24 76.48 76.39 76.12 76.76 76.89 77.00 76.86 76.86 76.91 76.94 77.00 76.95 76.61 75.87 74.79 75.62 76.10 74.86 75.11 72.73 75.03 75.19 75.08 75.10 75.59 75.46
74.45 75.44 76.76 77.34 76.68 77.11 77.34 76.71 77.10 76.78 76.54 76.64 76.77 76.38 76.30 76.29 76.34 76.51 76.54 76.26 76.76 76.92 76.73 76.51 76.40 76.65 76.97 76.70 76.44 76.00 75.01 75.14 76.65 73.85 74.73 74.41 72.71 75.45 75.76 74.68 75.61 75.46 74.83
74.11 76.38 77.25 77.95 77.17 77.13 76.99 76.86 76.60 76.83 76.52 76.59 76.43 76.30 76.29 76.29 76.18 76.04 76.32 76.56 76.70 76.65 76.57 76.51 76.15 76.45 76.89 76.39 76.19 75.61 75.04 76.28 74.82 74.68 74.31 73.87 73.52 74.78 74.38 75.43 75.43 75.49 74.82
73.66 75.61 76.69 76.99 77.25 77.08 76.63 76.74 76.68 76.73 76.70 76.52 76.16 76.37 76.01 75.84 76.14 76.10 76.26 76.57 76.54 76.68 76.73 76.60 76.54 76.47 76.63 76.29 75.93 75.15 75.51 76.41 75.03 75.04 74.15 73.10 75.16 75.33 74.49 75.04 75.23 74.99 74.52
74.71 74.50 76.01 77.06 77.43 77.02 76.73 76.78 76.64 76.90 76.81 76.66 76.34 76.25 76.15 76.29 75.93 76.06 76.62 76.57 76.21 76.48 76.40 76.09 76.12 76.94 76.73 76.50 76.03 74.97 74.63 77.40 74.13 74.38 73.16 74.38 75.25 75.52 75.21 74.12 75.18 75.22 74.56
74.01 74.25 75.88 76.03 75.58 76.69 76.97 76.45 76.70 76.77 76.53 76.59 76.45 76.40 76.70 76.51 76.15 76.71 76.82 76.06 76.26 76.40 76.68 76.70 76.77 76.61 76.33 75.89 75.09 74.63 75.21 76.20 74.84 73.35 73.57 74.81 75.72 74.40 74.48 75.11 74.99 73.95 74.39
73.45 74.28 73.65 74.58 76.35 77.42 76.94 76.87 76.07 76.65 76.59 76.42 75.87 75.82 76.15 75.63 75.84 75.42 76.70 76.37 76.74 76.51 76.51 77.04 76.98 76.87 76.51 75.72 75.18 75.32 75.98 74.59 73.09 73.80 74.19 75.23 76.07 75.38 74.73 74.20 74.16 74.09 74.09
72.14 71.86 73.83 74.88 75.34 76.17 74.89 77.27 76.52 75.93 75.92 76.19 76.09 76.37 74.97 75.35 75.75 75.81 76.50 76.54 76.51 76.57 76.32 76.32 77.03 77.17 76.76 74.43 74.48 75.61 74.29 73.18 73.79 73.70 74.60 75.98 75.71 75.17 75.12 74.81 74.60 74.93 74.05
72.00 72.14 74.79 75.06 76.41 74.31 75.77 74.66 74.52 74.82 74.31 74.71 77.31 75.86 76.39 74.96 75.14 74.77 75.57 75.68 76.53 76.18 75.68 74.95 75.70 75.82 76.25 74.31 72.80 72.28 72.94 72.98 72.99 73.32 74.80 75.37 74.94 74.02 74.72 74.14 73.81 73.80 74.14
71.89 72.52 74.30 75.13 75.40 76.80 75.05 74.06 76.05 74.38 74.09 74.72 75.70 77.90 75.96 74.12 74.95 75.60 74.78 75.42 75.90 75.85 75.54 73.06 74.65 76.25 75.30 74.95 73.70 72.92 72.92 72.54 72.71 72.96 75.50 75.57 74.68 74.35 75.42 74.09 73.43 73.40 73.97
71.11 72.47 74.22 75.54 77.08 77.39 75.47 75.17 75.02 74.30 73.76 74.43 74.64 77.40 76.05 74.51 75.86 76.96 76.95 74.38 75.83 74.70 75.28 75.61 76.02 75.94 75.71 75.12 74.61 74.14 73.57 73.62 73.45 73.35 72.80 75.44 74.48 74.17 73.74 73.88 73.38 73.40 73.30
71.66 72.70 74.46 75.44 76.78 76.17 76.07 77.19 77.73 74.72 74.65 74.91 75.17 76.57 78.02 75.82 78.24 75.29 75.58 74.82 75.54 76.55 77.07 76.17 74.56 75.50 74.21 74.58 74.41 74.76 75.15 74.55 75.21 75.69 74.46 74.26 75.01 74.95 74.40 73.52 73.25 73.08 73.54
71.84 73.43 73.90 75.20 76.10 76.25 75.64 75.84 76.30 76.22 74.71 74.90 76.19 77.30 76.92 76.29 77.45 76.98 74.98 74.69 74.65 76.96 77.17 76.47 75.90 76.52 74.77 74.65 75.46 75.10 74.20 75.32 74.49 76.05 74.96 75.28 74.65 75.12 75.10 74.32 73.66 73.35 73.05
71.75 73.31 74.14 74.27 75.21 75.20 75.52 75.81 75.79 74.78 74.87 75.12 76.42 76.80 77.27 77.10 77.64 77.85 75.47 75.86 75.71 76.70 74.73 76.33 74.71 74.62 75.67 74.09 74.90 74.31 73.71 74.00 74.57 74.62 74.29 75.67 76.10 75.99 75.48 75.65 75.50 75.07 74.37
72.19 73.58 73.80 74.71 74.87 74.96 75.97 75.84 76.79 77.79 75.21 75.35 77.21 75.61 77.81 77.37 77.42 77.07 75.88 76.01 78.54 78.50 78.11 74.10 75.49 74.75 73.08 73.83 73.18 75.16 74.35 73.92 74.51 73.58 74.28 75.04 74.47 75.03 75.82 75.94 75.87 75.27 75.17
73.49 73.83 74.31 74.37 75.78 76.00 75.37 76.21 75.91 74.95 75.29 77.92 77.12 76.22 77.52 76.94 76.88 76.79 76.18 76.50 77.66 76.09 73.72 75.54 75.91 72.61 74.43 73.28 70.75 72.37 73.81 73.20 74.13 73.74 73.85 74.38 74.76 75.19 74.68 75.60 76.59 75.52 75.65
73.37 73.06 73.91 74.40 76.30 75.26 74.37 73.50 74.06 73.63 75.60 76.20 77.15 77.68 77.45 76.76 77.19 77.38 75.70 76.17 77.51 76.89 76.68 76.05 74.61 74.60 72.77 74.18 72.37 71.68 71.61 72.75 72.75 72.97 74.16 74.10 73.85 74.70 74.50 75.09 75.86 75.48 75.49
72.98 72.94 73.67 74.44 76.10 75.51 75.20 76.81 75.13 74.38 75.40 75.28 77.00 77.53 77.50 77.24 77.71 77.28 77.74 76.68 77.27 75.28 76.59 75.76 76.81 75.60 72.83 73.61 73.66 71.38 68.05 69.83 71.25 72.27 73.00 72.76 73.75 73.99 73.89 74.95 74.91 76.06 76.50
72.46 72.40 73.24 74.57 76.04 76.48 77.27 75.52 75.93 76.53 78.20 76.34 76.47 75.84 77.00 77.26 77.21 77.61 77.96 78.58 76.73 77.93 74.21 76.20 75.54 76.41 74.16 71.95 75.23 71.59 69.03 67.27 69.72 72.15 72.46 72.49 73.84 73.21 73.64 74.08 74.54 75.56 76.79
72.06 72.03 73.57 74.63 75.88 76.03 76.94 77.04 78.22 74.16 73.77 73.54 75.89 76.21 76.66 77.94 77.30 77.51 77.64 77.52 77.70 76.29 76.93 75.81 74.89 77.53 75.52 71.77 71.47 72.48 75.45 74.28 71.20 66.42 70.53 71.50 72.48 72.79 73.66 73.58 73.98 74.67 76.42
72.32 72.41 73.78 75.35 76.69 77.70 77.38 77.96 75.83 75.28 73.64 74.88 74.88 76.06 78.70 78.04 77.72 77.17 77.95 77.99 77.76 76.75 78.12 77.38 77.35 77.37 73.83 72.85 72.47 72.45 74.37 72.82 74.12 71.04 66.67 68.85 71.39 72.28 73.21 74.19 74.36 74.75 76.49
72.02 72.64 74.02 75.80 76.76 77.17 76.67 76.82 77.33 76.74 75.96 75.32 73.08 75.09 75.21 75.43 76.35 77.68 77.53 77.95 78.11 78.30 77.80 76.63 77.86 77.23 77.33 76.86 74.79 74.43 73.84 70.27 72.33 70.57 68.73 71.98 70.28 72.48 73.37 74.34 75.30 75.97 76.32

GFSSE_sfc_wetblb_078.txt.gz
Wetbulb
72.68 74.21 77.02 77.26 77.00 77.18 76.90 77.02 77.06 76.88 76.50 76.08 76.00 76.24 76.16 76.35 77.01 77.67 77.87 78.42 78.63 78.39 78.10 77.97 78.03 77.25 77.22 77.09 77.16 76.96 76.68 77.53 77.41 77.17 76.56 76.39 75.66 75.83 76.14 76.43 76.47 74.08 75.81
73.95 74.61 77.45 77.59 77.47 77.01 77.00 76.84 76.49 76.65 76.46 76.16 76.30 76.92 75.90 75.63 76.44 77.26 77.52 77.51 78.35 77.96 77.32 77.61 77.63 77.25 77.11 77.09 76.76 76.76 76.67 77.10 77.60 77.66 76.85 76.71 75.46 74.72 75.56 75.70 76.05 74.74 74.55
73.86 74.87 76.10 77.73 77.54 76.74 77.00 77.09 77.17 76.98 76.53 76.25 76.82 76.58 76.26 76.46 75.91 76.59 77.14 76.93 77.45 77.44 77.70 77.44 77.68 77.34 77.23 77.31 76.73 76.49 76.32 76.86 76.97 77.17 75.47 72.23 71.34 74.31 74.45 75.59 75.90 75.51 74.86
74.10 74.83 74.58 77.42 78.01 76.76 77.24 77.36 77.27 76.92 76.44 76.55 76.50 76.49 76.80 76.76 76.63 76.54 76.81 77.07 77.27 77.27 77.27 77.29 77.37 77.36 77.06 76.98 76.49 76.13 75.93 76.16 75.35 76.32 72.81 70.06 73.41 75.64 75.50 75.61 75.51 75.43 74.71
72.99 73.53 74.98 77.80 77.70 76.79 77.30 76.60 76.85 76.58 76.50 76.53 76.79 76.48 76.31 77.28 76.87 76.41 76.58 76.91 76.91 77.17 77.06 76.81 77.49 77.00 76.93 76.74 76.27 75.74 76.07 76.41 77.42 75.09 71.72 71.26 73.33 74.52 75.33 75.87 75.51 75.39 75.24
73.38 73.91 76.75 77.55 77.47 77.13 77.12 77.10 77.02 76.92 76.96 76.87 76.66 76.56 76.23 75.98 76.74 76.61 76.66 76.80 76.93 76.98 76.79 76.74 76.87 77.27 76.74 76.44 76.32 76.22 77.08 77.28 77.19 72.94 71.24 72.93 73.75 74.99 75.46 75.75 75.22 75.58 74.97
73.16 73.96 75.64 77.98 77.88 77.81 77.04 76.79 76.93 76.51 76.79 76.76 76.97 76.60 76.60 76.32 76.50 76.77 76.68 76.87 77.05 76.86 76.58 76.64 76.87 76.82 76.38 75.88 75.99 76.37 76.86 78.06 74.10 72.37 71.68 72.16 73.03 75.52 75.59 75.70 75.37 75.39 74.98
73.28 73.69 74.99 77.60 77.38 77.13 76.66 76.99 76.91 76.76 76.56 76.36 76.97 76.32 76.32 76.26 76.96 76.54 76.69 76.78 76.94 77.08 76.89 76.80 76.84 76.67 76.31 75.57 75.57 75.58 76.19 77.92 74.47 72.17 73.06 73.37 75.09 75.17 75.62 75.33 74.59 75.19 74.39
74.77 74.95 75.46 75.57 76.77 77.02 76.93 76.92 76.81 77.02 76.90 76.40 76.54 76.35 76.95 76.99 76.83 76.72 76.61 76.94 76.78 76.72 76.44 76.44 76.90 76.77 76.41 75.75 75.21 75.33 76.80 78.01 73.92 72.56 73.37 73.61 75.69 75.50 74.93 75.39 75.05 75.22 74.62
73.99 74.32 74.93 75.30 74.86 75.00 75.90 76.81 76.87 76.82 76.71 76.52 76.46 76.27 77.26 77.25 76.80 76.03 76.91 77.46 76.66 76.61 76.67 76.74 76.78 76.52 75.94 75.37 75.22 74.81 75.80 77.59 72.09 72.61 72.52 73.83 75.12 75.23 75.55 74.16 74.37 74.14 75.40
73.33 73.64 73.74 74.59 74.92 76.51 76.22 76.30 76.73 76.58 76.82 76.52 76.16 75.39 76.32 75.41 74.82 75.24 76.70 77.50 76.89 76.78 76.75 76.77 76.45 76.20 75.87 75.61 75.61 75.72 75.69 73.87 73.01 73.06 73.59 75.92 76.10 74.69 74.06 74.12 74.08 73.75 72.97
71.12 72.16 73.43 75.02 75.08 75.27 73.69 76.00 75.52 75.36 75.22 75.82 75.94 74.25 74.78 76.15 75.21 75.55 76.58 77.39 76.64 76.64 77.00 77.04 76.92 76.27 75.69 73.47 74.27 75.97 74.82 72.42 72.79 72.80 73.82 76.36 76.10 74.90 74.94 74.70 75.01 74.40 73.45
71.49 73.58 74.24 76.05 75.63 75.16 75.63 76.14 75.04 75.14 74.64 76.22 77.60 76.16 75.49 74.64 74.65 74.76 75.58 75.07 75.47 76.08 73.82 76.13 76.43 75.55 74.41 74.75 73.32 72.90 71.98 71.86 71.63 72.15 75.00 76.24 75.44 74.33 74.43 73.94 73.76 73.97 73.65
72.20 73.13 73.87 75.45 73.32 74.11 75.89 74.63 73.07 74.88 74.54 74.52 75.25 77.55 77.07 76.30 73.64 72.38 75.79 74.86 76.10 72.68 71.79 72.71 75.50 75.88 75.49 74.04 72.87 72.33 71.48 72.18 72.54 73.35 74.86 75.70 75.07 75.00 75.26 73.58 73.36 73.63 73.39
71.70 72.71 74.54 75.31 76.88 77.85 73.26 76.44 73.28 73.64 74.34 74.95 75.89 77.97 77.13 73.28 75.87 74.88 72.77 76.30 71.96 72.82 72.72 74.20 74.51 75.93 72.93 73.29 74.22 74.07 72.53 73.27 71.78 72.67 74.30 76.31 75.65 74.92 74.11 73.81 73.51 73.20 73.28
70.87 72.14 75.27 75.16 75.80 77.96 75.09 72.28 74.42 72.19 74.69 75.00 75.97 77.65 76.50 74.47 77.92 76.12 72.91 76.53 75.78 72.45 75.86 73.33 75.65 73.23 73.40 73.95 73.67 74.00 73.45 73.85 75.20 71.49 72.84 74.58 75.92 75.85 74.73 74.20 73.26 73.01 73.48
71.06 74.02 74.57 75.24 76.06 76.97 78.16 76.18 72.73 76.89 75.49 72.79 76.97 75.17 74.49 76.30 75.68 73.83 76.08 72.70 74.53 78.40 77.86 75.02 75.89 77.19 73.60 73.87 74.83 75.26 73.69 74.89 73.92 74.50 73.14 72.82 74.29 76.43 75.85 75.24 74.74 73.18 73.15
71.66 73.91 74.36 74.24 74.29 76.19 77.48 78.88 78.22 76.14 74.75 75.60 76.94 76.52 74.24 76.04 76.08 71.48 75.82 73.79 75.09 77.50 76.36 71.14 75.46 70.40 74.22 70.84 73.97 75.11 73.34 74.41 74.51 75.17 74.55 74.45 73.17 73.54 75.80 76.55 76.11 75.44 74.61
72.69 74.47 74.15 74.20 74.46 75.54 77.57 77.50 76.20 75.19 74.87 76.51 74.02 75.34 77.98 78.23 78.19 75.83 74.81 73.80 75.96 76.01 75.76 71.78 73.90 75.03 73.95 73.26 72.68 73.84 73.44 73.50 73.57 73.29 73.66 74.55 74.58 74.31 74.39 76.27 76.52 76.18 75.45
73.39 74.64 75.02 75.36 75.72 76.99 76.12 78.39 76.07 75.44 72.24 73.61 74.38 73.93 77.43 78.34 78.71 78.57 74.03 78.15 78.42 77.08 74.26 74.42 75.77 73.47 70.41 70.06 70.23 71.63 72.79 73.13 73.92 73.30 73.42 74.09 74.14 74.33 74.44 74.27 74.67 74.29 76.27
72.87 73.42 74.89 76.35 76.49 75.85 75.01 74.39 72.53 74.14 75.40 75.83 78.19 76.65 75.53 74.14 78.98 79.40 77.43 78.41 76.01 73.47 70.87 78.14 76.89 73.96 74.66 72.85 74.60 72.51 72.89 72.36 72.11 73.29 73.38 73.10 73.96 74.49 74.38 74.52 75.97 74.89 73.76
72.06 73.17 74.85 76.24 76.75 76.61 75.31 76.72 73.29 76.75 76.71 74.51 75.84 77.72 76.21 76.67 79.07 78.83 76.12 77.31 75.59 75.90 77.35 77.55 76.10 73.23 74.75 72.53 72.07 71.80 66.35 70.04 71.14 71.19 73.09 73.01 73.59 73.25 73.76 74.80 74.34 75.20 75.77
70.86 72.88 74.15 76.08 76.42 76.58 77.92 77.48 75.21 71.68 72.64 70.82 72.15 76.15 77.36 77.69 78.28 78.20 77.87 79.10 72.82 77.77 76.58 77.14 75.60 71.56 74.36 72.79 74.06 73.00 67.26 65.82 70.20 71.04 71.79 72.07 72.35 73.59 72.53 73.34 75.01 75.38 75.69
70.24 73.48 74.53 75.85 76.27 75.86 78.00 76.83 78.00 75.40 72.55 75.48 75.66 76.35 77.05 78.02 77.45 76.44 78.98 79.10 77.03 73.45 71.61 77.27 76.48 74.62 74.51 73.00 73.07 73.22 73.35 73.36 70.43 67.13 71.14 70.94 73.48 71.62 72.99 73.72 73.34 74.92 75.60
71.40 72.47 74.07 75.05 76.64 76.01 77.08 78.45 76.82 77.14 75.07 74.04 74.69 73.81 76.75 78.49 77.58 76.43 78.03 79.40 76.68 73.44 72.27 76.37 77.78 77.19 76.87 73.21 69.22 74.20 73.70 74.11 73.59 72.66 66.56 68.54 71.72 72.07 72.88 73.70 74.22 73.79 75.59
71.43 71.26 73.54 74.55 76.30 77.41 76.39 77.41 77.77 76.34 71.37 69.81 74.39 72.33 75.95 76.30 77.50 77.13 77.12 79.16 77.74 72.81 75.51 73.56 78.15 77.86 77.82 77.77 75.81 75.17 74.23 71.95 71.40 70.87 69.54 69.49 69.96 72.11 72.88 73.20 73.57 75.27 75.97

GFSSE_sfc_wetblb_081.txt.gz
Wetbulb
70.98 73.80 77.28 77.12 76.95 76.82 76.63 76.88 76.42 76.22 76.14 76.17 76.34 76.02 76.15 77.41 77.63 78.32 78.36 77.93 77.76 77.84 78.06 77.67 77.79 77.80 77.42 77.11 77.10 77.18 77.11 78.02 77.70 76.57 75.92 75.61 76.00 76.76 76.78 76.04 74.72 73.13 75.98
72.63 74.41 77.54 77.89 76.81 76.76 76.54 76.45 76.59 76.36 76.29 77.07 76.98 75.62 75.70 76.83 77.24 77.40 77.74 77.61 77.46 78.15 77.52 77.47 77.39 77.12 77.02 76.90 77.27 76.91 76.77 77.41 77.51 77.12 75.75 75.03 74.50 75.72 76.17 75.86 74.79 74.66 75.71
72.83 74.69 75.78 77.92 76.96 76.64 77.11 77.51 77.03 76.75 76.58 76.74 76.89 76.59 76.70 76.01 76.80 77.18 77.23 77.26 77.37 77.68 77.61 77.62 77.31 77.32 76.97 76.63 76.57 76.38 76.43 76.88 77.21 75.61 74.06 71.41 72.45 75.90 75.95 75.90 74.93 75.66 75.58
73.64 74.10 75.52 77.42 77.67 77.53 77.60 77.52 77.08 76.56 76.70 76.63 76.83 77.03 77.08 76.49 77.27 77.03 77.11 77.16 76.99 77.25 77.26 77.65 77.48 76.88 76.58 76.83 76.44 75.90 75.97 76.63 76.75 75.03 72.17 73.01 73.28 76.01 75.73 75.31 75.34 74.71 74.78
72.74 73.84 75.60 78.14 77.76 77.36 76.75 77.07 76.51 76.52 76.64 76.78 76.49 76.39 76.80 76.74 76.46 77.07 77.04 76.99 77.32 77.24 76.92 77.40 77.12 76.75 76.75 76.69 76.28 76.55 76.13 76.75 76.06 73.70 72.22 71.37 71.82 75.17 75.64 75.24 75.29 74.66 75.44
71.81 74.07 77.30 78.02 77.00 77.19 77.27 76.92 76.89 76.88 77.05 76.54 76.60 76.32 76.15 76.74 76.49 77.02 76.93 77.17 77.29 76.91 77.12 77.34 77.11 76.69 76.53 76.24 76.78 77.59 77.95 76.98 73.82 71.18 72.17 73.68 71.49 75.90 75.41 75.47 75.85 74.11 74.85
72.34 73.93 75.78 78.25 77.55 77.25 77.12 76.84 76.90 77.00 76.89 76.60 76.69 76.62 76.49 76.85 76.66 77.00 77.23 77.13 77.05 76.94 77.15 77.29 76.27 76.44 76.43 76.51 76.39 77.88 77.28 75.52 70.88 70.66 70.59 71.15 73.13 76.04 75.66 75.12 75.58 74.18 74.07
72.35 74.09 74.91 77.32 77.81 77.07 77.17 77.17 77.03 76.72 76.21 76.63 76.45 76.30 76.32 76.62 76.78 76.80 76.86 77.16 77.00 76.89 76.97 77.02 76.30 76.07 76.45 76.26 76.35 76.68 77.37 76.10 73.13 72.18 72.04 72.40 74.88 75.99 74.91 75.06 74.45 74.92 74.39
72.80 73.39 74.73 75.05 75.89 77.06 77.20 76.98 76.81 76.61 76.55 76.59 76.40 76.55 76.54 76.66 76.82 76.86 77.11 77.11 76.89 77.33 77.24 76.76 76.45 76.09 76.26 76.30 76.46 77.33 76.80 75.53 71.94 72.13 72.83 72.92 75.58 76.03 75.22 75.38 75.37 74.43 74.11
73.02 73.46 73.07 73.95 73.67 73.72 74.37 76.94 77.14 76.72 76.70 76.54 76.43 76.33 76.75 76.50 76.55 76.58 77.69 77.76 76.70 76.56 76.81 76.71 76.35 75.85 75.96 75.99 75.99 76.71 77.39 75.36 71.15 71.36 72.14 73.35 76.00 75.88 74.14 74.47 74.17 75.25 73.78
72.33 72.74 72.58 72.67 72.98 73.23 73.62 75.04 76.26 76.73 76.42 76.46 75.81 75.64 75.78 72.58 72.68 74.36 76.92 77.72 76.86 76.70 76.42 75.91 75.28 74.95 74.84 75.00 76.68 77.13 76.67 72.03 72.22 72.33 72.87 75.09 75.64 74.00 74.11 74.14 73.49 72.94 73.39
70.31 71.66 72.37 72.67 73.29 73.01 74.55 73.45 73.65 74.18 73.46 72.80 70.90 71.80 71.96 71.42 71.79 74.18 75.88 77.22 77.00 76.95 76.74 76.19 75.58 75.00 75.17 71.53 72.47 76.50 73.16 71.76 72.24 72.51 73.45 76.09 75.92 75.02 74.79 75.30 74.60 73.52 72.93
69.89 72.35 71.95 72.04 72.86 71.17 72.58 72.67 72.47 72.78 72.47 72.60 70.53 71.22 71.62 73.12 72.49 72.92 73.11 73.87 73.15 75.24 72.89 74.85 74.18 73.79 73.08 72.23 72.21 72.12 71.54 71.45 70.26 71.63 74.70 76.09 75.86 74.69 73.99 73.91 74.06 73.68 73.62
70.36 71.84 72.98 72.00 71.73 71.67 73.64 73.64 71.81 71.89 72.19 72.38 72.03 73.65 72.98 71.97 71.33 71.10 72.06 72.64 73.00 71.42 70.27 71.27 72.15 73.92 73.78 73.14 72.84 70.24 70.30 71.14 70.73 71.75 74.06 75.50 75.45 75.22 74.13 73.61 73.59 73.86 73.19
69.61 71.87 71.07 69.81 70.52 72.24 72.14 72.02 72.60 71.21 70.56 72.01 71.67 73.59 72.52 72.10 70.36 71.24 70.30 71.19 72.34 70.19 69.43 70.52 71.12 72.51 70.95 70.17 70.62 71.32 69.96 70.39 71.24 72.38 72.27 75.12 75.98 76.15 74.34 74.10 73.74 73.22 73.38
71.15 71.17 71.56 72.19 72.67 71.95 70.44 70.28 70.27 71.44 71.06 72.17 73.23 72.19 72.27 72.46 71.91 67.71 69.79 72.12 71.10 71.45 70.54 71.32 71.42 70.61 70.07 69.38 69.75 70.01 69.90 70.43 69.98 71.68 73.29 73.49 76.13 75.70 75.05 74.13 73.53 73.66 73.76
71.43 72.32 71.78 71.81 72.73 72.41 71.12 69.09 70.67 71.63 72.39 72.27 71.72 68.97 71.37 71.35 71.69 71.75 71.30 71.54 71.40 71.17 70.51 70.80 71.41 72.30 69.98 70.77 70.26 70.13 70.27 70.50 69.38 70.04 71.58 71.96 73.84 76.07 75.48 74.42 74.57 74.11 73.41
71.65 71.01 71.95 73.19 72.61 71.32 71.91 70.65 72.51 71.68 72.25 72.90 73.61 71.62 72.23 71.47 69.30 68.71 72.73 70.19 71.89 72.70 69.38 69.46 71.29 68.71 69.38 67.97 69.02 69.98 69.33 70.66 69.97 70.47 70.75 71.07 71.96 72.77 75.46 75.95 75.81 75.38 74.25
71.11 71.09 70.34 70.20 71.21 70.75 71.54 72.93 71.09 72.02 73.06 71.95 72.47 72.27 73.77 74.19 72.53 71.49 73.43 69.82 73.01 73.57 71.86 70.04 69.97 70.17 69.18 69.01 69.66 70.35 69.77 70.13 69.21 72.28 71.46 71.36 70.69 71.53 72.18 75.27 76.42 76.29 75.69
70.07 69.06 71.78 71.51 71.63 70.65 71.36 71.20 72.14 72.26 70.86 71.73 71.89 70.77 72.87 74.07 74.15 72.36 71.89 72.60 72.80 71.70 69.69 69.21 69.58 70.70 68.63 68.95 69.26 69.13 68.88 69.79 70.12 69.65 69.47 72.49 72.10 71.75 71.89 71.59 73.83 73.98 75.99
70.44 69.15 71.03 71.36 72.11 70.33 70.45 70.94 70.26 69.16 69.72 71.42 72.14 71.59 73.07 71.15 74.36 73.52 72.10 71.17 71.26 70.70 69.58 69.33 71.48 68.59 71.28 68.02 69.08 67.51 69.47 69.56 69.01 69.02 69.77 70.16 70.29 72.58 71.81 71.49 72.22 71.99 72.40
69.34 69.36 71.17 71.72 71.56 70.26 70.11 71.52 70.66 70.10 71.97 72.28 72.93 72.72 73.62 72.39 74.19 73.91 71.57 71.06 71.63 71.43 72.08 71.44 70.40 69.89 69.85 68.81 66.38 67.00 64.25 66.01 67.15 67.49 69.26 69.87 68.81 70.59 71.03 71.30 72.81 72.45 71.40
69.04 69.94 71.10 71.59 71.94 71.54 71.02 72.17 71.25 71.28 70.58 68.43 69.76 71.54 73.97 74.10 74.41 74.03 71.72 72.77 70.85 71.55 71.07 70.49 69.92 68.52 69.28 66.56 67.48 67.49 64.67 64.51 64.21 65.47 66.62 67.26 67.18 69.04 69.71 70.85 70.92 71.25 71.51
69.20 70.99 71.29 72.56 72.43 71.46 72.90 71.84 70.73 69.24 69.17 69.70 69.63 71.39 74.05 74.68 73.70 74.28 73.89 72.82 71.09 69.88 69.53 72.32 73.42 71.14 70.21 67.14 67.56 70.66 68.69 68.40 64.70 61.53 66.06 65.77 67.44 68.93 67.31 68.36 71.15 71.24 71.81
70.24 71.17 71.48 73.00 72.08 69.94 72.11 72.21 70.84 69.44 71.77 70.31 71.52 72.99 72.68 73.24 74.26 74.46 73.42 73.55 71.63 71.07 71.00 70.55 71.47 71.59 71.64 70.35 67.47 70.05 68.16 70.26 69.63 67.11 60.94 62.39 66.83 67.88 67.24 69.65 69.77 70.33 71.51
69.98 70.85 71.20 72.64 71.95 71.43 71.54 72.70 71.48 69.32 66.10 66.63 69.03 69.58 71.84 72.51 74.04 74.43 74.59 73.19 72.74 71.18 71.42 70.61 71.29 71.23 70.76 72.07 72.23 69.87 70.70 66.30 66.49 67.38 63.54 62.87 63.96 66.73 67.47 68.91 68.96 70.27 71.65

GFSSE_sfc_wetblb_084.txt.gz
Wetbulb
70.64 73.96 77.25 76.95 77.05 77.26 76.96 76.06 75.96 75.90 76.09 76.19 75.77 77.03 77.25 77.54 77.50 77.53 77.65 77.56 77.64 77.85 77.46 77.19 77.55 77.15 75.46 75.32 76.48 76.90 76.64 76.30 76.41 75.91 75.88 76.00 76.09 75.98 74.53 75.15 75.56 74.15 75.52
72.37 74.76 77.13 77.44 76.92 76.27 76.06 76.24 76.14 76.55 77.25 75.74 75.97 76.36 76.78 77.03 77.23 77.13 77.40 77.37 77.39 77.89 77.28 76.99 76.88 76.79 76.74 76.41 76.43 76.49 76.46 76.93 76.98 75.48 75.12 75.78 76.12 75.73 74.91 76.00 75.84 74.46 74.77
72.85 74.87 75.80 77.50 76.48 76.76 77.22 76.91 76.59 77.12 76.72 76.60 76.79 76.12 76.60 76.74 77.05 77.39 77.28 77.34 77.29 77.61 77.43 77.02 76.89 76.70 76.37 76.15 76.31 75.81 76.44 76.42 74.96 74.29 75.07 72.22 73.29 75.58 74.78 75.64 75.80 75.47 75.66
73.57 74.03 75.22 76.97 77.50 77.50 77.24 77.03 76.79 76.84 76.68 76.92 77.05 76.92 76.54 76.96 77.01 77.16 77.15 77.10 77.22 77.67 77.29 77.00 76.89 76.81 76.09 75.84 75.73 75.95 76.56 76.59 75.56 75.12 72.17 72.65 73.55 75.67 75.77 74.78 74.66 75.43 75.67
73.39 74.74 74.65 77.38 78.01 77.04 77.15 76.70 76.54 76.67 76.64 76.46 76.58 76.79 76.62 76.73 76.92 77.02 76.91 77.16 77.08 77.23 77.84 77.13 76.92 76.65 76.18 75.87 75.54 75.62 77.25 76.36 75.39 73.34 71.43 71.28 72.16 74.67 75.39 74.55 74.95 75.07 75.46
73.76 74.31 76.71 77.13 76.88 77.01 76.72 76.56 76.66 76.77 76.54 76.57 76.34 76.47 76.46 76.81 77.02 77.01 77.21 77.07 77.13 77.21 77.24 76.87 76.72 76.43 76.42 76.29 77.48 77.26 76.19 75.90 74.83 72.32 71.35 73.24 72.46 75.19 75.88 74.67 74.23 74.75 74.15
73.11 74.85 75.37 77.85 77.13 77.24 76.84 76.85 76.92 76.56 76.41 76.44 76.55 76.49 76.65 76.88 76.96 77.10 77.08 76.86 77.08 77.13 77.11 76.51 76.59 76.57 76.01 77.53 77.66 76.31 74.90 74.31 70.27 70.22 71.10 72.23 73.36 75.47 75.80 74.66 74.06 73.84 73.64
73.29 74.85 75.15 76.93 77.05 76.95 76.76 77.11 76.62 76.46 76.51 76.33 76.15 76.37 76.78 76.81 76.87 77.00 76.98 76.95 76.98 77.11 77.03 76.31 76.24 76.36 76.06 76.69 77.00 76.98 75.34 73.96 72.12 71.25 71.57 72.13 75.35 75.00 75.16 74.32 75.03 73.91 73.88
74.00 73.70 74.02 74.41 75.80 77.21 76.89 76.71 76.44 76.51 76.26 76.04 76.14 76.21 76.65 76.66 76.75 76.67 77.11 77.17 77.15 77.17 76.76 76.26 76.08 75.88 76.40 76.88 78.31 77.33 75.52 74.67 71.23 71.55 72.27 71.84 76.17 75.14 75.48 74.97 74.17 73.88 73.89
72.89 74.02 73.55 73.10 73.64 73.77 74.28 76.82 76.75 76.67 76.41 76.21 75.89 76.44 76.58 76.53 76.56 76.78 77.62 77.46 77.04 76.84 76.42 76.31 75.83 75.94 76.02 76.35 77.03 77.60 75.99 74.66 70.30 71.96 72.66 73.34 75.91 74.15 74.58 74.27 74.35 73.45 73.44
72.00 72.14 72.84 72.48 72.42 72.78 73.06 74.87 76.30 76.50 76.39 76.11 75.81 76.66 75.07 71.93 73.06 74.16 76.76 76.84 76.35 76.23 76.06 75.86 75.56 75.50 75.34 75.10 76.41 77.16 74.63 71.42 71.50 71.64 71.60 75.25 74.82 73.66 73.84 73.20 72.65 73.00 73.17
70.21 70.77 71.71 71.53 71.63 72.24 74.49 73.04 72.98 73.58 72.48 72.45 71.96 72.36 71.51 70.99 71.58 74.22 75.81 76.76 76.43 75.84 75.71 75.59 75.40 75.45 74.80 70.83 72.12 75.47 71.43 71.21 71.59 72.12 73.33 75.55 75.21 74.45 74.80 73.97 72.75 72.49 72.40
70.67 70.97 71.19 71.44 71.76 71.63 72.37 72.29 72.31 71.76 71.65 69.37 70.09 70.49 70.41 72.33 72.51 72.71 72.53 72.99 72.45 74.42 72.73 73.66 72.32 72.50 72.54 72.26 70.83 71.45 71.48 71.11 70.98 71.96 74.57 75.38 76.22 74.05 74.70 74.62 74.43 73.30 73.39
69.80 70.85 71.44 71.21 71.05 69.96 71.68 71.63 71.47 71.41 71.07 70.38 69.67 70.85 70.61 70.63 70.94 70.39 71.46 71.81 71.82 70.72 70.45 70.70 70.81 72.18 72.83 72.73 71.95 70.54 70.78 69.43 69.68 71.87 73.66 75.45 75.61 73.88 73.64 73.30 73.63 73.19 72.82
69.86 70.69 70.90 70.57 70.13 71.34 71.85 71.21 70.57 70.79 70.77 70.61 71.73 72.48 72.02 69.04 68.71 70.31 70.41 71.08 71.90 68.84 68.00 69.71 70.15 71.25 69.33 70.32 69.88 69.57 69.30 69.71 70.64 71.77 71.53 74.44 75.87 75.21 73.62 73.42 73.22 72.97 73.18
70.70 70.59 69.19 69.58 70.30 71.28 70.99 70.07 69.82 70.26 69.47 70.78 71.43 71.56 71.32 70.62 69.79 68.80 69.05 70.83 70.78 69.76 68.92 69.47 70.32 69.68 68.20 68.60 68.69 68.97 68.96 70.02 70.84 71.65 71.75 71.96 75.21 75.51 74.24 73.88 73.69 73.70 74.16
70.63 70.17 70.37 71.14 70.53 69.20 68.86 69.47 69.95 69.84 71.07 71.21 70.94 70.21 71.90 71.72 70.44 68.44 68.93 69.67 69.40 69.26 70.21 69.90 70.39 69.81 68.58 69.52 68.40 68.54 68.68 68.82 70.08 71.44 72.43 71.98 73.33 75.13 74.31 74.30 74.22 73.91 73.54
70.38 70.04 71.75 72.47 70.50 69.21 67.82 69.76 70.54 70.84 71.64 71.79 71.19 70.58 71.06 71.67 70.88 69.88 70.33 69.79 70.98 72.12 69.10 69.55 68.84 68.09 68.63 67.21 68.05 68.70 68.08 68.72 68.92 69.31 70.59 70.79 71.50 72.47 74.65 75.17 75.50 74.91 74.07
70.50 70.09 69.63 70.94 69.97 70.45 70.06 70.58 70.28 71.78 71.37 71.51 71.85 71.83 72.29 72.23 69.08 69.66 71.18 69.42 72.09 71.38 68.54 69.07 68.64 68.88 69.00 67.76 68.62 69.00 68.88 68.42 68.08 70.33 69.66 69.60 69.90 71.10 70.93 73.86 76.18 76.08 75.21
70.35 70.24 69.80 69.96 69.41 69.88 70.75 69.76 70.39 70.07 70.70 71.29 71.15 71.14 71.46 72.97 73.41 70.95 70.07 70.96 72.92 70.60 69.21 68.32 69.33 69.45 67.40 67.16 68.75 67.92 68.00 68.54 68.39 68.70 69.67 70.93 69.69 70.57 69.96 70.90 72.19 74.09 75.98
69.50 69.36 68.58 69.15 68.60 69.10 69.72 69.48 69.35 68.29 68.10 70.69 71.51 70.95 71.23 71.33 73.06 70.45 71.49 70.95 70.45 69.52 68.66 68.88 68.21 67.50 68.76 67.18 67.41 65.98 67.57 67.73 67.87 68.71 68.43 69.98 70.37 71.24 70.72 70.76 70.32 71.75 71.62
67.59 69.45 69.18 69.86 68.67 68.33 68.95 70.10 69.74 69.44 70.48 70.80 71.68 71.39 71.96 71.52 72.65 72.91 71.68 70.44 69.99 70.02 69.97 70.31 68.89 68.65 68.43 67.74 64.79 65.06 62.22 63.50 65.22 66.22 68.00 68.76 68.32 70.56 71.48 71.40 70.89 71.19 71.06
67.29 69.76 69.39 70.45 68.68 68.68 69.45 70.31 70.12 70.29 68.72 68.76 69.79 70.73 72.89 72.66 73.23 71.55 71.69 72.07 70.91 70.87 70.04 69.16 68.06 67.22 67.42 66.03 66.79 65.37 62.48 61.09 62.20 64.03 65.59 67.12 67.27 67.66 69.13 69.79 70.64 72.09 71.69
67.81 70.20 70.33 70.77 69.56 69.39 70.64 69.55 69.04 68.41 67.37 67.95 69.22 70.48 72.73 72.98 72.72 73.05 72.18 71.35 70.49 69.04 69.33 70.80 71.92 70.31 68.37 67.01 66.04 68.86 67.24 66.30 62.03 59.51 63.91 65.12 65.03 67.33 67.33 67.96 69.59 70.02 70.08
69.13 70.29 70.50 70.50 70.40 70.09 71.26 70.54 69.36 68.50 70.22 69.51 70.54 69.88 71.63 72.13 72.66 72.86 72.69 71.13 69.40 68.83 69.40 69.32 71.09 69.74 70.66 69.15 67.42 68.43 68.05 68.77 67.29 63.08 59.72 61.94 64.62 66.46 66.89 66.84 67.45 69.47 69.83
69.45 70.07 71.43 70.29 69.86 68.88 70.40 71.08 70.13 68.40 68.57 67.73 68.70 69.72 71.02 71.44 72.03 73.39 72.69 71.77 71.91 70.96 70.87 69.36 69.56 70.06 69.64 70.07 70.19 68.60 67.94 65.18 65.67 66.07 62.50 60.93 61.69 64.10 66.34 66.46 67.52 68.81 69.41

GFSSE_sfc_wetblb_087.txt.gz
Wetbulb
69.90 73.76 76.50 76.59 76.70 76.84 76.25 75.77 75.88 76.09 75.84 76.20 77.19 76.70 77.33 77.40 77.34 77.16 77.24 77.20 77.23 77.15 77.29 76.91 75.08 75.05 75.35 75.52 75.98 76.03 75.67 75.81 75.83 75.91 76.01 76.09 74.49 74.94 75.79 75.81 75.26 72.60 75.57
72.09 74.77 76.40 76.79 76.79 76.00 75.71 75.76 75.79 76.76 75.42 75.72 77.01 76.86 77.08 77.20 77.28 77.00 77.04 77.07 76.55 77.44 76.83 76.62 76.64 75.35 76.58 76.55 75.98 76.14 76.03 75.91 76.03 75.49 75.69 76.15 75.07 75.71 75.75 75.72 74.62 73.29 75.63
73.15 74.58 75.64 76.99 75.94 76.46 76.75 76.30 76.36 75.98 75.90 75.68 76.33 76.57 76.88 77.00 77.05 76.94 77.05 76.64 76.70 77.46 76.68 76.84 76.34 76.32 76.37 75.93 75.85 76.10 75.42 74.71 74.52 74.91 75.56 72.54 72.15 75.11 75.68 75.69 75.76 75.00 75.17
73.62 73.94 74.87 76.92 77.19 76.77 76.68 76.33 76.37 76.20 76.36 76.55 75.99 76.46 76.30 76.90 77.12 77.04 76.78 77.07 77.11 77.38 77.06 76.67 76.05 75.83 75.74 75.66 75.36 75.00 74.50 74.93 74.90 74.88 72.19 72.63 73.66 75.15 74.51 75.13 75.58 75.61 75.29
73.59 74.03 73.90 76.74 77.22 76.67 76.54 76.50 76.54 76.51 76.35 76.26 76.36 76.32 76.52 76.75 76.67 77.06 77.14 77.30 77.43 77.08 76.84 76.73 76.18 75.66 75.58 75.18 75.02 74.91 74.94 75.28 74.94 73.31 71.58 71.56 71.72 74.10 74.66 75.34 74.70 75.25 75.67
73.46 73.25 76.35 76.83 76.86 76.76 76.49 76.51 76.62 76.26 76.08 76.08 76.12 76.23 76.51 76.85 76.94 76.95 77.13 77.11 76.92 76.84 76.81 76.73 76.31 76.07 75.58 75.74 75.41 76.08 75.77 75.21 74.35 71.46 72.04 72.86 71.49 75.19 73.97 74.65 74.19 74.27 74.42
72.90 73.81 74.95 77.20 76.99 76.72 76.62 76.49 76.55 76.18 76.19 76.05 76.10 76.50 76.51 76.97 76.83 77.09 76.74 77.06 77.19 76.93 76.70 76.46 76.27 76.24 76.47 76.82 75.80 76.06 75.38 74.71 70.29 71.06 71.73 72.34 72.42 75.67 73.83 73.63 73.74 73.68 74.37
73.59 74.12 74.75 76.82 77.05 76.51 76.69 76.84 76.30 76.49 76.41 76.19 76.20 76.23 76.54 76.77 76.76 76.76 76.79 77.15 77.09 76.60 76.35 76.48 76.11 76.43 76.62 76.32 75.71 74.47 74.22 73.69 72.09 71.44 71.72 72.41 74.62 74.51 74.94 74.04 73.74 73.56 73.47
74.22 73.56 73.43 74.19 75.50 76.66 76.75 76.15 76.33 76.26 75.83 75.85 76.19 76.39 76.38 76.70 76.68 76.73 76.54 76.40 77.01 76.36 75.99 76.25 75.87 76.04 76.62 76.52 76.09 75.10 73.94 73.88 70.45 70.76 71.77 72.28 75.70 75.10 74.63 74.22 73.59 73.61 73.60
72.80 73.34 72.65 72.96 73.46 73.33 73.57 76.29 76.21 76.00 75.93 75.91 75.95 76.31 76.49 76.46 76.68 76.85 76.08 77.15 76.99 76.27 75.94 75.62 75.71 74.94 75.66 76.46 75.38 75.57 75.09 74.47 71.12 71.79 71.86 73.15 75.02 75.11 74.59 74.08 73.46 73.29 73.17
72.29 71.47 71.72 72.18 72.05 72.39 73.11 74.71 75.58 76.07 75.68 75.82 75.83 76.57 74.05 72.01 72.76 74.30 76.20 76.43 76.27 75.94 75.72 75.49 75.40 75.29 75.79 76.54 76.31 75.91 73.85 70.81 70.86 70.56 71.62 74.67 74.44 73.55 73.16 72.71 72.91 73.09 72.95
69.61 70.77 71.36 71.29 71.29 71.86 74.19 72.61 72.12 73.50 72.06 72.22 72.48 71.30 70.86 71.05 72.28 74.60 75.33 76.10 75.83 75.71 75.30 75.19 74.88 75.08 73.48 71.02 72.78 73.88 70.65 70.72 71.08 71.21 71.73 74.74 74.47 74.02 73.39 72.39 72.18 72.03 72.04
69.98 70.74 70.72 70.57 71.20 71.19 72.03 71.97 71.64 70.85 70.33 70.02 70.60 70.37 70.13 71.28 72.21 72.62 72.02 72.46 72.32 74.05 72.09 72.66 71.87 72.10 71.43 70.42 69.84 71.17 70.47 70.81 70.70 71.85 73.44 75.72 74.22 74.19 74.96 73.95 72.91 72.69 72.65
69.57 69.60 70.47 70.82 70.37 69.94 71.70 71.47 70.94 70.66 69.59 67.94 69.21 69.94 70.30 70.44 70.30 70.45 70.84 71.08 71.28 70.04 69.49 69.96 70.25 70.88 71.70 71.84 71.04 70.17 70.00 69.82 69.83 71.26 72.70 74.41 75.20 73.16 72.89 72.68 72.76 72.33 72.40
68.85 69.55 70.24 70.40 70.12 69.83 71.01 70.79 70.42 70.39 70.15 69.67 70.30 70.57 70.63 69.01 68.42 69.28 70.00 70.13 71.05 68.74 67.65 68.82 69.56 70.11 69.36 69.21 71.32 69.67 68.65 68.80 69.48 71.34 71.76 74.08 74.70 74.10 73.05 72.81 72.78 73.15 72.99
68.97 69.67 69.95 69.89 70.03 70.27 70.68 69.68 69.68 69.81 69.60 70.04 70.94 71.20 70.53 68.08 68.71 69.20 68.62 69.61 69.99 69.28 68.58 68.15 69.50 69.23 67.41 67.15 68.49 68.32 68.41 68.91 69.98 70.73 70.84 70.72 74.57 75.31 74.48 73.63 73.67 73.49 73.94
69.39 69.77 69.04 69.45 70.07 70.27 70.01 69.64 69.38 69.51 69.89 70.48 69.89 71.21 71.03 70.38 69.15 67.61 67.96 69.21 68.90 68.67 69.79 69.49 69.84 68.46 67.78 68.30 67.21 67.57 68.22 68.78 69.56 70.47 70.92 71.05 71.63 74.62 74.31 74.21 74.24 73.80 73.64
69.39 68.92 69.09 71.89 69.88 68.28 68.49 69.28 69.21 69.92 70.67 70.19 68.56 70.09 71.21 71.64 70.61 69.46 69.27 69.09 70.28 70.98 68.60 68.55 67.87 67.50 67.34 66.60 67.18 67.54 67.57 68.25 68.42 69.64 70.85 70.94 70.56 71.65 73.17 75.13 74.96 74.88 74.24
69.43 69.00 69.76 69.17 68.06 67.54 69.05 69.58 69.41 70.58 70.71 71.06 69.90 70.87 70.55 71.68 70.31 69.96 69.97 69.35 70.86 70.47 67.16 68.39 67.94 68.26 67.89 66.83 67.61 67.73 67.47 67.90 67.47 69.45 68.83 68.97 69.01 70.39 69.98 72.56 75.63 76.00 75.27
69.45 69.68 69.43 68.97 68.62 68.26 69.55 69.59 69.79 69.77 70.16 70.57 70.58 71.00 71.73 72.24 69.85 70.57 70.84 69.02 71.63 69.94 68.83 67.65 67.96 68.45 66.82 66.40 67.79 67.40 66.01 68.03 67.81 67.23 68.34 69.67 68.75 69.00 69.62 69.49 69.77 72.14 75.53
69.37 68.45 68.62 68.14 68.30 69.40 68.11 68.43 67.92 67.67 67.84 69.96 70.42 70.68 70.56 71.20 72.04 70.34 69.89 70.46 69.99 69.15 68.12 68.69 68.47 66.74 67.25 66.42 66.31 65.37 65.30 67.27 66.94 67.61 67.93 68.60 69.61 70.02 69.85 69.79 70.02 70.16 71.13
68.63 68.22 67.72 68.05 67.94 68.74 68.78 69.03 68.97 68.32 69.05 69.96 70.92 70.53 70.94 71.44 71.72 71.83 70.49 69.39 68.95 69.15 68.50 69.64 68.65 67.40 67.10 67.00 64.22 63.80 61.21 62.20 64.44 65.30 66.31 67.80 68.15 69.56 70.68 70.90 70.61 70.15 70.00
67.78 67.88 67.95 68.22 67.31 67.85 69.27 69.92 69.54 69.24 68.46 68.52 69.62 70.38 71.31 72.15 71.96 72.30 70.71 70.61 69.51 70.34 69.13 68.77 67.60 66.37 65.34 65.91 65.09 64.54 61.36 59.48 61.42 62.61 64.51 66.44 66.96 66.79 67.59 69.38 70.03 70.46 70.93
67.54 69.07 68.52 69.03 67.02 67.45 69.67 69.03 68.76 67.83 67.00 67.58 68.26 69.97 71.02 72.52 72.12 71.97 71.20 71.19 69.68 68.45 69.20 69.86 72.22 69.35 67.26 66.40 65.74 67.93 66.26 65.02 60.20 58.71 62.58 64.23 64.55 65.08 66.58 67.32 68.40 69.04 69.31
68.72 69.45 69.24 69.20 67.52 68.22 69.27 68.86 68.48 67.64 67.82 68.97 69.98 68.28 70.50 71.29 71.93 72.73 71.49 70.12 69.17 68.09 68.70 69.26 69.38 69.28 69.70 68.11 67.19 67.53 66.39 66.45 65.92 60.96 58.91 61.23 62.62 65.14 66.47 66.18 66.51 67.07 68.21
68.86 69.84 69.81 68.96 68.14 69.30 69.59 69.01 68.24 67.99 68.49 68.07 68.19 68.61 69.92 70.66 71.06 72.07 72.09 70.49 69.42 68.49 68.87 68.83 70.05 69.10 68.66 69.75 68.29 68.59 66.72 65.13 65.86 65.06 62.51 60.34 60.10 63.10 65.23 66.06 65.83 66.87 67.92

GFSSE_sfc_wetblb_090.txt.gz
Wetbulb
69.64 72.97 76.57 76.67 75.78 76.59 76.01 75.84 76.16 76.08 76.30 76.69 76.55 76.58 76.95 77.00 76.70 76.86 76.73 76.98 76.91 77.32 75.74 75.68 75.71 75.69 75.33 75.63 75.71 75.80 75.82 75.94 76.11 76.01 75.02 74.74 75.90 75.82 75.80 74.58 75.38 74.20 75.42
72.09 74.27 75.81 76.38 76.22 75.31 75.28 75.23 75.76 75.44 75.63 76.36 76.63 76.59 76.75 76.65 76.33 76.45 76.81 77.24 77.62 77.74 75.60 75.55 76.29 76.80 76.51 76.30 75.98 75.76 75.99 76.10 76.22 76.32 75.47 75.48 75.73 75.91 75.34 74.76 75.48 74.71 75.67
73.32 74.13 74.88 76.88 75.37 75.80 75.52 76.16 75.77 75.22 75.43 76.28 76.42 76.84 76.58 76.55 76.63 76.96 77.03 76.86 77.26 77.30 76.79 76.08 76.26 76.15 76.21 76.55 76.26 75.83 75.11 74.52 75.50 75.59 75.11 73.31 74.04 75.47 75.68 75.90 75.11 75.78 75.65
73.81 74.11 74.45 76.76 76.71 76.15 76.30 75.95 76.00 76.07 76.18 75.94 76.21 76.17 76.53 76.87 76.87 76.83 76.70 76.65 77.58 76.75 76.24 76.02 76.44 76.13 75.97 75.25 74.64 74.69 74.72 74.99 75.53 75.11 73.61 74.11 72.99 75.09 75.71 75.83 75.84 75.47 75.61
73.36 73.60 73.90 76.67 76.52 76.37 75.85 76.24 76.33 76.33 76.11 76.02 76.15 76.38 76.80 76.74 76.97 76.67 76.47 76.32 76.29 76.27 76.51 75.94 75.97 75.58 75.66 75.52 75.58 75.01 75.16 75.17 75.32 73.98 73.30 73.18 73.25 74.76 75.16 75.23 75.36 75.38 75.75
72.74 72.58 76.09 77.02 76.62 76.43 76.32 76.32 76.06 76.27 76.12 75.70 76.27 76.23 76.61 76.77 76.90 76.61 76.70 76.83 76.88 76.64 75.69 76.10 75.99 75.69 75.61 75.22 74.77 75.24 75.23 75.12 74.35 73.53 73.16 74.40 73.53 74.13 74.44 74.21 74.51 74.69 74.64
72.10 73.61 74.78 77.13 76.45 76.38 76.00 75.85 75.87 75.95 76.00 75.97 76.07 76.45 76.61 76.42 76.77 76.52 76.69 76.77 76.78 76.90 76.49 76.16 76.16 76.08 76.30 76.40 76.48 75.78 75.20 74.76 72.55 73.07 73.35 73.41 74.53 74.40 73.78 73.69 73.85 74.71 74.37
72.95 73.61 74.63 76.29 76.37 76.49 76.42 75.75 75.91 75.88 75.96 75.58 75.93 76.31 76.37 76.40 76.75 76.92 77.07 77.21 76.82 76.52 76.27 75.83 76.33 76.33 76.19 75.55 75.18 75.09 74.32 74.31 72.86 73.02 73.13 73.11 74.54 75.18 73.78 73.86 73.67 73.76 74.04
73.76 73.16 74.03 74.38 75.28 76.12 76.14 75.67 75.60 75.91 75.90 75.90 76.11 76.41 76.30 76.60 76.48 76.75 77.03 77.10 76.36 76.13 76.00 75.83 75.69 75.85 75.79 75.79 74.80 73.78 73.81 74.11 71.72 72.32 73.10 74.02 75.31 74.75 74.23 73.44 73.59 73.63 73.65
72.80 73.03 72.73 73.05 73.34 73.30 73.73 76.35 76.00 76.13 75.64 75.86 76.02 76.15 76.62 76.47 76.60 76.36 77.44 77.14 76.47 76.16 75.91 75.41 75.38 76.40 76.22 76.02 75.44 74.59 74.22 73.72 72.24 72.46 73.43 73.34 75.69 74.75 74.71 73.50 73.52 73.31 73.28
72.27 71.75 71.98 72.36 72.19 72.81 73.57 74.66 75.39 75.68 75.79 76.06 75.36 75.86 73.99 73.31 73.75 74.33 76.93 76.87 76.24 75.91 75.30 75.33 75.46 74.76 75.73 76.06 75.98 74.99 73.98 72.24 72.32 71.97 73.88 74.34 74.62 73.23 72.95 72.77 73.06 72.95 72.71
70.31 71.29 71.14 71.52 71.69 72.49 74.18 72.72 72.91 72.97 72.53 72.67 71.71 71.44 71.82 72.84 74.99 75.31 75.71 76.19 76.19 75.77 75.24 75.00 74.69 75.25 73.27 72.95 74.95 73.90 71.40 71.92 71.60 72.26 72.91 74.82 73.94 73.30 72.67 72.17 72.06 72.16 72.04
69.59 71.28 70.85 70.87 71.54 71.79 72.32 72.01 71.05 70.81 71.13 71.40 71.28 70.89 71.63 72.68 73.23 73.26 72.91 73.45 73.10 73.97 72.76 72.82 72.63 72.74 72.34 71.56 72.40 72.29 71.85 72.02 72.22 73.01 73.53 75.25 73.47 74.36 74.46 73.65 72.84 72.80 72.94
69.42 70.42 70.58 70.88 70.86 71.07 72.08 71.48 70.78 70.47 69.39 69.75 70.52 71.20 71.09 71.21 71.45 71.48 71.83 72.28 72.28 70.55 71.09 71.02 72.05 72.32 72.60 73.13 72.31 71.57 71.60 71.59 71.72 72.49 73.35 74.21 74.83 72.77 72.78 72.52 72.68 72.48 72.65
68.59 69.26 70.09 70.64 70.32 70.37 71.41 71.05 70.94 70.94 69.03 69.80 70.50 71.68 71.19 70.50 70.00 70.97 71.22 71.78 72.23 70.15 70.39 70.85 71.65 71.53 70.17 70.45 72.90 71.78 71.02 70.82 70.93 72.24 73.17 73.90 74.16 74.08 73.28 72.81 72.77 73.06 73.16
68.74 69.09 70.00 70.30 70.27 70.15 70.80 70.47 70.54 70.93 71.05 71.08 72.23 71.92 71.14 69.85 70.28 70.78 70.23 71.30 71.29 71.65 70.95 70.78 71.09 70.50 69.85 69.72 71.35 70.92 70.44 70.53 71.14 71.90 72.61 72.26 73.81 74.58 75.26 73.94 73.88 73.63 73.77
68.45 69.70 69.61 69.98 70.33 69.92 70.70 70.18 70.13 70.89 70.86 71.22 71.37 71.83 71.18 71.28 70.61 70.17 70.07 70.89 71.00 71.09 71.42 71.60 71.39 70.69 70.09 69.99 69.80 70.06 70.62 70.62 70.95 71.51 71.79 71.96 72.35 73.95 74.48 74.19 74.23 74.27 74.02
69.18 69.10 69.53 71.25 70.21 69.99 70.06 70.14 70.16 70.37 71.37 70.98 70.73 71.64 72.39 72.33 71.99 71.34 71.00 70.81 72.30 72.67 70.84 70.72 70.45 70.19 69.54 69.67 69.87 70.13 70.24 70.43 70.69 71.22 71.97 72.47 72.41 72.02 72.75 74.12 75.09 75.19 74.65
69.00 69.03 69.05 70.23 69.49 69.06 69.20 70.00 69.91 70.66 71.42 71.02 70.56 71.96 71.92 72.76 71.54 72.16 71.77 71.32 72.55 71.98 70.18 70.63 70.36 70.63 70.41 69.48 69.53 70.36 70.41 70.26 70.49 70.56 70.93 71.40 71.32 71.88 72.04 72.03 73.55 75.15 75.22
69.15 69.13 69.58 69.20 68.63 68.09 69.59 69.70 70.39 70.56 71.27 72.05 71.46 72.55 72.84 73.40 70.96 72.71 72.53 72.03 73.48 71.92 71.01 71.06 70.71 70.97 70.20 69.22 68.74 69.25 69.17 69.84 70.85 69.90 70.23 71.04 71.47 71.48 71.43 72.04 72.35 72.35 73.38
68.93 68.95 68.81 67.94 68.06 68.80 68.83 68.87 68.70 68.86 69.62 71.17 71.65 71.46 72.57 73.02 73.35 72.60 71.57 72.69 72.12 72.23 71.00 71.95 71.77 70.12 70.37 70.07 69.22 69.22 68.30 69.16 69.62 70.16 70.57 70.75 71.62 72.24 72.47 72.52 72.59 72.76 72.70
68.43 68.77 68.30 67.97 68.37 68.92 69.21 69.39 69.48 69.35 69.89 71.28 71.88 71.69 72.26 72.35 73.38 72.32 71.62 71.58 71.47 71.49 71.47 72.23 71.34 69.99 69.58 69.70 68.29 66.71 65.02 66.65 68.25 68.25 68.50 69.91 70.54 71.31 72.02 73.15 73.39 73.73 73.75
68.01 68.23 68.51 68.09 68.68 68.96 69.51 69.96 69.72 69.89 69.75 70.18 71.05 71.96 72.38 72.81 72.40 73.86 72.38 71.95 71.74 72.37 71.55 71.84 70.59 70.47 68.89 69.43 68.83 68.44 65.96 64.35 64.49 67.19 68.71 69.08 70.30 70.36 70.90 71.11 71.86 73.06 73.59
68.15 69.10 68.61 68.36 68.16 68.71 69.81 69.53 69.34 68.66 68.14 69.01 70.31 71.62 72.54 73.61 73.25 73.20 72.70 72.55 72.12 71.26 72.36 72.58 73.44 71.82 70.59 69.48 69.60 69.85 69.28 68.51 65.94 63.92 67.34 67.84 68.63 69.17 70.03 70.99 71.43 71.92 72.57
68.80 68.62 68.63 68.53 67.37 68.28 69.57 69.80 69.11 68.56 69.05 70.00 70.37 70.66 72.05 73.15 73.30 73.45 72.63 72.59 71.75 71.09 71.69 72.63 72.53 72.49 72.01 70.84 69.97 69.94 69.88 68.75 68.36 65.32 65.35 66.01 67.91 68.84 69.90 70.49 70.71 70.95 71.43
68.69 69.20 69.00 68.44 67.39 68.04 69.09 69.21 69.07 68.81 69.03 69.44 69.98 69.60 70.77 72.40 72.88 73.35 73.05 72.06 71.80 70.93 71.44 71.99 73.18 72.32 71.77 72.29 70.88 71.30 70.80 69.48 70.17 68.27 66.89 66.48 64.60 68.17 69.19 70.49 70.55 70.93 71.47

GFSSE_sfc_wetblb_093.txt.gz
Wetbulb
72.52 75.25 76.77 76.17 76.13 76.55 76.15 76.56 76.21 76.32 76.71 76.58 76.76 77.38 77.24 76.97 76.94 77.02 76.72 76.59 76.09 77.12 76.92 76.84 76.58 76.50 75.89 76.08 76.27 76.31 76.20 76.04 76.15 74.89 76.43 76.40 75.99 75.06 75.80 75.81 76.58 75.33 75.47
74.03 75.65 77.34 76.48 75.86 75.38 75.41 75.61 75.50 76.10 76.47 76.89 76.98 77.01 76.92 76.81 76.80 76.50 76.43 76.14 76.14 76.70 75.80 75.86 76.87 76.56 76.58 76.32 76.41 76.27 75.89 76.25 76.30 75.49 76.21 76.51 76.01 75.40 75.52 76.16 76.21 75.72 75.66
74.16 75.32 76.00 76.63 75.66 75.67 76.42 76.07 75.36 75.73 76.64 76.59 76.81 76.76 76.90 76.77 76.66 76.46 76.51 76.95 76.92 77.01 76.50 76.71 76.77 76.55 76.38 76.24 75.65 74.94 75.30 75.91 75.73 75.13 74.79 75.71 75.53 75.88 75.35 76.29 76.19 75.97 75.71
74.65 75.40 74.57 76.98 76.89 76.50 76.44 76.39 76.22 75.81 76.30 76.34 76.69 76.79 76.68 76.66 76.74 76.78 76.72 77.01 77.12 77.01 76.91 76.67 76.39 75.89 75.20 74.36 74.86 74.97 75.83 75.81 75.77 75.54 75.07 73.34 74.69 75.78 76.02 75.83 75.74 75.86 75.78
75.10 74.52 76.38 76.75 76.50 76.47 76.01 75.82 76.11 76.14 75.87 76.10 76.28 76.53 76.75 76.69 76.47 76.70 76.55 76.52 76.91 77.24 77.19 76.33 76.25 76.27 76.11 75.94 75.54 75.45 75.73 75.60 75.36 74.38 74.74 74.08 75.21 75.07 75.61 75.47 75.73 75.75 75.74
73.96 74.58 76.68 76.52 76.54 76.63 76.65 76.53 76.27 76.24 75.92 76.33 76.49 76.75 76.43 76.56 76.86 76.28 76.99 76.84 76.88 76.41 76.30 75.94 75.66 76.00 75.64 74.97 75.52 75.48 75.40 75.34 74.36 75.37 75.77 74.25 74.48 74.42 74.77 74.78 75.05 75.19 75.63
72.87 76.48 76.72 77.12 76.44 76.32 76.30 76.27 75.99 75.72 75.83 76.04 76.29 76.34 76.76 76.80 76.92 76.87 77.08 76.79 76.85 76.83 76.33 76.25 76.30 76.38 76.41 76.38 76.10 75.32 75.06 75.03 74.88 74.18 75.59 74.21 74.24 74.64 74.28 74.47 74.90 74.63 75.15
74.75 75.03 75.71 76.35 75.96 76.41 76.07 75.89 76.03 76.14 76.11 76.26 76.18 76.59 76.63 76.68 76.41 76.38 76.75 76.85 77.08 76.56 76.36 76.50 76.58 76.30 75.83 75.62 75.21 74.98 74.58 74.55 74.35 73.53 74.82 73.80 75.22 74.44 74.28 74.03 74.16 74.65 75.14
74.68 75.10 75.48 75.44 76.64 75.93 75.75 75.72 76.06 75.98 76.14 76.37 76.36 76.56 76.46 76.32 76.08 76.80 76.56 76.80 76.78 76.39 76.08 76.00 76.17 75.86 76.03 74.91 74.09 74.11 74.72 74.51 74.35 74.91 74.27 75.18 75.36 74.51 74.03 73.59 73.87 73.82 73.83
74.55 74.85 75.53 76.01 76.10 75.72 75.65 76.16 76.07 76.01 76.19 76.41 76.50 76.69 76.93 76.74 76.67 76.94 76.83 77.21 76.36 76.17 75.91 76.08 75.92 76.02 76.06 75.54 74.55 74.16 73.71 73.07 74.02 75.08 73.26 75.61 75.47 75.32 73.90 73.68 73.55 73.57 73.64
73.17 74.27 75.16 74.68 75.32 76.52 75.94 75.92 75.97 76.05 76.27 76.55 76.48 76.26 76.58 76.47 76.63 77.05 77.19 76.75 76.31 75.52 75.86 75.83 75.78 76.00 75.99 76.05 75.36 74.83 73.28 73.42 72.99 74.64 73.93 73.98 74.66 73.18 72.85 73.12 73.15 72.93 72.72
71.56 73.48 74.76 74.56 74.84 75.65 75.51 76.14 76.51 76.16 76.34 75.94 76.06 76.53 76.66 76.94 77.39 76.34 76.82 76.47 75.97 75.64 75.61 75.63 75.68 75.19 74.63 76.22 75.88 74.05 74.11 73.11 73.21 74.09 73.12 73.72 73.93 73.82 73.13 72.66 72.62 72.58 72.50
72.52 73.11 74.31 74.53 75.64 75.67 76.14 75.17 74.69 75.19 75.11 75.09 75.37 75.89 76.83 76.44 76.31 75.84 76.08 75.23 75.26 74.67 74.84 74.68 74.77 75.24 74.33 75.18 75.81 75.42 74.92 74.29 74.00 73.67 74.10 74.29 73.85 74.52 74.59 74.07 73.19 72.93 73.22
71.86 72.66 73.61 74.16 75.01 75.34 75.09 74.20 74.09 73.90 74.39 74.24 74.58 75.69 75.83 74.94 75.19 75.36 75.19 75.33 74.63 74.90 75.00 75.72 75.88 75.70 75.30 75.53 75.75 74.55 75.53 74.01 73.51 74.25 74.15 73.94 75.04 73.31 73.01 72.70 73.07 73.43 73.48
70.76 72.38 72.78 73.81 74.80 74.97 74.83 74.33 73.96 73.91 74.07 74.21 74.78 75.44 75.22 74.35 74.36 75.30 75.28 75.84 75.04 75.11 75.22 75.51 75.82 74.73 74.18 74.55 76.48 75.90 75.37 74.39 73.40 73.85 74.49 73.75 73.70 74.30 74.30 73.60 73.30 73.49 73.68
71.00 71.60 72.65 73.01 74.42 74.76 74.68 75.21 74.86 74.60 75.04 74.56 74.71 74.81 75.17 74.55 75.03 74.82 74.92 75.28 75.29 75.48 75.77 75.96 75.44 74.64 73.99 74.92 75.51 75.85 75.39 74.90 74.18 74.26 74.55 74.31 72.99 74.07 74.55 74.53 74.13 74.00 73.98
71.35 72.16 72.30 72.89 73.86 74.29 74.89 75.24 75.05 75.45 75.06 75.36 75.33 75.86 74.47 75.33 74.75 75.24 74.98 74.48 75.12 76.57 76.13 76.72 75.49 75.34 74.31 74.18 74.23 75.42 75.53 74.94 74.86 74.76 75.47 75.76 75.31 72.87 73.90 74.62 74.28 74.46 74.58
72.07 72.41 73.07 72.45 73.32 73.78 74.67 75.06 74.98 75.44 75.70 75.07 75.54 75.62 75.58 76.13 75.97 75.75 75.09 75.20 76.42 76.06 75.80 75.31 74.83 74.46 74.21 74.81 75.01 75.24 75.51 75.40 75.47 75.48 76.00 76.24 76.44 75.63 74.13 72.76 74.11 74.90 75.26
72.81 73.06 72.96 73.68 73.56 73.95 75.00 74.89 75.06 75.14 75.73 75.11 75.66 75.84 76.16 76.06 75.78 76.29 75.80 75.62 77.01 74.89 74.99 75.46 75.12 75.58 74.96 74.84 74.49 75.38 75.60 75.29 75.83 74.99 75.33 75.62 76.17 76.05 76.02 75.22 72.95 73.64 74.06
73.21 73.52 73.66 73.80 74.50 74.79 74.39 74.95 74.88 74.66 75.81 76.08 75.48 76.09 75.58 76.35 75.38 76.80 76.43 76.17 77.55 76.69 75.81 75.69 75.72 75.77 74.92 74.11 72.91 73.62 74.83 75.36 76.09 76.20 75.63 75.68 76.56 76.27 76.36 76.22 76.73 76.62 73.84
73.19 73.23 73.59 73.74 74.26 73.43 73.21 73.20 73.26 72.90 74.54 75.08 74.98 75.97 76.13 76.92 75.72 77.30 76.03 76.18 76.63 76.13 75.58 76.57 75.98 75.04 74.15 74.68 73.46 73.82 74.18 74.81 75.63 75.97 76.29 76.22 75.67 76.32 76.38 76.82 76.82 76.75 77.02
72.59 73.23 73.63 73.98 74.17 73.83 73.87 74.03 74.16 74.17 74.45 75.48 75.66 75.60 76.08 76.44 76.88 76.85 76.30 75.98 76.22 75.43 76.00 76.19 75.75 74.39 74.09 73.82 71.83 72.74 69.40 70.87 72.97 73.24 74.59 74.93 75.71 76.54 76.24 76.00 76.35 76.91 77.42
72.14 72.80 73.44 74.04 74.09 74.17 74.49 74.16 74.21 74.21 74.15 74.10 74.52 74.74 75.11 76.00 76.24 76.99 76.42 76.31 76.61 76.65 75.33 75.99 75.69 75.33 72.54 74.21 73.98 72.05 70.15 67.63 70.40 72.94 73.26 74.81 75.82 75.86 76.11 75.70 76.00 76.52 77.06
72.09 73.26 73.98 74.08 73.81 73.88 74.94 74.28 74.58 74.22 74.39 73.68 74.15 75.26 75.56 76.22 75.79 76.47 76.50 76.42 76.88 76.75 76.25 76.48 77.08 75.93 75.77 73.37 75.06 74.21 74.45 73.81 70.28 68.68 72.76 73.82 74.51 74.71 75.39 75.41 75.39 75.96 76.26
72.38 72.61 73.35 73.89 73.85 73.72 74.52 75.06 74.01 75.18 74.28 74.20 74.23 75.27 76.17 76.65 76.64 76.61 76.39 76.57 76.10 75.74 76.81 76.84 76.75 77.05 75.88 74.55 74.07 74.91 74.93 74.55 74.81 72.75 69.20 70.72 73.72 74.31 75.30 75.63 75.28 75.55 76.03
72.07 72.28 72.59 73.47 73.31 74.35 74.08 74.59 74.74 74.25 74.68 73.53 73.97 73.46 74.16 75.48 76.16 76.72 76.24 76.57 76.14 75.81 76.06 76.41 76.86 76.33 76.22 75.90 74.94 74.71 73.86 72.95 72.86 72.89 72.39 73.26 70.90 73.57 74.57 75.74 75.76 75.97 77.02

GFSSE_sfc_wetblb_096.txt.gz
Wetbulb
73.77 75.44 75.67 75.79 74.88 75.54 76.23 76.59 76.44 76.73 77.01 76.89 77.59 77.50 77.14 77.11 76.90 76.90 77.00 76.90 77.20 77.23 77.50 76.49 76.76 76.27 76.44 76.70 76.62 76.56 76.09 75.40 76.60 76.66 76.37 75.71 75.71 76.18 76.15 76.08 76.77 75.63 75.86
74.87 75.53 76.50 75.78 75.64 75.31 75.47 75.60 76.08 76.77 76.99 77.15 77.35 77.26 76.91 76.95 76.79 76.78 77.12 76.23 76.61 76.90 76.30 76.56 76.71 76.75 76.40 76.59 76.36 76.77 76.15 75.56 76.08 76.04 76.31 76.57 75.76 76.20 76.29 76.53 77.01 75.92 75.84
74.28 75.71 76.31 76.23 75.39 75.89 75.94 75.30 76.12 76.74 77.11 76.98 76.93 77.04 77.16 76.88 76.48 76.78 76.88 76.13 76.67 76.59 76.79 76.78 76.71 76.71 76.12 75.11 75.13 76.37 76.26 75.72 75.24 74.22 75.81 74.97 75.83 76.18 76.37 76.34 76.28 75.99 75.75
74.87 76.01 74.63 76.79 76.29 76.47 76.58 76.16 76.05 76.15 76.41 76.50 76.86 76.96 76.83 76.83 77.13 77.75 76.94 76.56 76.72 76.93 76.94 76.16 75.88 74.93 75.60 75.57 75.51 76.15 76.01 76.01 75.71 76.17 74.67 75.03 75.48 76.16 76.05 76.14 75.86 75.75 75.91
75.13 74.69 76.69 76.28 76.57 76.39 76.39 76.45 76.45 76.24 76.31 76.51 76.59 76.81 76.80 76.71 77.06 77.28 76.98 76.62 76.68 76.71 76.29 76.39 76.66 76.63 76.04 75.93 75.87 75.97 75.81 75.10 73.37 75.47 74.46 75.50 76.10 75.55 75.64 75.39 76.23 76.05 76.01
74.47 76.06 76.58 76.14 75.81 76.00 76.67 76.52 76.38 76.24 76.61 76.62 76.76 76.36 76.74 77.07 76.99 76.88 76.98 76.67 76.57 76.41 76.19 76.38 76.44 76.41 75.74 76.31 75.81 75.63 75.48 74.18 75.49 75.09 73.65 74.45 74.70 74.80 75.22 75.21 76.21 76.09 75.94
74.11 76.01 76.90 76.41 76.46 76.66 76.62 76.39 76.18 76.24 76.27 76.51 76.68 76.74 76.83 76.69 76.67 77.10 77.18 76.70 76.62 76.97 76.91 76.94 76.90 76.84 77.05 76.30 75.75 75.38 75.05 74.76 75.09 74.87 73.70 74.01 74.63 75.19 74.58 74.72 75.78 75.63 75.52
74.29 75.39 76.28 76.51 76.32 76.40 76.15 76.39 76.40 76.54 76.49 76.56 76.49 76.69 76.45 76.45 76.65 76.98 77.12 77.10 76.80 77.00 76.94 76.85 76.71 76.43 75.76 75.34 75.13 74.82 74.87 74.86 74.84 74.28 75.15 75.65 75.14 74.57 74.11 74.47 74.74 75.35 75.44
74.25 75.44 75.91 76.32 76.58 76.27 76.01 76.34 76.37 76.45 76.74 76.87 76.37 76.53 76.59 76.71 77.02 76.99 77.38 76.94 76.74 76.43 76.52 76.35 76.33 76.47 75.13 74.55 74.25 74.87 74.85 74.10 74.38 74.76 74.70 74.65 75.08 74.35 74.17 74.00 74.03 74.27 74.10
74.80 75.32 75.46 76.06 75.95 76.07 76.15 76.20 76.41 76.37 76.57 76.62 76.93 76.77 77.87 76.80 76.66 76.86 77.40 77.35 76.49 76.20 76.60 76.07 76.22 76.48 75.81 74.88 74.55 73.83 73.15 73.78 73.92 73.23 73.76 74.97 75.94 74.16 73.96 73.90 73.75 73.58 73.30
73.77 74.57 74.43 74.53 75.86 76.73 76.44 76.49 76.38 76.33 77.04 76.80 76.95 76.59 77.09 76.46 77.10 76.63 76.91 76.52 76.01 75.98 76.10 76.21 76.27 76.29 76.52 75.86 75.01 73.83 74.87 72.87 73.33 73.01 72.43 74.75 74.40 73.23 73.44 73.30 72.93 72.71 72.68
72.62 73.38 73.24 74.64 74.79 75.24 73.85 76.72 76.65 76.12 76.70 76.48 77.15 77.67 77.40 77.29 77.64 76.16 76.92 76.21 75.82 75.80 75.83 75.94 75.99 75.44 76.08 76.35 75.45 74.75 72.20 73.08 72.69 72.69 72.94 74.22 74.84 74.49 73.84 73.01 73.03 73.09 73.02
72.95 72.89 73.28 74.84 75.74 75.00 74.69 74.39 75.23 75.42 75.35 76.43 77.48 77.30 76.86 75.65 75.53 75.01 75.24 75.62 75.84 75.85 75.78 76.45 76.51 76.21 75.69 75.95 75.71 75.27 74.68 73.70 73.24 73.10 74.59 74.48 73.88 74.26 73.63 73.62 72.85 72.93 73.33
72.68 72.43 73.42 74.86 75.87 75.79 75.20 74.17 74.30 74.40 75.07 74.70 75.56 76.24 75.73 74.68 75.05 75.35 74.93 75.62 76.10 76.05 76.66 77.04 75.96 76.68 77.06 77.01 75.90 75.71 75.27 73.70 73.64 73.54 73.94 74.36 74.44 73.32 73.01 72.71 72.84 73.24 73.51
71.84 71.85 73.24 74.79 76.15 76.24 75.63 74.87 74.90 74.82 74.11 73.94 75.32 76.43 75.83 75.54 75.83 75.89 76.62 76.12 76.31 76.25 76.42 76.29 75.68 75.80 75.69 76.07 76.08 75.78 75.14 74.67 73.68 73.05 72.42 73.89 73.63 74.01 74.21 73.49 73.42 73.34 73.58
71.79 71.57 73.61 74.63 76.17 76.22 75.93 76.36 75.24 74.67 74.70 75.04 75.62 76.62 76.96 76.03 76.44 75.82 76.24 76.21 75.82 76.33 76.21 76.33 76.02 75.36 75.17 75.06 75.41 75.37 75.08 74.37 75.14 74.42 73.13 73.42 73.71 73.87 73.82 74.07 73.79 73.90 73.94
72.01 72.57 73.91 74.62 75.65 76.02 76.37 76.41 75.64 75.29 75.05 75.05 75.80 77.13 76.78 76.94 77.53 77.28 76.09 76.32 76.23 77.17 77.96 76.77 76.30 75.86 74.20 74.20 74.85 75.31 75.30 75.39 75.27 75.71 75.77 75.01 74.33 73.34 73.78 74.03 74.24 74.41 74.55
72.31 72.80 74.01 73.85 74.95 75.63 76.09 76.42 76.03 76.21 76.05 75.85 75.69 76.25 77.15 77.73 77.70 77.46 75.76 75.79 77.29 78.16 77.24 75.76 75.38 74.07 74.32 74.11 74.94 75.43 75.20 75.63 75.78 75.90 75.91 77.38 76.95 76.46 74.24 73.59 73.11 74.07 74.87
73.43 73.64 73.75 74.51 74.55 75.47 76.70 76.10 76.38 77.16 76.59 76.44 76.66 76.65 77.67 77.38 77.64 76.99 76.42 76.84 78.39 77.29 76.64 76.39 75.10 75.94 74.85 75.11 74.41 74.98 75.22 75.40 75.65 74.79 75.55 77.25 76.31 77.85 77.48 75.25 74.13 74.18 74.45
73.87 74.62 74.77 75.11 75.87 76.38 76.57 76.75 76.16 75.86 76.41 76.59 76.62 76.81 77.45 77.41 77.64 77.59 76.64 77.49 78.35 77.69 75.89 75.83 76.68 76.29 76.13 74.98 73.13 73.33 74.77 75.70 76.28 75.82 75.26 75.94 76.39 77.10 77.54 78.60 79.01 77.21 75.61
73.65 74.35 75.01 75.20 76.56 76.80 75.90 74.33 74.28 73.92 75.34 75.45 76.32 77.74 77.58 77.47 77.20 78.54 76.51 77.39 78.24 77.02 76.95 78.21 76.72 75.81 73.75 75.16 73.28 72.41 72.78 74.20 74.71 75.40 76.33 76.68 75.68 76.55 77.16 77.77 79.13 78.42 77.87
73.81 73.98 74.76 75.63 76.79 76.43 75.82 76.34 75.46 75.36 75.53 76.06 76.64 77.42 77.53 77.22 77.86 77.77 77.42 76.65 77.96 75.90 77.93 77.74 77.23 74.75 74.43 75.45 72.40 72.65 69.22 70.33 72.61 73.61 75.27 75.37 76.00 75.82 76.09 77.45 78.39 78.72 78.62
73.78 74.58 75.05 75.87 76.67 76.81 76.85 76.06 76.80 77.71 76.84 77.23 75.95 76.16 76.64 77.35 77.73 77.90 77.51 77.92 77.32 77.47 75.54 77.83 77.13 76.40 72.57 75.20 76.55 73.08 69.24 68.20 70.55 72.79 73.75 74.29 75.42 75.53 76.72 77.24 77.95 78.56 78.87
73.68 75.36 75.86 76.31 76.76 76.83 77.26 75.92 75.33 76.83 75.06 76.66 75.47 76.23 76.70 77.64 77.20 77.29 77.83 77.64 77.88 77.41 77.51 77.44 77.44 77.17 77.13 73.65 75.38 75.95 77.02 76.02 70.28 68.10 71.71 72.86 74.74 74.63 76.19 77.07 77.21 77.28 79.01
74.05 74.76 75.69 76.50 76.93 76.58 76.92 76.73 74.75 73.80 76.66 74.30 75.49 77.74 77.45 77.75 77.64 77.22 78.08 77.88 78.07 76.64 78.05 78.35 77.99 78.05 76.81 75.47 74.34 76.23 76.84 76.63 76.58 71.79 68.34 69.70 72.92 74.98 76.47 76.75 77.11 78.05 78.73
74.11 74.59 75.30 76.06 76.44 76.72 76.47 76.54 76.10 74.86 74.54 76.78 76.44 75.16 75.49 76.23 77.03 77.29 77.58 77.96 78.18 77.83 77.39 77.25 78.88 77.60 77.52 77.08 76.58 76.62 74.63 73.65 73.18 73.42 72.13 72.34 71.55 73.31 76.38 77.09 77.80 78.31 78.71

GFSSE_sfc_wetblb_099.txt.gz
Wetbulb
73.38 74.71 75.54 75.88 75.59 75.35 75.93 76.39 76.31 76.37 76.44 76.41 76.99 77.03 77.27 77.07 76.57 77.16 77.34 76.90 77.42 77.49 76.87 76.66 76.35 76.20 76.42 76.39 76.29 75.60 76.34 76.37 76.74 76.10 75.85 76.47 76.20 75.78 76.04 75.94 77.11 75.29 75.92
74.28 74.64 76.04 75.74 75.98 75.72 75.65 76.02 76.71 77.05 76.78 77.31 77.14 77.00 77.06 76.95 76.52 76.52 77.42 77.13 77.31 77.19 76.32 76.60 76.54 76.05 76.14 76.29 76.20 75.85 75.53 76.23 75.89 76.31 76.30 76.87 76.64 76.44 76.18 76.66 76.94 75.81 75.99
74.25 75.17 76.15 75.71 75.10 76.03 75.69 76.29 76.81 76.89 77.08 77.15 77.28 76.87 76.75 76.89 76.86 77.27 76.96 76.67 76.88 76.88 76.71 76.56 76.22 74.94 75.13 76.23 76.55 76.44 75.82 75.75 75.35 75.98 78.21 74.64 75.72 76.57 76.43 76.45 76.30 76.12 75.98
74.26 75.56 74.38 76.37 76.11 76.00 75.60 76.21 76.62 76.44 76.98 77.25 77.25 77.08 76.88 77.20 77.19 76.60 76.90 76.92 77.37 77.43 76.24 75.71 75.55 75.91 75.80 76.26 75.99 75.91 75.29 75.47 75.81 77.77 74.89 74.43 74.55 76.36 75.80 76.05 76.01 75.77 75.91
73.61 74.34 76.81 76.39 76.26 76.29 76.13 76.13 76.46 76.24 76.79 76.84 77.04 77.13 76.96 76.73 77.03 77.02 76.93 76.87 76.21 75.98 76.28 76.11 76.06 76.18 76.02 76.15 76.00 75.58 75.13 74.71 75.51 75.87 74.31 74.55 74.63 75.04 75.96 75.87 76.36 76.20 76.11
73.79 74.91 75.91 76.23 76.19 76.20 76.75 76.34 76.12 76.42 76.94 77.04 76.93 76.88 77.01 77.21 76.93 76.85 76.66 76.66 76.38 76.44 76.21 76.32 76.80 76.19 76.40 76.18 75.61 75.20 75.33 75.50 77.87 73.27 73.27 74.05 74.56 75.33 75.79 76.16 76.40 76.08 76.00
73.58 75.01 75.68 76.19 76.44 76.39 76.46 76.38 76.44 76.72 76.90 76.77 76.94 76.69 76.96 77.35 77.26 76.82 76.77 76.77 77.02 77.05 76.91 76.91 77.20 76.94 75.93 75.75 75.07 75.09 75.08 76.39 73.40 74.71 73.02 73.70 74.27 75.31 75.26 76.05 75.87 75.53 75.19
72.82 74.43 75.50 76.59 76.52 76.36 76.45 76.32 76.43 76.58 76.73 76.82 76.66 76.81 76.86 76.87 77.20 77.21 77.00 77.11 77.22 77.14 77.05 76.71 76.02 75.55 75.37 75.04 74.86 74.77 75.35 76.35 74.89 75.02 74.15 73.09 74.86 74.68 74.60 74.72 75.14 75.16 74.79
73.40 73.85 74.83 75.88 76.55 76.69 76.36 76.40 76.58 76.63 76.90 76.56 76.60 76.66 77.01 77.21 77.07 77.47 77.16 77.00 76.77 76.60 76.41 76.77 76.54 75.22 74.75 74.47 74.75 73.85 74.58 75.60 74.33 74.57 72.95 73.50 75.11 74.30 74.08 74.15 74.28 74.09 73.88
73.22 73.73 74.20 74.27 74.96 74.59 75.88 76.34 76.71 76.79 76.98 76.90 76.83 76.82 77.38 77.19 77.39 77.21 77.47 77.27 76.65 76.71 76.29 76.33 76.57 75.85 75.10 74.63 73.92 72.94 73.97 75.12 72.68 72.65 72.49 74.48 74.91 73.78 73.66 73.41 73.19 73.07 73.01
73.54 72.77 73.55 73.76 75.53 76.20 75.30 76.12 76.55 76.80 77.12 76.86 76.74 76.72 76.94 76.32 76.08 76.82 77.30 76.43 76.31 76.46 76.55 76.24 76.27 76.42 76.16 75.72 75.02 74.69 74.82 73.05 72.08 71.46 72.28 74.68 74.22 73.17 73.12 73.14 72.99 72.96 73.10
71.43 71.73 74.08 73.83 73.56 75.34 73.96 75.82 76.50 75.70 76.10 76.75 77.15 77.30 78.13 76.99 76.69 75.16 76.26 75.89 76.03 76.18 76.49 76.55 76.24 77.17 77.24 75.73 75.27 75.02 72.48 72.53 72.11 71.44 73.55 74.72 74.92 74.05 73.49 73.21 73.17 73.28 73.09
71.74 71.42 74.20 74.26 74.26 73.28 74.86 74.13 75.66 75.67 75.10 76.17 77.54 77.70 78.02 74.65 74.66 74.42 75.28 75.61 75.84 76.37 74.93 76.32 75.56 75.62 74.85 75.39 73.84 73.04 73.11 72.94 72.27 72.30 73.59 73.99 73.72 73.72 73.23 73.14 73.16 73.42 73.51
71.46 71.55 74.16 74.02 74.98 74.09 73.81 74.11 74.48 74.10 74.83 75.82 76.17 76.52 75.70 74.06 75.36 77.20 75.54 74.76 75.52 75.79 76.21 76.06 75.04 75.99 75.33 75.66 74.10 73.72 72.86 72.53 72.47 72.28 73.76 74.89 73.41 73.06 72.93 72.62 72.84 72.95 73.28
70.69 71.64 74.28 75.35 75.89 75.83 75.15 74.13 74.51 74.08 74.07 74.79 75.61 76.02 75.24 75.43 75.73 75.97 77.40 76.18 76.54 77.01 77.07 75.54 74.94 75.26 75.35 74.85 73.97 73.93 72.72 73.01 72.58 71.20 70.37 74.20 73.82 73.89 73.98 73.47 73.39 73.15 73.26
71.05 72.02 74.37 74.94 75.91 77.28 75.28 76.41 74.97 74.80 74.09 74.70 75.10 76.04 77.10 76.38 76.24 75.71 75.15 76.89 75.01 77.64 77.68 75.28 75.83 74.83 74.99 73.44 74.31 74.24 73.30 73.32 74.31 72.89 71.48 72.93 74.08 73.53 73.80 74.02 73.67 73.92 74.08
71.64 73.21 74.20 74.54 75.20 76.09 76.52 75.59 75.58 74.29 74.21 73.86 75.75 77.30 77.05 77.24 77.87 78.04 76.00 75.77 75.01 76.44 77.26 76.68 75.51 75.29 73.05 72.73 74.27 74.66 73.79 74.48 74.60 75.29 74.12 74.10 73.58 74.03 74.25 74.06 74.30 74.51 74.55
72.22 73.24 73.93 73.61 74.31 75.22 75.91 77.59 77.07 75.75 75.28 76.06 75.52 76.32 77.60 77.92 77.41 78.65 75.27 75.86 76.15 77.94 74.89 76.05 73.88 72.99 72.94 73.27 73.75 74.03 73.83 74.24 74.99 75.67 75.77 76.51 76.32 75.17 74.52 74.72 74.41 74.77 74.99
72.99 73.50 73.61 74.49 74.19 75.72 76.14 75.32 76.69 77.34 76.84 75.52 75.65 76.27 77.83 77.46 77.77 76.60 78.07 76.26 78.10 75.86 75.75 76.21 73.37 76.36 73.60 73.04 73.38 73.76 74.46 73.84 75.21 74.58 76.11 76.64 76.66 77.07 76.37 75.97 76.13 75.69 75.40
73.63 74.13 74.01 74.09 76.08 76.80 75.69 76.26 74.91 75.80 76.31 76.02 76.33 75.87 77.60 77.22 77.42 77.50 76.35 76.92 76.60 77.01 74.94 75.48 78.15 74.66 74.73 73.86 72.24 72.73 73.62 74.19 75.12 74.78 75.50 76.06 76.61 77.05 75.94 77.79 78.10 76.97 77.04
73.77 74.09 74.37 75.49 76.27 75.95 75.35 73.96 74.10 73.48 74.66 75.01 75.74 77.47 77.49 77.35 77.60 78.37 76.59 76.89 77.32 78.12 77.32 76.51 75.50 76.10 72.55 74.20 74.18 71.83 72.21 73.84 74.43 74.39 75.58 75.82 75.87 75.20 76.31 77.59 77.82 78.22 77.52
72.89 74.02 74.81 75.76 76.68 76.86 75.69 75.54 76.43 74.12 75.78 75.65 75.92 77.36 77.67 77.38 77.97 77.61 78.79 76.84 77.94 75.84 77.05 77.08 77.42 75.06 72.37 74.01 72.57 72.35 68.31 70.73 72.54 73.13 74.44 74.92 75.89 74.61 75.61 76.91 77.62 78.58 78.91
72.88 73.58 74.64 75.91 76.79 76.90 75.23 77.19 77.13 77.35 76.80 75.83 76.07 76.09 77.04 77.40 77.37 78.19 77.95 76.91 77.47 78.45 75.54 77.05 76.38 76.98 73.92 73.34 76.72 74.10 70.08 69.27 69.74 72.50 73.65 74.28 75.39 74.31 75.22 76.45 76.45 77.67 78.53
73.65 74.84 75.45 76.03 76.80 77.03 77.00 77.00 75.52 76.80 75.44 74.45 73.80 75.14 76.79 77.49 77.05 77.37 77.62 77.64 78.44 77.96 80.09 77.88 76.51 78.37 77.39 72.40 72.83 74.43 76.50 76.08 71.44 67.92 71.38 73.12 74.14 73.95 75.30 75.69 75.60 77.13 78.24
74.06 74.40 75.47 76.36 76.93 77.39 77.24 77.86 75.17 75.20 76.02 76.10 74.13 76.58 75.20 78.08 77.51 76.68 77.51 77.66 77.80 76.77 78.05 79.90 77.58 78.65 75.53 75.62 74.75 73.47 75.95 73.55 75.09 71.54 68.97 69.83 72.87 73.79 74.55 75.14 75.33 76.41 77.69
73.75 74.35 75.09 76.21 76.85 77.02 77.04 76.78 75.94 74.36 75.22 75.40 74.88 76.04 75.33 75.85 76.30 77.38 77.55 77.90 78.44 78.30 77.96 77.26 78.46 77.90 79.41 78.18 76.78 76.62 73.38 71.71 72.57 74.28 71.03 71.35 71.01 72.75 73.83 74.68 75.56 76.56 77.00

GFSSE_sfc_wetblb_102.txt.gz
Wetbulb
71.67 74.20 76.95 76.17 75.39 75.66 76.03 76.05 76.41 76.35 76.36 77.29 77.55 76.95 76.92 76.95 77.08 76.98 77.36 77.41 77.56 77.59 77.33 76.74 76.71 76.76 76.68 76.36 76.49 76.72 76.89 76.94 76.24 76.92 76.58 76.30 75.76 75.87 76.28 75.87 76.73 74.34 76.00
72.42 74.38 76.86 76.24 75.83 75.87 76.06 76.65 76.82 77.10 76.96 77.15 77.19 77.33 77.01 76.86 77.31 77.64 77.60 77.08 76.53 76.43 76.55 76.54 76.37 76.75 76.35 76.11 75.59 76.10 75.85 76.15 76.61 76.93 76.86 76.89 76.65 76.64 76.62 76.41 76.35 74.96 76.13
73.24 74.51 75.54 76.50 75.66 75.82 76.10 76.51 76.76 77.00 77.03 77.26 77.36 76.96 76.86 76.92 77.16 76.23 76.68 76.56 76.81 76.50 76.42 75.20 75.51 76.12 76.35 76.50 76.03 75.91 75.89 75.81 75.45 76.56 77.79 74.46 74.89 76.67 76.58 76.47 76.17 76.21 76.08
73.76 73.69 72.92 77.02 76.21 75.44 76.44 76.60 76.43 76.66 76.97 77.08 76.92 76.99 76.84 76.84 77.74 76.87 76.88 76.67 77.48 76.88 76.06 76.23 76.29 76.06 76.50 75.85 75.61 75.58 75.67 75.95 74.75 75.48 73.96 73.68 74.16 76.04 76.14 76.18 76.19 76.13 76.09
73.37 73.94 75.62 76.50 76.46 76.14 76.54 76.24 76.53 76.58 76.99 76.85 76.99 76.93 77.00 76.78 77.00 76.68 76.67 76.46 76.67 76.56 76.56 76.66 76.31 76.14 76.00 75.66 75.50 75.63 76.33 77.47 77.09 75.04 73.63 73.68 73.75 75.34 76.31 76.36 76.03 76.07 76.11
73.38 74.69 76.41 76.63 76.51 76.62 76.64 76.46 76.42 76.70 77.13 77.41 77.08 77.17 76.96 76.96 76.64 76.67 76.51 76.13 76.70 76.69 76.72 76.70 76.72 76.09 75.62 75.06 74.76 75.45 76.17 78.14 77.08 72.25 72.34 74.16 73.54 76.30 76.31 76.23 76.28 76.20 75.76
73.24 74.33 74.99 76.95 76.63 76.72 76.57 76.70 76.83 76.82 77.14 77.17 77.34 77.32 77.38 77.13 76.95 76.81 76.70 77.12 77.01 76.97 77.22 77.05 76.25 75.67 75.06 74.65 74.70 75.82 76.52 77.56 72.47 71.91 72.25 72.45 73.40 76.00 76.20 76.10 75.33 75.23 75.30
73.16 73.94 75.02 76.72 76.66 76.49 76.45 76.73 76.72 77.02 77.00 77.02 77.77 77.26 77.56 77.69 77.87 77.36 77.53 77.64 77.20 77.04 76.45 75.65 75.40 75.23 74.59 73.93 74.31 74.67 75.81 77.89 73.97 71.99 72.17 72.56 75.00 75.06 74.77 75.08 74.92 74.95 74.78
73.56 73.37 74.19 74.98 76.31 76.76 76.97 76.48 76.81 76.98 76.90 76.93 77.24 77.34 77.95 77.51 77.31 77.87 78.27 77.31 76.79 76.87 77.01 75.70 75.29 74.82 74.32 73.93 73.38 73.77 74.68 77.73 73.81 73.30 71.47 71.78 75.30 74.47 74.34 74.07 73.96 73.84 73.54
72.62 72.46 74.10 74.82 74.81 75.03 75.20 76.79 76.91 76.71 76.97 77.11 77.22 77.51 78.05 78.03 77.13 76.57 77.80 77.91 76.76 76.68 76.76 76.58 75.61 75.01 74.79 74.43 73.61 73.18 74.42 75.13 71.53 71.25 72.11 72.73 74.85 73.54 73.35 73.23 73.03 73.22 73.15
72.24 72.97 74.09 73.12 74.45 75.73 76.03 76.34 76.91 77.16 77.28 77.53 76.79 77.42 77.67 75.56 75.96 75.98 77.22 77.62 76.84 76.79 76.76 76.92 76.46 75.62 74.59 74.79 75.20 75.07 75.37 73.92 70.60 70.53 71.46 74.65 74.44 73.16 73.24 73.04 73.03 73.26 73.49
71.03 71.53 73.34 73.48 73.24 73.75 73.99 76.43 76.90 75.36 75.77 76.44 76.44 76.30 76.32 77.42 76.67 74.84 76.04 77.04 76.70 76.45 76.95 77.28 77.46 77.26 75.36 74.93 74.23 75.40 72.91 71.77 70.25 71.62 73.65 75.56 74.50 73.57 73.29 73.20 73.27 73.27 73.25
70.69 72.69 72.24 73.03 75.02 73.68 75.14 75.84 73.92 76.17 75.49 74.72 77.10 77.51 77.76 75.09 74.30 74.25 74.91 75.70 76.04 75.71 74.46 75.94 76.28 75.70 73.25 73.10 73.98 72.45 71.97 71.95 70.62 70.66 73.70 75.26 75.36 73.55 73.30 73.05 73.12 73.28 73.26
71.13 72.38 72.44 74.61 76.96 74.56 74.88 74.39 75.38 75.41 74.83 72.50 74.21 75.69 77.79 74.26 76.14 72.11 73.87 69.80 73.53 75.20 73.23 74.40 74.98 76.46 74.85 75.01 72.09 71.95 71.76 71.59 70.82 71.10 73.64 75.16 74.29 73.27 72.91 72.58 72.75 72.97 73.19
70.03 72.80 72.77 75.39 77.26 79.09 74.11 73.99 74.91 73.54 74.10 75.72 75.88 75.79 76.10 73.84 77.13 74.73 71.35 72.74 71.52 71.71 73.73 75.37 74.41 75.01 75.13 74.96 73.44 72.58 71.88 72.24 70.33 69.71 71.54 75.03 74.86 74.08 73.52 73.24 73.24 73.13 73.27
71.45 73.07 72.68 73.87 76.40 76.16 77.45 78.75 72.75 72.62 74.98 75.52 76.91 74.18 75.21 74.09 75.18 73.42 71.44 74.49 74.88 73.35 76.39 73.43 72.05 72.05 74.65 73.30 74.16 74.12 72.74 73.44 74.07 69.68 70.61 72.84 75.28 74.93 73.79 74.04 73.77 74.01 74.26
71.01 73.72 72.75 73.78 74.08 77.01 78.05 78.44 77.35 74.19 74.71 75.50 75.67 75.54 73.98 77.12 73.72 72.22 73.32 75.30 76.68 77.39 77.06 77.97 77.12 75.17 73.53 73.75 74.38 74.79 74.26 74.37 74.86 73.45 71.04 70.91 73.13 75.58 75.35 74.87 74.84 75.02 74.97
72.18 73.49 73.48 73.91 73.73 75.54 77.10 78.76 74.47 74.22 72.78 75.91 76.48 77.79 78.79 78.73 76.04 74.73 75.48 76.02 78.53 78.77 78.21 74.70 75.65 75.17 74.12 73.90 72.75 74.28 74.28 73.96 75.32 75.64 75.56 73.41 72.75 72.53 75.40 76.32 76.38 76.52 76.06
73.22 73.63 70.86 74.38 74.04 74.33 78.51 75.31 78.52 74.76 75.39 75.94 76.86 76.59 78.37 78.84 75.15 78.29 74.40 76.52 78.23 77.65 71.34 73.22 74.09 74.79 74.38 71.96 73.28 74.24 74.41 73.77 75.13 75.08 75.89 76.50 76.06 74.50 74.27 75.70 76.13 76.43 76.84
73.27 73.88 73.16 74.08 75.33 76.84 72.31 74.35 76.34 73.68 74.04 74.99 76.29 78.32 79.50 78.28 78.64 77.83 77.96 78.17 75.59 77.69 72.18 77.18 75.34 73.89 76.65 71.28 72.21 73.30 74.16 74.82 75.10 74.94 75.52 75.65 76.12 76.22 75.41 75.31 75.07 75.15 76.71
73.02 73.88 73.85 73.50 75.85 74.98 75.45 72.75 74.35 74.38 74.28 75.42 74.33 78.30 78.71 79.01 79.36 79.38 78.12 78.12 74.74 74.50 77.31 77.25 76.62 76.12 75.67 76.11 75.92 73.55 72.95 73.89 74.16 74.44 75.26 74.81 75.53 75.85 75.70 77.06 77.49 76.47 74.77
72.60 73.54 74.75 76.39 76.92 77.11 77.43 77.42 75.84 73.42 76.80 75.79 77.39 78.46 78.58 76.76 79.01 78.87 77.45 76.95 71.91 75.02 78.63 78.01 78.49 76.79 74.50 75.21 72.79 72.44 69.53 71.49 72.34 73.06 74.86 74.84 74.69 73.94 75.48 77.58 76.81 76.87 77.03
72.75 73.81 73.78 73.80 77.36 77.30 78.16 74.47 75.84 72.43 76.89 73.17 77.08 77.40 77.67 76.91 78.80 77.26 77.52 74.95 76.49 74.33 74.54 77.59 78.49 77.43 74.43 74.15 76.52 73.44 69.23 66.88 69.88 72.02 73.12 74.28 74.02 74.72 74.89 75.74 76.35 77.35 77.19
72.41 74.10 75.70 75.81 76.71 76.40 74.42 74.56 75.56 74.42 69.69 75.01 76.07 72.24 73.54 78.50 77.13 78.40 78.10 76.32 76.44 72.79 72.63 76.35 78.83 77.88 77.45 74.51 73.95 74.55 76.26 72.94 70.54 68.98 72.39 72.93 74.47 74.23 75.23 76.05 75.47 76.77 77.47
72.60 72.91 74.66 76.56 77.21 77.91 77.64 77.77 76.61 75.85 75.28 74.58 74.14 72.86 74.03 76.71 77.87 77.13 78.57 78.22 77.70 75.94 74.81 72.85 76.04 78.72 77.95 76.13 74.20 74.73 74.26 75.13 75.23 69.07 68.66 69.78 72.59 74.28 73.42 74.60 74.68 75.73 77.02
72.93 73.66 74.79 76.20 76.94 78.21 77.67 77.33 76.84 77.85 74.71 74.09 70.37 73.46 74.16 76.37 77.55 79.31 77.09 79.78 79.54 73.58 74.52 77.34 78.52 78.43 78.86 77.81 76.80 74.99 67.88 66.15 64.21 67.56 69.34 69.96 70.94 72.48 73.98 74.43 73.35 75.44 76.45

GFSSE_sfc_wetblb_105.txt.gz
Wetbulb
70.31 73.46 76.82 75.88 75.69 75.80 76.00 75.82 75.96 76.45 76.84 77.08 77.23 77.71 77.18 77.11 77.33 77.83 77.54 77.18 77.31 77.80 76.98 76.96 76.88 76.32 76.49 76.87 76.98 76.69 76.17 77.62 77.95 77.48 76.36 76.03 75.92 75.88 76.67 76.75 76.08 74.06 75.96
72.46 74.73 77.24 76.54 76.14 76.34 76.66 76.52 76.64 77.02 77.33 77.27 77.70 77.67 76.82 77.21 76.97 77.33 76.89 76.62 76.72 76.67 76.82 76.90 76.72 76.45 75.91 76.45 76.25 76.09 76.34 76.38 76.79 77.71 77.01 76.87 76.34 76.12 76.30 76.54 76.13 74.97 75.52
72.71 74.21 75.08 76.86 75.82 75.88 76.78 77.02 77.19 77.02 77.22 77.06 77.21 77.64 76.98 76.19 76.48 76.62 76.78 76.85 76.68 76.62 75.27 75.88 76.35 76.47 76.12 76.32 76.13 75.55 75.52 75.57 76.40 76.85 76.55 74.33 74.57 76.48 76.54 76.50 76.49 76.04 75.93
72.87 72.94 73.30 76.84 76.76 76.28 76.67 76.64 77.05 76.90 77.23 77.05 77.01 76.89 76.90 76.82 77.06 77.04 76.84 76.26 76.48 76.41 76.10 75.74 76.60 76.13 75.82 75.82 76.15 75.72 75.37 75.07 77.26 75.82 73.31 73.47 74.33 76.35 76.25 76.21 76.10 76.01 76.06
70.98 73.48 74.43 77.08 77.01 76.48 76.49 76.49 76.62 76.82 77.05 76.92 76.82 76.92 76.88 76.69 77.02 77.00 76.86 76.73 76.70 76.86 76.60 76.49 76.13 75.71 75.69 75.98 76.14 76.65 76.07 76.64 76.10 74.41 72.83 72.61 73.21 75.61 76.50 76.11 76.05 75.96 75.66
72.80 74.06 76.70 76.97 76.40 76.59 76.41 76.47 76.62 76.79 76.89 76.97 77.00 76.93 76.67 77.20 76.24 76.24 76.52 76.67 76.81 76.83 76.73 76.35 75.83 75.13 75.08 75.71 76.01 76.67 77.86 77.30 74.88 72.11 71.91 73.69 73.44 76.38 76.21 76.21 76.28 75.82 75.53
72.56 74.17 75.10 77.49 77.00 76.61 76.48 76.39 76.61 76.99 77.00 77.09 77.08 77.16 76.76 77.04 76.77 76.66 76.88 77.13 77.20 77.35 76.82 75.88 75.38 74.72 74.61 75.21 75.32 76.60 77.46 76.18 70.82 70.83 70.71 71.71 73.59 76.40 75.71 75.42 75.62 75.60 75.65
72.17 73.51 74.52 76.70 76.90 76.66 76.73 76.69 76.99 77.16 77.19 76.99 77.12 77.35 77.35 77.36 77.75 77.61 77.19 77.30 76.61 76.16 75.69 75.30 74.86 74.28 74.19 74.25 74.55 75.90 77.57 75.93 71.89 71.13 71.16 71.64 74.75 75.29 74.84 74.38 74.81 74.40 74.09
72.90 73.24 73.54 74.17 75.55 76.95 76.78 77.03 77.31 77.09 77.04 77.26 77.24 77.42 77.62 77.18 77.21 77.21 77.32 77.16 77.02 75.91 75.13 74.77 74.24 73.89 73.58 73.50 73.61 74.33 76.74 74.97 69.71 70.47 71.42 71.62 75.15 74.52 74.25 74.03 73.82 73.50 73.54
72.12 72.27 72.76 73.26 73.37 73.51 74.21 77.04 76.99 76.97 76.95 77.22 77.38 77.57 77.57 77.40 77.19 76.96 77.91 77.73 76.72 76.66 75.88 74.83 73.79 73.33 73.19 73.63 73.70 74.37 75.35 76.16 70.43 70.61 70.84 72.16 74.61 73.52 73.44 73.24 73.31 73.32 73.55
71.45 71.69 72.29 72.22 72.25 72.94 73.89 75.47 76.53 77.12 77.20 77.33 77.21 77.46 76.62 73.88 73.76 74.56 76.61 77.46 76.49 76.27 76.27 75.58 74.97 74.55 74.58 74.75 75.19 75.27 74.52 71.31 67.95 69.25 70.27 74.10 74.47 73.22 73.22 73.20 73.34 73.37 73.26
69.98 70.84 70.64 71.81 71.82 72.63 74.58 73.64 73.82 74.98 73.71 73.48 73.48 73.21 73.26 72.37 72.39 74.25 75.53 76.21 75.93 75.44 75.44 76.49 76.38 76.08 73.96 72.47 72.77 75.00 71.96 68.72 69.66 71.07 71.57 74.72 74.37 73.36 73.32 73.27 73.32 73.07 72.81
70.15 71.22 70.62 70.73 70.31 70.45 72.74 73.09 72.99 73.04 72.98 72.45 71.81 72.53 72.11 72.24 72.10 72.19 70.09 67.89 69.08 66.99 66.01 68.40 75.46 72.70 69.50 70.84 71.90 71.62 69.30 68.04 68.68 71.02 74.29 76.06 75.11 73.98 73.57 73.07 73.22 73.17 73.07
68.93 68.88 70.81 72.25 70.19 71.35 72.52 72.33 72.10 72.57 68.28 67.41 71.80 73.05 72.99 71.10 70.58 71.28 65.86 65.48 66.62 69.17 66.36 67.18 72.14 73.55 73.87 72.42 70.93 71.01 68.28 68.24 68.07 69.70 72.65 75.17 74.95 73.55 73.23 72.98 73.06 73.06 73.41
68.58 68.88 70.85 71.70 72.20 71.85 71.58 71.49 72.28 72.81 70.21 69.17 72.00 73.78 71.19 72.49 70.75 69.47 66.83 68.60 69.60 70.55 69.90 69.83 71.09 70.60 70.94 70.09 68.63 68.46 68.26 67.58 67.82 69.99 71.12 74.38 75.15 74.56 73.96 73.64 73.56 73.67 73.89
69.77 69.68 71.06 71.27 72.16 73.70 71.58 72.00 72.00 71.75 71.97 72.42 72.28 71.24 71.53 71.75 70.85 70.75 67.60 68.14 69.99 70.47 70.43 70.21 67.88 68.68 69.62 69.11 69.49 68.66 68.91 68.13 66.23 68.51 70.85 72.09 75.56 75.66 75.15 74.43 74.41 74.51 74.76
70.15 70.17 69.94 70.36 71.96 72.61 71.50 71.52 71.44 71.28 73.42 72.47 70.67 67.92 72.13 71.46 69.15 68.25 69.28 69.04 71.70 71.70 71.67 69.63 69.00 70.10 69.61 70.30 68.98 69.29 69.40 69.73 66.92 67.18 68.65 70.08 72.79 76.02 75.87 75.69 76.15 76.27 75.57
70.37 70.19 69.97 71.62 71.01 70.73 71.33 72.51 72.21 71.12 71.20 71.23 72.17 71.39 73.95 72.97 70.72 70.98 70.27 70.59 72.03 74.35 73.71 72.98 72.18 69.54 68.99 68.79 68.60 68.65 70.19 70.51 70.74 67.89 68.70 69.03 69.93 70.66 74.50 76.36 76.46 76.50 76.78
69.86 69.33 70.57 70.22 70.44 71.54 72.55 73.08 71.71 71.66 72.91 72.76 72.75 72.85 73.30 74.35 73.44 73.75 72.45 71.64 74.21 72.41 69.29 70.57 69.67 70.22 69.01 69.29 69.76 69.53 68.94 69.75 70.57 72.41 70.51 70.19 69.79 70.38 70.58 74.35 75.93 76.18 76.57
70.08 69.28 72.05 70.85 70.05 71.49 70.85 71.04 71.49 71.78 72.07 72.89 73.33 73.51 74.05 73.90 74.16 74.02 74.03 70.98 69.47 72.49 71.57 71.99 70.22 73.14 71.83 67.92 71.19 69.75 68.94 70.14 70.66 70.96 71.76 72.69 71.79 71.32 71.33 71.55 73.04 73.79 76.13
68.98 70.54 72.30 70.84 71.19 70.26 70.18 70.21 70.18 68.53 70.88 72.42 72.12 74.65 73.47 73.73 74.31 73.72 73.56 70.87 65.49 71.41 71.83 72.29 72.40 72.22 71.51 71.38 69.56 68.76 67.26 68.73 70.13 70.49 72.04 72.02 71.87 72.66 72.32 72.69 72.25 72.66 73.36
69.00 70.27 71.88 71.61 70.82 71.73 72.03 72.33 71.65 69.79 72.21 72.57 73.31 73.64 73.95 72.98 73.71 74.44 72.93 71.82 71.27 71.47 72.01 71.95 71.74 72.55 70.18 69.64 67.62 68.22 63.57 66.00 68.64 69.71 70.60 72.21 70.99 72.19 72.55 73.99 74.77 73.99 72.47
69.51 71.53 71.71 72.43 72.42 72.24 72.12 71.52 71.63 72.07 71.89 69.91 71.41 72.05 72.79 74.43 73.99 73.83 71.81 71.52 70.82 69.43 66.31 68.95 72.54 71.97 70.65 70.50 70.23 69.15 65.03 63.97 64.76 66.83 67.39 69.86 69.27 70.36 71.26 73.05 73.77 73.77 74.52
69.48 71.19 71.95 72.99 72.44 72.62 72.85 70.12 70.36 69.51 67.43 70.20 70.33 70.93 71.09 73.44 74.21 74.26 70.97 71.27 70.02 65.17 63.17 68.12 73.96 73.15 72.37 70.81 71.34 71.63 70.67 69.40 65.62 63.12 67.73 68.72 68.84 70.60 70.06 71.39 72.87 73.20 73.56
71.13 70.74 71.41 71.88 72.32 72.26 71.66 71.90 70.79 69.34 70.19 71.35 71.17 71.08 68.86 71.57 74.47 73.94 74.16 73.52 70.66 69.53 70.87 71.21 70.64 73.66 73.30 72.00 71.56 69.58 68.50 67.40 65.30 66.86 63.93 65.86 68.59 70.43 70.35 69.62 70.95 69.77 71.17
70.98 72.27 71.58 71.76 71.59 72.61 71.99 71.79 70.69 70.39 70.31 69.24 68.86 70.53 71.07 71.60 72.03 72.57 74.07 73.22 71.24 67.76 66.15 69.87 73.20 73.22 73.28 72.53 71.14 68.13 65.76 63.91 63.05 66.37 64.83 63.44 64.49 68.20 70.17 70.57 69.79 69.79 69.92

GFSSE_sfc_wetblb_108.txt.gz
Wetbulb
69.21 71.97 75.46 75.10 75.00 75.83 75.80 75.85 76.39 76.80 76.83 76.76 77.05 76.94 76.46 76.28 76.48 76.76 77.13 77.00 76.90 77.15 76.65 76.28 76.56 76.87 76.71 76.41 76.10 76.71 76.85 76.71 76.69 76.27 76.21 75.91 75.79 76.23 76.29 76.01 75.71 73.71 74.99
71.13 73.72 76.53 75.83 75.65 76.04 76.06 76.40 76.67 76.67 76.67 76.91 76.73 77.00 76.81 76.42 76.78 76.81 76.60 76.83 76.71 76.89 76.86 76.41 76.22 76.49 76.30 76.11 76.30 76.19 76.32 77.33 77.78 76.86 76.75 76.66 76.48 76.31 76.13 75.87 75.40 73.02 74.26
72.51 74.21 75.00 76.75 75.88 76.02 76.47 76.62 76.75 76.85 76.54 77.41 76.70 77.17 77.03 76.34 76.45 76.71 76.78 76.80 75.97 75.76 76.47 76.44 76.30 76.39 76.06 75.37 75.29 75.37 75.37 76.83 76.89 76.48 76.61 74.07 74.32 76.45 76.27 76.24 75.93 75.88 75.64
73.08 72.92 73.85 76.43 76.18 76.54 76.58 76.87 76.57 76.36 76.67 76.78 76.60 76.57 76.64 76.53 76.86 76.96 76.63 75.62 75.46 75.54 76.09 76.37 75.84 76.04 75.92 75.24 75.76 75.93 75.85 76.82 76.21 75.62 72.99 73.52 74.24 76.29 76.08 76.09 75.86 75.73 75.61
71.28 72.11 73.75 76.67 76.60 76.51 76.46 76.88 76.77 76.83 76.92 77.06 76.72 76.70 76.62 76.36 76.91 76.66 75.93 76.66 76.56 76.34 76.58 75.98 75.79 76.06 76.20 76.09 75.76 76.03 76.30 76.29 76.07 74.34 72.55 72.45 72.95 75.44 76.05 75.95 75.47 75.38 75.44
72.10 73.00 75.82 76.02 76.50 76.53 76.57 76.77 76.80 77.06 76.94 76.81 76.82 76.55 76.63 76.62 76.37 76.39 76.39 76.52 76.52 76.28 75.68 75.54 75.45 75.67 75.79 76.20 77.40 76.31 76.39 75.67 74.58 71.77 72.12 73.97 72.90 76.17 75.81 76.12 75.78 75.67 75.55
72.47 73.91 74.76 76.92 76.73 76.36 76.57 76.52 76.86 76.98 76.86 77.03 76.62 76.60 76.61 76.65 76.50 76.81 76.56 76.47 76.58 76.31 75.65 75.13 74.82 75.12 75.18 75.98 77.90 77.52 75.54 74.51 70.24 70.45 71.35 72.55 73.35 76.36 75.97 75.80 75.51 75.46 75.43
72.84 73.77 74.58 76.69 76.59 76.46 76.61 76.81 77.11 77.10 77.09 77.01 76.89 76.88 76.83 76.79 76.83 76.84 76.65 76.51 76.92 76.56 74.76 74.63 74.32 74.07 74.49 75.54 76.55 77.36 75.51 74.29 71.57 70.43 71.07 71.67 75.07 75.13 74.13 74.07 74.11 73.88 73.89
73.33 72.94 73.27 73.92 75.42 76.71 76.76 77.07 76.97 76.75 77.17 77.05 77.23 76.71 76.84 76.96 76.98 76.90 76.85 75.99 74.95 74.72 74.34 73.75 73.34 73.21 73.74 74.32 75.13 77.55 74.96 74.16 69.77 70.16 71.47 71.33 75.20 74.13 73.89 73.73 73.42 73.49 73.48
72.56 72.46 72.30 72.81 73.27 73.28 74.55 76.97 77.01 77.17 77.18 77.17 77.24 76.98 77.13 77.20 76.74 76.51 77.31 77.11 75.71 74.84 73.80 73.31 73.15 73.13 73.18 73.74 74.29 76.12 75.29 73.76 68.94 69.65 70.77 71.76 74.57 73.45 73.37 73.27 73.07 73.03 73.15
71.42 71.29 71.70 71.98 72.06 72.74 73.63 75.27 76.77 77.13 77.32 77.46 76.92 77.15 76.03 73.11 73.43 74.34 76.06 76.40 75.93 75.29 74.62 73.84 73.53 73.31 73.66 74.24 74.82 74.65 74.24 67.80 68.09 69.09 70.06 74.02 74.38 73.10 72.88 72.94 73.13 73.21 73.17
69.25 70.58 70.39 70.93 71.60 72.75 74.93 73.05 73.11 74.45 73.79 74.09 74.02 73.35 72.42 72.10 72.22 74.27 74.88 75.81 75.93 74.42 74.27 75.49 75.62 75.62 74.91 71.64 71.95 74.36 72.41 68.71 68.22 69.30 70.28 74.47 73.79 73.21 73.09 73.07 72.97 72.71 72.78
69.67 70.32 69.97 70.88 71.11 70.66 72.87 72.43 72.94 72.50 72.17 72.12 72.03 72.09 72.15 72.79 71.66 68.65 67.53 67.94 67.00 69.65 65.11 67.66 68.87 74.35 69.78 69.51 70.12 70.93 67.75 68.28 69.43 70.65 72.68 74.97 74.05 73.53 73.26 72.92 73.01 73.32 73.33
68.85 69.53 69.33 69.41 69.63 70.60 72.08 71.87 71.76 71.69 69.61 70.02 71.17 71.83 70.09 70.04 70.23 65.70 64.49 64.43 64.80 67.23 67.54 67.31 68.09 71.40 72.73 73.01 71.92 70.09 67.05 67.11 67.98 70.74 73.27 75.44 75.53 73.73 73.30 73.13 73.17 73.23 73.53
67.62 68.74 69.51 69.18 69.32 71.03 71.82 71.25 71.68 70.94 65.71 69.22 71.76 72.00 72.48 68.38 69.38 66.88 65.14 66.73 67.89 68.86 69.70 69.43 69.06 70.44 70.95 70.50 70.50 69.22 66.47 66.90 67.19 69.40 70.17 74.69 74.88 74.24 73.57 73.55 73.71 73.87 73.90
67.78 69.01 70.18 70.81 71.19 70.39 70.26 70.66 71.13 70.82 68.64 71.47 70.74 70.87 71.56 70.33 69.48 66.93 65.77 67.16 68.50 70.02 69.74 69.34 69.27 66.39 68.19 68.68 66.78 67.24 67.01 66.81 67.62 68.80 70.12 70.75 74.99 74.81 74.52 74.51 74.35 74.45 74.67
68.61 69.17 69.20 69.64 72.30 71.58 70.19 70.01 70.48 70.44 71.42 70.59 69.08 70.61 71.37 69.89 69.41 68.39 67.86 68.75 69.81 71.21 70.51 69.94 69.32 68.99 69.21 69.20 67.54 67.71 67.14 65.78 66.63 67.61 69.34 69.73 71.33 75.27 74.83 75.17 76.07 76.32 75.45
68.90 68.41 68.95 71.86 70.83 70.35 71.24 70.44 69.45 70.29 71.84 70.61 68.17 71.00 72.33 70.32 68.23 68.18 68.16 70.00 71.08 68.98 72.71 71.62 70.47 70.37 69.51 68.35 66.81 67.83 68.17 66.84 65.57 66.12 67.28 68.23 69.36 70.57 72.97 76.29 76.62 76.51 76.27
68.74 68.18 67.29 69.10 70.38 70.69 71.65 70.98 72.07 72.28 70.39 70.73 71.36 72.06 71.99 72.66 72.32 71.72 70.93 70.55 71.52 72.01 68.98 69.79 68.74 69.27 68.64 67.40 68.12 68.17 68.83 68.43 68.35 67.79 67.11 67.27 67.52 69.15 68.74 72.50 75.83 75.99 76.20
68.80 68.38 68.55 68.65 70.33 69.89 70.62 70.47 69.65 70.63 71.58 71.52 71.47 72.04 72.78 71.62 73.31 72.94 71.53 69.63 67.42 71.20 70.69 71.81 70.34 71.35 69.68 67.82 70.08 69.51 68.03 68.29 69.02 69.53 68.19 69.65 68.88 69.48 69.12 69.96 70.90 73.54 75.78
68.60 68.90 68.91 68.36 69.16 68.50 69.51 69.45 67.48 68.29 70.31 70.75 72.93 73.28 72.62 72.71 73.45 72.43 72.26 69.60 68.92 70.58 70.74 71.17 71.20 71.45 70.65 69.34 67.35 67.61 66.20 67.64 68.58 69.48 70.41 70.77 70.27 70.95 70.40 70.82 70.50 71.34 72.00
68.07 69.47 69.29 68.77 69.40 69.57 70.24 70.71 70.29 69.47 71.28 70.91 71.18 72.61 73.45 72.16 72.80 72.73 71.69 70.48 70.57 69.88 68.17 69.34 71.98 71.49 70.34 68.26 67.58 66.11 62.30 65.12 66.87 69.07 69.64 71.09 70.43 71.19 71.95 72.09 73.00 73.07 73.04
68.25 70.02 69.60 69.48 69.59 71.10 71.09 70.20 69.59 70.45 70.31 70.01 70.69 71.14 71.85 73.64 73.08 72.46 71.14 71.05 69.73 67.89 63.46 66.85 71.77 71.49 69.58 70.24 70.06 67.70 63.37 61.66 63.86 65.18 66.79 68.89 68.68 69.81 70.68 72.67 72.36 73.15 73.32
68.75 70.37 70.22 70.51 70.87 71.12 70.50 69.52 68.61 67.75 67.31 68.97 69.42 70.06 70.86 69.99 72.41 72.93 70.31 70.91 69.12 64.06 66.27 69.13 71.72 71.90 70.65 69.58 70.23 70.53 67.16 67.01 64.28 62.22 66.40 68.19 69.15 69.15 69.58 70.42 70.43 72.53 72.11
69.80 70.14 70.85 70.80 70.78 71.24 70.32 70.17 69.34 68.05 68.71 70.16 69.89 69.55 68.52 69.93 72.24 73.72 69.53 71.49 69.17 68.91 69.88 71.06 71.70 71.54 72.12 70.20 68.28 66.96 66.37 65.28 66.76 64.55 61.81 62.08 66.89 68.79 69.26 69.58 70.14 70.78 71.35
69.27 70.25 70.51 69.85 70.21 70.79 70.56 70.79 69.88 68.62 68.92 68.82 68.61 69.38 70.07 70.83 70.97 71.27 73.12 72.23 71.24 69.47 67.76 68.00 71.70 72.00 71.74 71.41 69.08 66.38 64.62 63.86 64.31 65.80 62.13 61.35 62.38 66.91 68.88 69.36 69.59 69.73 70.85

GFSSE_sfc_wetblb_111.txt.gz
Wetbulb
67.27 70.57 74.95 74.94 75.14 75.48 76.01 76.61 76.90 76.74 76.80 76.52 76.19 75.93 75.74 76.24 76.64 76.55 76.89 76.76 76.49 76.02 76.32 76.79 76.77 76.26 76.17 76.61 76.64 76.52 76.44 76.37 76.30 76.20 76.20 76.15 76.20 76.24 75.64 75.35 75.14 73.90 75.68
69.33 72.13 75.19 75.06 75.54 76.00 76.48 76.77 76.73 76.35 76.44 76.44 76.19 76.01 75.88 76.14 75.91 76.48 76.60 76.37 76.72 76.17 76.25 76.25 76.49 76.46 76.44 76.40 76.24 76.49 76.10 76.41 76.25 76.24 76.25 76.52 76.62 76.14 75.60 75.44 74.41 73.06 74.61
70.36 73.09 74.63 76.04 75.68 76.01 76.65 76.56 76.53 76.23 76.29 76.33 76.22 76.67 76.32 76.45 76.25 76.22 76.41 76.31 76.46 76.17 76.22 76.38 76.35 75.90 75.62 75.59 75.62 76.06 76.62 76.45 76.55 76.41 76.27 73.69 74.20 76.22 75.88 75.11 75.22 74.66 74.15
72.21 72.71 73.72 76.43 75.93 76.09 76.39 76.34 76.57 76.52 75.99 76.38 76.18 76.43 76.38 75.97 76.25 76.37 75.10 74.60 74.88 76.04 76.14 76.28 76.09 75.79 75.55 75.73 75.86 75.80 76.35 76.18 76.20 75.66 72.92 73.27 74.26 76.14 76.03 75.63 75.59 75.31 75.17
71.97 72.16 73.08 75.28 76.22 76.15 76.44 76.45 76.47 76.56 76.19 76.03 76.53 76.14 76.16 75.95 75.24 75.38 75.84 75.76 75.59 76.25 75.73 75.93 76.07 76.08 76.15 76.10 76.15 76.52 76.45 76.07 75.94 73.96 72.36 72.43 73.05 75.02 75.72 75.55 75.29 75.33 75.11
70.98 71.95 74.76 75.35 76.36 76.20 76.30 76.47 76.26 76.43 76.49 76.57 76.45 76.41 76.48 76.43 76.27 76.33 76.47 76.12 75.84 75.76 75.65 75.65 75.98 75.93 76.37 75.85 76.15 76.49 76.04 75.89 74.86 72.23 72.59 74.11 72.88 75.71 75.73 75.36 75.09 75.21 75.23
71.41 72.92 73.29 76.44 76.33 76.36 76.52 76.51 76.61 76.52 76.70 76.54 76.38 76.33 76.15 75.87 76.15 76.08 76.17 76.06 76.23 75.93 75.27 75.10 75.35 75.68 75.93 76.52 76.37 75.56 74.88 75.15 70.93 71.43 72.10 72.63 73.74 76.08 75.80 75.50 75.11 74.60 74.82
72.58 73.45 73.79 76.01 76.14 76.47 76.41 76.72 76.76 76.64 76.65 76.56 76.45 76.46 76.41 76.36 76.28 76.23 76.38 76.56 76.23 75.52 74.71 74.66 74.63 74.99 75.64 76.90 76.45 75.15 74.18 73.88 71.56 70.82 71.22 72.17 74.93 74.87 74.11 74.23 74.12 74.05 74.40
73.13 72.70 73.16 73.52 74.54 75.94 76.66 76.52 76.77 76.86 76.70 76.68 76.57 76.64 76.84 76.91 76.58 76.40 75.43 75.02 74.54 74.28 74.21 74.04 73.94 74.24 74.80 75.60 75.86 75.02 74.24 73.62 69.33 69.93 71.19 71.39 75.11 73.80 73.62 73.26 72.90 72.89 73.02
71.55 72.23 72.07 72.48 73.24 73.40 74.26 76.85 76.85 76.86 76.87 76.87 76.35 76.65 76.86 76.84 76.29 76.15 76.31 75.98 74.88 74.46 73.95 73.43 73.55 73.72 74.22 74.77 75.68 74.90 74.29 73.46 68.28 69.55 70.29 71.53 74.36 73.34 73.07 72.78 72.56 72.42 72.51
71.14 70.87 71.25 71.81 71.85 72.83 73.51 75.07 76.54 76.99 76.88 76.81 76.15 76.46 75.41 72.68 73.22 73.87 75.37 75.46 75.55 75.38 74.80 74.41 74.10 74.27 74.69 74.98 75.58 74.60 74.39 68.48 68.40 69.09 69.75 73.64 73.74 72.53 72.53 72.51 72.55 72.83 72.97
69.18 70.38 70.49 70.99 71.66 72.51 74.55 73.04 72.80 74.24 74.29 73.93 73.55 72.56 71.70 71.42 71.62 74.09 74.88 75.74 74.98 73.81 73.27 75.10 75.23 75.96 71.62 69.76 70.48 73.05 70.79 67.03 67.57 68.57 69.28 73.84 72.93 72.61 72.61 72.47 72.55 72.52 72.61
69.32 70.79 70.11 70.38 71.41 71.84 72.46 72.14 72.59 72.21 72.06 72.32 72.16 71.38 71.41 71.77 70.56 68.54 67.89 67.64 66.77 69.66 64.94 67.48 67.54 69.82 72.49 69.77 70.33 69.68 69.06 67.94 67.50 68.85 70.61 73.88 73.09 72.86 72.80 72.75 72.68 73.00 73.40
69.05 69.32 69.63 70.39 70.42 70.52 71.83 71.13 71.63 71.38 70.71 70.04 70.61 70.85 70.15 70.03 68.93 65.44 64.29 64.05 64.41 66.85 68.67 68.82 68.66 68.44 69.51 71.36 71.49 70.08 66.30 67.70 67.95 69.82 71.39 73.87 74.03 73.94 73.43 72.94 73.07 73.19 73.57
68.06 68.51 69.29 69.14 68.85 70.75 71.47 71.32 70.88 69.98 68.87 69.41 70.70 71.35 70.03 68.83 68.67 65.35 64.67 66.45 67.45 68.67 68.89 68.91 68.79 68.72 66.80 68.60 68.08 69.99 67.78 66.61 67.43 69.57 70.30 75.11 75.08 73.86 73.62 73.53 73.58 73.84 74.23
67.36 67.53 68.55 68.70 69.17 70.62 70.75 69.97 70.45 69.53 66.37 69.94 70.67 70.76 70.41 67.67 68.46 66.49 65.80 67.50 68.26 69.10 69.60 68.86 68.58 68.25 66.73 68.09 66.07 66.34 66.32 66.49 66.69 67.43 68.82 69.36 74.24 74.21 74.21 74.09 74.45 74.59 74.78
67.54 68.75 68.79 68.80 69.55 70.30 69.66 70.52 70.23 70.16 69.12 69.96 69.45 70.86 70.93 69.45 68.79 67.16 67.39 68.89 69.81 68.60 70.77 70.82 69.97 68.46 68.26 68.99 66.48 66.08 65.98 66.10 66.55 66.86 68.25 68.78 69.86 74.05 74.56 74.74 75.51 76.17 75.40
68.45 68.21 68.79 71.92 70.38 69.52 69.21 69.45 69.62 69.99 70.05 69.31 67.15 70.40 70.56 69.34 68.85 68.70 68.75 69.09 69.69 65.43 70.97 69.00 69.15 69.41 69.25 67.86 66.18 66.21 66.30 65.03 64.85 65.21 66.29 67.41 68.07 69.55 71.78 75.33 76.49 76.47 76.13
68.45 67.63 67.87 69.20 69.45 69.53 70.03 69.34 69.62 69.92 70.74 69.31 67.64 71.04 70.44 69.46 69.42 70.79 70.96 70.03 69.93 70.49 70.43 69.51 69.13 68.38 68.06 67.12 67.33 67.22 67.62 67.46 65.81 66.44 65.70 65.97 66.20 68.35 68.04 70.61 74.23 75.73 76.09
68.05 66.85 67.77 69.32 69.99 71.01 70.30 69.52 70.68 69.79 69.54 69.50 70.50 71.11 71.22 71.52 72.19 71.46 69.92 68.66 69.09 70.29 70.30 70.33 69.42 70.32 68.30 66.77 69.20 68.70 67.23 67.46 68.21 68.58 66.58 67.64 67.31 67.38 68.28 68.38 69.36 71.36 74.68
67.27 66.76 66.98 68.78 68.49 69.04 68.87 67.46 67.16 68.03 69.08 69.80 72.12 71.40 71.80 71.99 72.66 71.16 70.26 65.98 68.82 69.63 69.39 71.19 70.75 69.68 67.72 67.87 66.70 65.89 65.34 67.03 67.08 68.85 69.55 69.53 69.76 69.61 69.81 69.84 70.21 71.13 71.90
66.90 67.17 67.23 68.76 67.79 68.41 69.19 68.82 69.22 69.26 70.09 69.49 70.78 71.68 72.43 71.81 72.02 71.74 70.54 69.93 69.97 67.48 66.72 70.28 71.11 69.66 69.33 69.05 67.64 63.88 61.39 64.31 66.54 67.53 68.95 69.69 69.66 70.09 70.99 71.85 72.36 72.70 72.78
66.92 67.60 67.40 68.36 67.77 69.26 70.04 69.52 69.64 69.86 69.41 69.36 70.09 70.52 71.15 72.69 72.97 71.63 70.79 69.07 68.71 66.15 63.40 68.18 70.55 70.41 68.12 69.51 68.83 66.64 62.74 60.75 62.98 65.75 67.59 68.59 68.78 69.13 70.70 71.66 73.07 73.22 73.18
67.65 68.89 68.04 68.51 69.43 70.11 69.65 68.65 68.14 67.41 66.96 68.29 68.15 68.91 70.41 69.53 72.05 72.25 70.40 69.67 67.35 63.83 67.17 69.30 71.39 71.23 69.33 67.59 68.13 68.00 66.18 66.36 63.39 60.76 65.43 67.02 68.17 68.35 68.92 70.31 71.43 72.42 72.93
68.83 69.22 68.62 69.00 69.81 69.50 69.25 69.05 67.99 67.16 67.44 68.98 68.96 68.64 68.72 68.70 71.46 72.78 69.34 70.34 68.13 68.51 69.34 70.11 70.95 71.03 70.86 68.23 66.49 65.91 65.38 64.77 65.24 63.71 60.80 61.91 65.06 67.86 68.55 69.05 69.81 70.68 72.00
68.64 69.18 69.26 68.75 69.26 69.69 68.85 69.04 68.48 67.79 68.00 68.22 68.02 68.71 68.56 69.43 70.38 71.11 71.99 70.72 70.23 69.40 68.06 68.56 70.79 71.08 70.73 69.70 66.89 64.81 64.01 62.93 62.95 63.93 61.65 60.50 62.15 64.98 67.97 69.05 68.83 69.25 70.72

GFSSE_sfc_wetblb_114.txt.gz
Wetbulb
66.39 69.56 72.74 73.19 73.50 74.76 75.77 76.70 76.81 76.71 76.13 76.39 76.70 76.11 76.32 76.23 76.44 76.43 75.84 76.13 75.94 76.22 76.61 76.59 76.06 76.70 76.73 76.59 76.55 76.17 76.30 76.40 76.37 76.06 75.93 76.05 75.68 75.59 75.63 75.66 75.22 74.27 75.79
67.99 70.89 73.42 73.06 72.88 74.49 76.47 76.60 76.54 76.66 76.43 75.92 76.55 76.04 76.50 76.04 76.01 76.10 75.94 76.33 76.21 76.32 76.38 76.58 76.69 76.58 76.52 76.72 76.31 76.27 75.85 76.06 76.28 76.09 76.21 76.10 76.24 75.93 75.29 75.01 75.01 74.37 75.26
69.42 72.53 72.85 74.79 74.65 75.77 76.66 76.62 76.29 76.30 76.42 76.29 76.06 76.25 76.34 76.34 76.52 76.42 76.05 75.98 76.11 76.21 76.37 76.19 76.14 76.03 75.98 76.23 76.22 76.01 75.80 75.68 76.11 76.07 75.98 75.14 74.74 75.28 74.76 74.80 74.26 73.98 74.06
71.44 72.54 72.90 75.46 75.38 76.35 76.78 76.51 76.23 76.31 76.46 76.57 76.17 76.09 76.26 76.14 75.88 75.32 75.21 75.64 76.31 76.12 76.05 76.06 76.07 76.03 75.76 75.97 76.41 76.71 76.54 76.42 76.27 75.83 74.28 74.63 74.49 76.06 76.04 75.76 75.54 75.67 75.43
71.89 72.46 73.31 75.33 75.97 76.14 76.23 76.16 76.05 75.77 76.13 76.04 76.42 76.29 75.86 75.97 75.86 75.57 75.76 75.57 76.50 75.82 76.12 76.31 75.86 75.96 76.07 76.68 76.38 76.53 76.14 76.04 76.04 74.51 74.13 74.65 74.82 75.51 75.82 75.67 75.31 75.40 75.31
71.18 71.81 73.98 75.29 75.63 75.88 75.98 76.13 76.33 76.23 76.46 76.31 76.15 76.11 76.60 76.17 76.15 76.21 76.02 76.42 76.15 75.79 75.89 76.36 76.27 76.45 76.06 76.86 76.67 76.36 76.09 75.82 75.10 73.98 74.15 74.98 74.58 76.11 75.67 75.55 75.40 75.56 75.13
70.67 72.12 73.53 75.70 76.17 76.44 76.06 76.23 76.33 76.60 76.34 76.47 76.49 76.46 76.33 76.28 76.33 75.94 75.84 76.36 75.98 75.54 75.79 75.98 76.06 75.96 76.40 76.45 75.83 75.26 75.56 75.53 73.03 73.50 73.70 74.45 75.14 76.06 75.56 75.31 74.53 74.90 74.97
71.76 72.77 73.13 75.10 75.56 76.39 76.16 76.42 76.29 76.57 76.33 76.01 76.25 75.97 75.97 75.91 76.13 76.24 76.66 76.55 75.43 75.21 75.40 75.48 75.43 76.03 76.31 76.29 75.41 74.44 74.57 74.43 72.56 72.78 73.21 73.83 74.95 74.82 74.53 74.61 74.32 74.63 74.81
73.08 72.77 73.03 73.82 74.65 76.17 76.46 76.54 76.71 76.46 76.37 76.39 76.50 76.36 76.31 76.21 76.61 75.65 75.40 75.13 74.72 74.61 74.68 74.79 74.93 75.40 75.89 75.86 75.43 74.84 73.74 73.75 71.22 71.89 72.41 73.14 74.77 73.88 73.89 73.58 73.51 73.37 73.22
72.21 72.54 72.06 72.44 73.28 73.54 74.32 76.40 76.60 76.57 76.51 76.40 76.37 76.57 76.71 76.64 76.50 76.61 76.06 75.93 74.92 74.47 74.30 74.29 74.55 74.91 75.26 75.70 75.61 74.72 73.94 73.21 70.44 71.15 72.02 73.23 74.40 73.23 73.30 73.04 72.82 72.75 72.75
71.14 71.23 71.54 72.09 72.38 72.79 74.05 75.15 76.43 76.86 76.68 76.13 75.93 76.80 74.75 73.40 74.26 74.40 75.63 75.82 75.96 75.57 75.03 74.70 74.76 75.15 75.28 74.79 75.04 74.68 74.07 70.08 69.97 70.81 71.45 73.78 73.47 72.72 72.71 72.76 72.70 72.70 72.78
69.55 70.43 70.90 71.39 71.85 72.83 74.97 72.53 73.28 74.85 73.05 74.06 73.47 72.62 72.41 72.21 73.15 73.97 75.70 75.08 74.36 72.63 73.38 73.95 73.96 74.92 72.50 70.61 71.18 73.22 70.75 69.88 69.46 70.08 70.86 72.92 72.44 72.39 72.47 72.45 72.31 72.38 72.49
69.30 70.78 70.63 70.60 71.83 71.85 72.21 72.38 72.70 72.97 72.94 73.13 72.49 72.08 72.53 72.37 70.16 69.26 68.48 68.04 67.50 70.17 68.54 69.17 69.64 70.05 71.03 72.26 72.98 71.75 71.69 68.72 69.03 69.92 70.96 73.12 73.05 72.74 72.58 72.65 72.58 72.95 73.40
68.71 70.05 70.43 70.77 71.30 71.25 72.43 72.03 71.74 71.55 71.37 71.22 71.97 72.27 71.90 70.90 68.78 66.46 65.10 65.76 67.19 69.70 70.33 70.68 70.87 70.93 70.42 71.27 71.92 72.55 68.76 69.83 69.14 70.12 71.47 73.27 73.67 73.47 73.32 72.83 72.85 73.17 73.60
68.30 68.99 69.66 70.36 70.60 71.33 72.03 71.76 71.66 71.16 70.50 70.84 71.45 72.40 71.41 71.05 69.31 66.79 67.47 69.02 69.90 70.81 71.19 70.96 70.29 70.19 69.32 69.99 69.64 71.82 68.66 69.27 69.89 70.66 72.11 74.03 74.46 74.41 73.72 73.30 73.41 73.92 74.30
68.18 68.12 69.22 69.34 69.82 71.04 71.42 71.33 71.03 69.58 69.27 70.59 71.63 72.26 70.82 70.40 69.57 67.76 67.93 69.93 70.87 71.15 71.20 71.06 70.89 70.18 69.83 70.26 69.08 69.02 70.07 68.94 69.27 69.81 71.00 70.81 74.54 74.07 74.03 74.11 74.39 74.72 74.94
67.12 68.08 68.32 68.80 69.32 70.59 71.00 70.81 70.99 70.37 68.37 71.04 71.30 71.62 71.22 69.44 69.96 68.80 68.52 70.51 71.18 69.62 72.40 71.99 71.73 71.42 71.62 71.76 69.72 68.94 68.61 68.69 68.92 68.59 69.22 69.61 70.59 73.30 74.43 74.56 75.20 76.15 75.77
67.36 67.91 68.73 70.22 69.34 70.26 70.14 70.45 70.73 70.64 69.47 70.58 69.61 71.71 71.80 71.08 70.48 69.74 70.17 70.80 71.13 69.43 72.39 72.26 71.90 71.21 71.38 70.88 69.63 69.36 69.11 68.35 68.19 68.04 68.31 69.45 69.98 69.97 71.13 73.25 75.95 76.59 75.72
67.92 67.97 68.13 69.41 69.40 69.80 69.99 69.93 70.10 70.74 70.87 70.57 69.06 71.73 70.80 70.42 70.53 70.71 72.07 71.95 72.37 72.94 72.74 72.22 72.65 71.01 70.83 69.77 69.77 70.03 70.23 69.91 68.78 67.71 68.10 68.56 68.82 69.97 70.16 70.63 72.61 74.39 75.30
67.98 68.17 68.39 69.10 69.38 69.82 70.31 70.23 70.66 70.29 70.70 70.31 69.77 71.78 71.19 71.00 72.54 72.74 71.88 70.73 72.15 73.02 72.75 72.55 72.41 71.94 70.54 70.24 69.83 70.16 69.84 70.22 70.63 71.29 71.09 70.81 70.02 70.79 70.82 71.44 71.97 72.22 74.15
67.51 66.73 67.76 68.89 69.55 69.43 68.54 68.28 68.75 68.78 69.99 70.60 71.64 72.55 72.18 72.30 73.16 72.47 71.49 69.37 72.25 71.95 71.08 73.42 72.62 71.47 71.18 70.51 70.59 69.23 68.63 69.52 70.22 71.32 71.05 71.26 72.14 72.94 72.70 73.03 73.17 73.70 73.68
66.83 66.54 67.80 68.86 68.81 69.20 69.06 68.70 69.70 69.89 70.88 71.16 72.09 72.92 72.72 72.79 73.27 72.40 71.43 71.03 71.98 70.08 71.55 73.17 73.00 71.48 71.19 71.09 70.51 66.61 65.41 67.20 68.79 69.67 71.28 71.26 71.42 72.13 73.00 74.02 74.43 74.66 75.44
66.65 66.32 67.35 68.57 68.39 69.49 70.05 69.86 70.10 70.66 70.64 70.50 71.50 71.85 72.42 73.15 73.26 73.05 72.22 71.85 71.34 68.93 70.32 72.32 73.62 72.29 71.06 70.44 70.36 69.67 66.71 65.19 66.45 69.87 69.95 70.50 70.56 71.79 72.50 73.53 74.58 75.12 75.35
66.83 67.66 67.63 68.65 68.15 69.63 70.26 69.59 69.33 68.51 67.92 69.25 70.59 71.20 71.94 71.85 72.94 72.52 72.35 71.02 69.70 67.25 71.43 72.65 73.40 73.28 71.71 70.67 70.61 68.85 69.03 70.09 66.78 65.71 69.12 69.02 70.02 70.36 71.30 72.06 72.95 73.48 73.92
67.32 67.88 67.87 68.50 68.78 70.03 69.63 69.75 68.87 68.38 68.87 70.18 70.36 70.58 71.09 70.98 72.78 73.70 72.00 71.86 69.79 71.49 72.12 73.35 73.53 73.76 73.22 70.54 70.28 69.70 68.67 68.21 67.93 67.77 65.94 66.90 68.35 69.77 71.59 71.85 71.59 72.27 72.80
68.01 68.61 68.21 68.54 69.05 69.59 69.46 69.35 69.13 68.46 68.43 69.23 69.47 69.46 70.27 70.78 71.64 72.81 72.78 71.05 72.12 71.79 71.30 72.35 73.60 73.43 73.23 71.24 68.95 68.66 68.70 68.46 68.06 68.12 67.10 65.78 66.16 69.25 70.11 71.16 71.79 72.03 73.16

GFSSE_sfc_wetblb_117.txt.gz
Wetbulb
68.98 70.10 73.24 74.23 74.18 74.22 74.45 76.27 76.53 76.55 76.92 77.18 77.10 76.51 76.55 76.26 76.19 76.11 76.58 76.19 76.38 76.59 76.64 76.69 76.83 77.01 76.96 76.78 76.42 76.31 76.27 76.82 76.14 76.06 76.00 76.04 76.15 75.94 75.99 75.69 76.29 74.98 75.63
69.42 70.92 72.65 73.08 73.69 74.82 76.15 76.43 76.77 76.53 76.12 76.09 76.56 76.75 76.47 76.21 76.42 76.12 76.76 76.42 76.37 76.71 76.99 76.80 76.68 76.92 76.83 76.70 76.39 76.00 75.68 76.07 76.26 76.05 76.24 76.44 76.05 75.51 75.74 75.72 75.84 75.90 75.77
69.59 71.96 72.47 72.84 73.24 75.16 76.34 76.35 76.64 76.65 75.93 75.88 76.29 76.35 76.23 76.26 76.13 76.14 76.16 76.48 76.83 76.45 76.56 76.36 76.28 76.56 76.90 76.79 76.24 76.39 76.34 76.65 76.26 76.17 75.93 75.37 74.11 74.85 74.24 74.30 74.46 74.28 74.33
71.85 72.34 72.86 74.51 74.58 74.20 76.40 76.04 76.35 76.57 76.52 76.43 76.51 76.48 76.43 76.20 75.53 75.92 76.23 76.47 76.33 76.03 75.96 76.11 76.06 76.20 76.76 76.85 76.86 76.77 76.63 76.58 76.39 75.95 75.96 75.74 75.34 75.87 75.94 75.93 75.80 76.02 75.60
73.24 73.67 74.21 75.22 75.63 75.35 76.36 76.01 76.14 76.25 76.08 76.69 76.44 76.12 76.10 75.89 75.46 75.51 76.22 76.69 76.23 76.21 75.85 75.62 75.79 76.17 76.54 76.62 76.68 76.44 76.30 76.23 75.74 75.63 75.58 75.73 75.76 75.98 76.21 75.54 75.72 75.57 75.44
73.52 74.00 75.00 76.09 76.07 76.05 76.30 76.39 76.21 76.35 76.54 76.49 76.54 76.39 76.09 76.52 76.32 76.38 76.24 76.18 76.31 76.43 76.54 76.50 76.43 76.81 76.81 76.58 76.35 76.12 76.03 75.98 75.57 75.76 75.61 75.77 76.32 76.11 75.88 76.14 75.97 75.52 75.44
73.12 73.93 73.99 75.99 75.74 76.11 76.12 76.44 76.20 76.35 76.53 76.52 75.89 76.26 76.24 76.35 76.27 75.89 76.42 76.20 76.12 76.27 76.29 76.23 76.40 76.82 76.36 75.72 75.38 75.75 75.60 75.40 75.63 75.30 75.65 76.03 76.40 76.29 75.52 75.27 75.43 75.60 74.26
72.21 74.51 74.80 75.56 76.15 76.16 75.99 76.38 76.36 76.32 76.42 76.12 76.46 76.22 76.23 76.34 76.04 76.16 76.16 75.60 75.96 76.07 75.82 75.90 76.50 76.53 76.69 75.60 74.67 74.88 74.97 74.58 74.98 75.67 74.99 74.69 75.31 75.32 75.06 74.91 74.87 75.17 74.94
73.50 73.62 75.39 75.17 75.75 75.89 76.30 76.43 76.19 76.43 76.16 76.22 76.50 76.40 76.30 76.03 76.04 75.71 75.37 75.29 75.48 75.62 75.40 75.57 75.81 76.19 76.14 75.75 75.25 73.98 74.22 73.96 74.45 75.34 74.25 74.19 74.54 74.26 73.78 73.79 73.72 73.39 73.24
73.81 73.90 75.30 75.02 75.60 75.78 76.34 76.37 76.62 76.54 76.26 76.20 76.52 76.05 76.29 76.59 76.47 76.03 76.37 76.04 74.97 75.08 74.92 75.07 75.21 75.56 76.08 75.99 75.27 74.47 73.79 72.12 71.38 73.03 73.65 73.71 73.96 73.34 73.37 73.25 73.21 73.40 73.65
73.08 73.54 74.42 74.65 75.59 76.64 76.62 76.65 76.59 76.16 76.44 76.32 76.72 76.64 76.65 75.78 75.54 75.04 76.23 75.90 75.53 74.96 74.82 75.03 75.18 75.28 74.89 75.37 74.98 75.14 74.07 74.13 71.19 71.95 72.90 72.85 72.56 72.91 72.88 73.04 72.96 72.95 72.90
71.30 72.86 73.82 74.74 74.88 75.76 75.72 76.56 77.13 76.49 77.32 76.93 76.71 76.59 75.90 75.78 76.37 76.06 75.31 74.40 73.95 73.04 74.30 74.16 74.16 74.34 74.13 75.91 75.94 74.90 75.89 74.63 72.83 71.80 72.42 72.66 72.36 72.48 72.50 72.65 72.63 72.65 72.89
71.51 72.47 73.90 74.96 75.62 75.95 75.93 75.84 76.00 76.01 76.33 76.49 76.27 76.11 75.92 75.76 74.26 73.43 72.90 72.77 73.20 72.16 73.86 74.11 74.69 75.63 74.58 76.12 77.04 77.00 75.86 74.33 72.97 71.78 72.39 72.61 72.62 72.69 72.75 72.66 72.71 73.13 73.72
70.98 72.23 73.66 74.41 75.22 75.84 75.45 75.93 75.54 74.94 75.12 74.65 75.37 76.04 75.76 73.85 73.04 72.52 71.26 72.27 73.86 74.28 74.80 75.63 75.81 75.13 74.85 74.88 75.11 76.33 73.92 73.90 72.44 72.11 72.36 72.68 73.13 73.60 73.57 72.86 72.86 73.18 73.92
70.26 71.77 72.81 74.06 75.10 75.50 75.73 75.24 75.40 74.51 73.72 74.61 75.72 76.34 76.64 75.53 74.15 72.43 73.31 74.46 75.30 76.14 76.09 76.05 75.64 75.22 75.00 74.14 73.72 75.05 73.69 72.88 72.59 72.40 73.49 73.26 74.22 74.36 74.11 73.71 73.77 74.40 74.80
70.32 71.38 72.83 73.46 74.85 75.31 74.86 75.69 75.06 74.55 74.32 75.11 76.14 76.41 75.81 76.01 75.23 73.90 73.44 75.10 75.72 76.04 76.74 76.64 76.23 75.67 75.66 74.27 73.56 74.00 74.14 73.01 72.43 72.26 72.94 73.53 74.22 74.83 73.86 74.25 74.66 75.29 75.46
70.83 71.95 72.37 72.92 74.10 74.73 75.02 75.29 75.37 74.77 74.19 75.15 76.00 76.37 75.42 74.88 75.07 75.23 73.86 75.17 74.91 73.97 76.79 76.89 76.74 77.06 76.58 74.19 73.85 73.46 73.12 72.73 72.08 72.06 72.83 73.45 73.64 72.36 73.72 74.51 75.12 75.84 75.82
71.28 71.96 72.72 72.03 72.91 73.79 74.62 75.15 74.99 74.82 74.08 75.46 75.94 76.19 75.53 74.76 75.17 74.99 75.27 75.13 74.80 75.37 77.33 77.25 76.94 76.05 75.66 74.35 74.08 73.68 73.47 73.81 73.48 73.13 73.38 73.71 74.45 73.83 73.43 72.31 73.60 75.35 75.75
71.69 72.14 72.31 72.99 72.97 73.74 75.08 74.93 75.06 75.10 73.77 75.69 75.08 76.33 75.62 75.10 74.51 75.40 75.85 75.95 77.15 77.61 77.92 77.53 77.44 76.58 74.48 74.00 73.93 74.37 74.70 75.25 74.85 73.66 74.04 74.42 74.49 73.53 74.64 74.69 73.35 74.21 74.87
72.08 72.58 73.05 72.97 73.80 74.49 74.76 74.62 74.76 74.97 74.85 74.98 74.61 76.16 74.90 74.40 75.37 76.84 76.38 75.77 77.56 77.74 77.60 76.90 77.14 76.54 75.68 75.36 73.42 74.02 75.65 75.98 76.12 76.50 76.21 76.06 76.50 75.29 75.98 76.50 76.43 76.32 74.37
71.92 71.99 72.64 72.81 73.75 73.90 73.35 72.88 73.08 74.85 74.07 74.31 74.24 76.16 75.67 76.32 76.93 77.35 76.23 75.26 77.38 76.49 77.10 77.92 76.95 76.43 75.61 76.11 74.84 74.15 74.90 75.38 75.22 75.26 75.78 75.90 76.09 76.71 76.99 77.21 77.54 77.32 77.64
71.29 72.00 72.69 73.14 74.00 74.29 73.82 73.90 74.19 74.35 74.60 74.86 75.87 76.47 76.68 76.21 76.94 76.68 76.34 75.43 77.01 76.13 77.74 77.80 77.59 75.99 75.80 75.89 74.16 72.56 69.92 71.62 73.85 75.23 76.04 75.51 75.62 75.97 76.29 77.10 77.67 78.01 78.61
70.79 71.63 72.47 73.82 74.32 74.51 74.59 74.06 74.51 74.72 76.18 74.27 75.01 75.26 76.21 76.49 76.76 76.54 76.43 76.65 76.65 75.01 76.38 77.71 77.43 76.39 74.79 74.57 75.18 74.03 70.29 69.18 72.71 74.85 74.86 75.99 75.66 76.11 77.21 76.97 77.21 77.99 78.12
70.94 72.11 72.92 73.72 74.37 74.40 74.87 74.51 75.11 73.14 72.04 75.12 77.44 77.23 75.91 76.84 76.54 76.50 76.07 75.68 76.02 73.58 76.28 77.42 77.54 77.08 76.92 74.45 74.78 74.15 74.99 74.68 71.61 70.30 73.86 74.96 75.11 75.04 76.13 76.94 76.36 76.56 76.95
71.19 71.34 72.20 73.49 73.98 74.42 74.76 75.09 73.79 75.40 73.89 75.18 74.78 75.97 75.95 75.82 76.54 76.46 76.51 75.92 74.56 74.27 76.76 77.53 77.63 77.73 76.56 74.79 74.47 74.38 74.12 73.31 73.40 71.75 69.23 72.21 73.61 73.67 74.94 75.94 76.22 76.06 76.51
71.19 71.29 71.49 72.51 73.41 74.34 74.60 74.67 74.79 74.69 74.78 73.44 74.92 73.52 74.88 74.95 75.01 76.65 76.79 75.65 76.08 75.93 75.73 77.03 77.93 77.11 77.21 75.55 74.89 74.86 73.91 72.34 72.09 71.62 70.66 72.26 71.03 73.83 73.52 73.75 74.59 75.27 76.45

GFSSE_sfc_wetblb_120.txt.gz
Wetbulb
71.74 73.22 73.55 74.51 74.96 74.53 74.70 74.30 75.86 75.94 76.58 76.52 76.65 76.54 76.43 76.43 76.50 76.94 76.60 76.49 76.67 77.19 76.97 77.18 77.07 77.10 76.82 76.50 76.49 76.78 76.35 76.39 76.43 76.26 76.47 76.51 76.45 76.09 76.01 75.61 76.99 76.07 76.27
70.63 72.03 73.67 74.01 75.20 74.74 74.85 74.95 76.02 76.50 76.57 76.68 76.74 76.46 76.54 76.37 76.77 76.69 76.66 76.68 76.68 77.01 77.13 76.85 76.68 77.26 76.93 76.67 76.34 76.33 76.37 76.42 76.58 76.76 76.73 76.38 76.26 76.15 76.09 76.56 77.24 75.97 75.64
69.94 71.69 72.57 73.74 75.14 75.89 75.90 76.20 76.57 76.07 76.30 76.92 76.66 76.71 76.47 76.23 76.63 76.82 76.84 76.76 76.68 76.93 76.74 76.80 76.92 77.18 76.78 76.78 76.77 76.79 76.83 76.62 76.51 76.30 76.99 73.85 74.41 74.78 74.70 74.89 75.22 75.24 75.55
71.50 72.64 72.71 74.26 74.88 75.92 76.27 76.55 76.79 76.64 76.73 76.73 76.71 76.54 76.44 76.31 76.42 76.95 76.72 76.60 76.03 76.18 76.49 76.41 76.82 77.04 77.21 77.13 77.15 76.91 76.66 76.55 75.78 75.99 75.03 75.12 75.87 76.03 76.05 76.12 75.82 75.57 75.40
72.75 74.11 75.07 75.11 75.33 76.16 76.37 76.39 76.48 76.26 76.46 76.46 76.08 76.28 75.72 75.55 75.67 76.87 76.69 76.44 76.04 75.72 76.11 76.30 76.52 76.65 77.13 76.87 76.62 76.67 76.68 76.04 75.28 77.15 75.70 76.15 75.98 76.18 76.11 75.65 75.94 75.72 75.86
74.04 74.53 74.84 75.92 75.64 76.25 76.18 76.11 76.33 76.77 76.67 76.64 76.07 76.35 76.53 76.58 76.95 76.68 76.60 76.43 76.68 76.81 76.94 76.77 77.52 76.72 76.63 76.24 76.18 76.38 76.20 75.19 77.42 75.30 75.48 76.33 76.13 75.71 76.05 75.93 75.58 75.84 75.62
73.24 74.44 74.69 76.01 75.88 76.20 75.98 76.23 76.38 76.59 76.59 76.65 76.64 76.39 76.28 76.30 76.41 76.72 76.44 76.55 76.63 76.38 76.53 76.89 76.94 76.44 75.66 75.63 76.07 75.99 75.70 75.12 74.99 75.86 75.03 75.34 76.22 76.14 75.38 75.91 76.05 74.67 74.28
72.42 73.20 75.23 75.99 76.04 76.05 75.91 75.62 76.24 76.31 75.92 76.21 76.59 76.03 76.28 76.34 76.32 76.38 75.86 76.52 76.41 76.30 76.39 76.86 77.18 76.89 75.79 74.97 75.20 75.33 75.02 75.24 75.62 74.34 74.63 74.94 75.71 75.69 75.42 75.32 75.37 75.30 74.68
73.75 74.13 74.93 75.75 76.61 76.42 75.81 76.23 76.51 76.22 76.18 76.21 76.45 76.05 76.32 76.43 76.22 75.55 75.69 76.22 76.19 76.08 76.39 76.55 76.71 76.57 76.07 75.46 74.06 74.12 73.89 73.64 74.45 74.68 73.41 73.99 74.26 74.07 73.89 73.71 73.49 73.35 73.18
73.34 74.46 74.99 75.18 75.58 76.19 76.57 76.08 76.46 76.47 76.42 76.70 76.51 76.43 76.20 76.05 75.44 75.22 76.41 75.78 75.68 75.71 75.89 75.89 76.16 76.68 76.12 75.56 75.01 74.38 72.93 72.49 72.13 73.10 73.06 73.91 73.83 73.64 73.37 73.22 73.38 73.72 73.63
72.52 73.86 74.84 74.85 75.82 76.77 76.75 76.61 76.11 76.55 76.33 76.54 75.83 75.58 76.10 74.36 74.78 76.02 76.16 75.23 75.16 74.94 75.17 75.10 75.55 75.64 75.75 75.83 75.73 74.85 75.06 71.78 71.27 72.45 72.46 73.15 73.36 73.29 73.01 72.92 72.56 72.45 72.50
71.11 72.06 74.14 74.70 74.86 75.82 75.68 77.00 77.43 76.21 76.09 76.12 75.80 75.59 74.68 75.30 76.22 74.93 75.24 74.73 75.04 75.24 75.24 75.46 75.30 74.70 74.88 76.53 75.92 75.85 74.55 72.88 71.88 72.63 72.42 73.29 72.98 72.71 72.44 72.35 72.54 72.75 73.12
71.45 72.16 74.05 74.53 75.61 75.62 75.64 75.64 75.99 75.43 75.68 75.99 76.23 75.20 75.59 74.83 74.90 74.57 74.50 74.27 74.68 73.90 75.14 75.20 75.83 76.66 75.86 75.87 75.78 73.78 73.37 73.65 72.29 72.86 72.46 73.00 72.82 72.93 72.74 72.63 72.79 73.47 73.99
71.32 72.16 73.90 74.60 75.75 76.14 75.65 75.13 74.97 74.93 75.00 74.30 75.45 76.48 75.77 74.09 74.63 74.84 74.05 74.42 75.67 75.67 75.79 77.11 76.14 76.69 76.23 75.96 74.90 73.88 73.66 72.88 72.59 73.23 72.31 72.79 72.93 73.53 73.78 73.07 73.21 73.56 74.30
71.06 72.42 73.56 74.67 75.87 76.25 76.14 75.16 74.73 74.45 74.54 75.22 75.72 76.62 76.39 74.97 73.92 74.78 75.13 75.91 77.06 76.99 77.20 77.70 77.18 76.31 75.91 74.92 75.34 74.51 73.10 73.24 72.74 73.86 74.03 73.24 73.35 73.87 74.41 74.28 74.47 74.75 75.32
71.46 72.38 73.46 74.24 75.75 76.13 75.52 75.56 74.59 74.61 74.93 75.43 75.55 76.19 76.89 75.67 76.13 75.12 75.91 75.69 76.72 78.11 77.96 77.76 76.96 76.21 75.13 74.80 75.22 74.83 73.56 73.43 73.65 74.31 74.71 74.56 74.76 74.94 74.52 74.62 75.01 75.45 75.89
71.71 72.86 73.20 74.25 75.54 75.81 75.71 76.82 75.20 74.84 74.67 75.01 75.60 77.21 76.45 77.02 76.67 77.84 75.83 76.50 76.55 78.18 78.44 77.69 77.13 76.56 74.46 74.32 74.97 75.28 75.15 74.63 73.97 73.95 75.08 75.44 74.31 73.05 74.16 74.89 75.33 75.84 76.06
71.94 72.68 73.54 73.60 74.76 75.87 75.97 76.29 75.27 75.14 75.57 75.80 76.68 76.76 77.14 76.90 77.66 77.37 76.39 76.44 77.74 78.68 78.00 76.92 75.95 74.53 74.62 74.07 73.89 74.12 74.95 75.36 75.69 75.34 75.80 77.13 77.45 76.72 74.44 74.94 74.63 74.94 75.22
72.23 72.91 73.15 73.43 74.35 75.55 76.45 76.09 76.09 76.66 75.79 76.46 76.31 76.58 77.59 76.72 76.86 78.07 76.47 77.06 79.80 79.13 79.02 77.92 75.97 75.79 74.07 73.83 73.53 74.71 75.27 75.30 75.94 75.41 76.38 76.77 77.08 76.60 77.70 75.61 74.72 74.95 74.88
72.53 73.45 73.61 74.15 75.22 76.00 76.17 76.54 75.85 75.31 75.57 76.13 76.17 76.32 76.86 76.81 77.09 78.16 76.58 78.45 78.69 78.11 77.89 77.65 77.94 77.63 76.98 76.29 74.08 74.16 76.16 75.45 76.47 77.35 76.84 76.29 77.73 77.78 77.59 79.05 78.55 78.37 75.73
72.98 73.49 74.37 74.52 75.75 75.37 74.71 74.11 73.91 73.29 75.07 75.19 75.91 77.05 77.18 77.71 78.07 78.62 76.76 77.63 78.83 77.97 78.01 79.15 77.44 77.22 75.78 77.82 74.47 74.05 74.60 75.16 74.85 75.46 76.23 76.28 77.05 76.88 77.85 78.70 78.90 78.75 78.53
72.46 73.47 74.43 75.04 75.72 76.02 75.75 75.99 75.17 74.35 74.98 75.30 75.75 76.85 76.91 77.53 77.63 77.87 78.52 77.37 78.36 77.68 79.51 79.05 78.58 76.09 76.91 78.30 74.46 73.88 69.41 71.56 72.83 74.64 76.13 76.30 76.24 76.93 76.88 77.82 78.53 79.40 79.85
72.49 73.03 74.08 75.26 75.84 76.16 76.55 75.78 75.56 77.81 76.06 75.73 75.46 75.59 76.45 77.35 77.45 78.26 78.07 77.90 78.58 77.29 77.08 78.90 78.54 77.28 74.71 77.66 77.61 74.11 69.69 69.28 72.13 74.44 75.69 76.01 77.93 76.75 77.50 78.50 78.26 79.67 80.37
72.72 73.70 74.23 75.24 76.13 76.32 76.65 76.87 76.17 73.59 72.19 75.82 75.47 76.15 77.02 77.15 77.24 77.59 77.46 77.98 78.45 77.23 78.10 78.43 78.94 78.36 78.00 75.53 76.71 76.94 77.20 76.43 70.70 70.13 74.25 75.54 76.46 76.15 77.95 77.03 78.11 78.70 79.42
73.24 73.49 74.18 75.30 76.43 76.71 77.03 77.30 74.30 74.11 73.66 74.32 74.86 75.95 76.56 77.69 77.72 76.90 78.04 77.98 77.59 75.93 77.66 78.74 78.26 79.10 77.85 75.45 74.60 76.23 76.48 75.30 76.16 71.91 69.25 73.20 75.02 76.05 75.73 76.19 76.82 76.75 78.49
73.35 73.56 73.95 74.77 75.83 75.90 76.78 76.10 75.92 74.87 74.48 74.40 74.32 73.95 75.34 74.96 75.88 77.69 77.71 78.23 78.00 77.63 77.05 77.42 78.75 78.24 78.23 77.40 76.24 76.23 74.07 72.68 72.60 72.05 70.72 72.12 72.30 74.75 75.52 76.48 76.29 76.85 78.48

GFSSE_sfc_wetblb_123.txt.gz
Wetbulb
70.99 73.45 74.89 74.09 74.04 73.65 73.90 74.54 73.97 75.62 75.59 75.73 76.25 76.60 76.49 76.37 76.81 76.62 76.52 76.66 76.74 76.86 77.05 77.17 77.05 76.97 77.00 76.74 77.09 76.50 76.71 76.60 76.73 76.52 76.58 76.48 76.25 76.24 76.09 75.56 77.96 75.98 76.63
72.93 74.28 75.07 75.23 74.72 74.55 73.53 73.89 75.23 75.78 76.00 76.38 76.38 76.41 76.57 76.67 76.50 76.69 76.78 76.82 77.01 76.99 77.00 77.07 77.00 77.03 77.01 76.76 76.76 76.70 76.74 76.77 76.82 76.72 76.59 76.72 76.55 76.26 76.38 77.01 77.18 75.73 76.32
70.78 73.67 74.05 75.70 74.91 74.57 74.36 74.70 75.93 76.04 76.23 76.21 76.40 76.58 76.55 76.79 76.79 76.90 77.05 76.84 77.00 77.00 77.07 77.18 77.01 76.90 76.74 76.87 76.92 76.77 76.81 76.56 76.55 76.69 77.43 73.89 74.18 74.92 75.33 76.08 76.32 76.44 75.93
71.35 73.49 74.22 75.71 75.74 74.99 75.07 75.20 76.59 76.34 76.08 76.42 76.47 76.27 76.53 76.61 76.87 76.84 76.16 76.27 76.61 76.67 76.72 77.24 77.07 77.26 76.88 76.82 76.82 76.61 76.31 76.23 76.08 77.44 75.37 74.70 75.08 76.11 75.91 75.47 75.13 74.75 75.35
72.23 73.85 75.32 75.93 76.65 75.95 75.94 75.75 76.53 76.55 76.32 76.62 76.35 75.62 75.81 76.86 77.01 76.50 75.86 75.98 76.48 76.87 76.70 76.75 77.05 77.11 76.94 76.93 76.69 76.34 75.58 75.51 75.44 75.07 75.27 75.32 75.06 75.96 75.68 75.86 76.32 75.91 75.85
73.47 73.97 75.81 76.31 76.77 76.54 76.42 76.55 76.25 76.57 75.96 76.08 76.77 76.89 76.80 76.77 77.17 76.90 76.53 76.81 77.04 76.59 76.89 77.13 76.71 76.81 76.34 76.36 76.27 75.69 75.44 76.16 76.87 75.94 75.72 76.12 76.20 75.90 76.06 76.14 76.13 75.96 75.51
72.48 74.55 75.26 76.35 76.94 76.61 76.39 76.55 76.45 76.44 76.81 76.92 76.78 76.80 76.51 76.83 76.54 76.59 76.73 76.70 76.84 76.90 77.34 76.81 76.01 75.45 76.03 76.00 76.00 75.21 75.69 76.56 75.54 75.71 75.52 75.25 75.93 76.08 76.33 75.89 74.91 74.53 74.35
71.55 73.64 74.77 76.06 76.58 76.42 76.46 76.15 76.33 76.22 76.03 76.57 76.29 76.52 76.47 76.58 76.89 75.95 76.73 76.79 76.56 77.15 77.28 77.30 76.41 75.53 75.01 75.30 75.37 74.71 75.53 76.11 74.62 74.95 74.58 74.88 75.63 75.65 75.52 75.63 75.46 74.79 74.57
72.38 72.82 74.15 75.19 76.44 76.41 76.37 76.40 76.41 76.11 76.49 76.16 76.61 76.57 76.71 76.61 76.15 75.90 76.73 76.51 76.56 76.87 77.01 76.81 76.72 76.30 75.61 74.48 73.88 72.72 73.34 75.17 74.20 74.11 73.79 73.37 74.44 74.07 73.96 73.65 73.49 73.10 72.66
72.86 73.18 73.22 73.98 74.97 75.58 75.68 76.25 76.36 76.49 76.67 76.69 76.34 76.45 76.48 75.78 75.55 75.84 76.33 76.56 76.17 76.40 76.37 76.59 76.67 76.31 75.99 75.38 74.42 73.90 72.94 73.98 72.77 73.23 72.47 73.42 74.37 73.60 73.46 73.32 73.54 73.26 73.17
72.32 72.97 74.17 73.21 75.45 76.99 75.84 75.93 76.62 76.56 76.86 76.44 75.87 76.17 76.17 74.03 74.91 75.63 76.15 75.80 75.49 75.54 75.55 75.59 75.65 76.26 76.47 75.96 75.94 75.86 75.81 73.55 72.33 72.67 71.61 74.05 73.62 73.41 73.16 72.86 72.50 72.50 72.77
70.95 71.65 71.24 73.51 74.33 74.69 74.08 76.42 76.42 76.11 76.05 75.31 74.89 75.77 74.49 76.06 74.94 74.77 76.17 75.91 75.67 75.81 76.15 76.01 75.76 75.81 76.28 76.58 76.52 76.80 75.89 72.23 72.65 72.70 72.12 73.75 73.44 72.98 72.58 72.36 72.53 72.86 73.61
70.97 72.10 72.71 73.55 74.86 74.40 75.21 75.44 75.60 74.49 74.19 74.64 75.32 75.34 74.85 73.70 74.64 73.23 74.12 74.52 74.40 75.26 74.89 75.66 75.85 76.13 75.57 75.09 75.20 72.93 73.54 72.67 72.65 72.51 73.03 73.59 73.19 72.98 72.72 72.55 73.00 73.65 74.20
70.94 72.36 72.84 74.23 75.57 75.41 74.96 74.32 74.96 74.01 73.77 73.63 74.54 75.49 75.20 73.41 74.15 74.26 73.94 74.60 75.37 74.19 75.12 75.75 74.33 75.50 75.34 75.34 74.23 73.46 73.04 72.30 72.79 72.65 72.74 73.56 73.40 73.56 74.01 73.79 73.68 73.99 74.84
70.73 72.44 73.00 75.34 76.40 77.66 75.82 76.35 75.25 74.28 73.64 73.84 74.82 75.49 74.84 73.73 74.22 74.41 74.81 74.90 77.33 74.27 74.52 74.87 75.19 75.47 75.12 75.25 74.24 73.26 72.81 72.87 73.38 73.34 72.98 73.76 73.72 74.23 74.68 74.76 74.87 75.15 75.59
71.90 72.53 73.61 74.66 76.12 75.78 76.77 77.12 75.08 74.72 74.78 75.10 73.86 75.55 76.86 74.94 75.60 74.52 74.97 74.61 74.57 75.67 75.04 75.02 76.28 75.70 74.40 74.26 73.78 73.31 72.99 73.37 74.20 74.27 74.00 73.64 74.66 74.84 75.04 74.92 75.25 75.72 76.19
72.23 73.23 73.37 74.41 75.42 75.80 75.39 75.25 74.87 73.87 73.79 74.04 74.59 76.73 76.25 76.31 76.83 76.72 74.91 75.99 74.49 76.45 77.10 76.02 76.27 75.96 73.82 73.23 74.29 74.33 73.72 74.10 74.29 74.81 74.67 74.65 74.58 75.77 75.58 75.71 75.88 75.98 76.34
72.71 73.07 73.89 74.24 74.34 75.09 75.47 76.18 74.80 75.56 74.46 75.12 74.28 75.84 76.62 76.81 77.19 77.76 74.98 75.43 76.13 77.01 75.34 74.56 74.93 74.47 73.70 72.93 73.10 73.84 73.96 74.39 75.13 75.27 75.31 75.93 75.79 75.64 75.59 76.75 76.92 76.86 76.10
72.98 73.38 73.78 74.78 74.70 75.16 76.76 76.66 76.53 75.87 75.60 75.18 76.30 74.94 76.95 76.82 76.97 77.49 76.69 76.36 78.44 75.57 75.53 75.44 74.54 74.70 73.83 72.80 72.70 73.48 73.76 74.14 75.24 74.91 75.56 76.17 76.13 75.58 76.59 76.06 76.70 76.36 76.33
73.10 73.56 74.01 74.11 76.13 76.39 75.69 77.05 75.40 74.92 74.83 75.77 74.09 76.01 77.05 76.50 77.14 78.00 76.27 77.36 78.83 75.49 77.10 77.96 79.58 76.30 75.23 74.05 72.78 73.06 73.65 73.91 74.85 75.07 75.49 75.79 75.78 76.32 76.70 77.99 77.59 76.79 76.57
72.41 73.16 73.78 74.38 75.95 75.85 74.55 73.30 73.67 73.40 74.93 74.64 75.63 77.19 77.13 76.83 77.74 78.49 76.19 77.24 76.60 77.63 76.56 77.51 76.72 77.29 75.71 75.59 73.46 72.69 73.44 73.96 73.96 74.38 74.70 74.60 75.94 75.39 76.48 76.65 78.33 79.23 77.51
71.92 73.11 73.84 74.87 76.04 76.68 75.14 78.08 75.74 75.41 75.12 73.78 76.72 76.73 76.95 77.24 77.90 77.41 78.81 76.75 77.18 76.49 79.15 78.15 76.61 75.31 74.75 76.08 74.08 72.09 69.49 70.46 71.78 72.82 74.38 74.28 74.85 75.46 75.27 76.91 78.13 78.88 79.77
72.08 72.97 74.16 75.44 76.13 76.47 76.54 75.80 76.67 77.76 77.25 74.41 74.89 75.12 76.21 77.19 77.53 77.98 78.05 78.05 78.28 78.41 76.66 77.98 78.44 78.33 71.60 75.03 77.67 73.82 70.90 68.78 70.78 72.17 73.84 74.14 75.93 75.31 75.89 76.47 77.19 78.45 79.40
72.53 73.30 74.42 75.47 76.05 76.41 77.42 76.44 76.68 73.46 72.08 73.39 74.76 75.96 75.78 77.04 77.11 77.30 77.83 77.82 78.52 77.71 78.55 77.51 77.16 78.46 78.30 73.88 74.43 74.46 76.89 75.46 70.62 67.15 65.79 69.90 75.10 75.37 76.23 76.45 76.08 77.09 78.06
73.00 73.31 73.70 75.69 77.01 77.40 77.39 78.13 75.06 75.18 74.21 75.44 75.26 75.62 77.38 77.22 77.48 76.69 77.72 77.81 77.95 76.49 77.81 78.64 78.14 78.65 77.80 75.15 74.04 73.85 76.05 73.61 75.51 70.87 68.41 68.32 69.55 71.62 75.59 76.03 75.44 75.91 77.11
73.05 73.45 73.95 75.38 76.97 76.96 76.52 75.85 77.01 76.67 74.42 72.96 75.04 74.77 74.85 75.19 75.87 77.24 77.39 78.10 78.33 77.88 77.47 77.51 78.65 78.52 78.56 78.32 76.52 76.02 73.01 72.27 70.89 71.48 69.84 71.94 68.92 73.40 73.62 75.70 75.96 75.99 76.65